<?xml version='1.0' encoding='UTF-8'?><gpx version="1.1" creator="JPX - https://github.com/jenetics/jpx" xmlns="http://www.topografix.com/GPX/1/1"><trk><trkseg><trkpt lat="36.9176409" lon="15.145531"><ele>27.0</ele><time>2026-04-12T06:16:25.605Z</time></trkpt><trkpt lat="36.9177054" lon="15.1455144"><ele>27.000000000000004</ele><time>2026-04-12T06:16:31.606Z</time></trkpt><trkpt lat="36.917781" lon="15.1455278"><ele>27.000000000000004</ele><time>2026-04-12T06:16:42.605Z</time></trkpt><trkpt lat="36.9178665" lon="15.1455746"><ele>27.0</ele><time>2026-04-12T06:16:44.605Z</time></trkpt><trkpt lat="36.9179461" lon="15.145647"><ele>27.0</ele><time>2026-04-12T06:16:46.607Z</time></trkpt><trkpt lat="36.9180709" lon="15.1457245"><ele>27.0</ele><time>2026-04-12T06:16:48.606Z</time></trkpt><trkpt lat="36.9181353" lon="15.1457835"><ele>27.0</ele><time>2026-04-12T06:16:49.606Z</time></trkpt><trkpt lat="36.9182041" lon="15.1458392"><ele>27.0</ele><time>2026-04-12T06:16:50.605Z</time></trkpt><trkpt lat="36.9182662" lon="15.1458913"><ele>27.0</ele><time>2026-04-12T06:16:51.606Z</time></trkpt><trkpt lat="36.9183219" lon="15.1459465"><ele>27.0</ele><time>2026-04-12T06:16:52.606Z</time></trkpt><trkpt lat="36.9183829" lon="15.1459754"><ele>27.0</ele><time>2026-04-12T06:16:53.607Z</time></trkpt><trkpt lat="36.9184404" lon="15.1460128"><ele>27.0</ele><time>2026-04-12T06:16:54.606Z</time></trkpt><trkpt lat="36.9185456" lon="15.1460926"><ele>27.0</ele><time>2026-04-12T06:16:56.606Z</time></trkpt><trkpt lat="36.9186074" lon="15.1461387"><ele>27.0</ele><time>2026-04-12T06:16:57.606Z</time></trkpt><trkpt lat="36.9186743" lon="15.1461905"><ele>27.0</ele><time>2026-04-12T06:16:58.607Z</time></trkpt><trkpt lat="36.9187382" lon="15.1462521"><ele>27.0</ele><time>2026-04-12T06:16:59.605Z</time></trkpt><trkpt lat="36.91881" lon="15.1463171"><ele>27.0</ele><time>2026-04-12T06:17:00.606Z</time></trkpt><trkpt lat="36.9188797" lon="15.1463881"><ele>27.0</ele><time>2026-04-12T06:17:01.607Z</time></trkpt><trkpt lat="36.9189561" lon="15.14646"><ele>26.75</ele><time>2026-04-12T06:17:02.605Z</time></trkpt><trkpt lat="36.9190514" lon="15.1465478"><ele>26.5</ele><time>2026-04-12T06:17:03.605Z</time></trkpt><trkpt lat="36.9191459" lon="15.1466372"><ele>26.25</ele><time>2026-04-12T06:17:04.606Z</time></trkpt><trkpt lat="36.9192357" lon="15.1467227"><ele>26.0</ele><time>2026-04-12T06:17:05.607Z</time></trkpt><trkpt lat="36.9193138" lon="15.1468059"><ele>26.0</ele><time>2026-04-12T06:17:06.607Z</time></trkpt><trkpt lat="36.9193893" lon="15.1468914"><ele>26.0</ele><time>2026-04-12T06:17:07.606Z</time></trkpt><trkpt lat="36.9194446" lon="15.1469802"><ele>26.0</ele><time>2026-04-12T06:17:08.607Z</time></trkpt><trkpt lat="36.9194966" lon="15.1470777"><ele>26.0</ele><time>2026-04-12T06:17:09.605Z</time></trkpt><trkpt lat="36.919533" lon="15.1471872"><ele>26.0</ele><time>2026-04-12T06:17:10.606Z</time></trkpt><trkpt lat="36.9195783" lon="15.1472982"><ele>25.75</ele><time>2026-04-12T06:17:11.607Z</time></trkpt><trkpt lat="36.9196362" lon="15.1474139"><ele>25.5</ele><time>2026-04-12T06:17:12.606Z</time></trkpt><trkpt lat="36.9196976" lon="15.1475431"><ele>25.25</ele><time>2026-04-12T06:17:13.607Z</time></trkpt><trkpt lat="36.9197697" lon="15.147706"><ele>25.0</ele><time>2026-04-12T06:17:14.607Z</time></trkpt><trkpt lat="36.9198562" lon="15.1479225"><ele>25.0</ele><time>2026-04-12T06:17:15.606Z</time></trkpt><trkpt lat="36.9199501" lon="15.1481516"><ele>25.0</ele><time>2026-04-12T06:17:16.607Z</time></trkpt><trkpt lat="36.9200334" lon="15.148369"><ele>25.0</ele><time>2026-04-12T06:17:17.606Z</time></trkpt><trkpt lat="36.9201136" lon="15.148569"><ele>25.333333333333336</ele><time>2026-04-12T06:17:18.606Z</time></trkpt><trkpt lat="36.9201854" lon="15.1487533"><ele>25.666666666666664</ele><time>2026-04-12T06:17:19.607Z</time></trkpt><trkpt lat="36.9202578" lon="15.1489179"><ele>26.0</ele><time>2026-04-12T06:17:20.606Z</time></trkpt><trkpt lat="36.9203202" lon="15.1490755"><ele>26.0</ele><time>2026-04-12T06:17:21.605Z</time></trkpt><trkpt lat="36.9203743" lon="15.149222"><ele>26.0</ele><time>2026-04-12T06:17:22.606Z</time></trkpt><trkpt lat="36.9204177" lon="15.1493575"><ele>26.0</ele><time>2026-04-12T06:17:23.606Z</time></trkpt><trkpt lat="36.9204623" lon="15.1494875"><ele>26.0</ele><time>2026-04-12T06:17:24.605Z</time></trkpt><trkpt lat="36.9205392" lon="15.1496179"><ele>26.0</ele><time>2026-04-12T06:17:25.605Z</time></trkpt><trkpt lat="36.9205995" lon="15.1497608"><ele>26.0</ele><time>2026-04-12T06:17:26.605Z</time></trkpt><trkpt lat="36.9206481" lon="15.149903"><ele>26.0</ele><time>2026-04-12T06:17:27.606Z</time></trkpt><trkpt lat="36.92071" lon="15.1500476"><ele>26.0</ele><time>2026-04-12T06:17:28.605Z</time></trkpt><trkpt lat="36.9207431" lon="15.1501969"><ele>26.0</ele><time>2026-04-12T06:17:29.607Z</time></trkpt><trkpt lat="36.920818" lon="15.1503353"><ele>26.0</ele><time>2026-04-12T06:17:30.607Z</time></trkpt><trkpt lat="36.9208804" lon="15.1504774"><ele>26.0</ele><time>2026-04-12T06:17:31.606Z</time></trkpt><trkpt lat="36.9209421" lon="15.1506248"><ele>26.0</ele><time>2026-04-12T06:17:32.606Z</time></trkpt><trkpt lat="36.9210023" lon="15.1507751"><ele>25.75</ele><time>2026-04-12T06:17:33.605Z</time></trkpt><trkpt lat="36.9210632" lon="15.150928"><ele>25.5</ele><time>2026-04-12T06:17:34.607Z</time></trkpt><trkpt lat="36.9211324" lon="15.1510785"><ele>25.25</ele><time>2026-04-12T06:17:35.606Z</time></trkpt><trkpt lat="36.9211917" lon="15.1512339"><ele>25.0</ele><time>2026-04-12T06:17:36.605Z</time></trkpt><trkpt lat="36.9212591" lon="15.1513889"><ele>24.5</ele><time>2026-04-12T06:17:37.607Z</time></trkpt><trkpt lat="36.9213203" lon="15.151543"><ele>24.0</ele><time>2026-04-12T06:17:38.607Z</time></trkpt><trkpt lat="36.9213809" lon="15.1516947"><ele>23.5</ele><time>2026-04-12T06:17:39.607Z</time></trkpt><trkpt lat="36.921447" lon="15.1518414"><ele>23.0</ele><time>2026-04-12T06:17:40.605Z</time></trkpt><trkpt lat="36.9215093" lon="15.1519934"><ele>23.0</ele><time>2026-04-12T06:17:41.605Z</time></trkpt><trkpt lat="36.9215693" lon="15.1521414"><ele>23.0</ele><time>2026-04-12T06:17:42.606Z</time></trkpt><trkpt lat="36.9216328" lon="15.1522949"><ele>23.0</ele><time>2026-04-12T06:17:43.605Z</time></trkpt><trkpt lat="36.9216877" lon="15.1524494"><ele>23.0</ele><time>2026-04-12T06:17:44.607Z</time></trkpt><trkpt lat="36.9217654" lon="15.1526326"><ele>22.0</ele><time>2026-04-12T06:17:45.604Z</time></trkpt><trkpt lat="36.921866" lon="15.1528364"><ele>21.0</ele><time>2026-04-12T06:17:46.605Z</time></trkpt><trkpt lat="36.92199" lon="15.153078"><ele>20.0</ele><time>2026-04-12T06:17:47.606Z</time></trkpt><trkpt lat="36.9221094" lon="15.1533245"><ele>19.666666666666668</ele><time>2026-04-12T06:17:48.606Z</time></trkpt><trkpt lat="36.9222263" lon="15.1535657"><ele>19.333333333333332</ele><time>2026-04-12T06:17:49.606Z</time></trkpt><trkpt lat="36.9223324" lon="15.1537922"><ele>19.0</ele><time>2026-04-12T06:17:50.606Z</time></trkpt><trkpt lat="36.9224453" lon="15.1540083"><ele>19.0</ele><time>2026-04-12T06:17:51.606Z</time></trkpt><trkpt lat="36.9225591" lon="15.1542175"><ele>19.0</ele><time>2026-04-12T06:17:52.607Z</time></trkpt><trkpt lat="36.9226717" lon="15.1544234"><ele>19.0</ele><time>2026-04-12T06:17:53.605Z</time></trkpt><trkpt lat="36.9227792" lon="15.1546322"><ele>19.0</ele><time>2026-04-12T06:17:54.606Z</time></trkpt><trkpt lat="36.9228823" lon="15.154821"><ele>19.0</ele><time>2026-04-12T06:17:55.605Z</time></trkpt><trkpt lat="36.9229776" lon="15.1549908"><ele>19.0</ele><time>2026-04-12T06:17:56.606Z</time></trkpt><trkpt lat="36.9230526" lon="15.1551261"><ele>19.0</ele><time>2026-04-12T06:17:57.605Z</time></trkpt><trkpt lat="36.9231069" lon="15.1552555"><ele>19.0</ele><time>2026-04-12T06:17:58.605Z</time></trkpt><trkpt lat="36.923136" lon="15.1553881"><ele>19.0</ele><time>2026-04-12T06:17:59.605Z</time></trkpt><trkpt lat="36.9231512" lon="15.1555106"><ele>19.0</ele><time>2026-04-12T06:18:00.604Z</time></trkpt><trkpt lat="36.9231616" lon="15.1556097"><ele>19.0</ele><time>2026-04-12T06:18:01.605Z</time></trkpt><trkpt lat="36.9231838" lon="15.1556935"><ele>19.2</ele><time>2026-04-12T06:18:02.605Z</time></trkpt><trkpt lat="36.923247" lon="15.1557356"><ele>19.4</ele><time>2026-04-12T06:18:03.605Z</time></trkpt><trkpt lat="36.9233323" lon="15.1557735"><ele>19.6</ele><time>2026-04-12T06:18:04.605Z</time></trkpt><trkpt lat="36.9234282" lon="15.1558302"><ele>19.8</ele><time>2026-04-12T06:18:05.607Z</time></trkpt><trkpt lat="36.9235112" lon="15.1559397"><ele>20.0</ele><time>2026-04-12T06:18:06.604Z</time></trkpt><trkpt lat="36.9235856" lon="15.1560587"><ele>20.25</ele><time>2026-04-12T06:18:07.606Z</time></trkpt><trkpt lat="36.9236576" lon="15.1561791"><ele>20.5</ele><time>2026-04-12T06:18:08.605Z</time></trkpt><trkpt lat="36.9237323" lon="15.1562866"><ele>20.75</ele><time>2026-04-12T06:18:09.607Z</time></trkpt><trkpt lat="36.9238099" lon="15.1564089"><ele>21.0</ele><time>2026-04-12T06:18:10.606Z</time></trkpt><trkpt lat="36.9238818" lon="15.1565451"><ele>21.0</ele><time>2026-04-12T06:18:11.606Z</time></trkpt><trkpt lat="36.9239601" lon="15.1566772"><ele>21.0</ele><time>2026-04-12T06:18:12.605Z</time></trkpt><trkpt lat="36.9240334" lon="15.1568108"><ele>21.0</ele><time>2026-04-12T06:18:13.607Z</time></trkpt><trkpt lat="36.9241153" lon="15.1569466"><ele>21.0</ele><time>2026-04-12T06:18:14.605Z</time></trkpt><trkpt lat="36.9241947" lon="15.1570838"><ele>21.25</ele><time>2026-04-12T06:18:15.606Z</time></trkpt><trkpt lat="36.9242697" lon="15.1572107"><ele>21.5</ele><time>2026-04-12T06:18:16.606Z</time></trkpt><trkpt lat="36.9243455" lon="15.1573355"><ele>21.75</ele><time>2026-04-12T06:18:17.606Z</time></trkpt><trkpt lat="36.9244176" lon="15.157459"><ele>22.0</ele><time>2026-04-12T06:18:18.606Z</time></trkpt><trkpt lat="36.9244825" lon="15.1575838"><ele>22.0</ele><time>2026-04-12T06:18:19.606Z</time></trkpt><trkpt lat="36.9245513" lon="15.1577042"><ele>22.0</ele><time>2026-04-12T06:18:20.606Z</time></trkpt><trkpt lat="36.9246162" lon="15.1578298"><ele>22.0</ele><time>2026-04-12T06:18:21.606Z</time></trkpt><trkpt lat="36.9246724" lon="15.1579571"><ele>22.0</ele><time>2026-04-12T06:18:22.605Z</time></trkpt><trkpt lat="36.9247254" lon="15.1580906"><ele>21.75</ele><time>2026-04-12T06:18:23.606Z</time></trkpt><trkpt lat="36.9247934" lon="15.1582241"><ele>21.5</ele><time>2026-04-12T06:18:24.606Z</time></trkpt><trkpt lat="36.9248536" lon="15.1583558"><ele>21.25</ele><time>2026-04-12T06:18:25.605Z</time></trkpt><trkpt lat="36.9249206" lon="15.1584759"><ele>21.0</ele><time>2026-04-12T06:18:26.605Z</time></trkpt><trkpt lat="36.9249769" lon="15.158584"><ele>21.0</ele><time>2026-04-12T06:18:27.607Z</time></trkpt><trkpt lat="36.9250325" lon="15.1586987"><ele>21.0</ele><time>2026-04-12T06:18:28.605Z</time></trkpt><trkpt lat="36.9250903" lon="15.1588122"><ele>21.0</ele><time>2026-04-12T06:18:29.605Z</time></trkpt><trkpt lat="36.925146" lon="15.1589319"><ele>21.0</ele><time>2026-04-12T06:18:30.606Z</time></trkpt><trkpt lat="36.9251947" lon="15.1590546"><ele>21.0</ele><time>2026-04-12T06:18:31.607Z</time></trkpt><trkpt lat="36.9252453" lon="15.1591724"><ele>22.0</ele><time>2026-04-12T06:18:32.607Z</time></trkpt><trkpt lat="36.9253059" lon="15.1592876"><ele>23.0</ele><time>2026-04-12T06:18:33.606Z</time></trkpt><trkpt lat="36.9253709" lon="15.1594082"><ele>24.0</ele><time>2026-04-12T06:18:34.607Z</time></trkpt><trkpt lat="36.9254297" lon="15.1595341"><ele>25.0</ele><time>2026-04-12T06:18:35.606Z</time></trkpt><trkpt lat="36.925474" lon="15.1596757"><ele>25.0</ele><time>2026-04-12T06:18:36.605Z</time></trkpt><trkpt lat="36.9255048" lon="15.1598182"><ele>25.0</ele><time>2026-04-12T06:18:37.606Z</time></trkpt><trkpt lat="36.9255505" lon="15.1599526"><ele>25.0</ele><time>2026-04-12T06:18:38.604Z</time></trkpt><trkpt lat="36.9256136" lon="15.1600735"><ele>25.0</ele><time>2026-04-12T06:18:39.607Z</time></trkpt><trkpt lat="36.9256903" lon="15.1601861"><ele>24.5</ele><time>2026-04-12T06:18:40.606Z</time></trkpt><trkpt lat="36.9257703" lon="15.1602909"><ele>24.0</ele><time>2026-04-12T06:18:41.607Z</time></trkpt><trkpt lat="36.9258446" lon="15.160402"><ele>23.5</ele><time>2026-04-12T06:18:42.607Z</time></trkpt><trkpt lat="36.9259128" lon="15.1605256"><ele>23.0</ele><time>2026-04-12T06:18:43.606Z</time></trkpt><trkpt lat="36.9259868" lon="15.1606585"><ele>22.5</ele><time>2026-04-12T06:18:44.605Z</time></trkpt><trkpt lat="36.9260648" lon="15.1607897"><ele>22.0</ele><time>2026-04-12T06:18:45.606Z</time></trkpt><trkpt lat="36.9261444" lon="15.1609177"><ele>21.5</ele><time>2026-04-12T06:18:46.607Z</time></trkpt><trkpt lat="36.9262206" lon="15.1610366"><ele>21.0</ele><time>2026-04-12T06:18:47.606Z</time></trkpt><trkpt lat="36.9262974" lon="15.1611629"><ele>21.0</ele><time>2026-04-12T06:18:48.605Z</time></trkpt><trkpt lat="36.9263751" lon="15.1612818"><ele>21.0</ele><time>2026-04-12T06:18:49.607Z</time></trkpt><trkpt lat="36.9264532" lon="15.1614012"><ele>21.0</ele><time>2026-04-12T06:18:50.606Z</time></trkpt><trkpt lat="36.9265324" lon="15.1615116"><ele>21.0</ele><time>2026-04-12T06:18:51.606Z</time></trkpt><trkpt lat="36.9266128" lon="15.1616335"><ele>21.0</ele><time>2026-04-12T06:18:52.606Z</time></trkpt><trkpt lat="36.9266971" lon="15.1617524"><ele>21.0</ele><time>2026-04-12T06:18:53.605Z</time></trkpt><trkpt lat="36.9267785" lon="15.161873"><ele>21.0</ele><time>2026-04-12T06:18:54.605Z</time></trkpt><trkpt lat="36.9268629" lon="15.1619997"><ele>21.0</ele><time>2026-04-12T06:18:55.606Z</time></trkpt><trkpt lat="36.9269481" lon="15.1621158"><ele>21.25</ele><time>2026-04-12T06:18:56.607Z</time></trkpt><trkpt lat="36.9270442" lon="15.1622409"><ele>21.5</ele><time>2026-04-12T06:18:57.605Z</time></trkpt><trkpt lat="36.927144" lon="15.1623845"><ele>21.75</ele><time>2026-04-12T06:18:58.607Z</time></trkpt><trkpt lat="36.9272497" lon="15.1625294"><ele>22.0</ele><time>2026-04-12T06:18:59.607Z</time></trkpt><trkpt lat="36.9273383" lon="15.1626752"><ele>22.0</ele><time>2026-04-12T06:19:00.606Z</time></trkpt><trkpt lat="36.9274254" lon="15.1628245"><ele>22.0</ele><time>2026-04-12T06:19:01.605Z</time></trkpt><trkpt lat="36.9275172" lon="15.1629749"><ele>22.0</ele><time>2026-04-12T06:19:02.606Z</time></trkpt><trkpt lat="36.9276226" lon="15.1631367"><ele>22.333333333333332</ele><time>2026-04-12T06:19:03.604Z</time></trkpt><trkpt lat="36.9277543" lon="15.1633"><ele>22.666666666666668</ele><time>2026-04-12T06:19:04.607Z</time></trkpt><trkpt lat="36.9278967" lon="15.1634797"><ele>23.0</ele><time>2026-04-12T06:19:05.607Z</time></trkpt><trkpt lat="36.9280291" lon="15.1636705"><ele>23.0</ele><time>2026-04-12T06:19:06.606Z</time></trkpt><trkpt lat="36.928158" lon="15.1638578"><ele>23.0</ele><time>2026-04-12T06:19:07.604Z</time></trkpt><trkpt lat="36.9282898" lon="15.1640357"><ele>23.0</ele><time>2026-04-12T06:19:08.606Z</time></trkpt><trkpt lat="36.9284252" lon="15.1642034"><ele>23.0</ele><time>2026-04-12T06:19:09.606Z</time></trkpt><trkpt lat="36.9285737" lon="15.1643488"><ele>23.0</ele><time>2026-04-12T06:19:10.607Z</time></trkpt><trkpt lat="36.9287688" lon="15.1645137"><ele>23.0</ele><time>2026-04-12T06:19:11.605Z</time></trkpt><trkpt lat="36.9289697" lon="15.164683"><ele>23.0</ele><time>2026-04-12T06:19:12.607Z</time></trkpt><trkpt lat="36.9291782" lon="15.1648559"><ele>23.0</ele><time>2026-04-12T06:19:13.606Z</time></trkpt><trkpt lat="36.9293936" lon="15.1650356"><ele>23.0</ele><time>2026-04-12T06:19:14.605Z</time></trkpt><trkpt lat="36.9296192" lon="15.16522"><ele>23.0</ele><time>2026-04-12T06:19:15.605Z</time></trkpt><trkpt lat="36.9298583" lon="15.1654096"><ele>22.5</ele><time>2026-04-12T06:19:16.606Z</time></trkpt><trkpt lat="36.9301005" lon="15.1655965"><ele>22.0</ele><time>2026-04-12T06:19:17.606Z</time></trkpt><trkpt lat="36.9303814" lon="15.1658036"><ele>20.0</ele><time>2026-04-12T06:19:18.606Z</time></trkpt><trkpt lat="36.9306624" lon="15.166007"><ele>18.0</ele><time>2026-04-12T06:19:19.607Z</time></trkpt><trkpt lat="36.9309491" lon="15.1662216"><ele>18.0</ele><time>2026-04-12T06:19:20.605Z</time></trkpt><trkpt lat="36.931224" lon="15.1664476"><ele>18.0</ele><time>2026-04-12T06:19:21.606Z</time></trkpt><trkpt lat="36.9314819" lon="15.166642"><ele>17.0</ele><time>2026-04-12T06:19:22.605Z</time></trkpt><trkpt lat="36.9317336" lon="15.1668292"><ele>16.0</ele><time>2026-04-12T06:19:23.605Z</time></trkpt><trkpt lat="36.9319746" lon="15.1670079"><ele>16.0</ele><time>2026-04-12T06:19:24.606Z</time></trkpt><trkpt lat="36.9321992" lon="15.1671708"><ele>16.0</ele><time>2026-04-12T06:19:25.606Z</time></trkpt><trkpt lat="36.9324133" lon="15.167331"><ele>15.5</ele><time>2026-04-12T06:19:26.605Z</time></trkpt><trkpt lat="36.9326216" lon="15.1674815"><ele>15.0</ele><time>2026-04-12T06:19:27.607Z</time></trkpt><trkpt lat="36.9328256" lon="15.1676293"><ele>15.0</ele><time>2026-04-12T06:19:28.605Z</time></trkpt><trkpt lat="36.9330187" lon="15.1677706"><ele>15.0</ele><time>2026-04-12T06:19:29.605Z</time></trkpt><trkpt lat="36.9332041" lon="15.1678962"><ele>15.0</ele><time>2026-04-12T06:19:30.607Z</time></trkpt><trkpt lat="36.9333836" lon="15.1680257"><ele>16.333333333333332</ele><time>2026-04-12T06:19:31.606Z</time></trkpt><trkpt lat="36.9335605" lon="15.1681533"><ele>17.666666666666664</ele><time>2026-04-12T06:19:32.606Z</time></trkpt><trkpt lat="36.933732" lon="15.1682788"><ele>19.0</ele><time>2026-04-12T06:19:33.605Z</time></trkpt><trkpt lat="36.9338924" lon="15.1683985"><ele>19.0</ele><time>2026-04-12T06:19:34.606Z</time></trkpt><trkpt lat="36.934037" lon="15.1685042"><ele>19.0</ele><time>2026-04-12T06:19:35.606Z</time></trkpt><trkpt lat="36.9341537" lon="15.168591"><ele>19.0</ele><time>2026-04-12T06:19:36.605Z</time></trkpt><trkpt lat="36.9342511" lon="15.1686552"><ele>19.0</ele><time>2026-04-12T06:19:37.606Z</time></trkpt><trkpt lat="36.9343329" lon="15.168713"><ele>19.166666666666664</ele><time>2026-04-12T06:19:38.606Z</time></trkpt><trkpt lat="36.934394" lon="15.1687526"><ele>19.333333333333332</ele><time>2026-04-12T06:19:39.607Z</time></trkpt><trkpt lat="36.9344853" lon="15.1688143"><ele>19.5</ele><time>2026-04-12T06:19:41.606Z</time></trkpt><trkpt lat="36.9345529" lon="15.1688573"><ele>19.666666666666668</ele><time>2026-04-12T06:19:42.605Z</time></trkpt><trkpt lat="36.9346333" lon="15.1689161"><ele>19.833333333333336</ele><time>2026-04-12T06:19:43.605Z</time></trkpt><trkpt lat="36.9347028" lon="15.1689677"><ele>20.0</ele><time>2026-04-12T06:19:44.605Z</time></trkpt><trkpt lat="36.9347844" lon="15.1690355"><ele>20.0</ele><time>2026-04-12T06:19:45.606Z</time></trkpt><trkpt lat="36.9348776" lon="15.169111"><ele>20.0</ele><time>2026-04-12T06:19:46.605Z</time></trkpt><trkpt lat="36.9349706" lon="15.1691862"><ele>20.0</ele><time>2026-04-12T06:19:47.605Z</time></trkpt><trkpt lat="36.9350672" lon="15.1692628"><ele>20.0</ele><time>2026-04-12T06:19:48.606Z</time></trkpt><trkpt lat="36.9351611" lon="15.1693355"><ele>20.0</ele><time>2026-04-12T06:19:49.605Z</time></trkpt><trkpt lat="36.9352575" lon="15.1694086"><ele>20.0</ele><time>2026-04-12T06:19:50.605Z</time></trkpt><trkpt lat="36.9353532" lon="15.1694792"><ele>20.0</ele><time>2026-04-12T06:19:51.605Z</time></trkpt><trkpt lat="36.9354534" lon="15.1695533"><ele>20.0</ele><time>2026-04-12T06:19:52.605Z</time></trkpt><trkpt lat="36.9355537" lon="15.1696232"><ele>20.0</ele><time>2026-04-12T06:19:53.605Z</time></trkpt><trkpt lat="36.9356428" lon="15.1696982"><ele>20.0</ele><time>2026-04-12T06:19:54.606Z</time></trkpt><trkpt lat="36.9357304" lon="15.1697526"><ele>20.0</ele><time>2026-04-12T06:19:55.606Z</time></trkpt><trkpt lat="36.9358258" lon="15.1698149"><ele>20.0</ele><time>2026-04-12T06:19:56.605Z</time></trkpt><trkpt lat="36.9359241" lon="15.1698893"><ele>20.0</ele><time>2026-04-12T06:19:57.604Z</time></trkpt><trkpt lat="36.9360212" lon="15.1699763"><ele>20.0</ele><time>2026-04-12T06:19:58.604Z</time></trkpt><trkpt lat="36.9361232" lon="15.1700527"><ele>19.6</ele><time>2026-04-12T06:19:59.604Z</time></trkpt><trkpt lat="36.9362161" lon="15.1701191"><ele>19.2</ele><time>2026-04-12T06:20:00.605Z</time></trkpt><trkpt lat="36.9363102" lon="15.1701818"><ele>18.8</ele><time>2026-04-12T06:20:01.606Z</time></trkpt><trkpt lat="36.9364062" lon="15.1702506"><ele>18.4</ele><time>2026-04-12T06:20:02.604Z</time></trkpt><trkpt lat="36.9364936" lon="15.1703122"><ele>18.0</ele><time>2026-04-12T06:20:03.606Z</time></trkpt><trkpt lat="36.9365741" lon="15.17036"><ele>18.0</ele><time>2026-04-12T06:20:04.606Z</time></trkpt><trkpt lat="36.936649" lon="15.1704177"><ele>18.0</ele><time>2026-04-12T06:20:05.605Z</time></trkpt><trkpt lat="36.9367284" lon="15.1704765"><ele>18.0</ele><time>2026-04-12T06:20:06.605Z</time></trkpt><trkpt lat="36.9368115" lon="15.1705384"><ele>18.0</ele><time>2026-04-12T06:20:07.605Z</time></trkpt><trkpt lat="36.9369017" lon="15.1706025"><ele>18.0</ele><time>2026-04-12T06:20:08.606Z</time></trkpt><trkpt lat="36.9369954" lon="15.1706665"><ele>17.5</ele><time>2026-04-12T06:20:09.606Z</time></trkpt><trkpt lat="36.9370914" lon="15.1707328"><ele>17.0</ele><time>2026-04-12T06:20:10.607Z</time></trkpt><trkpt lat="36.9371872" lon="15.1707987"><ele>16.5</ele><time>2026-04-12T06:20:11.605Z</time></trkpt><trkpt lat="36.9372849" lon="15.1708709"><ele>16.0</ele><time>2026-04-12T06:20:12.605Z</time></trkpt><trkpt lat="36.9373903" lon="15.1709468"><ele>16.0</ele><time>2026-04-12T06:20:13.606Z</time></trkpt><trkpt lat="36.9374986" lon="15.1710257"><ele>16.0</ele><time>2026-04-12T06:20:14.604Z</time></trkpt><trkpt lat="36.937611" lon="15.1711033"><ele>16.0</ele><time>2026-04-12T06:20:15.606Z</time></trkpt><trkpt lat="36.9377331" lon="15.1711877"><ele>16.0</ele><time>2026-04-12T06:20:16.605Z</time></trkpt><trkpt lat="36.9378572" lon="15.1712673"><ele>17.0</ele><time>2026-04-12T06:20:17.605Z</time></trkpt><trkpt lat="36.9379838" lon="15.1713676"><ele>18.0</ele><time>2026-04-12T06:20:18.605Z</time></trkpt><trkpt lat="36.9381128" lon="15.1714698"><ele>19.0</ele><time>2026-04-12T06:20:19.607Z</time></trkpt><trkpt lat="36.9382524" lon="15.1715678"><ele>17.666666666666664</ele><time>2026-04-12T06:20:20.607Z</time></trkpt><trkpt lat="36.9383924" lon="15.1716811"><ele>16.333333333333332</ele><time>2026-04-12T06:20:21.605Z</time></trkpt><trkpt lat="36.9385442" lon="15.1717955"><ele>15.0</ele><time>2026-04-12T06:20:22.605Z</time></trkpt><trkpt lat="36.9386944" lon="15.1719086"><ele>15.0</ele><time>2026-04-12T06:20:23.605Z</time></trkpt><trkpt lat="36.9388427" lon="15.1720213"><ele>15.0</ele><time>2026-04-12T06:20:24.607Z</time></trkpt><trkpt lat="36.9389886" lon="15.1721384"><ele>15.0</ele><time>2026-04-12T06:20:25.604Z</time></trkpt><trkpt lat="36.9391347" lon="15.1722561"><ele>15.666666666666668</ele><time>2026-04-12T06:20:26.606Z</time></trkpt><trkpt lat="36.9392814" lon="15.1723694"><ele>16.333333333333336</ele><time>2026-04-12T06:20:27.606Z</time></trkpt><trkpt lat="36.9394245" lon="15.1724792"><ele>17.0</ele><time>2026-04-12T06:20:28.606Z</time></trkpt><trkpt lat="36.9395608" lon="15.172595"><ele>17.0</ele><time>2026-04-12T06:20:29.607Z</time></trkpt><trkpt lat="36.9396958" lon="15.1727108"><ele>17.0</ele><time>2026-04-12T06:20:30.605Z</time></trkpt><trkpt lat="36.9398337" lon="15.1728199"><ele>17.0</ele><time>2026-04-12T06:20:31.604Z</time></trkpt><trkpt lat="36.939969" lon="15.1729499"><ele>19.333333333333336</ele><time>2026-04-12T06:20:32.605Z</time></trkpt><trkpt lat="36.9401189" lon="15.1730604"><ele>21.666666666666668</ele><time>2026-04-12T06:20:33.605Z</time></trkpt><trkpt lat="36.9402687" lon="15.1731828"><ele>24.0</ele><time>2026-04-12T06:20:34.605Z</time></trkpt><trkpt lat="36.9404225" lon="15.173309"><ele>24.0</ele><time>2026-04-12T06:20:35.604Z</time></trkpt><trkpt lat="36.9405765" lon="15.17343"><ele>24.0</ele><time>2026-04-12T06:20:36.604Z</time></trkpt><trkpt lat="36.9407318" lon="15.1735697"><ele>24.0</ele><time>2026-04-12T06:20:37.606Z</time></trkpt><trkpt lat="36.9408896" lon="15.1737116"><ele>24.0</ele><time>2026-04-12T06:20:38.605Z</time></trkpt><trkpt lat="36.9410346" lon="15.1738396"><ele>24.0</ele><time>2026-04-12T06:20:39.606Z</time></trkpt><trkpt lat="36.9411668" lon="15.1739623"><ele>24.0</ele><time>2026-04-12T06:20:40.605Z</time></trkpt><trkpt lat="36.9412972" lon="15.1740915"><ele>24.0</ele><time>2026-04-12T06:20:41.605Z</time></trkpt><trkpt lat="36.9414286" lon="15.1742158"><ele>24.0</ele><time>2026-04-12T06:20:42.606Z</time></trkpt><trkpt lat="36.941574" lon="15.1743483"><ele>24.0</ele><time>2026-04-12T06:20:43.607Z</time></trkpt><trkpt lat="36.9417084" lon="15.174472"><ele>24.0</ele><time>2026-04-12T06:20:44.605Z</time></trkpt><trkpt lat="36.9418434" lon="15.1745937"><ele>24.0</ele><time>2026-04-12T06:20:45.605Z</time></trkpt><trkpt lat="36.9419822" lon="15.1747285"><ele>24.0</ele><time>2026-04-12T06:20:46.606Z</time></trkpt><trkpt lat="36.9421259" lon="15.1748681"><ele>24.333333333333336</ele><time>2026-04-12T06:20:47.605Z</time></trkpt><trkpt lat="36.9422728" lon="15.1750175"><ele>24.666666666666668</ele><time>2026-04-12T06:20:48.605Z</time></trkpt><trkpt lat="36.9424234" lon="15.1751577"><ele>25.0</ele><time>2026-04-12T06:20:49.605Z</time></trkpt><trkpt lat="36.9425734" lon="15.1753036"><ele>25.0</ele><time>2026-04-12T06:20:50.607Z</time></trkpt><trkpt lat="36.9427269" lon="15.1754776"><ele>25.0</ele><time>2026-04-12T06:20:51.604Z</time></trkpt><trkpt lat="36.9428689" lon="15.1756552"><ele>25.0</ele><time>2026-04-12T06:20:52.605Z</time></trkpt><trkpt lat="36.943005" lon="15.1758287"><ele>24.666666666666668</ele><time>2026-04-12T06:20:53.606Z</time></trkpt><trkpt lat="36.943142" lon="15.1759977"><ele>24.333333333333336</ele><time>2026-04-12T06:20:54.605Z</time></trkpt><trkpt lat="36.9432712" lon="15.1761689"><ele>24.0</ele><time>2026-04-12T06:20:55.606Z</time></trkpt><trkpt lat="36.9434013" lon="15.1763325"><ele>24.333333333333336</ele><time>2026-04-12T06:20:56.605Z</time></trkpt><trkpt lat="36.9435274" lon="15.1764924"><ele>24.666666666666668</ele><time>2026-04-12T06:20:57.606Z</time></trkpt><trkpt lat="36.9436619" lon="15.1766604"><ele>25.0</ele><time>2026-04-12T06:20:58.606Z</time></trkpt><trkpt lat="36.9437903" lon="15.1768362"><ele>25.0</ele><time>2026-04-12T06:20:59.605Z</time></trkpt><trkpt lat="36.9439174" lon="15.1770031"><ele>25.0</ele><time>2026-04-12T06:21:00.605Z</time></trkpt><trkpt lat="36.9440523" lon="15.1771695"><ele>25.0</ele><time>2026-04-12T06:21:01.605Z</time></trkpt><trkpt lat="36.9441846" lon="15.1773395"><ele>25.666666666666668</ele><time>2026-04-12T06:21:02.607Z</time></trkpt><trkpt lat="36.9443108" lon="15.1774991"><ele>26.333333333333336</ele><time>2026-04-12T06:21:03.605Z</time></trkpt><trkpt lat="36.9444293" lon="15.1776611"><ele>27.0</ele><time>2026-04-12T06:21:04.605Z</time></trkpt><trkpt lat="36.9445607" lon="15.1778312"><ele>27.0</ele><time>2026-04-12T06:21:05.606Z</time></trkpt><trkpt lat="36.9446999" lon="15.1780122"><ele>27.0</ele><time>2026-04-12T06:21:06.606Z</time></trkpt><trkpt lat="36.9448385" lon="15.1781983"><ele>27.0</ele><time>2026-04-12T06:21:07.605Z</time></trkpt><trkpt lat="36.9449817" lon="15.1783803"><ele>27.333333333333336</ele><time>2026-04-12T06:21:08.605Z</time></trkpt><trkpt lat="36.9451234" lon="15.1785665"><ele>27.666666666666668</ele><time>2026-04-12T06:21:09.605Z</time></trkpt><trkpt lat="36.9452665" lon="15.1787483"><ele>28.0</ele><time>2026-04-12T06:21:10.607Z</time></trkpt><trkpt lat="36.9454055" lon="15.1789263"><ele>27.0</ele><time>2026-04-12T06:21:11.606Z</time></trkpt><trkpt lat="36.9455452" lon="15.1791085"><ele>26.0</ele><time>2026-04-12T06:21:12.604Z</time></trkpt><trkpt lat="36.945678" lon="15.1792824"><ele>25.0</ele><time>2026-04-12T06:21:13.606Z</time></trkpt><trkpt lat="36.9458075" lon="15.1794716"><ele>25.333333333333336</ele><time>2026-04-12T06:21:14.605Z</time></trkpt><trkpt lat="36.9459344" lon="15.1796659"><ele>25.666666666666664</ele><time>2026-04-12T06:21:15.606Z</time></trkpt><trkpt lat="36.946052" lon="15.1798598"><ele>26.0</ele><time>2026-04-12T06:21:16.606Z</time></trkpt><trkpt lat="36.9461737" lon="15.1800608"><ele>26.0</ele><time>2026-04-12T06:21:17.604Z</time></trkpt><trkpt lat="36.946294" lon="15.1802708"><ele>26.0</ele><time>2026-04-12T06:21:18.605Z</time></trkpt><trkpt lat="36.9464041" lon="15.1804881"><ele>26.0</ele><time>2026-04-12T06:21:19.606Z</time></trkpt><trkpt lat="36.9465048" lon="15.1807144"><ele>25.0</ele><time>2026-04-12T06:21:20.607Z</time></trkpt><trkpt lat="36.9465998" lon="15.1809455"><ele>24.0</ele><time>2026-04-12T06:21:21.605Z</time></trkpt><trkpt lat="36.9466872" lon="15.1811736"><ele>23.0</ele><time>2026-04-12T06:21:22.606Z</time></trkpt><trkpt lat="36.9467721" lon="15.1814065"><ele>21.666666666666668</ele><time>2026-04-12T06:21:23.605Z</time></trkpt><trkpt lat="36.9468443" lon="15.1816448"><ele>20.333333333333332</ele><time>2026-04-12T06:21:24.607Z</time></trkpt><trkpt lat="36.9469157" lon="15.1818839"><ele>19.0</ele><time>2026-04-12T06:21:25.604Z</time></trkpt><trkpt lat="36.9469885" lon="15.1821298"><ele>17.666666666666664</ele><time>2026-04-12T06:21:26.606Z</time></trkpt><trkpt lat="36.947057" lon="15.1823761"><ele>16.333333333333332</ele><time>2026-04-12T06:21:27.606Z</time></trkpt><trkpt lat="36.9471255" lon="15.18263"><ele>15.0</ele><time>2026-04-12T06:21:28.605Z</time></trkpt><trkpt lat="36.9471857" lon="15.1828821"><ele>15.0</ele><time>2026-04-12T06:21:29.605Z</time></trkpt><trkpt lat="36.9472529" lon="15.1831333"><ele>15.0</ele><time>2026-04-12T06:21:30.607Z</time></trkpt><trkpt lat="36.9473203" lon="15.1833873"><ele>15.0</ele><time>2026-04-12T06:21:31.605Z</time></trkpt><trkpt lat="36.9473852" lon="15.1836333"><ele>14.0</ele><time>2026-04-12T06:21:32.605Z</time></trkpt><trkpt lat="36.9474488" lon="15.1838708"><ele>13.0</ele><time>2026-04-12T06:21:33.604Z</time></trkpt><trkpt lat="36.9475126" lon="15.1841103"><ele>12.0</ele><time>2026-04-12T06:21:34.606Z</time></trkpt><trkpt lat="36.947579" lon="15.1843454"><ele>10.333333333333334</ele><time>2026-04-12T06:21:35.606Z</time></trkpt><trkpt lat="36.9476535" lon="15.1845824"><ele>8.666666666666668</ele><time>2026-04-12T06:21:36.606Z</time></trkpt><trkpt lat="36.9477218" lon="15.1848165"><ele>7.0</ele><time>2026-04-12T06:21:37.606Z</time></trkpt><trkpt lat="36.947794" lon="15.1850497"><ele>6.666666666666667</ele><time>2026-04-12T06:21:38.605Z</time></trkpt><trkpt lat="36.9478716" lon="15.1852882"><ele>6.333333333333334</ele><time>2026-04-12T06:21:39.607Z</time></trkpt><trkpt lat="36.947952" lon="15.1855286"><ele>6.0</ele><time>2026-04-12T06:21:40.605Z</time></trkpt><trkpt lat="36.9480397" lon="15.18576"><ele>6.0</ele><time>2026-04-12T06:21:41.605Z</time></trkpt><trkpt lat="36.9481362" lon="15.1859923"><ele>6.0</ele><time>2026-04-12T06:21:42.607Z</time></trkpt><trkpt lat="36.9482347" lon="15.1862149"><ele>6.0</ele><time>2026-04-12T06:21:43.605Z</time></trkpt><trkpt lat="36.9483328" lon="15.1864367"><ele>6.0</ele><time>2026-04-12T06:21:44.605Z</time></trkpt><trkpt lat="36.9484358" lon="15.1866597"><ele>6.0</ele><time>2026-04-12T06:21:45.606Z</time></trkpt><trkpt lat="36.9485435" lon="15.18688"><ele>6.0</ele><time>2026-04-12T06:21:46.605Z</time></trkpt><trkpt lat="36.948657" lon="15.1870938"><ele>6.0</ele><time>2026-04-12T06:21:47.604Z</time></trkpt><trkpt lat="36.9487736" lon="15.1873015"><ele>6.0</ele><time>2026-04-12T06:21:48.604Z</time></trkpt><trkpt lat="36.9488925" lon="15.1875127"><ele>6.0</ele><time>2026-04-12T06:21:49.604Z</time></trkpt><trkpt lat="36.9490119" lon="15.1877209"><ele>5.666666666666667</ele><time>2026-04-12T06:21:50.606Z</time></trkpt><trkpt lat="36.9491312" lon="15.1879227"><ele>5.333333333333334</ele><time>2026-04-12T06:21:51.605Z</time></trkpt><trkpt lat="36.9492434" lon="15.1881261"><ele>5.0</ele><time>2026-04-12T06:21:52.604Z</time></trkpt><trkpt lat="36.9493531" lon="15.1883263"><ele>5.0</ele><time>2026-04-12T06:21:53.604Z</time></trkpt><trkpt lat="36.949465" lon="15.1885223"><ele>5.0</ele><time>2026-04-12T06:21:54.606Z</time></trkpt><trkpt lat="36.9495769" lon="15.1887129"><ele>5.0</ele><time>2026-04-12T06:21:55.605Z</time></trkpt><trkpt lat="36.9496872" lon="15.1889084"><ele>6.333333333333334</ele><time>2026-04-12T06:21:56.606Z</time></trkpt><trkpt lat="36.9498023" lon="15.1891081"><ele>7.666666666666667</ele><time>2026-04-12T06:21:57.605Z</time></trkpt><trkpt lat="36.9499088" lon="15.1893114"><ele>9.0</ele><time>2026-04-12T06:21:58.605Z</time></trkpt><trkpt lat="36.9500165" lon="15.1895138"><ele>10.0</ele><time>2026-04-12T06:21:59.604Z</time></trkpt><trkpt lat="36.9501306" lon="15.1897016"><ele>11.0</ele><time>2026-04-12T06:22:00.605Z</time></trkpt><trkpt lat="36.9502552" lon="15.1898781"><ele>12.0</ele><time>2026-04-12T06:22:01.605Z</time></trkpt><trkpt lat="36.9503911" lon="15.1900397"><ele>12.666666666666668</ele><time>2026-04-12T06:22:02.605Z</time></trkpt><trkpt lat="36.9505426" lon="15.1901759"><ele>13.333333333333334</ele><time>2026-04-12T06:22:03.605Z</time></trkpt><trkpt lat="36.9507061" lon="15.1902925"><ele>14.0</ele><time>2026-04-12T06:22:04.606Z</time></trkpt><trkpt lat="36.9508771" lon="15.1903771"><ele>15.333333333333334</ele><time>2026-04-12T06:22:05.605Z</time></trkpt><trkpt lat="36.9510506" lon="15.1904344"><ele>16.666666666666668</ele><time>2026-04-12T06:22:06.606Z</time></trkpt><trkpt lat="36.9512289" lon="15.1904677"><ele>18.0</ele><time>2026-04-12T06:22:07.606Z</time></trkpt><trkpt lat="36.9514095" lon="15.1904818"><ele>18.0</ele><time>2026-04-12T06:22:08.607Z</time></trkpt><trkpt lat="36.9515854" lon="15.1904718"><ele>18.0</ele><time>2026-04-12T06:22:09.609Z</time></trkpt><trkpt lat="36.9517509" lon="15.190454"><ele>18.0</ele><time>2026-04-12T06:22:10.606Z</time></trkpt><trkpt lat="36.9518981" lon="15.1904395"><ele>18.25</ele><time>2026-04-12T06:22:11.605Z</time></trkpt><trkpt lat="36.9520277" lon="15.1904815"><ele>18.5</ele><time>2026-04-12T06:22:12.607Z</time></trkpt><trkpt lat="36.9521455" lon="15.1905644"><ele>18.75</ele><time>2026-04-12T06:22:13.604Z</time></trkpt><trkpt lat="36.9522557" lon="15.1906847"><ele>19.0</ele><time>2026-04-12T06:22:14.607Z</time></trkpt><trkpt lat="36.9523408" lon="15.1908307"><ele>19.0</ele><time>2026-04-12T06:22:15.604Z</time></trkpt><trkpt lat="36.9524107" lon="15.1909959"><ele>19.0</ele><time>2026-04-12T06:22:16.604Z</time></trkpt><trkpt lat="36.952473" lon="15.1911676"><ele>19.0</ele><time>2026-04-12T06:22:17.609Z</time></trkpt><trkpt lat="36.9525328" lon="15.1913405"><ele>18.666666666666664</ele><time>2026-04-12T06:22:18.606Z</time></trkpt><trkpt lat="36.9525988" lon="15.1915135"><ele>18.333333333333332</ele><time>2026-04-12T06:22:19.606Z</time></trkpt><trkpt lat="36.9526607" lon="15.1916891"><ele>18.0</ele><time>2026-04-12T06:22:20.605Z</time></trkpt><trkpt lat="36.9527229" lon="15.1918621"><ele>18.0</ele><time>2026-04-12T06:22:21.605Z</time></trkpt><trkpt lat="36.9527907" lon="15.1920306"><ele>18.0</ele><time>2026-04-12T06:22:22.609Z</time></trkpt><trkpt lat="36.9528585" lon="15.1921997"><ele>18.0</ele><time>2026-04-12T06:22:23.605Z</time></trkpt><trkpt lat="36.9529291" lon="15.1923662"><ele>17.666666666666668</ele><time>2026-04-12T06:22:24.607Z</time></trkpt><trkpt lat="36.9530001" lon="15.1925427"><ele>17.333333333333336</ele><time>2026-04-12T06:22:25.605Z</time></trkpt><trkpt lat="36.9530665" lon="15.1927144"><ele>17.0</ele><time>2026-04-12T06:22:26.606Z</time></trkpt><trkpt lat="36.9531289" lon="15.1928835"><ele>17.0</ele><time>2026-04-12T06:22:27.605Z</time></trkpt><trkpt lat="36.9531924" lon="15.1930454"><ele>17.0</ele><time>2026-04-12T06:22:28.605Z</time></trkpt><trkpt lat="36.9532431" lon="15.1931995"><ele>17.0</ele><time>2026-04-12T06:22:29.605Z</time></trkpt><trkpt lat="36.9533039" lon="15.193353"><ele>17.0</ele><time>2026-04-12T06:22:30.604Z</time></trkpt><trkpt lat="36.9533484" lon="15.1934915"><ele>17.0</ele><time>2026-04-12T06:22:31.605Z</time></trkpt><trkpt lat="36.9533911" lon="15.1936292"><ele>17.0</ele><time>2026-04-12T06:22:32.604Z</time></trkpt><trkpt lat="36.9534325" lon="15.1937736"><ele>17.0</ele><time>2026-04-12T06:22:33.606Z</time></trkpt><trkpt lat="36.9534673" lon="15.1939222"><ele>17.0</ele><time>2026-04-12T06:22:34.605Z</time></trkpt><trkpt lat="36.9535058" lon="15.19408"><ele>17.5</ele><time>2026-04-12T06:22:35.606Z</time></trkpt><trkpt lat="36.9535479" lon="15.1942447"><ele>18.0</ele><time>2026-04-12T06:22:36.604Z</time></trkpt><trkpt lat="36.9535909" lon="15.1944202"><ele>18.5</ele><time>2026-04-12T06:22:37.606Z</time></trkpt><trkpt lat="36.9536403" lon="15.1945969"><ele>19.0</ele><time>2026-04-12T06:22:38.605Z</time></trkpt><trkpt lat="36.9536887" lon="15.1947719"><ele>19.25</ele><time>2026-04-12T06:22:39.606Z</time></trkpt><trkpt lat="36.9537556" lon="15.1949369"><ele>19.5</ele><time>2026-04-12T06:22:40.605Z</time></trkpt><trkpt lat="36.9538211" lon="15.1951061"><ele>19.75</ele><time>2026-04-12T06:22:41.61Z</time></trkpt><trkpt lat="36.9538932" lon="15.1952663"><ele>20.0</ele><time>2026-04-12T06:22:42.61Z</time></trkpt><trkpt lat="36.9539658" lon="15.1954231"><ele>20.0</ele><time>2026-04-12T06:22:43.606Z</time></trkpt><trkpt lat="36.9540441" lon="15.1955783"><ele>20.0</ele><time>2026-04-12T06:22:44.606Z</time></trkpt><trkpt lat="36.9541276" lon="15.1957211"><ele>20.0</ele><time>2026-04-12T06:22:45.609Z</time></trkpt><trkpt lat="36.9542094" lon="15.1958617"><ele>20.0</ele><time>2026-04-12T06:22:46.606Z</time></trkpt><trkpt lat="36.9542939" lon="15.1960086"><ele>19.5</ele><time>2026-04-12T06:22:47.608Z</time></trkpt><trkpt lat="36.9543743" lon="15.1961584"><ele>19.0</ele><time>2026-04-12T06:22:48.605Z</time></trkpt><trkpt lat="36.9544562" lon="15.1963095"><ele>18.5</ele><time>2026-04-12T06:22:49.605Z</time></trkpt><trkpt lat="36.9545358" lon="15.196462"><ele>18.0</ele><time>2026-04-12T06:22:50.605Z</time></trkpt><trkpt lat="36.9546212" lon="15.1966149"><ele>17.75</ele><time>2026-04-12T06:22:51.606Z</time></trkpt><trkpt lat="36.9547039" lon="15.1967645"><ele>17.5</ele><time>2026-04-12T06:22:52.604Z</time></trkpt><trkpt lat="36.9547928" lon="15.196905"><ele>17.25</ele><time>2026-04-12T06:22:53.606Z</time></trkpt><trkpt lat="36.9548858" lon="15.1970461"><ele>17.0</ele><time>2026-04-12T06:22:54.605Z</time></trkpt><trkpt lat="36.9549826" lon="15.1971887"><ele>17.0</ele><time>2026-04-12T06:22:55.609Z</time></trkpt><trkpt lat="36.9550805" lon="15.1973249"><ele>17.0</ele><time>2026-04-12T06:22:56.605Z</time></trkpt><trkpt lat="36.955179" lon="15.1974489"><ele>17.0</ele><time>2026-04-12T06:22:57.605Z</time></trkpt><trkpt lat="36.9552821" lon="15.1975692"><ele>17.0</ele><time>2026-04-12T06:22:58.605Z</time></trkpt><trkpt lat="36.9553858" lon="15.1976918"><ele>16.75</ele><time>2026-04-12T06:22:59.605Z</time></trkpt><trkpt lat="36.955494" lon="15.1978177"><ele>16.5</ele><time>2026-04-12T06:23:00.606Z</time></trkpt><trkpt lat="36.9555973" lon="15.1979439"><ele>16.25</ele><time>2026-04-12T06:23:01.605Z</time></trkpt><trkpt lat="36.9557041" lon="15.1980735"><ele>16.0</ele><time>2026-04-12T06:23:02.607Z</time></trkpt><trkpt lat="36.9558088" lon="15.1982065"><ele>16.0</ele><time>2026-04-12T06:23:03.607Z</time></trkpt><trkpt lat="36.9559137" lon="15.1983375"><ele>16.0</ele><time>2026-04-12T06:23:04.606Z</time></trkpt><trkpt lat="36.9560133" lon="15.1984655"><ele>16.0</ele><time>2026-04-12T06:23:05.604Z</time></trkpt><trkpt lat="36.9561271" lon="15.1985975"><ele>16.0</ele><time>2026-04-12T06:23:06.606Z</time></trkpt><trkpt lat="36.9562473" lon="15.1987337"><ele>16.0</ele><time>2026-04-12T06:23:07.606Z</time></trkpt><trkpt lat="36.9563657" lon="15.1988642"><ele>16.0</ele><time>2026-04-12T06:23:08.606Z</time></trkpt><trkpt lat="36.9564875" lon="15.1989878"><ele>16.0</ele><time>2026-04-12T06:23:09.606Z</time></trkpt><trkpt lat="36.9566066" lon="15.1991038"><ele>15.5</ele><time>2026-04-12T06:23:10.605Z</time></trkpt><trkpt lat="36.9567333" lon="15.1992076"><ele>15.0</ele><time>2026-04-12T06:23:11.606Z</time></trkpt><trkpt lat="36.9568626" lon="15.1993039"><ele>14.5</ele><time>2026-04-12T06:23:12.606Z</time></trkpt><trkpt lat="36.9569963" lon="15.1993655"><ele>14.0</ele><time>2026-04-12T06:23:13.607Z</time></trkpt><trkpt lat="36.9571295" lon="15.1994284"><ele>14.0</ele><time>2026-04-12T06:23:14.606Z</time></trkpt><trkpt lat="36.957263" lon="15.1994985"><ele>14.0</ele><time>2026-04-12T06:23:15.606Z</time></trkpt><trkpt lat="36.9573955" lon="15.1995714"><ele>14.0</ele><time>2026-04-12T06:23:16.606Z</time></trkpt><trkpt lat="36.9575291" lon="15.1996523"><ele>14.0</ele><time>2026-04-12T06:23:17.606Z</time></trkpt><trkpt lat="36.9576622" lon="15.1997423"><ele>12.0</ele><time>2026-04-12T06:23:18.605Z</time></trkpt><trkpt lat="36.9577944" lon="15.1998393"><ele>10.0</ele><time>2026-04-12T06:23:19.606Z</time></trkpt><trkpt lat="36.9579273" lon="15.1999439"><ele>8.0</ele><time>2026-04-12T06:23:20.607Z</time></trkpt><trkpt lat="36.9580541" lon="15.2000587"><ele>8.0</ele><time>2026-04-12T06:23:21.605Z</time></trkpt><trkpt lat="36.958176" lon="15.2001798"><ele>8.0</ele><time>2026-04-12T06:23:22.605Z</time></trkpt><trkpt lat="36.9582905" lon="15.2002951"><ele>8.0</ele><time>2026-04-12T06:23:23.605Z</time></trkpt><trkpt lat="36.958401" lon="15.2003994"><ele>8.0</ele><time>2026-04-12T06:23:24.605Z</time></trkpt><trkpt lat="36.9584975" lon="15.2005"><ele>8.0</ele><time>2026-04-12T06:23:25.606Z</time></trkpt><trkpt lat="36.9585919" lon="15.200593"><ele>8.0</ele><time>2026-04-12T06:23:26.605Z</time></trkpt><trkpt lat="36.9586727" lon="15.2006767"><ele>8.0</ele><time>2026-04-12T06:23:27.606Z</time></trkpt><trkpt lat="36.9587621" lon="15.200764"><ele>8.0</ele><time>2026-04-12T06:23:28.605Z</time></trkpt><trkpt lat="36.9588546" lon="15.2008475"><ele>7.833333333333333</ele><time>2026-04-12T06:23:29.604Z</time></trkpt><trkpt lat="36.958937" lon="15.2009416"><ele>7.666666666666666</ele><time>2026-04-12T06:23:30.605Z</time></trkpt><trkpt lat="36.9590179" lon="15.2010234"><ele>7.5</ele><time>2026-04-12T06:23:31.606Z</time></trkpt><trkpt lat="36.9590798" lon="15.2010787"><ele>7.333333333333334</ele><time>2026-04-12T06:23:32.605Z</time></trkpt><trkpt lat="36.9591446" lon="15.2011292"><ele>7.166666666666667</ele><time>2026-04-12T06:23:33.605Z</time></trkpt><trkpt lat="36.9592028" lon="15.2011857"><ele>7.0</ele><time>2026-04-12T06:23:34.605Z</time></trkpt><trkpt lat="36.9592548" lon="15.2012393"><ele>7.500000000000001</ele><time>2026-04-12T06:23:35.606Z</time></trkpt><trkpt lat="36.9593138" lon="15.2013094"><ele>8.0</ele><time>2026-04-12T06:23:36.605Z</time></trkpt><trkpt lat="36.9594058" lon="15.2013851"><ele>8.5</ele><time>2026-04-12T06:23:38.605Z</time></trkpt><trkpt lat="36.9594858" lon="15.2013717"><ele>9.0</ele><time>2026-04-12T06:23:42.606Z</time></trkpt><trkpt lat="36.9595571" lon="15.2013749"><ele>9.5</ele><time>2026-04-12T06:23:44.606Z</time></trkpt><trkpt lat="36.9596308" lon="15.2013573"><ele>10.0</ele><time>2026-04-12T06:23:46.605Z</time></trkpt><trkpt lat="36.9597275" lon="15.201257"><ele>10.0</ele><time>2026-04-12T06:23:48.606Z</time></trkpt><trkpt lat="36.9597788" lon="15.2011837"><ele>10.0</ele><time>2026-04-12T06:23:49.605Z</time></trkpt><trkpt lat="36.9598379" lon="15.2011141"><ele>10.0</ele><time>2026-04-12T06:23:50.605Z</time></trkpt><trkpt lat="36.9598955" lon="15.2010412"><ele>10.0</ele><time>2026-04-12T06:23:51.606Z</time></trkpt><trkpt lat="36.9599507" lon="15.2009648"><ele>10.0</ele><time>2026-04-12T06:23:52.607Z</time></trkpt><trkpt lat="36.9600033" lon="15.2008815"><ele>10.0</ele><time>2026-04-12T06:23:53.605Z</time></trkpt><trkpt lat="36.9600578" lon="15.200807"><ele>10.4</ele><time>2026-04-12T06:23:54.607Z</time></trkpt><trkpt lat="36.9601149" lon="15.2007197"><ele>10.8</ele><time>2026-04-12T06:23:55.605Z</time></trkpt><trkpt lat="36.9601689" lon="15.2006247"><ele>11.2</ele><time>2026-04-12T06:23:56.606Z</time></trkpt><trkpt lat="36.9602294" lon="15.2005388"><ele>11.6</ele><time>2026-04-12T06:23:57.606Z</time></trkpt><trkpt lat="36.9602917" lon="15.2004444"><ele>12.0</ele><time>2026-04-12T06:23:58.605Z</time></trkpt><trkpt lat="36.9603461" lon="15.200355"><ele>13.0</ele><time>2026-04-12T06:23:59.606Z</time></trkpt><trkpt lat="36.9604018" lon="15.200283"><ele>14.0</ele><time>2026-04-12T06:24:00.605Z</time></trkpt><trkpt lat="36.9604551" lon="15.2002033"><ele>15.0</ele><time>2026-04-12T06:24:01.606Z</time></trkpt><trkpt lat="36.9605119" lon="15.20011"><ele>16.0</ele><time>2026-04-12T06:24:02.607Z</time></trkpt><trkpt lat="36.9605653" lon="15.2000309"><ele>17.0</ele><time>2026-04-12T06:24:03.604Z</time></trkpt><trkpt lat="36.9606225" lon="15.1999382"><ele>18.0</ele><time>2026-04-12T06:24:04.606Z</time></trkpt><trkpt lat="36.960677" lon="15.1998503"><ele>18.4</ele><time>2026-04-12T06:24:05.606Z</time></trkpt><trkpt lat="36.9607329" lon="15.1997528"><ele>18.8</ele><time>2026-04-12T06:24:06.604Z</time></trkpt><trkpt lat="36.9607831" lon="15.1996626"><ele>19.2</ele><time>2026-04-12T06:24:07.606Z</time></trkpt><trkpt lat="36.960843" lon="15.1995715"><ele>19.6</ele><time>2026-04-12T06:24:08.604Z</time></trkpt><trkpt lat="36.9609061" lon="15.199487"><ele>20.0</ele><time>2026-04-12T06:24:09.604Z</time></trkpt><trkpt lat="36.9609695" lon="15.1994013"><ele>20.0</ele><time>2026-04-12T06:24:10.605Z</time></trkpt><trkpt lat="36.9610292" lon="15.1993151"><ele>20.0</ele><time>2026-04-12T06:24:11.605Z</time></trkpt><trkpt lat="36.961086" lon="15.1992213"><ele>20.0</ele><time>2026-04-12T06:24:12.605Z</time></trkpt><trkpt lat="36.9611483" lon="15.1991252"><ele>20.0</ele><time>2026-04-12T06:24:13.605Z</time></trkpt><trkpt lat="36.9612156" lon="15.1990312"><ele>20.0</ele><time>2026-04-12T06:24:14.604Z</time></trkpt><trkpt lat="36.9612804" lon="15.1989312"><ele>20.75</ele><time>2026-04-12T06:24:15.605Z</time></trkpt><trkpt lat="36.9613428" lon="15.1988181"><ele>21.5</ele><time>2026-04-12T06:24:16.605Z</time></trkpt><trkpt lat="36.9614154" lon="15.1987014"><ele>22.25</ele><time>2026-04-12T06:24:17.607Z</time></trkpt><trkpt lat="36.9614932" lon="15.1985809"><ele>23.0</ele><time>2026-04-12T06:24:18.604Z</time></trkpt><trkpt lat="36.9615681" lon="15.1984705"><ele>23.0</ele><time>2026-04-12T06:24:19.605Z</time></trkpt><trkpt lat="36.9616396" lon="15.1983703"><ele>23.0</ele><time>2026-04-12T06:24:20.606Z</time></trkpt><trkpt lat="36.9617009" lon="15.1982775"><ele>23.0</ele><time>2026-04-12T06:24:21.606Z</time></trkpt><trkpt lat="36.9617585" lon="15.1981944"><ele>23.0</ele><time>2026-04-12T06:24:22.604Z</time></trkpt><trkpt lat="36.961798" lon="15.1981252"><ele>23.0</ele><time>2026-04-12T06:24:23.604Z</time></trkpt><trkpt lat="36.9618577" lon="15.1980366"><ele>23.333333333333336</ele><time>2026-04-12T06:24:25.605Z</time></trkpt><trkpt lat="36.9619249" lon="15.1980019"><ele>23.666666666666668</ele><time>2026-04-12T06:24:27.604Z</time></trkpt><trkpt lat="36.9620057" lon="15.1980425"><ele>24.0</ele><time>2026-04-12T06:24:29.606Z</time></trkpt><trkpt lat="36.9620571" lon="15.1980983"><ele>24.333333333333336</ele><time>2026-04-12T06:24:30.604Z</time></trkpt><trkpt lat="36.9621197" lon="15.1981547"><ele>24.666666666666668</ele><time>2026-04-12T06:24:31.605Z</time></trkpt><trkpt lat="36.9621861" lon="15.1982308"><ele>25.0</ele><time>2026-04-12T06:24:32.606Z</time></trkpt><trkpt lat="36.962258" lon="15.1983127"><ele>25.0</ele><time>2026-04-12T06:24:33.606Z</time></trkpt><trkpt lat="36.962327" lon="15.1983907"><ele>25.0</ele><time>2026-04-12T06:24:34.606Z</time></trkpt><trkpt lat="36.9624052" lon="15.1984888"><ele>25.0</ele><time>2026-04-12T06:24:35.605Z</time></trkpt><trkpt lat="36.962483" lon="15.1985688"><ele>25.0</ele><time>2026-04-12T06:24:36.606Z</time></trkpt><trkpt lat="36.9625683" lon="15.1986442"><ele>25.0</ele><time>2026-04-12T06:24:37.606Z</time></trkpt><trkpt lat="36.9626563" lon="15.1987179"><ele>25.25</ele><time>2026-04-12T06:24:38.604Z</time></trkpt><trkpt lat="36.9627407" lon="15.1987989"><ele>25.5</ele><time>2026-04-12T06:24:39.604Z</time></trkpt><trkpt lat="36.9628306" lon="15.1988901"><ele>25.75</ele><time>2026-04-12T06:24:40.606Z</time></trkpt><trkpt lat="36.9629342" lon="15.1989857"><ele>26.0</ele><time>2026-04-12T06:24:41.606Z</time></trkpt><trkpt lat="36.9630513" lon="15.1991162"><ele>23.333333333333332</ele><time>2026-04-12T06:24:42.604Z</time></trkpt><trkpt lat="36.9631762" lon="15.1992424"><ele>20.666666666666664</ele><time>2026-04-12T06:24:43.605Z</time></trkpt><trkpt lat="36.9633134" lon="15.1993829"><ele>18.0</ele><time>2026-04-12T06:24:44.605Z</time></trkpt><trkpt lat="36.9634492" lon="15.1995213"><ele>18.0</ele><time>2026-04-12T06:24:45.604Z</time></trkpt><trkpt lat="36.9635854" lon="15.1996617"><ele>18.0</ele><time>2026-04-12T06:24:46.605Z</time></trkpt><trkpt lat="36.9637115" lon="15.1997893"><ele>18.0</ele><time>2026-04-12T06:24:47.605Z</time></trkpt><trkpt lat="36.9638283" lon="15.1999163"><ele>17.0</ele><time>2026-04-12T06:24:48.605Z</time></trkpt><trkpt lat="36.9639409" lon="15.2000385"><ele>16.0</ele><time>2026-04-12T06:24:49.604Z</time></trkpt><trkpt lat="36.9640379" lon="15.2001275"><ele>15.0</ele><time>2026-04-12T06:24:50.604Z</time></trkpt><trkpt lat="36.9641298" lon="15.2002135"><ele>14.0</ele><time>2026-04-12T06:24:51.604Z</time></trkpt><trkpt lat="36.9642232" lon="15.2003145"><ele>14.0</ele><time>2026-04-12T06:24:52.604Z</time></trkpt><trkpt lat="36.9643262" lon="15.2004216"><ele>14.0</ele><time>2026-04-12T06:24:53.605Z</time></trkpt><trkpt lat="36.9644231" lon="15.2005275"><ele>14.0</ele><time>2026-04-12T06:24:54.607Z</time></trkpt><trkpt lat="36.964512" lon="15.2006258"><ele>14.0</ele><time>2026-04-12T06:24:55.606Z</time></trkpt><trkpt lat="36.9645999" lon="15.2007247"><ele>14.25</ele><time>2026-04-12T06:24:56.605Z</time></trkpt><trkpt lat="36.9646995" lon="15.2008314"><ele>14.5</ele><time>2026-04-12T06:24:57.606Z</time></trkpt><trkpt lat="36.9647903" lon="15.2009338"><ele>14.75</ele><time>2026-04-12T06:24:58.605Z</time></trkpt><trkpt lat="36.9648822" lon="15.2010393"><ele>15.0</ele><time>2026-04-12T06:24:59.605Z</time></trkpt><trkpt lat="36.9649771" lon="15.2011313"><ele>15.6</ele><time>2026-04-12T06:25:00.605Z</time></trkpt><trkpt lat="36.9650661" lon="15.2012297"><ele>16.2</ele><time>2026-04-12T06:25:01.605Z</time></trkpt><trkpt lat="36.9651544" lon="15.2013048"><ele>16.8</ele><time>2026-04-12T06:25:02.604Z</time></trkpt><trkpt lat="36.9652377" lon="15.2013866"><ele>17.4</ele><time>2026-04-12T06:25:03.606Z</time></trkpt><trkpt lat="36.965317" lon="15.2014626"><ele>18.0</ele><time>2026-04-12T06:25:04.605Z</time></trkpt><trkpt lat="36.9654063" lon="15.2015269"><ele>18.0</ele><time>2026-04-12T06:25:06.604Z</time></trkpt><trkpt lat="36.9654776" lon="15.2015075"><ele>18.0</ele><time>2026-04-12T06:25:08.605Z</time></trkpt><trkpt lat="36.9655382" lon="15.2014417"><ele>18.0</ele><time>2026-04-12T06:25:09.605Z</time></trkpt><trkpt lat="36.9655982" lon="15.2013359"><ele>18.0</ele><time>2026-04-12T06:25:10.606Z</time></trkpt><trkpt lat="36.9656733" lon="15.2012234"><ele>18.0</ele><time>2026-04-12T06:25:11.605Z</time></trkpt><trkpt lat="36.9657524" lon="15.2010945"><ele>18.0</ele><time>2026-04-12T06:25:12.605Z</time></trkpt><trkpt lat="36.96584" lon="15.2009615"><ele>18.0</ele><time>2026-04-12T06:25:13.606Z</time></trkpt><trkpt lat="36.9659266" lon="15.200835"><ele>18.0</ele><time>2026-04-12T06:25:14.605Z</time></trkpt><trkpt lat="36.9660125" lon="15.2007054"><ele>18.0</ele><time>2026-04-12T06:25:15.604Z</time></trkpt><trkpt lat="36.9661081" lon="15.2005605"><ele>19.75</ele><time>2026-04-12T06:25:16.606Z</time></trkpt><trkpt lat="36.9662024" lon="15.2004148"><ele>21.5</ele><time>2026-04-12T06:25:17.605Z</time></trkpt><trkpt lat="36.9663012" lon="15.2002739"><ele>23.25</ele><time>2026-04-12T06:25:18.606Z</time></trkpt><trkpt lat="36.9663905" lon="15.2001377"><ele>25.0</ele><time>2026-04-12T06:25:19.605Z</time></trkpt><trkpt lat="36.9664877" lon="15.1999924"><ele>25.0</ele><time>2026-04-12T06:25:20.606Z</time></trkpt><trkpt lat="36.9665841" lon="15.1998467"><ele>25.0</ele><time>2026-04-12T06:25:21.605Z</time></trkpt><trkpt lat="36.9666864" lon="15.199693"><ele>25.0</ele><time>2026-04-12T06:25:22.605Z</time></trkpt><trkpt lat="36.9667937" lon="15.199534"><ele>26.666666666666668</ele><time>2026-04-12T06:25:23.605Z</time></trkpt><trkpt lat="36.9668972" lon="15.1993781"><ele>28.333333333333336</ele><time>2026-04-12T06:25:24.604Z</time></trkpt><trkpt lat="36.9669979" lon="15.1992324"><ele>30.0</ele><time>2026-04-12T06:25:25.606Z</time></trkpt><trkpt lat="36.9670938" lon="15.1990948"><ele>28.75</ele><time>2026-04-12T06:25:26.604Z</time></trkpt><trkpt lat="36.9671871" lon="15.1989576"><ele>27.5</ele><time>2026-04-12T06:25:27.606Z</time></trkpt><trkpt lat="36.9672774" lon="15.1988224"><ele>26.25</ele><time>2026-04-12T06:25:28.604Z</time></trkpt><trkpt lat="36.9673625" lon="15.1986841"><ele>25.0</ele><time>2026-04-12T06:25:29.606Z</time></trkpt><trkpt lat="36.9674456" lon="15.1985548"><ele>25.0</ele><time>2026-04-12T06:25:30.604Z</time></trkpt><trkpt lat="36.9675211" lon="15.1984403"><ele>25.0</ele><time>2026-04-12T06:25:31.606Z</time></trkpt><trkpt lat="36.9675917" lon="15.1983347"><ele>25.0</ele><time>2026-04-12T06:25:32.605Z</time></trkpt><trkpt lat="36.9676579" lon="15.1982307"><ele>25.0</ele><time>2026-04-12T06:25:33.605Z</time></trkpt><trkpt lat="36.9677183" lon="15.1981354"><ele>25.0</ele><time>2026-04-12T06:25:34.606Z</time></trkpt><trkpt lat="36.9677721" lon="15.1980517"><ele>25.714285714285715</ele><time>2026-04-12T06:25:35.605Z</time></trkpt><trkpt lat="36.9678038" lon="15.1979617"><ele>26.42857142857143</ele><time>2026-04-12T06:25:36.605Z</time></trkpt><trkpt lat="36.9678093" lon="15.1978537"><ele>27.142857142857146</ele><time>2026-04-12T06:25:37.606Z</time></trkpt><trkpt lat="36.9678224" lon="15.1977737"><ele>27.857142857142858</ele><time>2026-04-12T06:25:38.606Z</time></trkpt><trkpt lat="36.9678329" lon="15.1976941"><ele>28.57142857142857</ele><time>2026-04-12T06:25:39.605Z</time></trkpt><trkpt lat="36.9678373" lon="15.197614"><ele>29.28571428571429</ele><time>2026-04-12T06:25:41.604Z</time></trkpt><trkpt lat="36.9678798" lon="15.197535"><ele>30.0</ele><time>2026-04-12T06:25:45.606Z</time></trkpt><trkpt lat="36.9679476" lon="15.197494"><ele>30.0</ele><time>2026-04-12T06:25:48.605Z</time></trkpt><trkpt lat="36.9680708" lon="15.1974499"><ele>30.0</ele><time>2026-04-12T06:25:52.605Z</time></trkpt><trkpt lat="36.9681581" lon="15.1974192"><ele>30.0</ele><time>2026-04-12T06:25:53.605Z</time></trkpt><trkpt lat="36.9682324" lon="15.1973634"><ele>30.0</ele><time>2026-04-12T06:25:55.605Z</time></trkpt><trkpt lat="36.9682794" lon="15.1973023"><ele>30.0</ele><time>2026-04-12T06:25:56.604Z</time></trkpt><trkpt lat="36.9683522" lon="15.197241"><ele>31.0</ele><time>2026-04-12T06:25:57.604Z</time></trkpt><trkpt lat="36.9684105" lon="15.1971986"><ele>32.0</ele><time>2026-04-12T06:25:58.605Z</time></trkpt><trkpt lat="36.9684228" lon="15.197112"><ele>33.0</ele><time>2026-04-12T06:26:00.606Z</time></trkpt><trkpt lat="36.9683903" lon="15.1969943"><ele>34.0</ele><time>2026-04-12T06:26:02.606Z</time></trkpt><trkpt lat="36.9683137" lon="15.1969111"><ele>35.0</ele><time>2026-04-12T06:26:03.606Z</time></trkpt><trkpt lat="36.968247" lon="15.196843"><ele>36.0</ele><time>2026-04-12T06:26:04.606Z</time></trkpt><trkpt lat="36.96819" lon="15.1967677"><ele>36.0</ele><time>2026-04-12T06:26:05.606Z</time></trkpt><trkpt lat="36.9681365" lon="15.1966997"><ele>36.0</ele><time>2026-04-12T06:26:06.606Z</time></trkpt><trkpt lat="36.9680945" lon="15.1966136"><ele>36.0</ele><time>2026-04-12T06:26:07.605Z</time></trkpt><trkpt lat="36.9680609" lon="15.1965116"><ele>36.0</ele><time>2026-04-12T06:26:08.605Z</time></trkpt><trkpt lat="36.9680378" lon="15.1963859"><ele>36.0</ele><time>2026-04-12T06:26:09.606Z</time></trkpt><trkpt lat="36.9680309" lon="15.1962163"><ele>36.75</ele><time>2026-04-12T06:26:10.605Z</time></trkpt><trkpt lat="36.968032" lon="15.196039"><ele>37.5</ele><time>2026-04-12T06:26:11.605Z</time></trkpt><trkpt lat="36.9680315" lon="15.195859"><ele>38.25</ele><time>2026-04-12T06:26:12.604Z</time></trkpt><trkpt lat="36.9680296" lon="15.1956907"><ele>39.0</ele><time>2026-04-12T06:26:13.604Z</time></trkpt><trkpt lat="36.9680294" lon="15.1955341"><ele>39.0</ele><time>2026-04-12T06:26:14.605Z</time></trkpt><trkpt lat="36.9680274" lon="15.195384"><ele>39.0</ele><time>2026-04-12T06:26:15.605Z</time></trkpt><trkpt lat="36.9680225" lon="15.1952341"><ele>39.0</ele><time>2026-04-12T06:26:16.606Z</time></trkpt><trkpt lat="36.9680169" lon="15.1950886"><ele>39.0</ele><time>2026-04-12T06:26:17.605Z</time></trkpt><trkpt lat="36.968021" lon="15.1949475"><ele>39.0</ele><time>2026-04-12T06:26:18.606Z</time></trkpt><trkpt lat="36.968038" lon="15.194823"><ele>39.0</ele><time>2026-04-12T06:26:19.606Z</time></trkpt><trkpt lat="36.9680667" lon="15.1947081"><ele>39.0</ele><time>2026-04-12T06:26:20.606Z</time></trkpt><trkpt lat="36.9681086" lon="15.1946015"><ele>39.0</ele><time>2026-04-12T06:26:21.606Z</time></trkpt><trkpt lat="36.9681781" lon="15.1944913"><ele>39.0</ele><time>2026-04-12T06:26:22.604Z</time></trkpt><trkpt lat="36.9682793" lon="15.1943546"><ele>40.666666666666664</ele><time>2026-04-12T06:26:23.605Z</time></trkpt><trkpt lat="36.9684019" lon="15.1941848"><ele>42.33333333333333</ele><time>2026-04-12T06:26:24.605Z</time></trkpt><trkpt lat="36.9685303" lon="15.194011"><ele>44.0</ele><time>2026-04-12T06:26:25.607Z</time></trkpt><trkpt lat="36.9686583" lon="15.1938307"><ele>44.0</ele><time>2026-04-12T06:26:26.606Z</time></trkpt><trkpt lat="36.9687897" lon="15.1936513"><ele>44.0</ele><time>2026-04-12T06:26:27.606Z</time></trkpt><trkpt lat="36.9689232" lon="15.1934761"><ele>44.0</ele><time>2026-04-12T06:26:28.605Z</time></trkpt><trkpt lat="36.9690424" lon="15.1933239"><ele>44.0</ele><time>2026-04-12T06:26:29.605Z</time></trkpt><trkpt lat="36.9691586" lon="15.1931817"><ele>44.0</ele><time>2026-04-12T06:26:30.604Z</time></trkpt><trkpt lat="36.9692672" lon="15.1930497"><ele>44.0</ele><time>2026-04-12T06:26:31.605Z</time></trkpt><trkpt lat="36.9693802" lon="15.1929057"><ele>45.0</ele><time>2026-04-12T06:26:32.605Z</time></trkpt><trkpt lat="36.9695019" lon="15.1927508"><ele>46.0</ele><time>2026-04-12T06:26:33.605Z</time></trkpt><trkpt lat="36.9696185" lon="15.1925921"><ele>47.0</ele><time>2026-04-12T06:26:34.606Z</time></trkpt><trkpt lat="36.9697383" lon="15.1924422"><ele>47.33333333333333</ele><time>2026-04-12T06:26:35.605Z</time></trkpt><trkpt lat="36.9698589" lon="15.1922817"><ele>47.666666666666664</ele><time>2026-04-12T06:26:36.604Z</time></trkpt><trkpt lat="36.9699774" lon="15.192125"><ele>48.0</ele><time>2026-04-12T06:26:37.605Z</time></trkpt><trkpt lat="36.9700995" lon="15.1919752"><ele>48.5</ele><time>2026-04-12T06:26:38.606Z</time></trkpt><trkpt lat="36.9702084" lon="15.1918338"><ele>49.0</ele><time>2026-04-12T06:26:39.604Z</time></trkpt><trkpt lat="36.9702988" lon="15.1917066"><ele>49.5</ele><time>2026-04-12T06:26:40.605Z</time></trkpt><trkpt lat="36.9703866" lon="15.1915915"><ele>50.0</ele><time>2026-04-12T06:26:41.605Z</time></trkpt><trkpt lat="36.970463" lon="15.1914887"><ele>50.0</ele><time>2026-04-12T06:26:42.605Z</time></trkpt><trkpt lat="36.9705338" lon="15.1914044"><ele>50.0</ele><time>2026-04-12T06:26:43.605Z</time></trkpt><trkpt lat="36.9705825" lon="15.1913331"><ele>50.0</ele><time>2026-04-12T06:26:44.605Z</time></trkpt><trkpt lat="36.9706521" lon="15.1912752"><ele>50.0</ele><time>2026-04-12T06:26:46.604Z</time></trkpt><trkpt lat="36.97075" lon="15.1912381"><ele>50.0</ele><time>2026-04-12T06:26:48.605Z</time></trkpt><trkpt lat="36.9708273" lon="15.191155"><ele>50.16666666666667</ele><time>2026-04-12T06:26:50.605Z</time></trkpt><trkpt lat="36.9708806" lon="15.1911031"><ele>50.333333333333336</ele><time>2026-04-12T06:26:55.604Z</time></trkpt><trkpt lat="36.9709068" lon="15.1910055"><ele>50.5</ele><time>2026-04-12T06:27:03.606Z</time></trkpt><trkpt lat="36.9709024" lon="15.1909162"><ele>50.66666666666667</ele><time>2026-04-12T06:27:07.604Z</time></trkpt><trkpt lat="36.9709679" lon="15.1909492"><ele>50.833333333333336</ele><time>2026-04-12T06:27:08.605Z</time></trkpt><trkpt lat="36.9710921" lon="15.191062"><ele>51.0</ele><time>2026-04-12T06:27:10.605Z</time></trkpt><trkpt lat="36.9711683" lon="15.1911471"><ele>51.0</ele><time>2026-04-12T06:27:11.606Z</time></trkpt><trkpt lat="36.9712583" lon="15.1912284"><ele>51.0</ele><time>2026-04-12T06:27:12.606Z</time></trkpt><trkpt lat="36.9713357" lon="15.191301"><ele>51.0</ele><time>2026-04-12T06:27:13.607Z</time></trkpt><trkpt lat="36.9714157" lon="15.1914033"><ele>51.0</ele><time>2026-04-12T06:27:14.606Z</time></trkpt><trkpt lat="36.9714907" lon="15.1914851"><ele>51.0</ele><time>2026-04-12T06:27:15.606Z</time></trkpt><trkpt lat="36.9715649" lon="15.19155"><ele>50.599999999999994</ele><time>2026-04-12T06:27:16.606Z</time></trkpt><trkpt lat="36.9716403" lon="15.191576"><ele>50.2</ele><time>2026-04-12T06:27:17.606Z</time></trkpt><trkpt lat="36.9717195" lon="15.1915449"><ele>49.8</ele><time>2026-04-12T06:27:18.605Z</time></trkpt><trkpt lat="36.9718045" lon="15.1914845"><ele>49.400000000000006</ele><time>2026-04-12T06:27:19.605Z</time></trkpt><trkpt lat="36.9718844" lon="15.1913906"><ele>49.0</ele><time>2026-04-12T06:27:20.605Z</time></trkpt><trkpt lat="36.9719605" lon="15.1912718"><ele>50.0</ele><time>2026-04-12T06:27:21.606Z</time></trkpt><trkpt lat="36.9720467" lon="15.1911486"><ele>51.0</ele><time>2026-04-12T06:27:22.605Z</time></trkpt><trkpt lat="36.9721245" lon="15.1910235"><ele>52.0</ele><time>2026-04-12T06:27:23.606Z</time></trkpt><trkpt lat="36.9722032" lon="15.1909149"><ele>53.0</ele><time>2026-04-12T06:27:24.605Z</time></trkpt><trkpt lat="36.972278" lon="15.1908106"><ele>53.0</ele><time>2026-04-12T06:27:25.606Z</time></trkpt><trkpt lat="36.9723534" lon="15.1907097"><ele>53.0</ele><time>2026-04-12T06:27:26.606Z</time></trkpt><trkpt lat="36.9724253" lon="15.1906105"><ele>53.0</ele><time>2026-04-12T06:27:27.604Z</time></trkpt><trkpt lat="36.9725022" lon="15.1905046"><ele>53.0</ele><time>2026-04-12T06:27:28.605Z</time></trkpt><trkpt lat="36.9725859" lon="15.1903918"><ele>53.5</ele><time>2026-04-12T06:27:29.605Z</time></trkpt><trkpt lat="36.9726762" lon="15.1902755"><ele>54.0</ele><time>2026-04-12T06:27:30.605Z</time></trkpt><trkpt lat="36.9727661" lon="15.190146"><ele>54.5</ele><time>2026-04-12T06:27:31.605Z</time></trkpt><trkpt lat="36.9728588" lon="15.1900196"><ele>55.0</ele><time>2026-04-12T06:27:32.604Z</time></trkpt><trkpt lat="36.9729589" lon="15.1898923"><ele>55.0</ele><time>2026-04-12T06:27:33.606Z</time></trkpt><trkpt lat="36.9730597" lon="15.1897672"><ele>55.0</ele><time>2026-04-12T06:27:34.605Z</time></trkpt><trkpt lat="36.9731603" lon="15.1896468"><ele>55.0</ele><time>2026-04-12T06:27:35.605Z</time></trkpt><trkpt lat="36.9732597" lon="15.1895325"><ele>55.0</ele><time>2026-04-12T06:27:36.605Z</time></trkpt><trkpt lat="36.9733678" lon="15.1894501"><ele>55.25</ele><time>2026-04-12T06:27:37.604Z</time></trkpt><trkpt lat="36.9734862" lon="15.189392"><ele>55.5</ele><time>2026-04-12T06:27:38.606Z</time></trkpt><trkpt lat="36.9736125" lon="15.1893716"><ele>55.75</ele><time>2026-04-12T06:27:39.605Z</time></trkpt><trkpt lat="36.9737329" lon="15.1893694"><ele>56.0</ele><time>2026-04-12T06:27:40.606Z</time></trkpt><trkpt lat="36.9738343" lon="15.1893783"><ele>56.00000000000001</ele><time>2026-04-12T06:27:41.605Z</time></trkpt><trkpt lat="36.9739313" lon="15.1893882"><ele>56.0</ele><time>2026-04-12T06:27:42.605Z</time></trkpt><trkpt lat="36.9740214" lon="15.1893903"><ele>56.0</ele><time>2026-04-12T06:27:43.605Z</time></trkpt><trkpt lat="36.9740916" lon="15.1893891"><ele>56.0</ele><time>2026-04-12T06:27:44.606Z</time></trkpt><trkpt lat="36.9741924" lon="15.1893546"><ele>56.00000000000001</ele><time>2026-04-12T06:27:46.606Z</time></trkpt><trkpt lat="36.9742211" lon="15.1892672"><ele>56.0</ele><time>2026-04-12T06:27:47.606Z</time></trkpt><trkpt lat="36.97425" lon="15.1891613"><ele>56.0</ele><time>2026-04-12T06:27:48.605Z</time></trkpt><trkpt lat="36.9742813" lon="15.1890429"><ele>56.0</ele><time>2026-04-12T06:27:49.606Z</time></trkpt><trkpt lat="36.9743219" lon="15.1889118"><ele>56.0</ele><time>2026-04-12T06:27:50.607Z</time></trkpt><trkpt lat="36.9743527" lon="15.1887748"><ele>56.0</ele><time>2026-04-12T06:27:51.606Z</time></trkpt><trkpt lat="36.9743878" lon="15.1886205"><ele>56.25</ele><time>2026-04-12T06:27:52.605Z</time></trkpt><trkpt lat="36.97443" lon="15.18847"><ele>56.5</ele><time>2026-04-12T06:27:53.606Z</time></trkpt><trkpt lat="36.9744691" lon="15.1883048"><ele>56.75</ele><time>2026-04-12T06:27:54.605Z</time></trkpt><trkpt lat="36.9745142" lon="15.1881311"><ele>57.0</ele><time>2026-04-12T06:27:55.604Z</time></trkpt><trkpt lat="36.9745618" lon="15.1879577"><ele>57.33333333333333</ele><time>2026-04-12T06:27:56.606Z</time></trkpt><trkpt lat="36.9746123" lon="15.1877671"><ele>57.666666666666664</ele><time>2026-04-12T06:27:57.604Z</time></trkpt><trkpt lat="36.974659" lon="15.1875793"><ele>58.0</ele><time>2026-04-12T06:27:58.605Z</time></trkpt><trkpt lat="36.9747112" lon="15.1873938"><ele>58.33333333333333</ele><time>2026-04-12T06:27:59.605Z</time></trkpt><trkpt lat="36.974761" lon="15.1872184"><ele>58.66666666666667</ele><time>2026-04-12T06:28:00.604Z</time></trkpt><trkpt lat="36.9748097" lon="15.1870342"><ele>59.0</ele><time>2026-04-12T06:28:01.605Z</time></trkpt><trkpt lat="36.9748608" lon="15.1868426"><ele>59.0</ele><time>2026-04-12T06:28:02.606Z</time></trkpt><trkpt lat="36.9749174" lon="15.1866527"><ele>59.0</ele><time>2026-04-12T06:28:03.605Z</time></trkpt><trkpt lat="36.9749648" lon="15.1864523"><ele>59.0</ele><time>2026-04-12T06:28:04.606Z</time></trkpt><trkpt lat="36.9750144" lon="15.1862509"><ele>60.0</ele><time>2026-04-12T06:28:05.605Z</time></trkpt><trkpt lat="36.9750641" lon="15.1860586"><ele>61.0</ele><time>2026-04-12T06:28:06.604Z</time></trkpt><trkpt lat="36.9751158" lon="15.1858665"><ele>62.0</ele><time>2026-04-12T06:28:07.604Z</time></trkpt><trkpt lat="36.9751642" lon="15.1856696"><ele>62.0</ele><time>2026-04-12T06:28:08.605Z</time></trkpt><trkpt lat="36.9752225" lon="15.1854767"><ele>62.0</ele><time>2026-04-12T06:28:09.606Z</time></trkpt><trkpt lat="36.9752754" lon="15.1852843"><ele>62.0</ele><time>2026-04-12T06:28:10.605Z</time></trkpt><trkpt lat="36.9753273" lon="15.1850852"><ele>62.0</ele><time>2026-04-12T06:28:11.606Z</time></trkpt><trkpt lat="36.9753838" lon="15.1848874"><ele>62.0</ele><time>2026-04-12T06:28:12.604Z</time></trkpt><trkpt lat="36.9754337" lon="15.1846978"><ele>62.0</ele><time>2026-04-12T06:28:13.605Z</time></trkpt><trkpt lat="36.9754829" lon="15.1845038"><ele>62.0</ele><time>2026-04-12T06:28:14.604Z</time></trkpt><trkpt lat="36.9755396" lon="15.1843059"><ele>62.0</ele><time>2026-04-12T06:28:15.605Z</time></trkpt><trkpt lat="36.9755954" lon="15.1841215"><ele>62.0</ele><time>2026-04-12T06:28:16.605Z</time></trkpt><trkpt lat="36.9756482" lon="15.1839318"><ele>62.0</ele><time>2026-04-12T06:28:17.605Z</time></trkpt><trkpt lat="36.9756964" lon="15.1837506"><ele>62.0</ele><time>2026-04-12T06:28:18.605Z</time></trkpt><trkpt lat="36.9757485" lon="15.1835682"><ele>62.0</ele><time>2026-04-12T06:28:19.604Z</time></trkpt><trkpt lat="36.975807" lon="15.1833744"><ele>63.0</ele><time>2026-04-12T06:28:20.605Z</time></trkpt><trkpt lat="36.9758625" lon="15.183187"><ele>64.0</ele><time>2026-04-12T06:28:21.605Z</time></trkpt><trkpt lat="36.9759171" lon="15.1829974"><ele>65.0</ele><time>2026-04-12T06:28:22.605Z</time></trkpt><trkpt lat="36.9759651" lon="15.1828084"><ele>65.0</ele><time>2026-04-12T06:28:23.605Z</time></trkpt><trkpt lat="36.9760165" lon="15.1826179"><ele>65.0</ele><time>2026-04-12T06:28:24.605Z</time></trkpt><trkpt lat="36.9760722" lon="15.1824115"><ele>65.0</ele><time>2026-04-12T06:28:25.605Z</time></trkpt><trkpt lat="36.976128" lon="15.1822139"><ele>65.33333333333334</ele><time>2026-04-12T06:28:26.605Z</time></trkpt><trkpt lat="36.9761867" lon="15.1820185"><ele>65.66666666666667</ele><time>2026-04-12T06:28:27.604Z</time></trkpt><trkpt lat="36.9762382" lon="15.1818231"><ele>66.0</ele><time>2026-04-12T06:28:28.604Z</time></trkpt><trkpt lat="36.9762964" lon="15.1816214"><ele>66.33333333333333</ele><time>2026-04-12T06:28:29.605Z</time></trkpt><trkpt lat="36.9763516" lon="15.1814186"><ele>66.66666666666666</ele><time>2026-04-12T06:28:30.605Z</time></trkpt><trkpt lat="36.976416" lon="15.1812212"><ele>67.0</ele><time>2026-04-12T06:28:31.605Z</time></trkpt><trkpt lat="36.976483" lon="15.1810291"><ele>67.0</ele><time>2026-04-12T06:28:32.605Z</time></trkpt><trkpt lat="36.9765457" lon="15.1808361"><ele>67.0</ele><time>2026-04-12T06:28:33.605Z</time></trkpt><trkpt lat="36.9766097" lon="15.1806456"><ele>67.0</ele><time>2026-04-12T06:28:34.606Z</time></trkpt><trkpt lat="36.9766755" lon="15.1804655"><ele>69.0</ele><time>2026-04-12T06:28:35.606Z</time></trkpt><trkpt lat="36.9767403" lon="15.1802799"><ele>71.0</ele><time>2026-04-12T06:28:36.604Z</time></trkpt><trkpt lat="36.9767994" lon="15.1800924"><ele>73.0</ele><time>2026-04-12T06:28:37.604Z</time></trkpt><trkpt lat="36.9768597" lon="15.1799042"><ele>73.66666666666666</ele><time>2026-04-12T06:28:38.605Z</time></trkpt><trkpt lat="36.9769256" lon="15.1797183"><ele>74.33333333333333</ele><time>2026-04-12T06:28:39.606Z</time></trkpt><trkpt lat="36.9769883" lon="15.1795397"><ele>75.0</ele><time>2026-04-12T06:28:40.606Z</time></trkpt><trkpt lat="36.9770591" lon="15.1793563"><ele>75.0</ele><time>2026-04-12T06:28:41.605Z</time></trkpt><trkpt lat="36.9771154" lon="15.1791857"><ele>75.0</ele><time>2026-04-12T06:28:42.606Z</time></trkpt><trkpt lat="36.9771707" lon="15.1790176"><ele>75.0</ele><time>2026-04-12T06:28:43.605Z</time></trkpt><trkpt lat="36.9772328" lon="15.1788339"><ele>75.33333333333333</ele><time>2026-04-12T06:28:44.606Z</time></trkpt><trkpt lat="36.9772978" lon="15.1786388"><ele>75.66666666666666</ele><time>2026-04-12T06:28:45.605Z</time></trkpt><trkpt lat="36.9773698" lon="15.1784322"><ele>76.0</ele><time>2026-04-12T06:28:46.605Z</time></trkpt><trkpt lat="36.9774482" lon="15.1782153"><ele>77.0</ele><time>2026-04-12T06:28:47.605Z</time></trkpt><trkpt lat="36.9775263" lon="15.177996"><ele>78.0</ele><time>2026-04-12T06:28:48.606Z</time></trkpt><trkpt lat="36.977597" lon="15.1777868"><ele>79.0</ele><time>2026-04-12T06:28:49.605Z</time></trkpt><trkpt lat="36.9776675" lon="15.1775959"><ele>79.0</ele><time>2026-04-12T06:28:50.604Z</time></trkpt><trkpt lat="36.9777294" lon="15.1774163"><ele>79.0</ele><time>2026-04-12T06:28:51.605Z</time></trkpt><trkpt lat="36.9777931" lon="15.1772517"><ele>79.0</ele><time>2026-04-12T06:28:52.606Z</time></trkpt><trkpt lat="36.9778513" lon="15.1770998"><ele>79.0</ele><time>2026-04-12T06:28:53.605Z</time></trkpt><trkpt lat="36.9779214" lon="15.1769484"><ele>79.5</ele><time>2026-04-12T06:28:54.604Z</time></trkpt><trkpt lat="36.9780025" lon="15.176805"><ele>80.0</ele><time>2026-04-12T06:28:55.605Z</time></trkpt><trkpt lat="36.9780962" lon="15.1766618"><ele>80.5</ele><time>2026-04-12T06:28:56.606Z</time></trkpt><trkpt lat="36.9781948" lon="15.1765215"><ele>81.0</ele><time>2026-04-12T06:28:57.604Z</time></trkpt><trkpt lat="36.9782957" lon="15.1763829"><ele>82.25</ele><time>2026-04-12T06:28:58.604Z</time></trkpt><trkpt lat="36.97839" lon="15.1762483"><ele>83.5</ele><time>2026-04-12T06:28:59.604Z</time></trkpt><trkpt lat="36.978482" lon="15.1761266"><ele>84.75</ele><time>2026-04-12T06:29:00.604Z</time></trkpt><trkpt lat="36.9785667" lon="15.1760225"><ele>86.0</ele><time>2026-04-12T06:29:01.605Z</time></trkpt><trkpt lat="36.9786341" lon="15.1759375"><ele>86.0</ele><time>2026-04-12T06:29:02.605Z</time></trkpt><trkpt lat="36.9786972" lon="15.1758717"><ele>86.0</ele><time>2026-04-12T06:29:03.605Z</time></trkpt><trkpt lat="36.9787516" lon="15.1758201"><ele>86.0</ele><time>2026-04-12T06:29:04.605Z</time></trkpt><trkpt lat="36.9788699" lon="15.1757806"><ele>86.0</ele><time>2026-04-12T06:29:06.605Z</time></trkpt><trkpt lat="36.9789423" lon="15.1758088"><ele>86.0</ele><time>2026-04-12T06:29:07.605Z</time></trkpt><trkpt lat="36.9790053" lon="15.1758208"><ele>86.0</ele><time>2026-04-12T06:29:08.606Z</time></trkpt><trkpt lat="36.9790793" lon="15.175842"><ele>86.0</ele><time>2026-04-12T06:29:09.605Z</time></trkpt><trkpt lat="36.9791591" lon="15.1758559"><ele>86.0</ele><time>2026-04-12T06:29:10.604Z</time></trkpt><trkpt lat="36.9792355" lon="15.1758697"><ele>86.0</ele><time>2026-04-12T06:29:11.605Z</time></trkpt><trkpt lat="36.9793061" lon="15.1758879"><ele>86.0</ele><time>2026-04-12T06:29:12.606Z</time></trkpt><trkpt lat="36.9793721" lon="15.1759062"><ele>86.0</ele><time>2026-04-12T06:29:13.604Z</time></trkpt><trkpt lat="36.9794926" lon="15.1759325"><ele>86.0</ele><time>2026-04-12T06:29:15.605Z</time></trkpt><trkpt lat="36.979593" lon="15.1759511"><ele>86.0</ele><time>2026-04-12T06:29:17.606Z</time></trkpt><trkpt lat="36.9796984" lon="15.1759784"><ele>86.0</ele><time>2026-04-12T06:29:19.605Z</time></trkpt><trkpt lat="36.9798261" lon="15.1760124"><ele>86.0</ele><time>2026-04-12T06:29:21.604Z</time></trkpt><trkpt lat="36.9798931" lon="15.1760198"><ele>86.0</ele><time>2026-04-12T06:29:22.605Z</time></trkpt><trkpt lat="36.9799617" lon="15.1760309"><ele>86.0</ele><time>2026-04-12T06:29:23.606Z</time></trkpt><trkpt lat="36.9800361" lon="15.1760378"><ele>86.0</ele><time>2026-04-12T06:29:24.605Z</time></trkpt><trkpt lat="36.9801053" lon="15.1760538"><ele>86.14285714285715</ele><time>2026-04-12T06:29:25.605Z</time></trkpt><trkpt lat="36.9801798" lon="15.1760685"><ele>86.28571428571429</ele><time>2026-04-12T06:29:26.605Z</time></trkpt><trkpt lat="36.9802508" lon="15.1760893"><ele>86.42857142857143</ele><time>2026-04-12T06:29:27.606Z</time></trkpt><trkpt lat="36.9803178" lon="15.1761025"><ele>86.57142857142858</ele><time>2026-04-12T06:29:28.604Z</time></trkpt><trkpt lat="36.9803859" lon="15.1761126"><ele>86.71428571428572</ele><time>2026-04-12T06:29:29.606Z</time></trkpt><trkpt lat="36.9804604" lon="15.1761283"><ele>86.85714285714286</ele><time>2026-04-12T06:29:30.606Z</time></trkpt><trkpt lat="36.9805252" lon="15.1761385"><ele>87.0</ele><time>2026-04-12T06:29:31.605Z</time></trkpt><trkpt lat="36.9805957" lon="15.17616"><ele>87.0</ele><time>2026-04-12T06:29:32.605Z</time></trkpt><trkpt lat="36.9806607" lon="15.176174"><ele>87.0</ele><time>2026-04-12T06:29:33.606Z</time></trkpt><trkpt lat="36.9807746" lon="15.1761439"><ele>87.0</ele><time>2026-04-12T06:29:35.605Z</time></trkpt><trkpt lat="36.9808456" lon="15.1760357"><ele>87.0</ele><time>2026-04-12T06:29:37.604Z</time></trkpt><trkpt lat="36.9808953" lon="15.175905"><ele>87.0</ele><time>2026-04-12T06:29:39.605Z</time></trkpt><trkpt lat="36.9810168" lon="15.1758649"><ele>87.33333333333333</ele><time>2026-04-12T06:29:41.605Z</time></trkpt><trkpt lat="36.9810841" lon="15.1758738"><ele>87.66666666666667</ele><time>2026-04-12T06:29:42.605Z</time></trkpt><trkpt lat="36.9811628" lon="15.1758671"><ele>88.0</ele><time>2026-04-12T06:29:43.604Z</time></trkpt><trkpt lat="36.9812478" lon="15.1758298"><ele>88.33333333333334</ele><time>2026-04-12T06:29:44.605Z</time></trkpt><trkpt lat="36.9813376" lon="15.1757613"><ele>88.66666666666667</ele><time>2026-04-12T06:29:45.604Z</time></trkpt><trkpt lat="36.9814064" lon="15.1756903"><ele>89.0</ele><time>2026-04-12T06:29:46.606Z</time></trkpt><trkpt lat="36.9814881" lon="15.1756419"><ele>89.0</ele><time>2026-04-12T06:29:47.605Z</time></trkpt><trkpt lat="36.9816144" lon="15.1756553"><ele>89.0</ele><time>2026-04-12T06:29:48.606Z</time></trkpt><trkpt lat="36.9817313" lon="15.1756545"><ele>89.0</ele><time>2026-04-12T06:29:49.605Z</time></trkpt><trkpt lat="36.9818641" lon="15.1756536"><ele>89.0</ele><time>2026-04-12T06:29:50.605Z</time></trkpt><trkpt lat="36.9820061" lon="15.1756597"><ele>87.75</ele><time>2026-04-12T06:29:51.604Z</time></trkpt><trkpt lat="36.982147" lon="15.1756661"><ele>86.5</ele><time>2026-04-12T06:29:52.606Z</time></trkpt><trkpt lat="36.9822846" lon="15.1756617"><ele>85.25</ele><time>2026-04-12T06:29:53.604Z</time></trkpt><trkpt lat="36.982413" lon="15.1756637"><ele>84.0</ele><time>2026-04-12T06:29:54.605Z</time></trkpt><trkpt lat="36.9825413" lon="15.1756644"><ele>83.25</ele><time>2026-04-12T06:29:55.605Z</time></trkpt><trkpt lat="36.9826638" lon="15.1756594"><ele>82.5</ele><time>2026-04-12T06:29:56.604Z</time></trkpt><trkpt lat="36.9827821" lon="15.1756581"><ele>81.75</ele><time>2026-04-12T06:29:57.606Z</time></trkpt><trkpt lat="36.9829" lon="15.175653"><ele>81.0</ele><time>2026-04-12T06:29:58.604Z</time></trkpt><trkpt lat="36.9830138" lon="15.175655"><ele>81.0</ele><time>2026-04-12T06:29:59.606Z</time></trkpt><trkpt lat="36.9831224" lon="15.1756436"><ele>81.0</ele><time>2026-04-12T06:30:00.605Z</time></trkpt><trkpt lat="36.9832314" lon="15.1756472"><ele>81.0</ele><time>2026-04-12T06:30:01.605Z</time></trkpt><trkpt lat="36.9833383" lon="15.1756462"><ele>81.0</ele><time>2026-04-12T06:30:02.605Z</time></trkpt><trkpt lat="36.9834526" lon="15.1756372"><ele>81.0</ele><time>2026-04-12T06:30:03.604Z</time></trkpt><trkpt lat="36.9835716" lon="15.1756478"><ele>80.75</ele><time>2026-04-12T06:30:04.605Z</time></trkpt><trkpt lat="36.9836939" lon="15.1756521"><ele>80.5</ele><time>2026-04-12T06:30:05.605Z</time></trkpt><trkpt lat="36.9838264" lon="15.1756464"><ele>80.25</ele><time>2026-04-12T06:30:06.606Z</time></trkpt><trkpt lat="36.9839547" lon="15.1756522"><ele>80.0</ele><time>2026-04-12T06:30:07.605Z</time></trkpt><trkpt lat="36.984066" lon="15.1756506"><ele>80.0</ele><time>2026-04-12T06:30:08.604Z</time></trkpt><trkpt lat="36.9841782" lon="15.1756511"><ele>80.0</ele><time>2026-04-12T06:30:09.604Z</time></trkpt><trkpt lat="36.9842884" lon="15.1756487"><ele>80.0</ele><time>2026-04-12T06:30:10.606Z</time></trkpt><trkpt lat="36.9844" lon="15.175654"><ele>80.0</ele><time>2026-04-12T06:30:11.604Z</time></trkpt><trkpt lat="36.9845165" lon="15.175657"><ele>80.0</ele><time>2026-04-12T06:30:12.604Z</time></trkpt><trkpt lat="36.9846353" lon="15.1756604"><ele>80.0</ele><time>2026-04-12T06:30:13.606Z</time></trkpt><trkpt lat="36.9847517" lon="15.1756629"><ele>80.0</ele><time>2026-04-12T06:30:14.605Z</time></trkpt><trkpt lat="36.9848576" lon="15.175654"><ele>80.0</ele><time>2026-04-12T06:30:15.605Z</time></trkpt><trkpt lat="36.9849571" lon="15.175648"><ele>80.0</ele><time>2026-04-12T06:30:16.605Z</time></trkpt><trkpt lat="36.9850516" lon="15.1756423"><ele>80.0</ele><time>2026-04-12T06:30:17.605Z</time></trkpt><trkpt lat="36.9851618" lon="15.1756495"><ele>80.0</ele><time>2026-04-12T06:30:18.605Z</time></trkpt><trkpt lat="36.9852725" lon="15.1756477"><ele>80.0</ele><time>2026-04-12T06:30:19.605Z</time></trkpt><trkpt lat="36.9853938" lon="15.1756461"><ele>80.0</ele><time>2026-04-12T06:30:20.605Z</time></trkpt><trkpt lat="36.9855263" lon="15.1756412"><ele>80.0</ele><time>2026-04-12T06:30:21.605Z</time></trkpt><trkpt lat="36.9856539" lon="15.1756367"><ele>80.0</ele><time>2026-04-12T06:30:22.606Z</time></trkpt><trkpt lat="36.9857818" lon="15.1756373"><ele>80.0</ele><time>2026-04-12T06:30:23.604Z</time></trkpt><trkpt lat="36.9859045" lon="15.1756371"><ele>80.0</ele><time>2026-04-12T06:30:24.604Z</time></trkpt><trkpt lat="36.986028" lon="15.1756388"><ele>80.5</ele><time>2026-04-12T06:30:25.606Z</time></trkpt><trkpt lat="36.9861621" lon="15.1756369"><ele>81.0</ele><time>2026-04-12T06:30:26.605Z</time></trkpt><trkpt lat="36.9863018" lon="15.1756336"><ele>81.5</ele><time>2026-04-12T06:30:27.605Z</time></trkpt><trkpt lat="36.9864456" lon="15.1756315"><ele>82.0</ele><time>2026-04-12T06:30:28.605Z</time></trkpt><trkpt lat="36.9865934" lon="15.1756331"><ele>82.25</ele><time>2026-04-12T06:30:29.604Z</time></trkpt><trkpt lat="36.9867311" lon="15.1756287"><ele>82.5</ele><time>2026-04-12T06:30:30.604Z</time></trkpt><trkpt lat="36.9868676" lon="15.175626"><ele>82.75</ele><time>2026-04-12T06:30:31.606Z</time></trkpt><trkpt lat="36.9870061" lon="15.1756285"><ele>83.0</ele><time>2026-04-12T06:30:32.605Z</time></trkpt><trkpt lat="36.9871415" lon="15.1756296"><ele>83.0</ele><time>2026-04-12T06:30:33.605Z</time></trkpt><trkpt lat="36.9872688" lon="15.175629"><ele>83.0</ele><time>2026-04-12T06:30:34.605Z</time></trkpt><trkpt lat="36.987397" lon="15.1756319"><ele>83.0</ele><time>2026-04-12T06:30:35.605Z</time></trkpt><trkpt lat="36.9875285" lon="15.1756308"><ele>83.0</ele><time>2026-04-12T06:30:36.604Z</time></trkpt><trkpt lat="36.9876443" lon="15.1756228"><ele>83.5</ele><time>2026-04-12T06:30:37.605Z</time></trkpt><trkpt lat="36.9877736" lon="15.1756181"><ele>84.0</ele><time>2026-04-12T06:30:38.605Z</time></trkpt><trkpt lat="36.9878983" lon="15.1756204"><ele>84.5</ele><time>2026-04-12T06:30:39.606Z</time></trkpt><trkpt lat="36.9880133" lon="15.175621"><ele>85.0</ele><time>2026-04-12T06:30:40.605Z</time></trkpt><trkpt lat="36.9881242" lon="15.1756125"><ele>85.0</ele><time>2026-04-12T06:30:41.606Z</time></trkpt><trkpt lat="36.9882338" lon="15.1756035"><ele>85.0</ele><time>2026-04-12T06:30:42.606Z</time></trkpt><trkpt lat="36.988354" lon="15.1755992"><ele>85.0</ele><time>2026-04-12T06:30:43.605Z</time></trkpt><trkpt lat="36.9884802" lon="15.1756102"><ele>85.0</ele><time>2026-04-12T06:30:44.605Z</time></trkpt><trkpt lat="36.9886058" lon="15.1756129"><ele>85.0</ele><time>2026-04-12T06:30:45.606Z</time></trkpt><trkpt lat="36.9887306" lon="15.1756242"><ele>85.0</ele><time>2026-04-12T06:30:46.605Z</time></trkpt><trkpt lat="36.9888497" lon="15.1756108"><ele>85.0</ele><time>2026-04-12T06:30:47.605Z</time></trkpt><trkpt lat="36.98897" lon="15.1755955"><ele>85.0</ele><time>2026-04-12T06:30:48.604Z</time></trkpt><trkpt lat="36.9890911" lon="15.1755973"><ele>84.75</ele><time>2026-04-12T06:30:49.604Z</time></trkpt><trkpt lat="36.9892127" lon="15.1755963"><ele>84.5</ele><time>2026-04-12T06:30:50.605Z</time></trkpt><trkpt lat="36.9893344" lon="15.1755978"><ele>84.25</ele><time>2026-04-12T06:30:51.603Z</time></trkpt><trkpt lat="36.989462" lon="15.1755981"><ele>84.0</ele><time>2026-04-12T06:30:52.605Z</time></trkpt><trkpt lat="36.9895825" lon="15.1755948"><ele>84.0</ele><time>2026-04-12T06:30:53.604Z</time></trkpt><trkpt lat="36.9897122" lon="15.175601"><ele>84.0</ele><time>2026-04-12T06:30:54.604Z</time></trkpt><trkpt lat="36.9898422" lon="15.1756059"><ele>84.0</ele><time>2026-04-12T06:30:55.604Z</time></trkpt><trkpt lat="36.9899613" lon="15.1756087"><ele>84.0</ele><time>2026-04-12T06:30:56.604Z</time></trkpt><trkpt lat="36.9900713" lon="15.1756162"><ele>83.0</ele><time>2026-04-12T06:30:57.606Z</time></trkpt><trkpt lat="36.9901936" lon="15.1756068"><ele>82.0</ele><time>2026-04-12T06:30:58.606Z</time></trkpt><trkpt lat="36.9903265" lon="15.1755949"><ele>81.0</ele><time>2026-04-12T06:30:59.605Z</time></trkpt><trkpt lat="36.9904669" lon="15.1755947"><ele>80.0</ele><time>2026-04-12T06:31:00.606Z</time></trkpt><trkpt lat="36.9906075" lon="15.1755996"><ele>80.0</ele><time>2026-04-12T06:31:01.605Z</time></trkpt><trkpt lat="36.9907372" lon="15.1755994"><ele>80.0</ele><time>2026-04-12T06:31:02.606Z</time></trkpt><trkpt lat="36.9908591" lon="15.1755945"><ele>80.0</ele><time>2026-04-12T06:31:03.604Z</time></trkpt><trkpt lat="36.9909697" lon="15.1755904"><ele>80.0</ele><time>2026-04-12T06:31:04.604Z</time></trkpt><trkpt lat="36.9910803" lon="15.1755847"><ele>79.83333333333334</ele><time>2026-04-12T06:31:05.604Z</time></trkpt><trkpt lat="36.9911813" lon="15.1755911"><ele>79.66666666666667</ele><time>2026-04-12T06:31:06.605Z</time></trkpt><trkpt lat="36.9912778" lon="15.1755936"><ele>79.5</ele><time>2026-04-12T06:31:07.604Z</time></trkpt><trkpt lat="36.9913516" lon="15.1755896"><ele>79.33333333333333</ele><time>2026-04-12T06:31:08.604Z</time></trkpt><trkpt lat="36.9914155" lon="15.1755948"><ele>79.16666666666666</ele><time>2026-04-12T06:31:09.605Z</time></trkpt><trkpt lat="36.9915017" lon="15.1755858"><ele>79.0</ele><time>2026-04-12T06:31:10.604Z</time></trkpt><trkpt lat="36.9915958" lon="15.1756303"><ele>79.16666666666666</ele><time>2026-04-12T06:31:11.604Z</time></trkpt><trkpt lat="36.9916808" lon="15.1756587"><ele>79.33333333333333</ele><time>2026-04-12T06:31:12.605Z</time></trkpt><trkpt lat="36.9917637" lon="15.1756858"><ele>79.5</ele><time>2026-04-12T06:31:13.606Z</time></trkpt><trkpt lat="36.9918404" lon="15.175718"><ele>79.66666666666667</ele><time>2026-04-12T06:31:14.604Z</time></trkpt><trkpt lat="36.9919254" lon="15.1757498"><ele>79.83333333333334</ele><time>2026-04-12T06:31:15.605Z</time></trkpt><trkpt lat="36.9920018" lon="15.1757836"><ele>80.0</ele><time>2026-04-12T06:31:16.605Z</time></trkpt><trkpt lat="36.9920889" lon="15.1758147"><ele>79.66666666666667</ele><time>2026-04-12T06:31:17.605Z</time></trkpt><trkpt lat="36.9921754" lon="15.1758448"><ele>79.33333333333334</ele><time>2026-04-12T06:31:18.606Z</time></trkpt><trkpt lat="36.9922591" lon="15.1758795"><ele>79.0</ele><time>2026-04-12T06:31:19.604Z</time></trkpt><trkpt lat="36.9923394" lon="15.1759087"><ele>78.66666666666667</ele><time>2026-04-12T06:31:20.604Z</time></trkpt><trkpt lat="36.992409" lon="15.1759452"><ele>78.33333333333333</ele><time>2026-04-12T06:31:21.605Z</time></trkpt><trkpt lat="36.9924818" lon="15.175974"><ele>78.0</ele><time>2026-04-12T06:31:22.604Z</time></trkpt><trkpt lat="36.9925425" lon="15.1759963"><ele>77.66666666666667</ele><time>2026-04-12T06:31:23.605Z</time></trkpt><trkpt lat="36.9926066" lon="15.1760237"><ele>77.33333333333333</ele><time>2026-04-12T06:31:24.605Z</time></trkpt><trkpt lat="36.992691" lon="15.1760273"><ele>77.0</ele><time>2026-04-12T06:31:26.605Z</time></trkpt><trkpt lat="36.9927586" lon="15.1759787"><ele>76.66666666666666</ele><time>2026-04-12T06:31:29.605Z</time></trkpt><trkpt lat="36.9928126" lon="15.1759079"><ele>76.33333333333333</ele><time>2026-04-12T06:31:33.604Z</time></trkpt><trkpt lat="36.9928781" lon="15.1758299"><ele>76.0</ele><time>2026-04-12T06:31:35.605Z</time></trkpt><trkpt lat="36.992931" lon="15.1757039"><ele>76.5</ele><time>2026-04-12T06:31:37.605Z</time></trkpt><trkpt lat="36.9929852" lon="15.1755762"><ele>77.0</ele><time>2026-04-12T06:31:39.605Z</time></trkpt><trkpt lat="36.993022" lon="15.1754318"><ele>77.5</ele><time>2026-04-12T06:31:41.605Z</time></trkpt><trkpt lat="36.9930312" lon="15.1753209"><ele>78.0</ele><time>2026-04-12T06:31:42.605Z</time></trkpt><trkpt lat="36.9930388" lon="15.1751658"><ele>78.0</ele><time>2026-04-12T06:31:43.605Z</time></trkpt><trkpt lat="36.9930309" lon="15.1749866"><ele>78.0</ele><time>2026-04-12T06:31:44.605Z</time></trkpt><trkpt lat="36.9930217" lon="15.1748273"><ele>78.0</ele><time>2026-04-12T06:31:45.605Z</time></trkpt><trkpt lat="36.993017" lon="15.1746844"><ele>78.0</ele><time>2026-04-12T06:31:46.605Z</time></trkpt><trkpt lat="36.9930058" lon="15.1745506"><ele>78.0</ele><time>2026-04-12T06:31:47.604Z</time></trkpt><trkpt lat="36.992995" lon="15.1744059"><ele>78.0</ele><time>2026-04-12T06:31:48.604Z</time></trkpt><trkpt lat="36.9929793" lon="15.1742663"><ele>78.0</ele><time>2026-04-12T06:31:49.605Z</time></trkpt><trkpt lat="36.9929645" lon="15.1741556"><ele>78.0</ele><time>2026-04-12T06:31:50.606Z</time></trkpt><trkpt lat="36.9929582" lon="15.1740487"><ele>78.0</ele><time>2026-04-12T06:31:51.606Z</time></trkpt><trkpt lat="36.9929568" lon="15.1739542"><ele>78.2</ele><time>2026-04-12T06:31:52.604Z</time></trkpt><trkpt lat="36.9929495" lon="15.1738621"><ele>78.4</ele><time>2026-04-12T06:31:53.605Z</time></trkpt><trkpt lat="36.9929781" lon="15.173686"><ele>78.60000000000001</ele><time>2026-04-12T06:31:55.605Z</time></trkpt><trkpt lat="36.9929985" lon="15.1735815"><ele>78.8</ele><time>2026-04-12T06:31:56.605Z</time></trkpt><trkpt lat="36.9930179" lon="15.1734825"><ele>79.0</ele><time>2026-04-12T06:31:57.605Z</time></trkpt><trkpt lat="36.9930391" lon="15.1733936"><ele>79.0</ele><time>2026-04-12T06:31:58.606Z</time></trkpt><trkpt lat="36.9930533" lon="15.173298"><ele>79.0</ele><time>2026-04-12T06:31:59.605Z</time></trkpt><trkpt lat="36.9930555" lon="15.1731995"><ele>79.0</ele><time>2026-04-12T06:32:00.605Z</time></trkpt><trkpt lat="36.993056" lon="15.1731007"><ele>79.0</ele><time>2026-04-12T06:32:01.605Z</time></trkpt><trkpt lat="36.9930555" lon="15.1730007"><ele>79.0</ele><time>2026-04-12T06:32:02.605Z</time></trkpt><trkpt lat="36.993054" lon="15.1729037"><ele>79.0</ele><time>2026-04-12T06:32:03.605Z</time></trkpt><trkpt lat="36.9930496" lon="15.1728149"><ele>79.0</ele><time>2026-04-12T06:32:04.606Z</time></trkpt><trkpt lat="36.9930405" lon="15.1727328"><ele>79.0</ele><time>2026-04-12T06:32:05.606Z</time></trkpt><trkpt lat="36.9930436" lon="15.1725992"><ele>79.0</ele><time>2026-04-12T06:32:07.606Z</time></trkpt><trkpt lat="36.9930514" lon="15.1724769"><ele>79.0</ele><time>2026-04-12T06:32:09.605Z</time></trkpt><trkpt lat="36.9930591" lon="15.1723912"><ele>79.0</ele><time>2026-04-12T06:32:12.605Z</time></trkpt><trkpt lat="36.9930621" lon="15.1722829"><ele>79.0</ele><time>2026-04-12T06:32:19.605Z</time></trkpt><trkpt lat="36.9930352" lon="15.1721883"><ele>79.0</ele><time>2026-04-12T06:32:22.603Z</time></trkpt><trkpt lat="36.9930067" lon="15.1720871"><ele>79.0</ele><time>2026-04-12T06:32:26.605Z</time></trkpt><trkpt lat="36.9929749" lon="15.1719769"><ele>79.0</ele><time>2026-04-12T06:32:29.605Z</time></trkpt><trkpt lat="36.9929622" lon="15.1718619"><ele>79.0</ele><time>2026-04-12T06:32:31.605Z</time></trkpt><trkpt lat="36.9929569" lon="15.1717393"><ele>79.0</ele><time>2026-04-12T06:32:33.604Z</time></trkpt><trkpt lat="36.9929611" lon="15.1716257"><ele>79.00000000000001</ele><time>2026-04-12T06:32:35.605Z</time></trkpt><trkpt lat="36.9929691" lon="15.1715252"><ele>79.0</ele><time>2026-04-12T06:32:37.605Z</time></trkpt><trkpt lat="36.9929732" lon="15.1714373"><ele>79.0</ele><time>2026-04-12T06:32:39.605Z</time></trkpt><trkpt lat="36.9929844" lon="15.1713509"><ele>79.0</ele><time>2026-04-12T06:32:42.605Z</time></trkpt><trkpt lat="36.9929962" lon="15.1712668"><ele>79.0</ele><time>2026-04-12T06:32:46.605Z</time></trkpt><trkpt lat="36.99299" lon="15.1711769"><ele>79.00000000000001</ele><time>2026-04-12T06:33:20.606Z</time></trkpt><trkpt lat="36.9929822" lon="15.1710966"><ele>79.0</ele><time>2026-04-12T06:33:23.605Z</time></trkpt><trkpt lat="36.9929541" lon="15.1710177"><ele>79.33333333333333</ele><time>2026-04-12T06:33:26.605Z</time></trkpt><trkpt lat="36.9929305" lon="15.170931"><ele>79.66666666666666</ele><time>2026-04-12T06:33:29.606Z</time></trkpt><trkpt lat="36.9928975" lon="15.1708096"><ele>80.0</ele><time>2026-04-12T06:33:32.605Z</time></trkpt><trkpt lat="36.9929088" lon="15.170694"><ele>80.33333333333333</ele><time>2026-04-12T06:33:34.604Z</time></trkpt><trkpt lat="36.9929205" lon="15.170595"><ele>80.66666666666667</ele><time>2026-04-12T06:33:36.605Z</time></trkpt><trkpt lat="36.9929415" lon="15.1705165"><ele>81.0</ele><time>2026-04-12T06:33:38.604Z</time></trkpt><trkpt lat="36.9929829" lon="15.1704537"><ele>81.16666666666667</ele><time>2026-04-12T06:33:41.605Z</time></trkpt><trkpt lat="36.9930464" lon="15.1704286"><ele>81.33333333333333</ele><time>2026-04-12T06:33:46.604Z</time></trkpt><trkpt lat="36.9930795" lon="15.1703613"><ele>81.5</ele><time>2026-04-12T06:33:50.604Z</time></trkpt><trkpt lat="36.9930519" lon="15.1702692"><ele>81.66666666666666</ele><time>2026-04-12T06:33:53.605Z</time></trkpt><trkpt lat="36.9930663" lon="15.1701807"><ele>81.83333333333333</ele><time>2026-04-12T06:33:56.604Z</time></trkpt><trkpt lat="36.9930851" lon="15.1700905"><ele>82.0</ele><time>2026-04-12T06:34:04.604Z</time></trkpt><trkpt lat="36.9931196" lon="15.1699771"><ele>82.0</ele><time>2026-04-12T06:34:07.605Z</time></trkpt><trkpt lat="36.9931437" lon="15.1699028"><ele>82.0</ele><time>2026-04-12T06:34:09.604Z</time></trkpt><trkpt lat="36.9931751" lon="15.1698239"><ele>82.0</ele><time>2026-04-12T06:34:12.604Z</time></trkpt><trkpt lat="36.9931881" lon="15.1697264"><ele>82.0</ele><time>2026-04-12T06:34:17.605Z</time></trkpt><trkpt lat="36.9932177" lon="15.1696452"><ele>82.0</ele><time>2026-04-12T06:34:19.605Z</time></trkpt><trkpt lat="36.9932445" lon="15.1695438"><ele>82.0</ele><time>2026-04-12T06:34:22.604Z</time></trkpt><trkpt lat="36.9932709" lon="15.1694294"><ele>81.8</ele><time>2026-04-12T06:34:25.605Z</time></trkpt><trkpt lat="36.9933162" lon="15.1693494"><ele>81.6</ele><time>2026-04-12T06:34:27.604Z</time></trkpt><trkpt lat="36.9933688" lon="15.1692368"><ele>81.39999999999999</ele><time>2026-04-12T06:34:29.606Z</time></trkpt><trkpt lat="36.9934077" lon="15.1691559"><ele>81.19999999999999</ele><time>2026-04-12T06:34:31.605Z</time></trkpt><trkpt lat="36.9934888" lon="15.1690639"><ele>81.0</ele><time>2026-04-12T06:34:33.605Z</time></trkpt><trkpt lat="36.993531" lon="15.1689674"><ele>81.0</ele><time>2026-04-12T06:34:35.604Z</time></trkpt><trkpt lat="36.9935767" lon="15.1688929"><ele>81.0</ele><time>2026-04-12T06:34:37.605Z</time></trkpt><trkpt lat="36.9936398" lon="15.1688352"><ele>81.0</ele><time>2026-04-12T06:34:39.605Z</time></trkpt><trkpt lat="36.9936866" lon="15.1687632"><ele>81.0</ele><time>2026-04-12T06:34:41.604Z</time></trkpt><trkpt lat="36.9937061" lon="15.1686712"><ele>81.0</ele><time>2026-04-12T06:34:43.605Z</time></trkpt><trkpt lat="36.9937132" lon="15.1685811"><ele>81.0</ele><time>2026-04-12T06:34:45.606Z</time></trkpt><trkpt lat="36.9937058" lon="15.1684718"><ele>81.0</ele><time>2026-04-12T06:34:48.606Z</time></trkpt><trkpt lat="36.9937521" lon="15.168393"><ele>81.0</ele><time>2026-04-12T06:34:52.606Z</time></trkpt><trkpt lat="36.9938106" lon="15.1683483"><ele>81.0</ele><time>2026-04-12T06:34:54.604Z</time></trkpt><trkpt lat="36.993851" lon="15.1682731"><ele>81.0</ele><time>2026-04-12T06:34:57.605Z</time></trkpt><trkpt lat="36.9939063" lon="15.1682214"><ele>81.0</ele><time>2026-04-12T06:35:01.605Z</time></trkpt><trkpt lat="36.9939779" lon="15.1681592"><ele>81.0</ele><time>2026-04-12T06:35:04.603Z</time></trkpt><trkpt lat="36.9940329" lon="15.1681043"><ele>81.0</ele><time>2026-04-12T06:35:06.606Z</time></trkpt><trkpt lat="36.9940914" lon="15.1680336"><ele>82.16666666666667</ele><time>2026-04-12T06:35:09.605Z</time></trkpt><trkpt lat="36.9941559" lon="15.1680199"><ele>83.33333333333333</ele><time>2026-04-12T06:35:12.604Z</time></trkpt><trkpt lat="36.9942327" lon="15.168002"><ele>84.5</ele><time>2026-04-12T06:35:28.604Z</time></trkpt><trkpt lat="36.9943196" lon="15.1679804"><ele>85.66666666666666</ele><time>2026-04-12T06:35:31.603Z</time></trkpt><trkpt lat="36.9943896" lon="15.167944"><ele>86.83333333333333</ele><time>2026-04-12T06:35:35.605Z</time></trkpt><trkpt lat="36.9944503" lon="15.1678716"><ele>88.0</ele><time>2026-04-12T06:35:39.605Z</time></trkpt><trkpt lat="36.9945077" lon="15.1678355"><ele>88.0</ele><time>2026-04-12T06:35:50.604Z</time></trkpt><trkpt lat="36.9945806" lon="15.1678113"><ele>88.0</ele><time>2026-04-12T06:36:29.605Z</time></trkpt><trkpt lat="36.9946663" lon="15.1677899"><ele>88.0</ele><time>2026-04-12T06:36:51.606Z</time></trkpt><trkpt lat="36.9947131" lon="15.1677229"><ele>88.0</ele><time>2026-04-12T06:36:59.604Z</time></trkpt><trkpt lat="36.9947664" lon="15.1676771"><ele>88.0</ele><time>2026-04-12T06:37:04.606Z</time></trkpt><trkpt lat="36.9948042" lon="15.1676067"><ele>88.0</ele><time>2026-04-12T06:37:12.605Z</time></trkpt><trkpt lat="36.9948643" lon="15.1675761"><ele>88.0</ele><time>2026-04-12T06:37:14.604Z</time></trkpt><trkpt lat="36.994921" lon="15.1675339"><ele>88.0</ele><time>2026-04-12T06:37:18.603Z</time></trkpt><trkpt lat="36.9949742" lon="15.1674783"><ele>88.0</ele><time>2026-04-12T06:37:22.604Z</time></trkpt><trkpt lat="36.9950312" lon="15.1674126"><ele>88.0</ele><time>2026-04-12T06:37:24.605Z</time></trkpt><trkpt lat="36.9951116" lon="15.1673739"><ele>88.0</ele><time>2026-04-12T06:37:26.605Z</time></trkpt><trkpt lat="36.9951804" lon="15.1673275"><ele>88.0</ele><time>2026-04-12T06:37:28.605Z</time></trkpt><trkpt lat="36.9952564" lon="15.1673314"><ele>88.0</ele><time>2026-04-12T06:37:32.603Z</time></trkpt><trkpt lat="36.9953486" lon="15.1673361"><ele>90.0</ele><time>2026-04-12T06:46:46.605Z</time></trkpt><trkpt lat="36.9954158" lon="15.1673394"><ele>92.0</ele><time>2026-04-12T06:46:47.605Z</time></trkpt><trkpt lat="36.9955177" lon="15.1673214"><ele>94.0</ele><time>2026-04-12T06:46:49.604Z</time></trkpt><trkpt lat="36.9955877" lon="15.1673123"><ele>96.0</ele><time>2026-04-12T06:46:50.603Z</time></trkpt><trkpt lat="36.9956517" lon="15.1673024"><ele>98.00000000000001</ele><time>2026-04-12T06:46:51.606Z</time></trkpt><trkpt lat="36.995757" lon="15.1673054"><ele>100.0</ele><time>2026-04-12T06:46:53.605Z</time></trkpt><trkpt lat="36.9958483" lon="15.167286"><ele>100.0</ele><time>2026-04-12T06:46:55.604Z</time></trkpt><trkpt lat="36.9959362" lon="15.1672718"><ele>100.0</ele><time>2026-04-12T06:46:57.603Z</time></trkpt><trkpt lat="36.9960109" lon="15.1672044"><ele>100.0</ele><time>2026-04-12T06:47:00.604Z</time></trkpt><trkpt lat="36.9960924" lon="15.1671464"><ele>100.0</ele><time>2026-04-12T06:47:03.605Z</time></trkpt><trkpt lat="36.9961961" lon="15.1671004"><ele>100.0</ele><time>2026-04-12T06:47:05.605Z</time></trkpt><trkpt lat="36.9962757" lon="15.1670748"><ele>100.00000000000001</ele><time>2026-04-12T06:47:07.604Z</time></trkpt><trkpt lat="36.9963357" lon="15.1670291"><ele>100.0</ele><time>2026-04-12T06:47:09.604Z</time></trkpt><trkpt lat="36.9963697" lon="15.1668848"><ele>100.0</ele><time>2026-04-12T06:47:11.604Z</time></trkpt><trkpt lat="36.9963871" lon="15.1667951"><ele>100.0</ele><time>2026-04-12T06:47:12.603Z</time></trkpt><trkpt lat="36.9963979" lon="15.1666957"><ele>100.00000000000001</ele><time>2026-04-12T06:47:13.603Z</time></trkpt><trkpt lat="36.9964109" lon="15.1666113"><ele>100.0</ele><time>2026-04-12T06:47:14.604Z</time></trkpt><trkpt lat="36.9964017" lon="15.1664905"><ele>102.4</ele><time>2026-04-12T06:47:16.605Z</time></trkpt><trkpt lat="36.996355" lon="15.1663541"><ele>104.8</ele><time>2026-04-12T06:47:18.603Z</time></trkpt><trkpt lat="36.9963026" lon="15.1662349"><ele>107.19999999999999</ele><time>2026-04-12T06:47:20.604Z</time></trkpt><trkpt lat="36.9962452" lon="15.1661242"><ele>109.6</ele><time>2026-04-12T06:47:22.603Z</time></trkpt><trkpt lat="36.9962094" lon="15.1660588"><ele>112.0</ele><time>2026-04-12T06:47:24.605Z</time></trkpt><trkpt lat="36.9961796" lon="15.1659576"><ele>112.00000000000001</ele><time>2026-04-12T06:47:27.604Z</time></trkpt><trkpt lat="36.9961346" lon="15.1658847"><ele>112.0</ele><time>2026-04-12T06:47:30.604Z</time></trkpt><trkpt lat="36.9961126" lon="15.1657796"><ele>112.0</ele><time>2026-04-12T06:47:33.603Z</time></trkpt><trkpt lat="36.9960803" lon="15.1657005"><ele>112.0</ele><time>2026-04-12T06:47:36.604Z</time></trkpt><trkpt lat="36.9960415" lon="15.1656312"><ele>112.00000000000001</ele><time>2026-04-12T06:47:39.604Z</time></trkpt><trkpt lat="36.9959552" lon="15.1655097"><ele>112.0</ele><time>2026-04-12T06:47:41.604Z</time></trkpt><trkpt lat="36.9959124" lon="15.1653872"><ele>110.8</ele><time>2026-04-12T06:47:43.604Z</time></trkpt><trkpt lat="36.9958823" lon="15.1652938"><ele>109.6</ele><time>2026-04-12T06:47:44.605Z</time></trkpt><trkpt lat="36.9958342" lon="15.1651552"><ele>108.39999999999999</ele><time>2026-04-12T06:47:45.606Z</time></trkpt><trkpt lat="36.9957967" lon="15.1650418"><ele>107.19999999999999</ele><time>2026-04-12T06:47:46.604Z</time></trkpt><trkpt lat="36.9957681" lon="15.1649483"><ele>106.0</ele><time>2026-04-12T06:47:47.604Z</time></trkpt><trkpt lat="36.9957684" lon="15.1648561"><ele>105.83333333333334</ele><time>2026-04-12T06:47:48.605Z</time></trkpt><trkpt lat="36.9957674" lon="15.1647434"><ele>105.66666666666667</ele><time>2026-04-12T06:47:49.605Z</time></trkpt><trkpt lat="36.9957703" lon="15.1646387"><ele>105.5</ele><time>2026-04-12T06:47:50.604Z</time></trkpt><trkpt lat="36.9957805" lon="15.1645321"><ele>105.33333333333334</ele><time>2026-04-12T06:47:51.603Z</time></trkpt><trkpt lat="36.995759" lon="15.1644577"><ele>105.16666666666667</ele><time>2026-04-12T06:47:53.605Z</time></trkpt><trkpt lat="36.9957202" lon="15.1643655"><ele>105.0</ele><time>2026-04-12T06:47:55.603Z</time></trkpt><trkpt lat="36.9956773" lon="15.1642639"><ele>105.0</ele><time>2026-04-12T06:47:57.604Z</time></trkpt><trkpt lat="36.9956429" lon="15.1641786"><ele>105.0</ele><time>2026-04-12T06:47:59.605Z</time></trkpt><trkpt lat="36.9955913" lon="15.1640516"><ele>105.0</ele><time>2026-04-12T06:48:02.604Z</time></trkpt><trkpt lat="36.9955825" lon="15.1639729"><ele>105.0</ele><time>2026-04-12T06:48:03.604Z</time></trkpt><trkpt lat="36.9955705" lon="15.163872"><ele>105.0</ele><time>2026-04-12T06:48:04.604Z</time></trkpt><trkpt lat="36.9955677" lon="15.1637795"><ele>105.0</ele><time>2026-04-12T06:48:05.605Z</time></trkpt><trkpt lat="36.9955508" lon="15.1636527"><ele>104.5</ele><time>2026-04-12T06:48:07.604Z</time></trkpt><trkpt lat="36.9955283" lon="15.1635555"><ele>104.0</ele><time>2026-04-12T06:48:10.604Z</time></trkpt><trkpt lat="36.9955359" lon="15.1634521"><ele>103.5</ele><time>2026-04-12T06:48:13.604Z</time></trkpt><trkpt lat="36.995484" lon="15.163356"><ele>103.0</ele><time>2026-04-12T06:48:16.604Z</time></trkpt><trkpt lat="36.9954586" lon="15.1632522"><ele>102.5</ele><time>2026-04-12T06:48:19.604Z</time></trkpt><trkpt lat="36.9954264" lon="15.1631715"><ele>102.0</ele><time>2026-04-12T06:48:21.605Z</time></trkpt><trkpt lat="36.9953968" lon="15.1630909"><ele>103.0</ele><time>2026-04-12T06:48:23.605Z</time></trkpt><trkpt lat="36.9953472" lon="15.16304"><ele>104.0</ele><time>2026-04-12T06:48:25.604Z</time></trkpt><trkpt lat="36.9952896" lon="15.1629971"><ele>105.0</ele><time>2026-04-12T06:48:27.605Z</time></trkpt><trkpt lat="36.9952336" lon="15.1629597"><ele>106.0</ele><time>2026-04-12T06:48:29.604Z</time></trkpt><trkpt lat="36.9951605" lon="15.1629244"><ele>107.0</ele><time>2026-04-12T06:48:33.603Z</time></trkpt><trkpt lat="36.9950957" lon="15.1628527"><ele>108.0</ele><time>2026-04-12T06:48:36.605Z</time></trkpt><trkpt lat="36.995012" lon="15.1628321"><ele>109.0</ele><time>2026-04-12T06:48:39.604Z</time></trkpt><trkpt lat="36.9949157" lon="15.1628149"><ele>109.00000000000001</ele><time>2026-04-12T06:48:42.605Z</time></trkpt><trkpt lat="36.9948006" lon="15.1628612"><ele>109.0</ele><time>2026-04-12T06:48:44.605Z</time></trkpt><trkpt lat="36.9947345" lon="15.1628928"><ele>109.0</ele><time>2026-04-12T06:48:45.604Z</time></trkpt><trkpt lat="36.9946373" lon="15.1629067"><ele>109.0</ele><time>2026-04-12T06:48:47.605Z</time></trkpt><trkpt lat="36.9945678" lon="15.1629195"><ele>109.00000000000001</ele><time>2026-04-12T06:48:51.605Z</time></trkpt><trkpt lat="36.9945081" lon="15.1628418"><ele>109.0</ele><time>2026-04-12T06:48:54.604Z</time></trkpt><trkpt lat="36.994487" lon="15.162755"><ele>109.0</ele><time>2026-04-12T06:48:55.605Z</time></trkpt><trkpt lat="36.9944301" lon="15.1626135"><ele>109.0</ele><time>2026-04-12T06:48:57.604Z</time></trkpt><trkpt lat="36.9943697" lon="15.1625023"><ele>109.0</ele><time>2026-04-12T06:48:59.605Z</time></trkpt><trkpt lat="36.9942847" lon="15.1624351"><ele>109.0</ele><time>2026-04-12T06:49:01.604Z</time></trkpt><trkpt lat="36.994213" lon="15.1623436"><ele>109.0</ele><time>2026-04-12T06:49:03.604Z</time></trkpt><trkpt lat="36.9941916" lon="15.162269"><ele>109.2</ele><time>2026-04-12T06:49:04.605Z</time></trkpt><trkpt lat="36.9941832" lon="15.1621698"><ele>109.4</ele><time>2026-04-12T06:49:05.605Z</time></trkpt><trkpt lat="36.9941668" lon="15.1620714"><ele>109.6</ele><time>2026-04-12T06:49:06.604Z</time></trkpt><trkpt lat="36.9941423" lon="15.1619284"><ele>109.8</ele><time>2026-04-12T06:49:08.604Z</time></trkpt><trkpt lat="36.9940973" lon="15.1618472"><ele>110.0</ele><time>2026-04-12T06:49:10.605Z</time></trkpt><trkpt lat="36.9940784" lon="15.1617184"><ele>109.99999999999999</ele><time>2026-04-12T06:49:12.605Z</time></trkpt><trkpt lat="36.9940853" lon="15.1615982"><ele>110.0</ele><time>2026-04-12T06:49:14.603Z</time></trkpt><trkpt lat="36.9940916" lon="15.1615184"><ele>110.0</ele><time>2026-04-12T06:49:16.605Z</time></trkpt><trkpt lat="36.9940743" lon="15.1614197"><ele>110.0</ele><time>2026-04-12T06:49:19.603Z</time></trkpt><trkpt lat="36.994054" lon="15.1613138"><ele>109.99999999999999</ele><time>2026-04-12T06:49:22.605Z</time></trkpt><trkpt lat="36.9940701" lon="15.161218"><ele>110.0</ele><time>2026-04-12T06:49:24.604Z</time></trkpt><trkpt lat="36.994107" lon="15.1611299"><ele>109.99999999999999</ele><time>2026-04-12T06:49:26.603Z</time></trkpt><trkpt lat="36.9941478" lon="15.1610565"><ele>110.0</ele><time>2026-04-12T06:49:28.605Z</time></trkpt><trkpt lat="36.9941878" lon="15.1609469"><ele>110.0</ele><time>2026-04-12T06:49:30.603Z</time></trkpt><trkpt lat="36.9942205" lon="15.1608389"><ele>110.0</ele><time>2026-04-12T06:49:32.603Z</time></trkpt><trkpt lat="36.9942932" lon="15.1607572"><ele>109.99999999999999</ele><time>2026-04-12T06:49:34.604Z</time></trkpt><trkpt lat="36.9943475" lon="15.1606677"><ele>110.0</ele><time>2026-04-12T06:49:36.604Z</time></trkpt><trkpt lat="36.9944117" lon="15.1605852"><ele>112.99999999999999</ele><time>2026-04-12T06:49:38.604Z</time></trkpt><trkpt lat="36.9944713" lon="15.1604922"><ele>116.0</ele><time>2026-04-12T06:49:40.605Z</time></trkpt><trkpt lat="36.9945117" lon="15.1603989"><ele>119.0</ele><time>2026-04-12T06:49:42.603Z</time></trkpt><trkpt lat="36.9945173" lon="15.1603136"><ele>122.0</ele><time>2026-04-12T06:49:44.605Z</time></trkpt><trkpt lat="36.9945316" lon="15.1602192"><ele>124.99999999999999</ele><time>2026-04-12T06:49:47.603Z</time></trkpt><trkpt lat="36.9945559" lon="15.1601398"><ele>128.0</ele><time>2026-04-12T06:49:56.604Z</time></trkpt><trkpt lat="36.9945982" lon="15.1600522"><ele>127.99999999999999</ele><time>2026-04-12T06:49:59.604Z</time></trkpt><trkpt lat="36.9946324" lon="15.1599683"><ele>128.0</ele><time>2026-04-12T06:50:01.604Z</time></trkpt><trkpt lat="36.994643" lon="15.1598885"><ele>128.0</ele><time>2026-04-12T06:50:03.604Z</time></trkpt><trkpt lat="36.9946608" lon="15.15979"><ele>128.0</ele><time>2026-04-12T06:50:06.604Z</time></trkpt><trkpt lat="36.9946928" lon="15.1597044"><ele>127.99999999999999</ele><time>2026-04-12T06:50:09.604Z</time></trkpt><trkpt lat="36.994758" lon="15.1596467"><ele>128.0</ele><time>2026-04-12T06:50:12.605Z</time></trkpt><trkpt lat="36.9947982" lon="15.159566"><ele>128.0</ele><time>2026-04-12T06:50:18.603Z</time></trkpt><trkpt lat="36.9947808" lon="15.1594829"><ele>127.99999999999999</ele><time>2026-04-12T06:50:22.603Z</time></trkpt><trkpt lat="36.9947233" lon="15.1594101"><ele>128.0</ele><time>2026-04-12T06:50:25.604Z</time></trkpt><trkpt lat="36.9947045" lon="15.1593195"><ele>128.0</ele><time>2026-04-12T06:50:26.604Z</time></trkpt><trkpt lat="36.9946912" lon="15.1592419"><ele>127.99999999999999</ele><time>2026-04-12T06:50:27.603Z</time></trkpt><trkpt lat="36.9946945" lon="15.1591315"><ele>128.0</ele><time>2026-04-12T06:50:29.61Z</time></trkpt><trkpt lat="36.9946803" lon="15.1590511"><ele>128.0</ele><time>2026-04-12T06:50:32.604Z</time></trkpt><trkpt lat="36.9946309" lon="15.1589978"><ele>128.42857142857142</ele><time>2026-04-12T06:50:44.611Z</time></trkpt><trkpt lat="36.9945878" lon="15.1589398"><ele>128.85714285714283</ele><time>2026-04-12T06:50:56.605Z</time></trkpt><trkpt lat="36.994539" lon="15.1588845"><ele>129.28571428571428</ele><time>2026-04-12T06:51:12.604Z</time></trkpt><trkpt lat="36.9944745" lon="15.1588678"><ele>129.71428571428572</ele><time>2026-04-12T06:51:23.598Z</time></trkpt><trkpt lat="36.9944502" lon="15.1587859"><ele>130.14285714285717</ele><time>2026-04-12T06:51:26.599Z</time></trkpt><trkpt lat="36.9943879" lon="15.1587329"><ele>130.57142857142858</ele><time>2026-04-12T06:51:31.611Z</time></trkpt><trkpt lat="36.9943253" lon="15.1587183"><ele>131.0</ele><time>2026-04-12T06:51:35.601Z</time></trkpt><trkpt lat="36.9942591" lon="15.1586889"><ele>131.0</ele><time>2026-04-12T06:51:38.61Z</time></trkpt><trkpt lat="36.9941947" lon="15.1585738"><ele>131.0</ele><time>2026-04-12T06:51:40.607Z</time></trkpt><trkpt lat="36.9941782" lon="15.158486"><ele>131.0</ele><time>2026-04-12T06:51:41.606Z</time></trkpt><trkpt lat="36.9941646" lon="15.1583961"><ele>131.0</ele><time>2026-04-12T06:51:43.599Z</time></trkpt><trkpt lat="36.9941852" lon="15.1582871"><ele>131.0</ele><time>2026-04-12T06:51:46.611Z</time></trkpt><trkpt lat="36.9941596" lon="15.1582008"><ele>131.0</ele><time>2026-04-12T06:51:49.599Z</time></trkpt><trkpt lat="36.994077" lon="15.1581507"><ele>130.2</ele><time>2026-04-12T06:51:51.598Z</time></trkpt><trkpt lat="36.994005" lon="15.1580737"><ele>129.39999999999998</ele><time>2026-04-12T06:51:53.605Z</time></trkpt><trkpt lat="36.9939529" lon="15.1579688"><ele>128.6</ele><time>2026-04-12T06:51:55.608Z</time></trkpt><trkpt lat="36.9938894" lon="15.1578779"><ele>127.8</ele><time>2026-04-12T06:51:57.601Z</time></trkpt><trkpt lat="36.9938429" lon="15.1577883"><ele>127.0</ele><time>2026-04-12T06:51:59.601Z</time></trkpt><trkpt lat="36.9937563" lon="15.157689"><ele>127.00000000000001</ele><time>2026-04-12T06:52:01.602Z</time></trkpt><trkpt lat="36.9937054" lon="15.1576398"><ele>127.0</ele><time>2026-04-12T06:52:02.601Z</time></trkpt><trkpt lat="36.9936076" lon="15.1575846"><ele>127.0</ele><time>2026-04-12T06:52:04.607Z</time></trkpt><trkpt lat="36.9935165" lon="15.1575229"><ele>127.0</ele><time>2026-04-12T06:52:06.609Z</time></trkpt><trkpt lat="36.9934484" lon="15.1574802"><ele>127.00000000000001</ele><time>2026-04-12T06:52:08.601Z</time></trkpt><trkpt lat="36.9933986" lon="15.1574176"><ele>127.0</ele><time>2026-04-12T06:52:10.603Z</time></trkpt><trkpt lat="36.9933469" lon="15.1573116"><ele>125.33333333333334</ele><time>2026-04-12T06:52:12.6Z</time></trkpt><trkpt lat="36.9933019" lon="15.1572118"><ele>123.66666666666667</ele><time>2026-04-12T06:52:14.6Z</time></trkpt><trkpt lat="36.9932744" lon="15.1570988"><ele>122.0</ele><time>2026-04-12T06:52:16.602Z</time></trkpt><trkpt lat="36.9932681" lon="15.1569927"><ele>120.33333333333334</ele><time>2026-04-12T06:52:18.606Z</time></trkpt><trkpt lat="36.9932596" lon="15.15691"><ele>118.66666666666667</ele><time>2026-04-12T06:52:20.6Z</time></trkpt><trkpt lat="36.9932768" lon="15.1567958"><ele>117.0</ele><time>2026-04-12T06:52:22.604Z</time></trkpt><trkpt lat="36.9932602" lon="15.1566845"><ele>117.0</ele><time>2026-04-12T06:52:24.604Z</time></trkpt><trkpt lat="36.993263" lon="15.1565856"><ele>116.99999999999999</ele><time>2026-04-12T06:52:26.597Z</time></trkpt><trkpt lat="36.9933043" lon="15.1564775"><ele>116.99999999999999</ele><time>2026-04-12T06:52:28.598Z</time></trkpt><trkpt lat="36.99334" lon="15.1563804"><ele>117.0</ele><time>2026-04-12T06:52:30.6Z</time></trkpt><trkpt lat="36.9933838" lon="15.1562456"><ele>117.0</ele><time>2026-04-12T06:52:32.605Z</time></trkpt><trkpt lat="36.9934508" lon="15.1561409"><ele>117.8</ele><time>2026-04-12T06:52:34.605Z</time></trkpt><trkpt lat="36.9935339" lon="15.1560652"><ele>118.6</ele><time>2026-04-12T06:52:36.611Z</time></trkpt><trkpt lat="36.9936145" lon="15.1559926"><ele>119.39999999999999</ele><time>2026-04-12T06:52:38.602Z</time></trkpt><trkpt lat="36.9936303" lon="15.1559144"><ele>120.19999999999999</ele><time>2026-04-12T06:52:40.607Z</time></trkpt><trkpt lat="36.9936454" lon="15.1557864"><ele>121.0</ele><time>2026-04-12T06:52:42.604Z</time></trkpt><trkpt lat="36.9936661" lon="15.1556883"><ele>121.0</ele><time>2026-04-12T06:52:43.609Z</time></trkpt><trkpt lat="36.9936788" lon="15.1555393"><ele>121.0</ele><time>2026-04-12T06:52:45.601Z</time></trkpt><trkpt lat="36.993651" lon="15.1553976"><ele>121.0</ele><time>2026-04-12T06:52:47.612Z</time></trkpt><trkpt lat="36.993611" lon="15.1552752"><ele>121.0</ele><time>2026-04-12T06:52:49.606Z</time></trkpt><trkpt lat="36.9936846" lon="15.1551787"><ele>121.0</ele><time>2026-04-12T06:52:51.605Z</time></trkpt><trkpt lat="36.9937904" lon="15.1551459"><ele>121.00000000000001</ele><time>2026-04-12T06:52:53.6Z</time></trkpt><trkpt lat="36.9938734" lon="15.1551078"><ele>121.0</ele><time>2026-04-12T06:52:55.608Z</time></trkpt><trkpt lat="36.9938875" lon="15.1550304"><ele>121.0</ele><time>2026-04-12T06:52:58.609Z</time></trkpt><trkpt lat="36.9939025" lon="15.154948"><ele>121.0</ele><time>2026-04-12T06:53:01.6Z</time></trkpt><trkpt lat="36.9938875" lon="15.1548545"><ele>121.00000000000001</ele><time>2026-04-12T06:53:05.605Z</time></trkpt><trkpt lat="36.9938659" lon="15.1547699"><ele>121.0</ele><time>2026-04-12T06:53:08.612Z</time></trkpt><trkpt lat="36.9938207" lon="15.1546704"><ele>121.0</ele><time>2026-04-12T06:53:11.608Z</time></trkpt><trkpt lat="36.9938222" lon="15.154525"><ele>121.0</ele><time>2026-04-12T06:53:12.599Z</time></trkpt><trkpt lat="36.9938237" lon="15.1544015"><ele>121.0</ele><time>2026-04-12T06:53:14.608Z</time></trkpt><trkpt lat="36.99383" lon="15.1543102"><ele>121.0</ele><time>2026-04-12T06:53:18.599Z</time></trkpt><trkpt lat="36.9939139" lon="15.1541791"><ele>121.0</ele><time>2026-04-12T06:53:23.608Z</time></trkpt><trkpt lat="36.9939243" lon="15.1540847"><ele>121.6</ele><time>2026-04-12T06:53:24.611Z</time></trkpt><trkpt lat="36.993992" lon="15.1539796"><ele>122.19999999999999</ele><time>2026-04-12T06:53:26.597Z</time></trkpt><trkpt lat="36.9940941" lon="15.1539409"><ele>122.80000000000001</ele><time>2026-04-12T06:53:28.602Z</time></trkpt><trkpt lat="36.9941613" lon="15.1539239"><ele>123.4</ele><time>2026-04-12T06:53:30.605Z</time></trkpt><trkpt lat="36.9941755" lon="15.1538"><ele>124.0</ele><time>2026-04-12T06:53:32.603Z</time></trkpt><trkpt lat="36.9941225" lon="15.1537308"><ele>124.00000000000001</ele><time>2026-04-12T06:53:35.605Z</time></trkpt><trkpt lat="36.9941258" lon="15.1536419"><ele>124.0</ele><time>2026-04-12T06:53:37.605Z</time></trkpt><trkpt lat="36.9941494" lon="15.1535347"><ele>124.0</ele><time>2026-04-12T06:53:40.608Z</time></trkpt><trkpt lat="36.9942013" lon="15.1534613"><ele>124.0</ele><time>2026-04-12T06:53:42.61Z</time></trkpt><trkpt lat="36.9942629" lon="15.1533846"><ele>124.00000000000001</ele><time>2026-04-12T06:53:44.604Z</time></trkpt><trkpt lat="36.9943066" lon="15.1533216"><ele>124.0</ele><time>2026-04-12T06:53:46.601Z</time></trkpt><trkpt lat="36.9943343" lon="15.1532442"><ele>124.66666666666667</ele><time>2026-04-12T07:05:16.602Z</time></trkpt><trkpt lat="36.9943562" lon="15.1531696"><ele>125.33333333333334</ele><time>2026-04-12T07:05:19.603Z</time></trkpt><trkpt lat="36.9943754" lon="15.1530559"><ele>126.0</ele><time>2026-04-12T07:05:21.602Z</time></trkpt><trkpt lat="36.9944433" lon="15.1529941"><ele>126.66666666666666</ele><time>2026-04-12T07:05:23.603Z</time></trkpt><trkpt lat="36.9944958" lon="15.1529132"><ele>127.33333333333333</ele><time>2026-04-12T07:05:26.602Z</time></trkpt><trkpt lat="36.994541" lon="15.1528049"><ele>128.0</ele><time>2026-04-12T07:05:28.603Z</time></trkpt><trkpt lat="36.9945895" lon="15.1527011"><ele>127.99999999999999</ele><time>2026-04-12T07:05:30.603Z</time></trkpt><trkpt lat="36.9946292" lon="15.1526035"><ele>128.0</ele><time>2026-04-12T07:05:32.602Z</time></trkpt><trkpt lat="36.9946658" lon="15.1524963"><ele>128.0</ele><time>2026-04-12T07:05:35.602Z</time></trkpt><trkpt lat="36.9946946" lon="15.1524145"><ele>128.0</ele><time>2026-04-12T07:05:38.602Z</time></trkpt><trkpt lat="36.9947385" lon="15.1523499"><ele>127.99999999999999</ele><time>2026-04-12T07:05:43.603Z</time></trkpt><trkpt lat="36.9947805" lon="15.1522866"><ele>128.0</ele><time>2026-04-12T07:05:44.602Z</time></trkpt><trkpt lat="36.9948663" lon="15.152202"><ele>128.16666666666666</ele><time>2026-04-12T07:05:46.602Z</time></trkpt><trkpt lat="36.9949257" lon="15.1520958"><ele>128.33333333333331</ele><time>2026-04-12T07:05:48.602Z</time></trkpt><trkpt lat="36.9949863" lon="15.1520134"><ele>128.5</ele><time>2026-04-12T07:05:51.603Z</time></trkpt><trkpt lat="36.9950389" lon="15.1519417"><ele>128.66666666666666</ele><time>2026-04-12T07:06:01.602Z</time></trkpt><trkpt lat="36.9950631" lon="15.1518605"><ele>128.83333333333334</ele><time>2026-04-12T07:06:10.603Z</time></trkpt><trkpt lat="36.9950785" lon="15.1517804"><ele>129.0</ele><time>2026-04-12T07:06:12.602Z</time></trkpt><trkpt lat="36.9950985" lon="15.1517016"><ele>131.33333333333334</ele><time>2026-04-12T07:06:15.602Z</time></trkpt><trkpt lat="36.9951315" lon="15.1516019"><ele>133.66666666666666</ele><time>2026-04-12T07:06:18.603Z</time></trkpt><trkpt lat="36.9951367" lon="15.1514743"><ele>136.0</ele><time>2026-04-12T07:06:21.509Z</time></trkpt><trkpt lat="36.99515" lon="15.151386"><ele>138.33333333333331</ele><time>2026-04-12T07:06:23.603Z</time></trkpt><trkpt lat="36.9951742" lon="15.1512918"><ele>140.66666666666666</ele><time>2026-04-12T07:06:28.603Z</time></trkpt><trkpt lat="36.9951666" lon="15.1511934"><ele>143.0</ele><time>2026-04-12T07:06:31.549Z</time></trkpt><trkpt lat="36.9951414" lon="15.1510916"><ele>143.0</ele><time>2026-04-12T07:06:33.603Z</time></trkpt><trkpt lat="36.9951468" lon="15.1509858"><ele>143.0</ele><time>2026-04-12T07:06:36.602Z</time></trkpt><trkpt lat="36.9951474" lon="15.150896"><ele>143.0</ele><time>2026-04-12T07:06:40.603Z</time></trkpt><trkpt lat="36.9951589" lon="15.1507884"><ele>143.0</ele><time>2026-04-12T07:06:43.509Z</time></trkpt><trkpt lat="36.9951645" lon="15.1507067"><ele>143.0</ele><time>2026-04-12T07:06:46.53Z</time></trkpt><trkpt lat="36.9951552" lon="15.1505989"><ele>143.0</ele><time>2026-04-12T07:06:48.603Z</time></trkpt><trkpt lat="36.9951633" lon="15.1505051"><ele>143.83333333333331</ele><time>2026-04-12T07:06:50.603Z</time></trkpt><trkpt lat="36.9951798" lon="15.1504159"><ele>144.66666666666666</ele><time>2026-04-12T07:06:51.602Z</time></trkpt><trkpt lat="36.9952005" lon="15.15028"><ele>145.5</ele><time>2026-04-12T07:06:53.602Z</time></trkpt><trkpt lat="36.9952043" lon="15.1502009"><ele>146.33333333333334</ele><time>2026-04-12T07:06:54.602Z</time></trkpt><trkpt lat="36.9952145" lon="15.1500951"><ele>147.16666666666669</ele><time>2026-04-12T07:06:56.603Z</time></trkpt><trkpt lat="36.9952209" lon="15.1500034"><ele>148.0</ele><time>2026-04-12T07:06:58.603Z</time></trkpt><trkpt lat="36.9952105" lon="15.1499103"><ele>148.57142857142858</ele><time>2026-04-12T07:07:01.602Z</time></trkpt><trkpt lat="36.995201" lon="15.1498323"><ele>149.14285714285714</ele><time>2026-04-12T07:07:04.603Z</time></trkpt><trkpt lat="36.995159" lon="15.1497623"><ele>149.71428571428572</ele><time>2026-04-12T07:07:07.602Z</time></trkpt><trkpt lat="36.9951351" lon="15.149689"><ele>150.28571428571428</ele><time>2026-04-12T07:07:11.603Z</time></trkpt><trkpt lat="36.9951297" lon="15.1496013"><ele>150.85714285714286</ele><time>2026-04-12T07:07:14.603Z</time></trkpt><trkpt lat="36.9951094" lon="15.149523"><ele>151.42857142857142</ele><time>2026-04-12T07:07:17.602Z</time></trkpt><trkpt lat="36.9950743" lon="15.1494233"><ele>152.0</ele><time>2026-04-12T07:07:21.602Z</time></trkpt><trkpt lat="36.995077" lon="15.1493294"><ele>152.0</ele><time>2026-04-12T07:07:24.602Z</time></trkpt><trkpt lat="36.995042" lon="15.1492575"><ele>152.0</ele><time>2026-04-12T07:07:28.602Z</time></trkpt><trkpt lat="36.9949959" lon="15.1491934"><ele>152.0</ele><time>2026-04-12T07:07:39.602Z</time></trkpt><trkpt lat="36.9949691" lon="15.1490917"><ele>152.0</ele><time>2026-04-12T07:07:44.602Z</time></trkpt><trkpt lat="36.9949367" lon="15.1490144"><ele>152.0</ele><time>2026-04-12T07:07:47.603Z</time></trkpt><trkpt lat="36.9948918" lon="15.1489182"><ele>152.0</ele><time>2026-04-12T07:07:52.603Z</time></trkpt><trkpt lat="36.9948589" lon="15.1488448"><ele>152.0</ele><time>2026-04-12T07:07:55.602Z</time></trkpt><trkpt lat="36.9948242" lon="15.1487669"><ele>150.0</ele><time>2026-04-12T07:07:57.602Z</time></trkpt><trkpt lat="36.9947966" lon="15.1486741"><ele>148.0</ele><time>2026-04-12T07:07:59.603Z</time></trkpt><trkpt lat="36.9947697" lon="15.1486013"><ele>146.0</ele><time>2026-04-12T07:08:01.602Z</time></trkpt><trkpt lat="36.9947369" lon="15.1485222"><ele>144.0</ele><time>2026-04-12T07:08:17.603Z</time></trkpt><trkpt lat="36.9946901" lon="15.1484666"><ele>142.0</ele><time>2026-04-12T07:08:20.603Z</time></trkpt><trkpt lat="36.9946274" lon="15.1484039"><ele>140.0</ele><time>2026-04-12T07:08:26.602Z</time></trkpt><trkpt lat="36.994584" lon="15.1483215"><ele>138.0</ele><time>2026-04-12T07:08:30.602Z</time></trkpt><trkpt lat="36.994574" lon="15.1482332"><ele>139.5</ele><time>2026-04-12T07:08:33.603Z</time></trkpt><trkpt lat="36.9945147" lon="15.1481597"><ele>141.0</ele><time>2026-04-12T07:08:37.602Z</time></trkpt><trkpt lat="36.9944769" lon="15.1480951"><ele>142.5</ele><time>2026-04-12T07:08:40.603Z</time></trkpt><trkpt lat="36.9944443" lon="15.1480196"><ele>144.0</ele><time>2026-04-12T07:08:43.602Z</time></trkpt><trkpt lat="36.9944084" lon="15.1479486"><ele>145.5</ele><time>2026-04-12T07:08:46.603Z</time></trkpt><trkpt lat="36.9943439" lon="15.1478851"><ele>147.0</ele><time>2026-04-12T07:08:49.602Z</time></trkpt><trkpt lat="36.9942663" lon="15.1477739"><ele>147.0</ele><time>2026-04-12T07:08:51.602Z</time></trkpt><trkpt lat="36.994207" lon="15.1477145"><ele>147.0</ele><time>2026-04-12T07:08:52.602Z</time></trkpt><trkpt lat="36.9941391" lon="15.1476427"><ele>147.0</ele><time>2026-04-12T07:08:53.603Z</time></trkpt><trkpt lat="36.9940923" lon="15.147584"><ele>147.0</ele><time>2026-04-12T07:08:54.602Z</time></trkpt><trkpt lat="36.9940428" lon="15.1474802"><ele>147.0</ele><time>2026-04-12T07:08:56.603Z</time></trkpt><trkpt lat="36.9939849" lon="15.147408"><ele>147.0</ele><time>2026-04-12T07:08:58.603Z</time></trkpt><trkpt lat="36.9939678" lon="15.1473236"><ele>144.83333333333334</ele><time>2026-04-12T07:09:01.603Z</time></trkpt><trkpt lat="36.9939378" lon="15.1472459"><ele>142.66666666666666</ele><time>2026-04-12T07:09:04.603Z</time></trkpt><trkpt lat="36.9938871" lon="15.1471914"><ele>140.5</ele><time>2026-04-12T07:09:08.603Z</time></trkpt><trkpt lat="36.9938266" lon="15.1471269"><ele>138.33333333333331</ele><time>2026-04-12T07:09:14.602Z</time></trkpt><trkpt lat="36.9937588" lon="15.1470678"><ele>136.16666666666666</ele><time>2026-04-12T07:09:18.603Z</time></trkpt><trkpt lat="36.9937255" lon="15.1469806"><ele>134.0</ele><time>2026-04-12T07:09:21.602Z</time></trkpt><trkpt lat="36.9936894" lon="15.1468939"><ele>134.0</ele><time>2026-04-12T07:09:23.603Z</time></trkpt><trkpt lat="36.993677" lon="15.1467797"><ele>134.0</ele><time>2026-04-12T07:09:26.603Z</time></trkpt><trkpt lat="36.9937155" lon="15.1466817"><ele>134.0</ele><time>2026-04-12T07:09:28.603Z</time></trkpt><trkpt lat="36.9937659" lon="15.1465905"><ele>134.0</ele><time>2026-04-12T07:09:30.603Z</time></trkpt><trkpt lat="36.9938417" lon="15.1464994"><ele>134.0</ele><time>2026-04-12T07:09:32.602Z</time></trkpt><trkpt lat="36.9939051" lon="15.1464426"><ele>135.16666666666666</ele><time>2026-04-12T07:09:34.603Z</time></trkpt><trkpt lat="36.9939464" lon="15.1463592"><ele>136.33333333333331</ele><time>2026-04-12T07:09:38.602Z</time></trkpt><trkpt lat="36.9939917" lon="15.1462999"><ele>137.5</ele><time>2026-04-12T07:09:41.602Z</time></trkpt><trkpt lat="36.9940457" lon="15.1462041"><ele>138.66666666666666</ele><time>2026-04-12T07:09:54.603Z</time></trkpt><trkpt lat="36.9940978" lon="15.1461265"><ele>139.83333333333334</ele><time>2026-04-12T07:09:56.602Z</time></trkpt><trkpt lat="36.9941822" lon="15.1460998"><ele>141.0</ele><time>2026-04-12T07:10:00.602Z</time></trkpt><trkpt lat="36.9943183" lon="15.1459551"><ele>140.6</ele><time>2026-04-12T07:10:03.602Z</time></trkpt><trkpt lat="36.9944129" lon="15.1458609"><ele>140.2</ele><time>2026-04-12T07:10:04.602Z</time></trkpt><trkpt lat="36.9944752" lon="15.1457772"><ele>139.8</ele><time>2026-04-12T07:10:06.602Z</time></trkpt><trkpt lat="36.9945459" lon="15.1456962"><ele>139.4</ele><time>2026-04-12T07:10:08.603Z</time></trkpt><trkpt lat="36.9946203" lon="15.1456176"><ele>139.0</ele><time>2026-04-12T07:10:10.603Z</time></trkpt><trkpt lat="36.994703" lon="15.1455533"><ele>139.0</ele><time>2026-04-12T07:10:12.603Z</time></trkpt><trkpt lat="36.9947568" lon="15.1455025"><ele>139.0</ele><time>2026-04-12T07:10:14.602Z</time></trkpt><trkpt lat="36.9948399" lon="15.1454481"><ele>139.0</ele><time>2026-04-12T07:10:17.603Z</time></trkpt><trkpt lat="36.9948945" lon="15.1453824"><ele>139.0</ele><time>2026-04-12T07:10:19.603Z</time></trkpt><trkpt lat="36.9949427" lon="15.1453259"><ele>139.0</ele><time>2026-04-12T07:10:21.602Z</time></trkpt><trkpt lat="36.9949771" lon="15.1452545"><ele>139.0</ele><time>2026-04-12T07:10:24.603Z</time></trkpt><trkpt lat="36.9950316" lon="15.1451989"><ele>139.0</ele><time>2026-04-12T07:10:28.602Z</time></trkpt><trkpt lat="36.9951004" lon="15.1451583"><ele>142.0</ele><time>2026-04-12T07:10:32.602Z</time></trkpt><trkpt lat="36.9951479" lon="15.1450577"><ele>145.0</ele><time>2026-04-12T07:10:35.603Z</time></trkpt><trkpt lat="36.9951605" lon="15.1449518"><ele>148.0</ele><time>2026-04-12T07:10:37.603Z</time></trkpt><trkpt lat="36.995166" lon="15.1448712"><ele>151.0</ele><time>2026-04-12T07:10:38.603Z</time></trkpt><trkpt lat="36.9951887" lon="15.1447313"><ele>154.0</ele><time>2026-04-12T07:10:40.603Z</time></trkpt><trkpt lat="36.995206" lon="15.1446304"><ele>157.0</ele><time>2026-04-12T07:10:42.603Z</time></trkpt><trkpt lat="36.9951415" lon="15.1445431"><ele>157.0</ele><time>2026-04-12T07:10:46.603Z</time></trkpt><trkpt lat="36.9950982" lon="15.1444651"><ele>157.0</ele><time>2026-04-12T07:10:48.603Z</time></trkpt><trkpt lat="36.9950945" lon="15.144351"><ele>157.0</ele><time>2026-04-12T07:10:50.602Z</time></trkpt><trkpt lat="36.9950676" lon="15.1442584"><ele>157.0</ele><time>2026-04-12T07:10:52.602Z</time></trkpt><trkpt lat="36.995045" lon="15.1441738"><ele>157.0</ele><time>2026-04-12T07:10:54.602Z</time></trkpt><trkpt lat="36.9950326" lon="15.14408"><ele>157.0</ele><time>2026-04-12T07:10:56.603Z</time></trkpt><trkpt lat="36.9950259" lon="15.143996"><ele>156.57142857142856</ele><time>2026-04-12T07:10:58.603Z</time></trkpt><trkpt lat="36.9950159" lon="15.1439052"><ele>156.14285714285714</ele><time>2026-04-12T07:11:00.602Z</time></trkpt><trkpt lat="36.9949938" lon="15.1438188"><ele>155.71428571428572</ele><time>2026-04-12T07:11:03.603Z</time></trkpt><trkpt lat="36.9949941" lon="15.1437348"><ele>155.28571428571428</ele><time>2026-04-12T07:11:05.602Z</time></trkpt><trkpt lat="36.9949712" lon="15.1436589"><ele>154.85714285714286</ele><time>2026-04-12T07:11:08.602Z</time></trkpt><trkpt lat="36.9949503" lon="15.1435803"><ele>154.42857142857142</ele><time>2026-04-12T07:11:10.52Z</time></trkpt><trkpt lat="36.9949154" lon="15.1435083"><ele>154.0</ele><time>2026-04-12T07:11:12.603Z</time></trkpt><trkpt lat="36.9948732" lon="15.1434488"><ele>152.28571428571428</ele><time>2026-04-12T07:11:14.603Z</time></trkpt><trkpt lat="36.9948498" lon="15.1433563"><ele>150.57142857142856</ele><time>2026-04-12T07:11:17.603Z</time></trkpt><trkpt lat="36.994828" lon="15.1432816"><ele>148.85714285714286</ele><time>2026-04-12T07:11:20.602Z</time></trkpt><trkpt lat="36.9948019" lon="15.1432061"><ele>147.14285714285714</ele><time>2026-04-12T07:11:24.602Z</time></trkpt><trkpt lat="36.9947635" lon="15.1431329"><ele>145.42857142857142</ele><time>2026-04-12T07:11:27.603Z</time></trkpt><trkpt lat="36.9947079" lon="15.1430841"><ele>143.71428571428572</ele><time>2026-04-12T07:11:30.602Z</time></trkpt><trkpt lat="36.9946634" lon="15.1430183"><ele>142.0</ele><time>2026-04-12T07:11:33.603Z</time></trkpt><trkpt lat="36.994664" lon="15.1428886"><ele>141.66666666666669</ele><time>2026-04-12T07:11:34.602Z</time></trkpt><trkpt lat="36.9946424" lon="15.1427941"><ele>141.33333333333334</ele><time>2026-04-12T07:11:35.603Z</time></trkpt><trkpt lat="36.9945956" lon="15.1426942"><ele>141.0</ele><time>2026-04-12T07:11:37.602Z</time></trkpt><trkpt lat="36.9945784" lon="15.1425962"><ele>140.66666666666666</ele><time>2026-04-12T07:20:03.602Z</time></trkpt><trkpt lat="36.9945257" lon="15.1425091"><ele>140.33333333333331</ele><time>2026-04-12T07:20:07.603Z</time></trkpt><trkpt lat="36.9944859" lon="15.1424291"><ele>140.0</ele><time>2026-04-12T07:20:09.602Z</time></trkpt><trkpt lat="36.9944272" lon="15.1423547"><ele>141.16666666666666</ele><time>2026-04-12T07:20:11.603Z</time></trkpt><trkpt lat="36.9943862" lon="15.1422767"><ele>142.33333333333331</ele><time>2026-04-12T07:20:14.602Z</time></trkpt><trkpt lat="36.994341" lon="15.1421954"><ele>143.5</ele><time>2026-04-12T07:20:17.602Z</time></trkpt><trkpt lat="36.9943087" lon="15.1420919"><ele>144.66666666666666</ele><time>2026-04-12T07:20:19.603Z</time></trkpt><trkpt lat="36.9943047" lon="15.1419928"><ele>145.83333333333334</ele><time>2026-04-12T07:20:22.603Z</time></trkpt><trkpt lat="36.9942871" lon="15.1419101"><ele>147.0</ele><time>2026-04-12T07:20:25.602Z</time></trkpt><trkpt lat="36.9942346" lon="15.1418339"><ele>147.0</ele><time>2026-04-12T07:20:27.603Z</time></trkpt><trkpt lat="36.9942054" lon="15.1417598"><ele>147.0</ele><time>2026-04-12T07:20:28.603Z</time></trkpt><trkpt lat="36.9941812" lon="15.1416712"><ele>147.0</ele><time>2026-04-12T07:20:29.602Z</time></trkpt><trkpt lat="36.994148" lon="15.1415796"><ele>147.0</ele><time>2026-04-12T07:20:30.603Z</time></trkpt><trkpt lat="36.9941169" lon="15.1414747"><ele>147.0</ele><time>2026-04-12T07:20:31.602Z</time></trkpt><trkpt lat="36.9940861" lon="15.141392"><ele>147.0</ele><time>2026-04-12T07:20:32.602Z</time></trkpt><trkpt lat="36.9940535" lon="15.1413235"><ele>147.0</ele><time>2026-04-12T07:20:33.602Z</time></trkpt><trkpt lat="36.9940065" lon="15.1412681"><ele>148.83333333333334</ele><time>2026-04-12T07:20:34.602Z</time></trkpt><trkpt lat="36.9939498" lon="15.1412104"><ele>150.66666666666666</ele><time>2026-04-12T07:20:35.602Z</time></trkpt><trkpt lat="36.9938527" lon="15.1411367"><ele>152.5</ele><time>2026-04-12T07:20:37.602Z</time></trkpt><trkpt lat="36.9939165" lon="15.1411752"><ele>154.33333333333331</ele><time>2026-04-12T07:20:41.603Z</time></trkpt><trkpt lat="36.9939973" lon="15.141197"><ele>156.16666666666666</ele><time>2026-04-12T07:20:45.602Z</time></trkpt><trkpt lat="36.9940256" lon="15.1412949"><ele>158.0</ele><time>2026-04-12T07:20:49.602Z</time></trkpt><trkpt lat="36.9940558" lon="15.1413872"><ele>158.0</ele><time>2026-04-12T07:20:58.603Z</time></trkpt><trkpt lat="36.9940668" lon="15.1415292"><ele>158.0</ele><time>2026-04-12T07:21:00.602Z</time></trkpt><trkpt lat="36.9940683" lon="15.1416375"><ele>158.0</ele><time>2026-04-12T07:21:01.603Z</time></trkpt><trkpt lat="36.9940717" lon="15.1417174"><ele>158.0</ele><time>2026-04-12T07:21:02.603Z</time></trkpt><trkpt lat="36.9941055" lon="15.1418313"><ele>158.0</ele><time>2026-04-12T07:21:04.603Z</time></trkpt><trkpt lat="36.9942407" lon="15.1417323"><ele>156.16666666666666</ele><time>2026-04-12T07:21:06.603Z</time></trkpt><trkpt lat="36.9943081" lon="15.1416941"><ele>154.33333333333331</ele><time>2026-04-12T07:21:07.603Z</time></trkpt><trkpt lat="36.9943983" lon="15.1416715"><ele>152.5</ele><time>2026-04-12T07:21:08.603Z</time></trkpt><trkpt lat="36.9944627" lon="15.1416705"><ele>150.66666666666666</ele><time>2026-04-12T07:21:09.602Z</time></trkpt><trkpt lat="36.994574" lon="15.141741"><ele>148.83333333333334</ele><time>2026-04-12T07:21:11.603Z</time></trkpt><trkpt lat="36.9946364" lon="15.1418019"><ele>147.0</ele><time>2026-04-12T07:21:12.603Z</time></trkpt><trkpt lat="36.9947092" lon="15.1418693"><ele>147.0</ele><time>2026-04-12T07:21:13.602Z</time></trkpt><trkpt lat="36.9947774" lon="15.1419078"><ele>147.0</ele><time>2026-04-12T07:21:14.602Z</time></trkpt><trkpt lat="36.9948985" lon="15.1418975"><ele>147.0</ele><time>2026-04-12T07:21:16.602Z</time></trkpt><trkpt lat="36.9949648" lon="15.1418572"><ele>147.0</ele><time>2026-04-12T07:21:17.602Z</time></trkpt><trkpt lat="36.9950368" lon="15.1417938"><ele>147.0</ele><time>2026-04-12T07:21:18.602Z</time></trkpt><trkpt lat="36.9951154" lon="15.1417033"><ele>146.33333333333334</ele><time>2026-04-12T07:21:19.602Z</time></trkpt><trkpt lat="36.9951885" lon="15.1416109"><ele>145.66666666666666</ele><time>2026-04-12T07:21:20.602Z</time></trkpt><trkpt lat="36.995247" lon="15.1415377"><ele>145.0</ele><time>2026-04-12T07:21:21.602Z</time></trkpt><trkpt lat="36.9952928" lon="15.1414648"><ele>144.33333333333331</ele><time>2026-04-12T07:21:22.602Z</time></trkpt><trkpt lat="36.9953512" lon="15.1413922"><ele>143.66666666666666</ele><time>2026-04-12T07:21:24.602Z</time></trkpt><trkpt lat="36.9954121" lon="15.1413031"><ele>143.0</ele><time>2026-04-12T07:21:26.603Z</time></trkpt><trkpt lat="36.9954483" lon="15.1411709"><ele>143.0</ele><time>2026-04-12T07:21:28.603Z</time></trkpt><trkpt lat="36.9954954" lon="15.1410667"><ele>143.0</ele><time>2026-04-12T07:21:30.603Z</time></trkpt><trkpt lat="36.9955234" lon="15.1409933"><ele>143.0</ele><time>2026-04-12T07:21:31.603Z</time></trkpt><trkpt lat="36.9955404" lon="15.1409003"><ele>143.0</ele><time>2026-04-12T07:21:32.602Z</time></trkpt><trkpt lat="36.9955603" lon="15.1408131"><ele>143.0</ele><time>2026-04-12T07:21:33.602Z</time></trkpt><trkpt lat="36.9955792" lon="15.140709"><ele>143.0</ele><time>2026-04-12T07:21:34.602Z</time></trkpt><trkpt lat="36.995652" lon="15.1405618"><ele>144.0</ele><time>2026-04-12T07:21:35.603Z</time></trkpt><trkpt lat="36.9956907" lon="15.140448"><ele>145.0</ele><time>2026-04-12T07:21:36.603Z</time></trkpt><trkpt lat="36.9957327" lon="15.1403555"><ele>146.0</ele><time>2026-04-12T07:21:37.602Z</time></trkpt><trkpt lat="36.9958318" lon="15.1402505"><ele>147.0</ele><time>2026-04-12T07:21:39.603Z</time></trkpt><trkpt lat="36.9959316" lon="15.1401409"><ele>148.0</ele><time>2026-04-12T07:21:41.603Z</time></trkpt><trkpt lat="36.9960366" lon="15.1400723"><ele>148.0</ele><time>2026-04-12T07:21:43.603Z</time></trkpt><trkpt lat="36.9961394" lon="15.1400414"><ele>148.0</ele><time>2026-04-12T07:21:45.602Z</time></trkpt><trkpt lat="36.9961916" lon="15.1399944"><ele>148.0</ele><time>2026-04-12T07:21:47.602Z</time></trkpt><trkpt lat="36.9962657" lon="15.1399673"><ele>148.0</ele><time>2026-04-12T07:21:56.603Z</time></trkpt><trkpt lat="36.9963125" lon="15.1399115"><ele>148.0</ele><time>2026-04-12T07:21:58.602Z</time></trkpt><trkpt lat="36.9963733" lon="15.1398532"><ele>148.0</ele><time>2026-04-12T07:21:59.603Z</time></trkpt><trkpt lat="36.9964717" lon="15.1397782"><ele>148.5</ele><time>2026-04-12T07:22:01.603Z</time></trkpt><trkpt lat="36.9965335" lon="15.1397052"><ele>149.0</ele><time>2026-04-12T07:22:03.603Z</time></trkpt><trkpt lat="36.9965791" lon="15.1395939"><ele>149.5</ele><time>2026-04-12T07:22:05.603Z</time></trkpt><trkpt lat="36.9966451" lon="15.1395202"><ele>150.0</ele><time>2026-04-12T07:22:07.602Z</time></trkpt><trkpt lat="36.9966736" lon="15.1394213"><ele>150.5</ele><time>2026-04-12T07:22:09.602Z</time></trkpt><trkpt lat="36.9967044" lon="15.1393419"><ele>151.0</ele><time>2026-04-12T07:22:11.602Z</time></trkpt><trkpt lat="36.996741" lon="15.1392677"><ele>151.0</ele><time>2026-04-12T07:22:13.603Z</time></trkpt><trkpt lat="36.996793" lon="15.1391602"><ele>151.0</ele><time>2026-04-12T07:22:15.602Z</time></trkpt><trkpt lat="36.996853" lon="15.1390598"><ele>151.0</ele><time>2026-04-12T07:22:17.602Z</time></trkpt><trkpt lat="36.996886" lon="15.1389503"><ele>151.0</ele><time>2026-04-12T07:22:19.603Z</time></trkpt><trkpt lat="36.9969171" lon="15.1388563"><ele>151.0</ele><time>2026-04-12T07:22:21.603Z</time></trkpt><trkpt lat="36.996957" lon="15.1387546"><ele>151.83333333333334</ele><time>2026-04-12T07:22:23.603Z</time></trkpt><trkpt lat="36.996987" lon="15.138675"><ele>152.66666666666669</ele><time>2026-04-12T07:22:24.603Z</time></trkpt><trkpt lat="36.9970193" lon="15.1385957"><ele>153.5</ele><time>2026-04-12T07:22:25.602Z</time></trkpt><trkpt lat="36.9970627" lon="15.1384738"><ele>154.33333333333334</ele><time>2026-04-12T07:22:27.603Z</time></trkpt><trkpt lat="36.9970734" lon="15.1383504"><ele>155.16666666666666</ele><time>2026-04-12T07:22:29.603Z</time></trkpt><trkpt lat="36.9970822" lon="15.138272"><ele>156.0</ele><time>2026-04-12T07:22:30.602Z</time></trkpt><trkpt lat="36.9970703" lon="15.1381919"><ele>156.6</ele><time>2026-04-12T07:22:31.603Z</time></trkpt><trkpt lat="36.9970511" lon="15.1381128"><ele>157.2</ele><time>2026-04-12T07:22:32.603Z</time></trkpt><trkpt lat="36.9970386" lon="15.1379741"><ele>157.8</ele><time>2026-04-12T07:22:34.602Z</time></trkpt><trkpt lat="36.9970496" lon="15.1378347"><ele>158.4</ele><time>2026-04-12T07:22:36.603Z</time></trkpt><trkpt lat="36.9970477" lon="15.1377269"><ele>159.0</ele><time>2026-04-12T07:22:37.602Z</time></trkpt><trkpt lat="36.997049" lon="15.1376073"><ele>159.0</ele><time>2026-04-12T07:22:38.603Z</time></trkpt><trkpt lat="36.9970242" lon="15.1375287"><ele>159.0</ele><time>2026-04-12T07:22:39.602Z</time></trkpt><trkpt lat="36.9969958" lon="15.1374487"><ele>159.0</ele><time>2026-04-12T07:22:40.602Z</time></trkpt><trkpt lat="36.9969725" lon="15.1373635"><ele>159.0</ele><time>2026-04-12T07:22:41.602Z</time></trkpt><trkpt lat="36.9969562" lon="15.1372791"><ele>159.0</ele><time>2026-04-12T07:22:42.602Z</time></trkpt><trkpt lat="36.9969381" lon="15.1372031"><ele>159.0</ele><time>2026-04-12T07:22:43.603Z</time></trkpt><trkpt lat="36.9969147" lon="15.1371121"><ele>159.0</ele><time>2026-04-12T07:22:44.602Z</time></trkpt><trkpt lat="36.9969057" lon="15.1370151"><ele>159.33333333333334</ele><time>2026-04-12T07:22:45.602Z</time></trkpt><trkpt lat="36.9968928" lon="15.136926"><ele>159.66666666666666</ele><time>2026-04-12T07:22:46.603Z</time></trkpt><trkpt lat="36.9968825" lon="15.136847"><ele>160.0</ele><time>2026-04-12T07:22:47.603Z</time></trkpt><trkpt lat="36.9968476" lon="15.1367043"><ele>160.33333333333331</ele><time>2026-04-12T07:22:49.602Z</time></trkpt><trkpt lat="36.9968171" lon="15.1366241"><ele>160.66666666666666</ele><time>2026-04-12T07:22:50.602Z</time></trkpt><trkpt lat="36.9967974" lon="15.1365482"><ele>161.0</ele><time>2026-04-12T07:22:51.602Z</time></trkpt><trkpt lat="36.9967903" lon="15.1364621"><ele>162.20000000000002</ele><time>2026-04-12T07:22:52.603Z</time></trkpt><trkpt lat="36.9967935" lon="15.1363771"><ele>163.4</ele><time>2026-04-12T07:22:53.602Z</time></trkpt><trkpt lat="36.9967806" lon="15.1362512"><ele>164.6</ele><time>2026-04-12T07:22:55.603Z</time></trkpt><trkpt lat="36.9967546" lon="15.136125"><ele>165.8</ele><time>2026-04-12T07:22:57.602Z</time></trkpt><trkpt lat="36.9967509" lon="15.1360405"><ele>167.0</ele><time>2026-04-12T07:22:58.603Z</time></trkpt><trkpt lat="36.9967569" lon="15.1358934"><ele>167.0</ele><time>2026-04-12T07:23:00.602Z</time></trkpt><trkpt lat="36.9967548" lon="15.1357579"><ele>167.0</ele><time>2026-04-12T07:23:02.602Z</time></trkpt><trkpt lat="36.996748" lon="15.1355863"><ele>167.0</ele><time>2026-04-12T07:23:04.603Z</time></trkpt><trkpt lat="36.9967536" lon="15.1354975"><ele>167.0</ele><time>2026-04-12T07:23:05.603Z</time></trkpt><trkpt lat="36.9967478" lon="15.1354181"><ele>167.0</ele><time>2026-04-12T07:23:06.602Z</time></trkpt><trkpt lat="36.9967361" lon="15.1352775"><ele>167.83333333333331</ele><time>2026-04-12T07:23:08.602Z</time></trkpt><trkpt lat="36.9967487" lon="15.1351764"><ele>168.66666666666666</ele><time>2026-04-12T07:23:09.602Z</time></trkpt><trkpt lat="36.9967571" lon="15.135085"><ele>169.5</ele><time>2026-04-12T07:23:10.602Z</time></trkpt><trkpt lat="36.9967569" lon="15.1349955"><ele>170.33333333333334</ele><time>2026-04-12T07:23:11.603Z</time></trkpt><trkpt lat="36.9967616" lon="15.1348949"><ele>171.16666666666669</ele><time>2026-04-12T07:23:12.603Z</time></trkpt><trkpt lat="36.9967658" lon="15.134797"><ele>172.0</ele><time>2026-04-12T07:23:13.602Z</time></trkpt><trkpt lat="36.9967862" lon="15.134688"><ele>172.66666666666669</ele><time>2026-04-12T07:23:14.602Z</time></trkpt><trkpt lat="36.9968029" lon="15.1345853"><ele>173.33333333333334</ele><time>2026-04-12T07:23:15.602Z</time></trkpt><trkpt lat="36.9968097" lon="15.1344652"><ele>174.0</ele><time>2026-04-12T07:23:16.603Z</time></trkpt><trkpt lat="36.9968124" lon="15.1343623"><ele>174.66666666666666</ele><time>2026-04-12T07:23:17.603Z</time></trkpt><trkpt lat="36.9968124" lon="15.1342613"><ele>175.33333333333331</ele><time>2026-04-12T07:23:18.602Z</time></trkpt><trkpt lat="36.9968183" lon="15.1341606"><ele>176.0</ele><time>2026-04-12T07:23:19.603Z</time></trkpt><trkpt lat="36.9968285" lon="15.1340639"><ele>176.57142857142858</ele><time>2026-04-12T07:23:20.603Z</time></trkpt><trkpt lat="36.9968409" lon="15.1339698"><ele>177.14285714285714</ele><time>2026-04-12T07:23:21.602Z</time></trkpt><trkpt lat="36.9968459" lon="15.1338855"><ele>177.71428571428572</ele><time>2026-04-12T07:23:22.602Z</time></trkpt><trkpt lat="36.9968487" lon="15.1337985"><ele>178.28571428571428</ele><time>2026-04-12T07:23:23.603Z</time></trkpt><trkpt lat="36.9968546" lon="15.1337062"><ele>178.85714285714286</ele><time>2026-04-12T07:23:24.602Z</time></trkpt><trkpt lat="36.9968589" lon="15.133612"><ele>179.42857142857142</ele><time>2026-04-12T07:23:25.603Z</time></trkpt><trkpt lat="36.9968686" lon="15.1335192"><ele>180.0</ele><time>2026-04-12T07:23:26.603Z</time></trkpt><trkpt lat="36.996874" lon="15.1334322"><ele>180.0</ele><time>2026-04-12T07:23:27.602Z</time></trkpt><trkpt lat="36.9968836" lon="15.1333537"><ele>180.0</ele><time>2026-04-12T07:23:28.602Z</time></trkpt><trkpt lat="36.996885" lon="15.1332153"><ele>180.0</ele><time>2026-04-12T07:23:30.603Z</time></trkpt><trkpt lat="36.996874" lon="15.1330616"><ele>180.0</ele><time>2026-04-12T07:23:32.603Z</time></trkpt><trkpt lat="36.9968858" lon="15.132905"><ele>180.0</ele><time>2026-04-12T07:23:34.603Z</time></trkpt><trkpt lat="36.9968956" lon="15.1328145"><ele>181.2</ele><time>2026-04-12T07:23:35.603Z</time></trkpt><trkpt lat="36.9968961" lon="15.1326638"><ele>182.4</ele><time>2026-04-12T07:23:37.603Z</time></trkpt><trkpt lat="36.9968887" lon="15.1325257"><ele>183.60000000000002</ele><time>2026-04-12T07:23:39.602Z</time></trkpt><trkpt lat="36.9968977" lon="15.1324011"><ele>184.8</ele><time>2026-04-12T07:23:41.603Z</time></trkpt><trkpt lat="36.9968938" lon="15.1322874"><ele>186.0</ele><time>2026-04-12T07:23:43.603Z</time></trkpt><trkpt lat="36.9968923" lon="15.1321408"><ele>186.5</ele><time>2026-04-12T07:23:45.603Z</time></trkpt><trkpt lat="36.99691" lon="15.1319756"><ele>187.0</ele><time>2026-04-12T07:23:47.602Z</time></trkpt><trkpt lat="36.9969127" lon="15.1318901"><ele>187.5</ele><time>2026-04-12T07:23:48.602Z</time></trkpt><trkpt lat="36.9969284" lon="15.1317881"><ele>188.0</ele><time>2026-04-12T07:23:49.602Z</time></trkpt><trkpt lat="36.9969491" lon="15.1316972"><ele>188.5</ele><time>2026-04-12T07:23:50.602Z</time></trkpt><trkpt lat="36.9969743" lon="15.1316128"><ele>189.0</ele><time>2026-04-12T07:23:51.602Z</time></trkpt><trkpt lat="36.9969885" lon="15.1314554"><ele>189.33333333333334</ele><time>2026-04-12T07:23:53.602Z</time></trkpt><trkpt lat="36.9969944" lon="15.1313421"><ele>189.66666666666666</ele><time>2026-04-12T07:23:54.602Z</time></trkpt><trkpt lat="36.9969959" lon="15.1312457"><ele>190.0</ele><time>2026-04-12T07:23:55.603Z</time></trkpt><trkpt lat="36.9969868" lon="15.1311666"><ele>190.33333333333331</ele><time>2026-04-12T07:23:56.603Z</time></trkpt><trkpt lat="36.9969982" lon="15.1310732"><ele>190.66666666666666</ele><time>2026-04-12T07:23:57.603Z</time></trkpt><trkpt lat="36.9970051" lon="15.1309299"><ele>191.0</ele><time>2026-04-12T07:23:59.602Z</time></trkpt><trkpt lat="36.9970045" lon="15.1308363"><ele>191.66666666666666</ele><time>2026-04-12T07:24:00.602Z</time></trkpt><trkpt lat="36.9969936" lon="15.1307189"><ele>192.33333333333331</ele><time>2026-04-12T07:24:01.603Z</time></trkpt><trkpt lat="36.9969938" lon="15.1306032"><ele>193.0</ele><time>2026-04-12T07:24:02.603Z</time></trkpt><trkpt lat="36.9969847" lon="15.1305115"><ele>193.66666666666666</ele><time>2026-04-12T07:24:03.603Z</time></trkpt><trkpt lat="36.9969799" lon="15.1304145"><ele>194.33333333333334</ele><time>2026-04-12T07:24:04.603Z</time></trkpt><trkpt lat="36.9969773" lon="15.130317"><ele>195.0</ele><time>2026-04-12T07:24:05.602Z</time></trkpt><trkpt lat="36.9969721" lon="15.1301889"><ele>195.0</ele><time>2026-04-12T07:24:07.602Z</time></trkpt><trkpt lat="36.9969557" lon="15.1300749"><ele>195.0</ele><time>2026-04-12T07:24:09.603Z</time></trkpt><trkpt lat="36.9969743" lon="15.1299697"><ele>195.0</ele><time>2026-04-12T07:24:11.603Z</time></trkpt><trkpt lat="36.9970014" lon="15.1298295"><ele>195.0</ele><time>2026-04-12T07:24:13.603Z</time></trkpt><trkpt lat="36.9969986" lon="15.1297406"><ele>195.0</ele><time>2026-04-12T07:24:14.602Z</time></trkpt><trkpt lat="36.9969872" lon="15.129582"><ele>195.33333333333334</ele><time>2026-04-12T07:24:16.603Z</time></trkpt><trkpt lat="36.9970061" lon="15.1294745"><ele>195.66666666666669</ele><time>2026-04-12T07:24:17.602Z</time></trkpt><trkpt lat="36.9970306" lon="15.1293835"><ele>196.0</ele><time>2026-04-12T07:24:18.602Z</time></trkpt><trkpt lat="36.9970276" lon="15.1292972"><ele>196.33333333333334</ele><time>2026-04-12T07:24:19.603Z</time></trkpt><trkpt lat="36.9970338" lon="15.1292083"><ele>196.66666666666669</ele><time>2026-04-12T07:24:20.602Z</time></trkpt><trkpt lat="36.9970504" lon="15.1291066"><ele>197.0</ele><time>2026-04-12T07:24:21.603Z</time></trkpt><trkpt lat="36.9970629" lon="15.1290243"><ele>197.50000000000003</ele><time>2026-04-12T07:24:22.602Z</time></trkpt><trkpt lat="36.9970802" lon="15.128937"><ele>198.0</ele><time>2026-04-12T07:24:23.603Z</time></trkpt><trkpt lat="36.997122" lon="15.1287909"><ele>198.5</ele><time>2026-04-12T07:24:25.603Z</time></trkpt><trkpt lat="36.9971277" lon="15.1287098"><ele>199.0</ele><time>2026-04-12T07:24:26.602Z</time></trkpt><trkpt lat="36.9971196" lon="15.1286217"><ele>199.50000000000003</ele><time>2026-04-12T07:24:27.602Z</time></trkpt><trkpt lat="36.9971146" lon="15.128532"><ele>200.0</ele><time>2026-04-12T07:24:28.602Z</time></trkpt><trkpt lat="36.9971212" lon="15.128438"><ele>200.0</ele><time>2026-04-12T07:24:29.602Z</time></trkpt><trkpt lat="36.9971332" lon="15.1282894"><ele>200.0</ele><time>2026-04-12T07:24:31.603Z</time></trkpt><trkpt lat="36.997149" lon="15.1281288"><ele>200.0</ele><time>2026-04-12T07:24:33.603Z</time></trkpt><trkpt lat="36.9971716" lon="15.1280123"><ele>200.0</ele><time>2026-04-12T07:24:35.602Z</time></trkpt><trkpt lat="36.9971894" lon="15.1279109"><ele>200.0</ele><time>2026-04-12T07:24:42.603Z</time></trkpt><trkpt lat="36.9972099" lon="15.1277791"><ele>200.85714285714286</ele><time>2026-04-12T07:24:44.602Z</time></trkpt><trkpt lat="36.9972217" lon="15.1276995"><ele>201.71428571428572</ele><time>2026-04-12T07:24:45.603Z</time></trkpt><trkpt lat="36.9972377" lon="15.1276129"><ele>202.57142857142856</ele><time>2026-04-12T07:24:46.603Z</time></trkpt><trkpt lat="36.997246" lon="15.1275273"><ele>203.42857142857144</ele><time>2026-04-12T07:24:47.602Z</time></trkpt><trkpt lat="36.9972562" lon="15.127445"><ele>204.28571428571428</ele><time>2026-04-12T07:24:48.602Z</time></trkpt><trkpt lat="36.997262" lon="15.1273558"><ele>205.14285714285714</ele><time>2026-04-12T07:24:49.603Z</time></trkpt><trkpt lat="36.9972656" lon="15.127263"><ele>206.0</ele><time>2026-04-12T07:24:50.602Z</time></trkpt><trkpt lat="36.9972766" lon="15.1271713"><ele>207.00000000000003</ele><time>2026-04-12T07:24:51.602Z</time></trkpt><trkpt lat="36.9972864" lon="15.1270692"><ele>208.0</ele><time>2026-04-12T07:24:52.602Z</time></trkpt><trkpt lat="36.997298" lon="15.1269576"><ele>209.0</ele><time>2026-04-12T07:24:53.602Z</time></trkpt><trkpt lat="36.9972967" lon="15.1268596"><ele>210.0</ele><time>2026-04-12T07:24:54.602Z</time></trkpt><trkpt lat="36.9972931" lon="15.1267466"><ele>211.00000000000003</ele><time>2026-04-12T07:24:55.602Z</time></trkpt><trkpt lat="36.9973024" lon="15.126646"><ele>212.0</ele><time>2026-04-12T07:24:56.603Z</time></trkpt><trkpt lat="36.9973125" lon="15.1265484"><ele>212.57142857142858</ele><time>2026-04-12T07:24:57.602Z</time></trkpt><trkpt lat="36.997322" lon="15.1264637"><ele>213.14285714285714</ele><time>2026-04-12T07:24:58.603Z</time></trkpt><trkpt lat="36.9973338" lon="15.1263778"><ele>213.71428571428572</ele><time>2026-04-12T07:24:59.603Z</time></trkpt><trkpt lat="36.9973402" lon="15.1262883"><ele>214.28571428571428</ele><time>2026-04-12T07:25:00.603Z</time></trkpt><trkpt lat="36.9973537" lon="15.1261935"><ele>214.85714285714283</ele><time>2026-04-12T07:25:01.602Z</time></trkpt><trkpt lat="36.9973706" lon="15.1261003"><ele>215.42857142857142</ele><time>2026-04-12T07:25:02.602Z</time></trkpt><trkpt lat="36.9973763" lon="15.1260039"><ele>216.0</ele><time>2026-04-12T07:25:03.602Z</time></trkpt><trkpt lat="36.9973774" lon="15.1259109"><ele>216.0</ele><time>2026-04-12T07:25:04.603Z</time></trkpt><trkpt lat="36.9973913" lon="15.1258222"><ele>216.00000000000003</ele><time>2026-04-12T07:25:05.602Z</time></trkpt><trkpt lat="36.9974048" lon="15.1257209"><ele>216.00000000000003</ele><time>2026-04-12T07:25:06.602Z</time></trkpt><trkpt lat="36.9974117" lon="15.1256319"><ele>216.0</ele><time>2026-04-12T07:25:07.602Z</time></trkpt><trkpt lat="36.9974431" lon="15.1255013"><ele>216.0</ele><time>2026-04-12T07:25:09.603Z</time></trkpt><trkpt lat="36.9975363" lon="15.1254002"><ele>215.16666666666666</ele><time>2026-04-12T07:25:11.603Z</time></trkpt><trkpt lat="36.997597" lon="15.1253473"><ele>214.33333333333331</ele><time>2026-04-12T07:25:12.602Z</time></trkpt><trkpt lat="36.9976597" lon="15.1252849"><ele>213.5</ele><time>2026-04-12T07:25:13.602Z</time></trkpt><trkpt lat="36.9977264" lon="15.1252241"><ele>212.66666666666666</ele><time>2026-04-12T07:25:14.602Z</time></trkpt><trkpt lat="36.9978025" lon="15.1251435"><ele>211.83333333333331</ele><time>2026-04-12T07:25:15.602Z</time></trkpt><trkpt lat="36.9978803" lon="15.1250726"><ele>211.0</ele><time>2026-04-12T07:25:16.602Z</time></trkpt><trkpt lat="36.9979483" lon="15.1250069"><ele>210.99999999999997</ele><time>2026-04-12T07:25:17.603Z</time></trkpt><trkpt lat="36.9980023" lon="15.1249321"><ele>211.0</ele><time>2026-04-12T07:25:18.602Z</time></trkpt><trkpt lat="36.9980484" lon="15.1248433"><ele>211.0</ele><time>2026-04-12T07:25:19.603Z</time></trkpt><trkpt lat="36.9980947" lon="15.1247643"><ele>211.0</ele><time>2026-04-12T07:25:20.603Z</time></trkpt><trkpt lat="36.9981436" lon="15.1246839"><ele>210.99999999999997</ele><time>2026-04-12T07:25:21.602Z</time></trkpt><trkpt lat="36.9981977" lon="15.1245893"><ele>211.0</ele><time>2026-04-12T07:25:22.602Z</time></trkpt><trkpt lat="36.9982521" lon="15.1244835"><ele>211.5</ele><time>2026-04-12T07:25:23.602Z</time></trkpt><trkpt lat="36.9983136" lon="15.1243682"><ele>212.0</ele><time>2026-04-12T07:25:24.603Z</time></trkpt><trkpt lat="36.9983882" lon="15.124233"><ele>212.5</ele><time>2026-04-12T07:25:25.602Z</time></trkpt><trkpt lat="36.9984658" lon="15.124089"><ele>213.0</ele><time>2026-04-12T07:25:26.603Z</time></trkpt><trkpt lat="36.9985422" lon="15.1239292"><ele>210.33333333333331</ele><time>2026-04-12T07:25:27.603Z</time></trkpt><trkpt lat="36.9986171" lon="15.1237655"><ele>207.66666666666666</ele><time>2026-04-12T07:25:28.603Z</time></trkpt><trkpt lat="36.9986868" lon="15.1235818"><ele>205.0</ele><time>2026-04-12T07:25:29.602Z</time></trkpt><trkpt lat="36.9987539" lon="15.1233791"><ele>205.0</ele><time>2026-04-12T07:25:30.603Z</time></trkpt><trkpt lat="36.998815" lon="15.123184"><ele>205.0</ele><time>2026-04-12T07:25:31.602Z</time></trkpt><trkpt lat="36.9988812" lon="15.1229959"><ele>205.0</ele><time>2026-04-12T07:25:32.602Z</time></trkpt><trkpt lat="36.9989382" lon="15.1228224"><ele>205.0</ele><time>2026-04-12T07:25:33.603Z</time></trkpt><trkpt lat="36.9989928" lon="15.1226581"><ele>205.0</ele><time>2026-04-12T07:25:34.602Z</time></trkpt><trkpt lat="36.9990439" lon="15.1225059"><ele>205.0</ele><time>2026-04-12T07:25:35.603Z</time></trkpt><trkpt lat="36.9990956" lon="15.1223548"><ele>205.0</ele><time>2026-04-12T07:25:36.603Z</time></trkpt><trkpt lat="36.999149" lon="15.1222042"><ele>204.0</ele><time>2026-04-12T07:25:37.602Z</time></trkpt><trkpt lat="36.9991944" lon="15.1220503"><ele>203.0</ele><time>2026-04-12T07:25:38.602Z</time></trkpt><trkpt lat="36.9992406" lon="15.1219021"><ele>202.0</ele><time>2026-04-12T07:25:39.603Z</time></trkpt><trkpt lat="36.9993017" lon="15.1217472"><ele>201.0</ele><time>2026-04-12T07:25:40.602Z</time></trkpt><trkpt lat="36.9993563" lon="15.1215837"><ele>201.33333333333331</ele><time>2026-04-12T07:25:41.602Z</time></trkpt><trkpt lat="36.9994191" lon="15.1214223"><ele>201.66666666666666</ele><time>2026-04-12T07:25:42.602Z</time></trkpt><trkpt lat="36.9994796" lon="15.1212534"><ele>202.0</ele><time>2026-04-12T07:25:43.602Z</time></trkpt><trkpt lat="36.9995411" lon="15.121069"><ele>202.0</ele><time>2026-04-12T07:25:44.602Z</time></trkpt><trkpt lat="36.9996074" lon="15.1208844"><ele>202.0</ele><time>2026-04-12T07:25:45.602Z</time></trkpt><trkpt lat="36.9996723" lon="15.1207021"><ele>202.0</ele><time>2026-04-12T07:25:46.603Z</time></trkpt><trkpt lat="36.9997401" lon="15.120517"><ele>202.0</ele><time>2026-04-12T07:25:47.603Z</time></trkpt><trkpt lat="36.999808" lon="15.1203196"><ele>202.0</ele><time>2026-04-12T07:25:48.602Z</time></trkpt><trkpt lat="36.9998854" lon="15.120092"><ele>202.0</ele><time>2026-04-12T07:25:49.603Z</time></trkpt><trkpt lat="36.9999709" lon="15.1198411"><ele>203.5</ele><time>2026-04-12T07:25:50.602Z</time></trkpt><trkpt lat="37.0000628" lon="15.1195681"><ele>205.0</ele><time>2026-04-12T07:25:51.602Z</time></trkpt><trkpt lat="37.0001698" lon="15.1192732"><ele>207.5</ele><time>2026-04-12T07:25:52.603Z</time></trkpt><trkpt lat="37.0002845" lon="15.118956"><ele>210.0</ele><time>2026-04-12T07:25:53.602Z</time></trkpt><trkpt lat="37.0004027" lon="15.1186197"><ele>210.0</ele><time>2026-04-12T07:25:54.602Z</time></trkpt><trkpt lat="37.0005318" lon="15.1182689"><ele>210.0</ele><time>2026-04-12T07:25:55.603Z</time></trkpt><trkpt lat="37.0006597" lon="15.1179199"><ele>210.0</ele><time>2026-04-12T07:25:56.603Z</time></trkpt><trkpt lat="37.0007729" lon="15.1176165"><ele>210.0</ele><time>2026-04-12T07:25:57.602Z</time></trkpt><trkpt lat="37.0008724" lon="15.1173472"><ele>210.0</ele><time>2026-04-12T07:25:58.603Z</time></trkpt><trkpt lat="37.0009598" lon="15.1170908"><ele>210.0</ele><time>2026-04-12T07:25:59.603Z</time></trkpt><trkpt lat="37.0010393" lon="15.1168701"><ele>210.0</ele><time>2026-04-12T07:26:00.603Z</time></trkpt><trkpt lat="37.0011121" lon="15.1166667"><ele>212.0</ele><time>2026-04-12T07:26:01.602Z</time></trkpt><trkpt lat="37.0011811" lon="15.1164779"><ele>214.0</ele><time>2026-04-12T07:26:02.602Z</time></trkpt><trkpt lat="37.001248" lon="15.1162958"><ele>216.0</ele><time>2026-04-12T07:26:03.602Z</time></trkpt><trkpt lat="37.0013067" lon="15.1161306"><ele>216.0</ele><time>2026-04-12T07:26:04.602Z</time></trkpt><trkpt lat="37.00136" lon="15.115982"><ele>216.00000000000003</ele><time>2026-04-12T07:26:05.603Z</time></trkpt><trkpt lat="37.001409" lon="15.1158456"><ele>216.00000000000003</ele><time>2026-04-12T07:26:06.602Z</time></trkpt><trkpt lat="37.0014485" lon="15.1157336"><ele>216.0</ele><time>2026-04-12T07:26:07.602Z</time></trkpt><trkpt lat="37.0014885" lon="15.1156279"><ele>216.0</ele><time>2026-04-12T07:26:08.603Z</time></trkpt><trkpt lat="37.0015203" lon="15.1155596"><ele>216.25</ele><time>2026-04-12T07:26:09.603Z</time></trkpt><trkpt lat="37.0015847" lon="15.1154956"><ele>216.5</ele><time>2026-04-12T07:26:10.602Z</time></trkpt><trkpt lat="37.0016779" lon="15.1154577"><ele>216.75</ele><time>2026-04-12T07:26:11.603Z</time></trkpt><trkpt lat="37.0018135" lon="15.1154287"><ele>217.0</ele><time>2026-04-12T07:26:12.602Z</time></trkpt><trkpt lat="37.0019928" lon="15.1153931"><ele>217.0</ele><time>2026-04-12T07:26:13.603Z</time></trkpt><trkpt lat="37.0021547" lon="15.115351"><ele>217.0</ele><time>2026-04-12T07:26:14.602Z</time></trkpt><trkpt lat="37.0022934" lon="15.1153246"><ele>217.0</ele><time>2026-04-12T07:26:15.602Z</time></trkpt><trkpt lat="37.0024076" lon="15.1152949"><ele>217.0</ele><time>2026-04-12T07:26:16.602Z</time></trkpt><trkpt lat="37.0025069" lon="15.1152716"><ele>216.5</ele><time>2026-04-12T07:26:17.602Z</time></trkpt><trkpt lat="37.0025896" lon="15.115217"><ele>216.0</ele><time>2026-04-12T07:26:18.603Z</time></trkpt><trkpt lat="37.0026522" lon="15.1151132"><ele>215.5</ele><time>2026-04-12T07:26:19.602Z</time></trkpt><trkpt lat="37.0026897" lon="15.1149659"><ele>215.0</ele><time>2026-04-12T07:26:20.603Z</time></trkpt><trkpt lat="37.0027123" lon="15.1147611"><ele>215.0</ele><time>2026-04-12T07:26:21.602Z</time></trkpt><trkpt lat="37.0027506" lon="15.1145464"><ele>215.0</ele><time>2026-04-12T07:26:22.603Z</time></trkpt><trkpt lat="37.0027794" lon="15.1143623"><ele>215.0</ele><time>2026-04-12T07:26:23.603Z</time></trkpt><trkpt lat="37.0028026" lon="15.1141933"><ele>215.6</ele><time>2026-04-12T07:26:24.603Z</time></trkpt><trkpt lat="37.0028133" lon="15.1140461"><ele>216.2</ele><time>2026-04-12T07:26:25.603Z</time></trkpt><trkpt lat="37.0028178" lon="15.1139156"><ele>216.8</ele><time>2026-04-12T07:26:26.602Z</time></trkpt><trkpt lat="37.0027965" lon="15.1138045"><ele>217.4</ele><time>2026-04-12T07:26:27.603Z</time></trkpt><trkpt lat="37.0027876" lon="15.1137089"><ele>218.0</ele><time>2026-04-12T07:26:28.602Z</time></trkpt><trkpt lat="37.0027942" lon="15.1136277"><ele>218.0</ele><time>2026-04-12T07:26:29.602Z</time></trkpt><trkpt lat="37.0028804" lon="15.1135676"><ele>218.0</ele><time>2026-04-12T07:26:31.603Z</time></trkpt><trkpt lat="37.002946" lon="15.1135892"><ele>218.0</ele><time>2026-04-12T07:26:32.602Z</time></trkpt><trkpt lat="37.0030086" lon="15.1136303"><ele>218.0</ele><time>2026-04-12T07:26:33.603Z</time></trkpt><trkpt lat="37.0031165" lon="15.1137103"><ele>218.0</ele><time>2026-04-12T07:26:34.602Z</time></trkpt><trkpt lat="37.0032528" lon="15.1137772"><ele>217.2</ele><time>2026-04-12T07:26:35.602Z</time></trkpt><trkpt lat="37.0033515" lon="15.1138287"><ele>216.4</ele><time>2026-04-12T07:26:36.602Z</time></trkpt><trkpt lat="37.0034252" lon="15.1138574"><ele>215.59999999999997</ele><time>2026-04-12T07:26:37.602Z</time></trkpt><trkpt lat="37.003503" lon="15.1138592"><ele>214.79999999999998</ele><time>2026-04-12T07:26:38.603Z</time></trkpt><trkpt lat="37.0035835" lon="15.1138165"><ele>214.0</ele><time>2026-04-12T07:26:39.602Z</time></trkpt><trkpt lat="37.0036747" lon="15.1137435"><ele>214.0</ele><time>2026-04-12T07:26:40.603Z</time></trkpt><trkpt lat="37.0037854" lon="15.1136461"><ele>214.0</ele><time>2026-04-12T07:26:41.602Z</time></trkpt><trkpt lat="37.0039213" lon="15.1135387"><ele>214.0</ele><time>2026-04-12T07:26:42.603Z</time></trkpt><trkpt lat="37.0040715" lon="15.1134412"><ele>214.25</ele><time>2026-04-12T07:26:43.602Z</time></trkpt><trkpt lat="37.0042041" lon="15.1133412"><ele>214.5</ele><time>2026-04-12T07:26:44.603Z</time></trkpt><trkpt lat="37.0043028" lon="15.1132767"><ele>214.75</ele><time>2026-04-12T07:26:45.602Z</time></trkpt><trkpt lat="37.0044109" lon="15.1132354"><ele>215.0</ele><time>2026-04-12T07:26:46.603Z</time></trkpt><trkpt lat="37.0045629" lon="15.1132216"><ele>214.66666666666669</ele><time>2026-04-12T07:26:47.603Z</time></trkpt><trkpt lat="37.0047328" lon="15.113219"><ele>214.33333333333331</ele><time>2026-04-12T07:26:48.602Z</time></trkpt><trkpt lat="37.0049015" lon="15.1132349"><ele>214.0</ele><time>2026-04-12T07:26:49.603Z</time></trkpt><trkpt lat="37.0050656" lon="15.1132479"><ele>214.0</ele><time>2026-04-12T07:26:50.603Z</time></trkpt><trkpt lat="37.0052073" lon="15.1132589"><ele>214.0</ele><time>2026-04-12T07:26:51.602Z</time></trkpt><trkpt lat="37.0053386" lon="15.1132654"><ele>214.0</ele><time>2026-04-12T07:26:52.603Z</time></trkpt><trkpt lat="37.0054637" lon="15.1132677"><ele>214.0</ele><time>2026-04-12T07:26:53.602Z</time></trkpt><trkpt lat="37.0055716" lon="15.1132667"><ele>213.99999999999997</ele><time>2026-04-12T07:26:54.603Z</time></trkpt><trkpt lat="37.005665" lon="15.1132793"><ele>214.0</ele><time>2026-04-12T07:26:55.602Z</time></trkpt><trkpt lat="37.0057401" lon="15.1132772"><ele>214.0</ele><time>2026-04-12T07:26:56.602Z</time></trkpt><trkpt lat="37.0058324" lon="15.1132557"><ele>214.0</ele><time>2026-04-12T07:26:58.603Z</time></trkpt><trkpt lat="37.005867" lon="15.1131865"><ele>213.99999999999997</ele><time>2026-04-12T07:27:02.602Z</time></trkpt><trkpt lat="37.0058319" lon="15.1131091"><ele>214.0</ele><time>2026-04-12T07:27:49.602Z</time></trkpt><trkpt lat="37.0057986" lon="15.1129403"><ele>214.5</ele><time>2026-04-12T07:27:51.602Z</time></trkpt><trkpt lat="37.005772" lon="15.1128093"><ele>215.0</ele><time>2026-04-12T07:27:52.603Z</time></trkpt><trkpt lat="37.0057532" lon="15.1126679"><ele>215.5</ele><time>2026-04-12T07:27:53.602Z</time></trkpt><trkpt lat="37.0057463" lon="15.1125022"><ele>216.0</ele><time>2026-04-12T07:27:54.602Z</time></trkpt><trkpt lat="37.005748" lon="15.1123413"><ele>216.0</ele><time>2026-04-12T07:27:55.603Z</time></trkpt><trkpt lat="37.0057412" lon="15.1121697"><ele>216.0</ele><time>2026-04-12T07:27:56.603Z</time></trkpt><trkpt lat="37.0057169" lon="15.1120176"><ele>216.0</ele><time>2026-04-12T07:27:57.603Z</time></trkpt><trkpt lat="37.0056574" lon="15.1118355"><ele>216.0</ele><time>2026-04-12T07:27:58.602Z</time></trkpt><trkpt lat="37.0055963" lon="15.1116161"><ele>217.0</ele><time>2026-04-12T07:27:59.603Z</time></trkpt><trkpt lat="37.0055317" lon="15.1113724"><ele>218.0</ele><time>2026-04-12T07:28:00.603Z</time></trkpt><trkpt lat="37.0054531" lon="15.1110938"><ele>219.0</ele><time>2026-04-12T07:28:01.603Z</time></trkpt><trkpt lat="37.0053646" lon="15.1107734"><ele>221.5</ele><time>2026-04-12T07:28:02.602Z</time></trkpt><trkpt lat="37.0052758" lon="15.1104665"><ele>224.0</ele><time>2026-04-12T07:28:03.603Z</time></trkpt><trkpt lat="37.0052061" lon="15.1102099"><ele>224.0</ele><time>2026-04-12T07:28:04.602Z</time></trkpt><trkpt lat="37.0051371" lon="15.109943"><ele>224.0</ele><time>2026-04-12T07:28:05.603Z</time></trkpt><trkpt lat="37.0050621" lon="15.109673"><ele>226.0</ele><time>2026-04-12T07:28:06.602Z</time></trkpt><trkpt lat="37.0049908" lon="15.1094105"><ele>228.0</ele><time>2026-04-12T07:28:07.602Z</time></trkpt><trkpt lat="37.0049249" lon="15.1091819"><ele>230.0</ele><time>2026-04-12T07:28:08.603Z</time></trkpt><trkpt lat="37.004877" lon="15.1089635"><ele>232.33333333333334</ele><time>2026-04-12T07:28:09.603Z</time></trkpt><trkpt lat="37.0048325" lon="15.1087778"><ele>234.66666666666669</ele><time>2026-04-12T07:28:10.603Z</time></trkpt><trkpt lat="37.0047963" lon="15.1085854"><ele>237.0</ele><time>2026-04-12T07:28:11.602Z</time></trkpt><trkpt lat="37.0047608" lon="15.108391"><ele>239.75</ele><time>2026-04-12T07:28:12.603Z</time></trkpt><trkpt lat="37.0047259" lon="15.1082179"><ele>242.5</ele><time>2026-04-12T07:28:13.602Z</time></trkpt><trkpt lat="37.004698" lon="15.1080466"><ele>245.25</ele><time>2026-04-12T07:28:14.602Z</time></trkpt><trkpt lat="37.0046731" lon="15.1078931"><ele>248.0</ele><time>2026-04-12T07:28:15.602Z</time></trkpt><trkpt lat="37.0046556" lon="15.1077484"><ele>248.00000000000003</ele><time>2026-04-12T07:28:16.603Z</time></trkpt><trkpt lat="37.0046429" lon="15.1076416"><ele>248.0</ele><time>2026-04-12T07:28:17.602Z</time></trkpt><trkpt lat="37.0046247" lon="15.1075245"><ele>248.0</ele><time>2026-04-12T07:28:19.603Z</time></trkpt><trkpt lat="37.0046073" lon="15.1074212"><ele>248.0</ele><time>2026-04-12T07:28:24.603Z</time></trkpt><trkpt lat="37.0045718" lon="15.1073264"><ele>248.00000000000003</ele><time>2026-04-12T07:28:27.603Z</time></trkpt><trkpt lat="37.0045591" lon="15.107229"><ele>248.0</ele><time>2026-04-12T07:28:29.602Z</time></trkpt><trkpt lat="37.004556" lon="15.1070777"><ele>248.66666666666669</ele><time>2026-04-12T07:28:31.603Z</time></trkpt><trkpt lat="37.0045632" lon="15.1069478"><ele>249.33333333333334</ele><time>2026-04-12T07:28:33.602Z</time></trkpt><trkpt lat="37.0045377" lon="15.1068251"><ele>250.0</ele><time>2026-04-12T07:28:36.602Z</time></trkpt><trkpt lat="37.0045289" lon="15.1067454"><ele>250.66666666666669</ele><time>2026-04-12T07:28:37.603Z</time></trkpt><trkpt lat="37.0045188" lon="15.1066267"><ele>251.33333333333334</ele><time>2026-04-12T07:28:39.603Z</time></trkpt><trkpt lat="37.0044936" lon="15.1065271"><ele>252.0</ele><time>2026-04-12T07:28:41.603Z</time></trkpt><trkpt lat="37.0044665" lon="15.1064546"><ele>253.0</ele><time>2026-04-12T07:28:43.602Z</time></trkpt><trkpt lat="37.0044466" lon="15.106376"><ele>254.0</ele><time>2026-04-12T07:28:45.603Z</time></trkpt><trkpt lat="37.004421" lon="15.1062721"><ele>255.0</ele><time>2026-04-12T07:28:47.603Z</time></trkpt><trkpt lat="37.0043797" lon="15.1061513"><ele>256.0</ele><time>2026-04-12T07:28:49.603Z</time></trkpt><trkpt lat="37.0043438" lon="15.1060715"><ele>257.0</ele><time>2026-04-12T07:28:51.603Z</time></trkpt><trkpt lat="37.0043195" lon="15.1059795"><ele>258.0</ele><time>2026-04-12T07:28:53.602Z</time></trkpt><trkpt lat="37.0042923" lon="15.1058739"><ele>258.0</ele><time>2026-04-12T07:28:56.603Z</time></trkpt><trkpt lat="37.004237" lon="15.1058112"><ele>258.0</ele><time>2026-04-12T07:28:59.603Z</time></trkpt><trkpt lat="37.0042099" lon="15.1056985"><ele>258.0</ele><time>2026-04-12T07:29:02.602Z</time></trkpt><trkpt lat="37.004173" lon="15.1056137"><ele>258.0</ele><time>2026-04-12T07:29:04.603Z</time></trkpt><trkpt lat="37.0041454" lon="15.1055388"><ele>258.0</ele><time>2026-04-12T07:29:06.602Z</time></trkpt><trkpt lat="37.00412" lon="15.1054554"><ele>258.0</ele><time>2026-04-12T07:29:08.603Z</time></trkpt><trkpt lat="37.0040547" lon="15.1053841"><ele>259.5</ele><time>2026-04-12T07:29:10.602Z</time></trkpt><trkpt lat="37.0040217" lon="15.1052775"><ele>261.0</ele><time>2026-04-12T07:29:12.603Z</time></trkpt><trkpt lat="37.0039772" lon="15.1051789"><ele>262.5</ele><time>2026-04-12T07:29:14.602Z</time></trkpt><trkpt lat="37.0039317" lon="15.1050639"><ele>264.0</ele><time>2026-04-12T07:29:16.603Z</time></trkpt><trkpt lat="37.0039036" lon="15.1049861"><ele>265.5</ele><time>2026-04-12T07:29:18.602Z</time></trkpt><trkpt lat="37.0038676" lon="15.1049077"><ele>267.0</ele><time>2026-04-12T07:29:20.603Z</time></trkpt><trkpt lat="37.0038131" lon="15.1048364"><ele>267.8333333333333</ele><time>2026-04-12T07:29:22.602Z</time></trkpt><trkpt lat="37.0037598" lon="15.104793"><ele>268.6666666666667</ele><time>2026-04-12T07:29:24.603Z</time></trkpt><trkpt lat="37.0036913" lon="15.1047038"><ele>269.5</ele><time>2026-04-12T07:29:26.602Z</time></trkpt><trkpt lat="37.0036322" lon="15.104611"><ele>270.33333333333337</ele><time>2026-04-12T07:29:28.603Z</time></trkpt><trkpt lat="37.0035963" lon="15.1045304"><ele>271.1666666666667</ele><time>2026-04-12T07:29:30.603Z</time></trkpt><trkpt lat="37.0035471" lon="15.1044497"><ele>272.0</ele><time>2026-04-12T07:29:32.603Z</time></trkpt><trkpt lat="37.0035462" lon="15.1043533"><ele>272.0</ele><time>2026-04-12T07:29:34.603Z</time></trkpt><trkpt lat="37.00354" lon="15.1042685"><ele>272.0</ele><time>2026-04-12T07:29:36.603Z</time></trkpt><trkpt lat="37.0035058" lon="15.1041977"><ele>272.0</ele><time>2026-04-12T07:29:38.602Z</time></trkpt><trkpt lat="37.0034342" lon="15.1041585"><ele>272.0</ele><time>2026-04-12T07:29:41.603Z</time></trkpt><trkpt lat="37.0033547" lon="15.1041264"><ele>272.0</ele><time>2026-04-12T07:29:44.602Z</time></trkpt><trkpt lat="37.0032838" lon="15.1040895"><ele>272.0</ele><time>2026-04-12T07:29:46.603Z</time></trkpt><trkpt lat="37.0031952" lon="15.1040388"><ele>274.0</ele><time>2026-04-12T07:29:48.602Z</time></trkpt><trkpt lat="37.0031146" lon="15.1039806"><ele>276.0</ele><time>2026-04-12T07:29:50.603Z</time></trkpt><trkpt lat="37.0030551" lon="15.1039216"><ele>278.0</ele><time>2026-04-12T07:29:52.603Z</time></trkpt><trkpt lat="37.0030095" lon="15.1038509"><ele>280.0</ele><time>2026-04-12T07:29:54.603Z</time></trkpt><trkpt lat="37.0029658" lon="15.1037783"><ele>282.0</ele><time>2026-04-12T07:29:56.603Z</time></trkpt><trkpt lat="37.0029159" lon="15.1036809"><ele>284.0</ele><time>2026-04-12T07:30:00.602Z</time></trkpt><trkpt lat="37.0028733" lon="15.1035926"><ele>284.0</ele><time>2026-04-12T07:30:02.603Z</time></trkpt><trkpt lat="37.0028333" lon="15.1035049"><ele>284.0</ele><time>2026-04-12T07:30:04.602Z</time></trkpt><trkpt lat="37.002789" lon="15.1034478"><ele>284.0</ele><time>2026-04-12T07:30:06.602Z</time></trkpt><trkpt lat="37.0027591" lon="15.1033724"><ele>284.0</ele><time>2026-04-12T07:30:08.603Z</time></trkpt><trkpt lat="37.0027221" lon="15.1032893"><ele>284.0</ele><time>2026-04-12T07:30:10.602Z</time></trkpt><trkpt lat="37.0026819" lon="15.1031963"><ele>284.0</ele><time>2026-04-12T07:30:12.603Z</time></trkpt><trkpt lat="37.0026469" lon="15.1031208"><ele>284.0</ele><time>2026-04-12T07:30:14.602Z</time></trkpt><trkpt lat="37.0026051" lon="15.1030329"><ele>285.33333333333337</ele><time>2026-04-12T07:30:17.602Z</time></trkpt><trkpt lat="37.0025426" lon="15.1029721"><ele>286.6666666666667</ele><time>2026-04-12T07:30:20.603Z</time></trkpt><trkpt lat="37.0024978" lon="15.1029099"><ele>288.0</ele><time>2026-04-12T07:30:23.602Z</time></trkpt><trkpt lat="37.0024524" lon="15.1028304"><ele>289.3333333333333</ele><time>2026-04-12T07:30:26.602Z</time></trkpt><trkpt lat="37.0024032" lon="15.1027256"><ele>290.66666666666663</ele><time>2026-04-12T07:30:29.603Z</time></trkpt><trkpt lat="37.0023639" lon="15.1026596"><ele>292.0</ele><time>2026-04-12T07:30:31.602Z</time></trkpt><trkpt lat="37.0023283" lon="15.1025783"><ele>292.5</ele><time>2026-04-12T07:30:33.603Z</time></trkpt><trkpt lat="37.0022806" lon="15.1025001"><ele>293.0</ele><time>2026-04-12T07:30:35.602Z</time></trkpt><trkpt lat="37.0022374" lon="15.1024188"><ele>293.5</ele><time>2026-04-12T07:30:37.602Z</time></trkpt><trkpt lat="37.0022116" lon="15.1023167"><ele>294.0</ele><time>2026-04-12T07:30:39.602Z</time></trkpt><trkpt lat="37.0021656" lon="15.1022153"><ele>294.5</ele><time>2026-04-12T07:30:41.602Z</time></trkpt><trkpt lat="37.002122" lon="15.102126"><ele>295.0</ele><time>2026-04-12T07:30:43.603Z</time></trkpt><trkpt lat="37.0020746" lon="15.1020646"><ele>296.3333333333333</ele><time>2026-04-12T07:30:45.602Z</time></trkpt><trkpt lat="37.0020333" lon="15.1019565"><ele>297.66666666666663</ele><time>2026-04-12T07:30:47.602Z</time></trkpt><trkpt lat="37.001988" lon="15.1018774"><ele>299.0</ele><time>2026-04-12T07:30:49.603Z</time></trkpt><trkpt lat="37.0019521" lon="15.1017705"><ele>300.3333333333333</ele><time>2026-04-12T07:30:52.576Z</time></trkpt><trkpt lat="37.0018965" lon="15.1016765"><ele>301.6666666666667</ele><time>2026-04-12T07:30:54.602Z</time></trkpt><trkpt lat="37.0018566" lon="15.1016144"><ele>303.0</ele><time>2026-04-12T07:30:55.603Z</time></trkpt><trkpt lat="37.0017879" lon="15.1015191"><ele>304.2857142857143</ele><time>2026-04-12T07:30:57.602Z</time></trkpt><trkpt lat="37.0017357" lon="15.1014555"><ele>305.57142857142856</ele><time>2026-04-12T07:30:59.603Z</time></trkpt><trkpt lat="37.0017018" lon="15.1013879"><ele>306.8571428571429</ele><time>2026-04-12T07:31:01.603Z</time></trkpt><trkpt lat="37.0016976" lon="15.1012878"><ele>308.1428571428571</ele><time>2026-04-12T07:31:03.603Z</time></trkpt><trkpt lat="37.0016955" lon="15.1011993"><ele>309.4285714285714</ele><time>2026-04-12T07:31:05.602Z</time></trkpt><trkpt lat="37.0016711" lon="15.1010961"><ele>310.7142857142857</ele><time>2026-04-12T07:31:07.603Z</time></trkpt><trkpt lat="37.001641" lon="15.1010132"><ele>312.0</ele><time>2026-04-12T07:31:09.602Z</time></trkpt><trkpt lat="37.0016204" lon="15.100933"><ele>312.4</ele><time>2026-04-12T07:31:11.602Z</time></trkpt><trkpt lat="37.0015976" lon="15.1008432"><ele>312.79999999999995</ele><time>2026-04-12T07:31:13.602Z</time></trkpt><trkpt lat="37.0015619" lon="15.1007524"><ele>313.2</ele><time>2026-04-12T07:31:15.603Z</time></trkpt><trkpt lat="37.0014947" lon="15.1006722"><ele>313.59999999999997</ele><time>2026-04-12T07:31:17.603Z</time></trkpt><trkpt lat="37.0014698" lon="15.1005438"><ele>314.0</ele><time>2026-04-12T07:31:19.602Z</time></trkpt><trkpt lat="37.0014002" lon="15.1004152"><ele>317.0</ele><time>2026-04-12T07:31:21.602Z</time></trkpt><trkpt lat="37.0013441" lon="15.1003232"><ele>320.0</ele><time>2026-04-12T07:31:23.602Z</time></trkpt><trkpt lat="37.0013151" lon="15.1002004"><ele>323.0</ele><time>2026-04-12T07:31:25.602Z</time></trkpt><trkpt lat="37.0012927" lon="15.1000558"><ele>326.0</ele><time>2026-04-12T07:31:27.603Z</time></trkpt><trkpt lat="37.0012835" lon="15.0999454"><ele>329.0</ele><time>2026-04-12T07:31:29.602Z</time></trkpt><trkpt lat="37.0012726" lon="15.0998046"><ele>331.2</ele><time>2026-04-12T07:31:31.603Z</time></trkpt><trkpt lat="37.0012661" lon="15.09969"><ele>333.4</ele><time>2026-04-12T07:31:33.603Z</time></trkpt><trkpt lat="37.0012846" lon="15.099561"><ele>335.6</ele><time>2026-04-12T07:31:35.603Z</time></trkpt><trkpt lat="37.001319" lon="15.0994081"><ele>337.8</ele><time>2026-04-12T07:31:37.602Z</time></trkpt><trkpt lat="37.001347" lon="15.0993339"><ele>340.0</ele><time>2026-04-12T07:31:38.602Z</time></trkpt><trkpt lat="37.0013962" lon="15.0992464"><ele>340.0</ele><time>2026-04-12T07:31:40.603Z</time></trkpt><trkpt lat="37.0014162" lon="15.0991244"><ele>340.0</ele><time>2026-04-12T07:31:42.603Z</time></trkpt><trkpt lat="37.0013888" lon="15.0990092"><ele>340.0</ele><time>2026-04-12T07:31:44.602Z</time></trkpt><trkpt lat="37.0013804" lon="15.0988803"><ele>340.0</ele><time>2026-04-12T07:31:46.603Z</time></trkpt><trkpt lat="37.0013595" lon="15.0987638"><ele>340.0</ele><time>2026-04-12T07:31:48.602Z</time></trkpt><trkpt lat="37.0013549" lon="15.0986411"><ele>341.5</ele><time>2026-04-12T07:31:50.603Z</time></trkpt><trkpt lat="37.001345" lon="15.0985438"><ele>343.0</ele><time>2026-04-12T07:31:52.602Z</time></trkpt><trkpt lat="37.0013391" lon="15.0984526"><ele>344.5</ele><time>2026-04-12T07:31:54.603Z</time></trkpt><trkpt lat="37.0013361" lon="15.0983552"><ele>346.0</ele><time>2026-04-12T07:31:56.602Z</time></trkpt><trkpt lat="37.001327" lon="15.0982674"><ele>347.5</ele><time>2026-04-12T07:31:58.603Z</time></trkpt><trkpt lat="37.0013133" lon="15.0981833"><ele>349.0</ele><time>2026-04-12T07:32:00.603Z</time></trkpt><trkpt lat="37.0013017" lon="15.0980771"><ele>350.3333333333333</ele><time>2026-04-12T07:32:02.602Z</time></trkpt><trkpt lat="37.0012819" lon="15.0979464"><ele>351.66666666666663</ele><time>2026-04-12T07:32:04.603Z</time></trkpt><trkpt lat="37.0012804" lon="15.0978263"><ele>353.0</ele><time>2026-04-12T07:32:06.603Z</time></trkpt><trkpt lat="37.0012692" lon="15.097714"><ele>354.3333333333333</ele><time>2026-04-12T07:32:08.603Z</time></trkpt><trkpt lat="37.0012608" lon="15.097622"><ele>355.6666666666667</ele><time>2026-04-12T07:32:10.603Z</time></trkpt><trkpt lat="37.0012508" lon="15.09752"><ele>357.0</ele><time>2026-04-12T07:32:12.603Z</time></trkpt><trkpt lat="37.0012557" lon="15.0974052"><ele>357.8</ele><time>2026-04-12T07:32:14.603Z</time></trkpt><trkpt lat="37.0012523" lon="15.0973222"><ele>358.6</ele><time>2026-04-12T07:32:16.603Z</time></trkpt><trkpt lat="37.0012307" lon="15.0972075"><ele>359.40000000000003</ele><time>2026-04-12T07:32:19.602Z</time></trkpt><trkpt lat="37.0012231" lon="15.0970697"><ele>360.20000000000005</ele><time>2026-04-12T07:32:21.602Z</time></trkpt><trkpt lat="37.0012158" lon="15.0969355"><ele>361.0</ele><time>2026-04-12T07:32:23.602Z</time></trkpt><trkpt lat="37.001217" lon="15.096813"><ele>361.0</ele><time>2026-04-12T07:32:25.602Z</time></trkpt><trkpt lat="37.0012199" lon="15.0966845"><ele>361.0</ele><time>2026-04-12T07:32:27.603Z</time></trkpt><trkpt lat="37.0012195" lon="15.0965994"><ele>361.0</ele><time>2026-04-12T07:32:28.602Z</time></trkpt><trkpt lat="37.0012279" lon="15.0964917"><ele>361.0</ele><time>2026-04-12T07:32:29.602Z</time></trkpt><trkpt lat="37.0012467" lon="15.0964017"><ele>361.0</ele><time>2026-04-12T07:32:30.602Z</time></trkpt><trkpt lat="37.001259" lon="15.096319"><ele>361.0</ele><time>2026-04-12T07:32:31.602Z</time></trkpt><trkpt lat="37.0012712" lon="15.0962301"><ele>361.5</ele><time>2026-04-12T07:32:32.603Z</time></trkpt><trkpt lat="37.0012732" lon="15.0961467"><ele>362.0</ele><time>2026-04-12T07:32:33.603Z</time></trkpt><trkpt lat="37.0012809" lon="15.096051"><ele>362.5</ele><time>2026-04-12T07:32:34.602Z</time></trkpt><trkpt lat="37.0012902" lon="15.0959473"><ele>363.0</ele><time>2026-04-12T07:32:35.603Z</time></trkpt><trkpt lat="37.0012908" lon="15.095841"><ele>363.5</ele><time>2026-04-12T07:32:36.602Z</time></trkpt><trkpt lat="37.0012914" lon="15.0957366"><ele>364.0</ele><time>2026-04-12T07:32:37.602Z</time></trkpt><trkpt lat="37.0013005" lon="15.0956339"><ele>365.16666666666663</ele><time>2026-04-12T07:32:38.602Z</time></trkpt><trkpt lat="37.0013036" lon="15.0955492"><ele>366.3333333333333</ele><time>2026-04-12T07:32:39.602Z</time></trkpt><trkpt lat="37.0012745" lon="15.095431"><ele>367.5</ele><time>2026-04-12T07:32:41.602Z</time></trkpt><trkpt lat="37.001206" lon="15.0953667"><ele>368.6666666666667</ele><time>2026-04-12T07:32:43.603Z</time></trkpt><trkpt lat="37.0012236" lon="15.0952642"><ele>369.83333333333337</ele><time>2026-04-12T07:32:45.602Z</time></trkpt><trkpt lat="37.00127" lon="15.0951946"><ele>371.0</ele><time>2026-04-12T07:32:46.603Z</time></trkpt><trkpt lat="37.0012678" lon="15.0950932"><ele>371.0</ele><time>2026-04-12T07:32:48.602Z</time></trkpt><trkpt lat="37.0012326" lon="15.0950253"><ele>371.0</ele><time>2026-04-12T07:32:49.602Z</time></trkpt><trkpt lat="37.0011999" lon="15.0949535"><ele>371.0</ele><time>2026-04-12T07:32:50.603Z</time></trkpt><trkpt lat="37.0011439" lon="15.0948621"><ele>371.0</ele><time>2026-04-12T07:32:51.602Z</time></trkpt><trkpt lat="37.0010861" lon="15.0947821"><ele>371.0</ele><time>2026-04-12T07:32:52.603Z</time></trkpt><trkpt lat="37.0010309" lon="15.0946973"><ele>371.0</ele><time>2026-04-12T07:32:53.602Z</time></trkpt><trkpt lat="37.0009959" lon="15.094612"><ele>372.1666666666667</ele><time>2026-04-12T07:32:54.603Z</time></trkpt><trkpt lat="37.0009545" lon="15.094537"><ele>373.33333333333337</ele><time>2026-04-12T07:32:55.603Z</time></trkpt><trkpt lat="37.0008937" lon="15.0944621"><ele>374.5</ele><time>2026-04-12T07:32:56.602Z</time></trkpt><trkpt lat="37.0008552" lon="15.094377"><ele>375.6666666666667</ele><time>2026-04-12T07:32:57.603Z</time></trkpt><trkpt lat="37.0008152" lon="15.0943019"><ele>376.8333333333333</ele><time>2026-04-12T07:32:58.603Z</time></trkpt><trkpt lat="37.000779" lon="15.0942299"><ele>378.0</ele><time>2026-04-12T07:32:59.603Z</time></trkpt><trkpt lat="37.0007012" lon="15.0941253"><ele>380.6666666666667</ele><time>2026-04-12T07:33:01.602Z</time></trkpt><trkpt lat="37.0006236" lon="15.0940452"><ele>383.33333333333337</ele><time>2026-04-12T07:33:03.603Z</time></trkpt><trkpt lat="37.0005373" lon="15.0940003"><ele>386.0</ele><time>2026-04-12T07:33:05.602Z</time></trkpt><trkpt lat="37.0004692" lon="15.0939461"><ele>388.6666666666667</ele><time>2026-04-12T07:33:07.603Z</time></trkpt><trkpt lat="37.0003989" lon="15.0938832"><ele>391.33333333333337</ele><time>2026-04-12T07:33:09.603Z</time></trkpt><trkpt lat="37.0003775" lon="15.0937758"><ele>394.0</ele><time>2026-04-12T07:33:11.602Z</time></trkpt><trkpt lat="37.000374" lon="15.0936611"><ele>394.00000000000006</ele><time>2026-04-12T07:33:13.603Z</time></trkpt><trkpt lat="37.000373" lon="15.0935652"><ele>394.0</ele><time>2026-04-12T07:33:15.602Z</time></trkpt><trkpt lat="37.0003779" lon="15.0934601"><ele>394.0</ele><time>2026-04-12T07:33:17.603Z</time></trkpt><trkpt lat="37.0003672" lon="15.0933597"><ele>394.0</ele><time>2026-04-12T07:33:19.602Z</time></trkpt><trkpt lat="37.0003627" lon="15.09325"><ele>394.00000000000006</ele><time>2026-04-12T07:33:21.603Z</time></trkpt><trkpt lat="37.0003632" lon="15.093121"><ele>394.0</ele><time>2026-04-12T07:33:23.602Z</time></trkpt><trkpt lat="37.0003612" lon="15.0930328"><ele>396.00000000000006</ele><time>2026-04-12T07:33:25.603Z</time></trkpt><trkpt lat="37.0003665" lon="15.0929071"><ele>398.0</ele><time>2026-04-12T07:33:27.602Z</time></trkpt><trkpt lat="37.0003676" lon="15.0927909"><ele>400.0</ele><time>2026-04-12T07:33:29.603Z</time></trkpt><trkpt lat="37.0003633" lon="15.0926974"><ele>402.0</ele><time>2026-04-12T07:33:31.603Z</time></trkpt><trkpt lat="37.0003608" lon="15.0926146"><ele>404.00000000000006</ele><time>2026-04-12T07:33:33.602Z</time></trkpt><trkpt lat="37.0003323" lon="15.0925304"><ele>406.0</ele><time>2026-04-12T07:33:35.602Z</time></trkpt><trkpt lat="37.0003332" lon="15.092415"><ele>406.83333333333337</ele><time>2026-04-12T07:33:37.603Z</time></trkpt><trkpt lat="37.0003177" lon="15.0923343"><ele>407.6666666666667</ele><time>2026-04-12T07:33:39.602Z</time></trkpt><trkpt lat="37.0002626" lon="15.0922898"><ele>408.5</ele><time>2026-04-12T07:33:41.603Z</time></trkpt><trkpt lat="37.0002261" lon="15.0922005"><ele>409.33333333333337</ele><time>2026-04-12T07:33:43.603Z</time></trkpt><trkpt lat="37.0001666" lon="15.0921092"><ele>410.1666666666667</ele><time>2026-04-12T07:33:45.602Z</time></trkpt><trkpt lat="37.0001266" lon="15.0920275"><ele>411.0</ele><time>2026-04-12T07:33:47.602Z</time></trkpt><trkpt lat="37.0000964" lon="15.0919511"><ele>411.0</ele><time>2026-04-12T07:33:49.602Z</time></trkpt><trkpt lat="37.0000687" lon="15.0918532"><ele>411.0</ele><time>2026-04-12T07:33:51.602Z</time></trkpt><trkpt lat="37.0000413" lon="15.0917659"><ele>411.0</ele><time>2026-04-12T07:33:53.602Z</time></trkpt><trkpt lat="37.000026" lon="15.0916415"><ele>411.0</ele><time>2026-04-12T07:33:55.603Z</time></trkpt><trkpt lat="36.9999972" lon="15.0914975"><ele>411.0</ele><time>2026-04-12T07:33:57.602Z</time></trkpt><trkpt lat="36.9999808" lon="15.0913722"><ele>411.8</ele><time>2026-04-12T07:33:59.603Z</time></trkpt><trkpt lat="36.999948" lon="15.0912298"><ele>412.6</ele><time>2026-04-12T07:34:01.602Z</time></trkpt><trkpt lat="36.9999185" lon="15.0910825"><ele>413.4</ele><time>2026-04-12T07:34:03.602Z</time></trkpt><trkpt lat="36.9999073" lon="15.0909374"><ele>414.2</ele><time>2026-04-12T07:34:05.602Z</time></trkpt><trkpt lat="36.9998894" lon="15.090855"><ele>415.0</ele><time>2026-04-12T07:34:06.602Z</time></trkpt><trkpt lat="36.9998683" lon="15.090762"><ele>416.2</ele><time>2026-04-12T07:34:07.603Z</time></trkpt><trkpt lat="36.999849" lon="15.0906865"><ele>417.4</ele><time>2026-04-12T07:34:08.603Z</time></trkpt><trkpt lat="36.9998185" lon="15.0905624"><ele>418.6</ele><time>2026-04-12T07:34:10.603Z</time></trkpt><trkpt lat="36.9997708" lon="15.0904281"><ele>419.8</ele><time>2026-04-12T07:34:12.603Z</time></trkpt><trkpt lat="36.9997486" lon="15.090301"><ele>421.0</ele><time>2026-04-12T07:34:14.602Z</time></trkpt><trkpt lat="36.999721" lon="15.0901703"><ele>421.00000000000006</ele><time>2026-04-12T07:34:16.602Z</time></trkpt><trkpt lat="36.9996785" lon="15.0900737"><ele>421.0</ele><time>2026-04-12T07:34:18.603Z</time></trkpt><trkpt lat="36.9996581" lon="15.0899573"><ele>421.0</ele><time>2026-04-12T07:34:20.602Z</time></trkpt><trkpt lat="36.9996458" lon="15.0898369"><ele>421.0</ele><time>2026-04-12T07:34:22.602Z</time></trkpt><trkpt lat="36.999632" lon="15.0897593"><ele>421.00000000000006</ele><time>2026-04-12T07:34:24.602Z</time></trkpt><trkpt lat="36.9995988" lon="15.08968"><ele>421.0</ele><time>2026-04-12T07:34:27.603Z</time></trkpt><trkpt lat="36.9995796" lon="15.0895765"><ele>422.33333333333337</ele><time>2026-04-12T07:34:35.602Z</time></trkpt><trkpt lat="36.9995727" lon="15.089463"><ele>423.6666666666667</ele><time>2026-04-12T07:34:38.603Z</time></trkpt><trkpt lat="36.9995398" lon="15.0893698"><ele>425.0</ele><time>2026-04-12T07:34:48.602Z</time></trkpt><trkpt lat="36.9995188" lon="15.0892817"><ele>426.33333333333337</ele><time>2026-04-12T07:34:50.602Z</time></trkpt><trkpt lat="36.9995125" lon="15.089175"><ele>427.6666666666667</ele><time>2026-04-12T07:34:52.602Z</time></trkpt><trkpt lat="36.9994901" lon="15.0890942"><ele>429.0</ele><time>2026-04-12T07:34:54.603Z</time></trkpt><trkpt lat="36.9994785" lon="15.0890098"><ele>430.3333333333333</ele><time>2026-04-12T07:35:15.602Z</time></trkpt><trkpt lat="36.9994835" lon="15.0889076"><ele>431.66666666666663</ele><time>2026-04-12T07:35:18.603Z</time></trkpt><trkpt lat="36.9994489" lon="15.0888283"><ele>433.0</ele><time>2026-04-12T07:35:20.521Z</time></trkpt><trkpt lat="36.999423" lon="15.0887369"><ele>434.3333333333333</ele><time>2026-04-12T07:35:22.602Z</time></trkpt><trkpt lat="36.999376" lon="15.088649"><ele>435.66666666666663</ele><time>2026-04-12T07:35:24.602Z</time></trkpt><trkpt lat="36.9993424" lon="15.088551"><ele>437.0</ele><time>2026-04-12T07:35:26.536Z</time></trkpt><trkpt lat="36.9992875" lon="15.0884612"><ele>436.99999999999994</ele><time>2026-04-12T07:35:28.519Z</time></trkpt><trkpt lat="36.9992049" lon="15.0883763"><ele>437.0</ele><time>2026-04-12T07:35:30.602Z</time></trkpt><trkpt lat="36.9991231" lon="15.0883165"><ele>437.0</ele><time>2026-04-12T07:35:32.602Z</time></trkpt><trkpt lat="36.9990464" lon="15.088279"><ele>437.0</ele><time>2026-04-12T07:35:34.602Z</time></trkpt><trkpt lat="36.9989829" lon="15.0882481"><ele>436.99999999999994</ele><time>2026-04-12T07:35:36.602Z</time></trkpt><trkpt lat="36.9989179" lon="15.0882088"><ele>437.0</ele><time>2026-04-12T07:36:06.602Z</time></trkpt><trkpt lat="36.9989003" lon="15.0881328"><ele>441.16666666666663</ele><time>2026-04-12T07:48:57.603Z</time></trkpt><trkpt lat="36.9988381" lon="15.0881036"><ele>445.3333333333333</ele><time>2026-04-12T07:49:01.602Z</time></trkpt><trkpt lat="36.9987578" lon="15.0880558"><ele>449.5</ele><time>2026-04-12T07:49:05.602Z</time></trkpt><trkpt lat="36.9986639" lon="15.0879771"><ele>453.66666666666663</ele><time>2026-04-12T07:49:07.603Z</time></trkpt><trkpt lat="36.9986021" lon="15.087927"><ele>457.8333333333333</ele><time>2026-04-12T07:49:08.603Z</time></trkpt><trkpt lat="36.9985185" lon="15.0878659"><ele>462.0</ele><time>2026-04-12T07:49:09.602Z</time></trkpt><trkpt lat="36.9984218" lon="15.087796"><ele>462.3333333333333</ele><time>2026-04-12T07:49:10.603Z</time></trkpt><trkpt lat="36.9983312" lon="15.0877283"><ele>462.66666666666663</ele><time>2026-04-12T07:49:11.602Z</time></trkpt><trkpt lat="36.9982501" lon="15.0876696"><ele>463.0</ele><time>2026-04-12T07:49:12.603Z</time></trkpt><trkpt lat="36.9981729" lon="15.0876168"><ele>463.3333333333333</ele><time>2026-04-12T07:49:13.602Z</time></trkpt><trkpt lat="36.998109" lon="15.0875535"><ele>463.66666666666663</ele><time>2026-04-12T07:49:14.602Z</time></trkpt><trkpt lat="36.9980426" lon="15.0875085"><ele>464.0</ele><time>2026-04-12T07:49:15.603Z</time></trkpt><trkpt lat="36.9979799" lon="15.0874662"><ele>463.49999999999994</ele><time>2026-04-12T07:49:16.602Z</time></trkpt><trkpt lat="36.9979193" lon="15.0874158"><ele>463.0</ele><time>2026-04-12T07:49:17.602Z</time></trkpt><trkpt lat="36.9978602" lon="15.0873716"><ele>462.5</ele><time>2026-04-12T07:49:18.602Z</time></trkpt><trkpt lat="36.9977916" lon="15.0873339"><ele>462.0</ele><time>2026-04-12T07:49:19.602Z</time></trkpt><trkpt lat="36.997719" lon="15.0872788"><ele>461.49999999999994</ele><time>2026-04-12T07:49:20.602Z</time></trkpt><trkpt lat="36.9976437" lon="15.0872277"><ele>461.0</ele><time>2026-04-12T07:49:21.603Z</time></trkpt><trkpt lat="36.997573" lon="15.0871766"><ele>461.0</ele><time>2026-04-12T07:49:22.602Z</time></trkpt><trkpt lat="36.9975242" lon="15.0871009"><ele>461.0</ele><time>2026-04-12T07:49:23.602Z</time></trkpt><trkpt lat="36.9974863" lon="15.0870236"><ele>461.0</ele><time>2026-04-12T07:49:24.602Z</time></trkpt><trkpt lat="36.9974522" lon="15.0869524"><ele>461.0</ele><time>2026-04-12T07:49:25.603Z</time></trkpt><trkpt lat="36.99739" lon="15.0868216"><ele>461.0</ele><time>2026-04-12T07:49:27.603Z</time></trkpt><trkpt lat="36.9973293" lon="15.086688"><ele>460.99999999999994</ele><time>2026-04-12T07:49:29.602Z</time></trkpt><trkpt lat="36.99729" lon="15.0866074"><ele>461.0</ele><time>2026-04-12T07:49:30.603Z</time></trkpt><trkpt lat="36.9972509" lon="15.0865208"><ele>461.0</ele><time>2026-04-12T07:49:31.603Z</time></trkpt><trkpt lat="36.9972074" lon="15.0864316"><ele>461.0</ele><time>2026-04-12T07:49:32.603Z</time></trkpt><trkpt lat="36.9971637" lon="15.0863446"><ele>460.99999999999994</ele><time>2026-04-12T07:49:33.603Z</time></trkpt><trkpt lat="36.9971219" lon="15.0862553"><ele>461.0</ele><time>2026-04-12T07:49:34.603Z</time></trkpt><trkpt lat="36.9970845" lon="15.0861654"><ele>459.16666666666663</ele><time>2026-04-12T07:49:35.603Z</time></trkpt><trkpt lat="36.9970421" lon="15.0860832"><ele>457.3333333333333</ele><time>2026-04-12T07:49:36.603Z</time></trkpt><trkpt lat="36.9970021" lon="15.0860019"><ele>455.5</ele><time>2026-04-12T07:49:37.603Z</time></trkpt><trkpt lat="36.9969619" lon="15.0859226"><ele>453.66666666666663</ele><time>2026-04-12T07:49:38.603Z</time></trkpt><trkpt lat="36.9969231" lon="15.0858502"><ele>451.8333333333333</ele><time>2026-04-12T07:49:39.602Z</time></trkpt><trkpt lat="36.9968902" lon="15.0857755"><ele>450.0</ele><time>2026-04-12T07:49:40.603Z</time></trkpt><trkpt lat="36.9968192" lon="15.0856541"><ele>447.6666666666667</ele><time>2026-04-12T07:49:42.602Z</time></trkpt><trkpt lat="36.9967692" lon="15.0856011"><ele>445.33333333333337</ele><time>2026-04-12T07:49:43.602Z</time></trkpt><trkpt lat="36.9966866" lon="15.0855515"><ele>443.0</ele><time>2026-04-12T07:49:44.603Z</time></trkpt><trkpt lat="36.9966003" lon="15.0855095"><ele>440.6666666666667</ele><time>2026-04-12T07:49:45.603Z</time></trkpt><trkpt lat="36.9965198" lon="15.085469"><ele>438.33333333333337</ele><time>2026-04-12T07:49:46.602Z</time></trkpt><trkpt lat="36.9964469" lon="15.0854353"><ele>436.0</ele><time>2026-04-12T07:49:47.602Z</time></trkpt><trkpt lat="36.996376" lon="15.0853992"><ele>435.8</ele><time>2026-04-12T07:49:48.603Z</time></trkpt><trkpt lat="36.9963052" lon="15.0853477"><ele>435.6</ele><time>2026-04-12T07:49:49.603Z</time></trkpt><trkpt lat="36.996257" lon="15.0852609"><ele>435.4</ele><time>2026-04-12T07:49:50.603Z</time></trkpt><trkpt lat="36.9962105" lon="15.0851764"><ele>435.2</ele><time>2026-04-12T07:49:51.602Z</time></trkpt><trkpt lat="36.9961844" lon="15.0850535"><ele>435.0</ele><time>2026-04-12T07:49:52.603Z</time></trkpt><trkpt lat="36.9961584" lon="15.0849263"><ele>433.2</ele><time>2026-04-12T07:49:53.603Z</time></trkpt><trkpt lat="36.9961288" lon="15.084793"><ele>431.4</ele><time>2026-04-12T07:49:54.602Z</time></trkpt><trkpt lat="36.9960989" lon="15.0846718"><ele>429.6</ele><time>2026-04-12T07:49:55.603Z</time></trkpt><trkpt lat="36.9960554" lon="15.0845619"><ele>427.8</ele><time>2026-04-12T07:49:56.602Z</time></trkpt><trkpt lat="36.9960143" lon="15.0844535"><ele>426.0</ele><time>2026-04-12T07:49:57.603Z</time></trkpt><trkpt lat="36.9959797" lon="15.0843412"><ele>426.0</ele><time>2026-04-12T07:49:58.603Z</time></trkpt><trkpt lat="36.9959307" lon="15.0842417"><ele>426.0</ele><time>2026-04-12T07:49:59.603Z</time></trkpt><trkpt lat="36.9958629" lon="15.0841399"><ele>426.0</ele><time>2026-04-12T07:50:00.603Z</time></trkpt><trkpt lat="36.9957992" lon="15.084039"><ele>426.0</ele><time>2026-04-12T07:50:01.603Z</time></trkpt><trkpt lat="36.9957388" lon="15.0839421"><ele>426.0</ele><time>2026-04-12T07:50:02.603Z</time></trkpt><trkpt lat="36.9956667" lon="15.083869"><ele>426.0</ele><time>2026-04-12T07:50:03.603Z</time></trkpt><trkpt lat="36.9955884" lon="15.0838019"><ele>426.0</ele><time>2026-04-12T07:50:04.603Z</time></trkpt><trkpt lat="36.9955031" lon="15.0837364"><ele>426.0</ele><time>2026-04-12T07:50:05.603Z</time></trkpt><trkpt lat="36.995426" lon="15.0836698"><ele>426.0</ele><time>2026-04-12T07:50:06.603Z</time></trkpt><trkpt lat="36.9953717" lon="15.0835895"><ele>426.0</ele><time>2026-04-12T07:50:07.602Z</time></trkpt><trkpt lat="36.995323" lon="15.0835137"><ele>426.0</ele><time>2026-04-12T07:50:08.602Z</time></trkpt><trkpt lat="36.995283" lon="15.0834514"><ele>426.0</ele><time>2026-04-12T07:50:09.603Z</time></trkpt><trkpt lat="36.9952547" lon="15.0833028"><ele>426.0</ele><time>2026-04-12T07:50:11.603Z</time></trkpt><trkpt lat="36.995238" lon="15.0832108"><ele>426.0</ele><time>2026-04-12T07:50:12.603Z</time></trkpt><trkpt lat="36.9952218" lon="15.0831014"><ele>426.0</ele><time>2026-04-12T07:50:13.603Z</time></trkpt><trkpt lat="36.995205" lon="15.0829816"><ele>426.0</ele><time>2026-04-12T07:50:14.602Z</time></trkpt><trkpt lat="36.9951967" lon="15.0828494"><ele>425.20000000000005</ele><time>2026-04-12T07:50:15.603Z</time></trkpt><trkpt lat="36.9951894" lon="15.0827096"><ele>424.40000000000003</ele><time>2026-04-12T07:50:16.602Z</time></trkpt><trkpt lat="36.9951841" lon="15.0825667"><ele>423.6</ele><time>2026-04-12T07:50:17.602Z</time></trkpt><trkpt lat="36.9951598" lon="15.0824507"><ele>422.8</ele><time>2026-04-12T07:50:18.603Z</time></trkpt><trkpt lat="36.9951251" lon="15.0823182"><ele>422.0</ele><time>2026-04-12T07:50:19.602Z</time></trkpt><trkpt lat="36.9950745" lon="15.082192"><ele>421.66666666666663</ele><time>2026-04-12T07:50:20.602Z</time></trkpt><trkpt lat="36.995028" lon="15.0820693"><ele>421.3333333333333</ele><time>2026-04-12T07:50:21.603Z</time></trkpt><trkpt lat="36.9949741" lon="15.0819755"><ele>421.0</ele><time>2026-04-12T07:50:22.603Z</time></trkpt><trkpt lat="36.9949081" lon="15.0818899"><ele>420.66666666666663</ele><time>2026-04-12T07:50:23.602Z</time></trkpt><trkpt lat="36.9948468" lon="15.0818313"><ele>420.3333333333333</ele><time>2026-04-12T07:50:24.603Z</time></trkpt><trkpt lat="36.9948007" lon="15.0817549"><ele>420.0</ele><time>2026-04-12T07:50:25.603Z</time></trkpt><trkpt lat="36.9947643" lon="15.0816495"><ele>423.2</ele><time>2026-04-12T07:50:26.603Z</time></trkpt><trkpt lat="36.9947244" lon="15.0815275"><ele>426.4</ele><time>2026-04-12T07:50:27.603Z</time></trkpt><trkpt lat="36.9946831" lon="15.0814004"><ele>429.6</ele><time>2026-04-12T07:50:28.602Z</time></trkpt><trkpt lat="36.994645" lon="15.0812643"><ele>432.8</ele><time>2026-04-12T07:50:29.603Z</time></trkpt><trkpt lat="36.9946146" lon="15.0811347"><ele>436.0</ele><time>2026-04-12T07:50:30.602Z</time></trkpt><trkpt lat="36.9945869" lon="15.0810229"><ele>436.00000000000006</ele><time>2026-04-12T07:50:31.602Z</time></trkpt><trkpt lat="36.9945738" lon="15.0809103"><ele>436.0</ele><time>2026-04-12T07:50:32.602Z</time></trkpt><trkpt lat="36.9945812" lon="15.0808139"><ele>436.0</ele><time>2026-04-12T07:50:33.603Z</time></trkpt><trkpt lat="36.9945797" lon="15.0807109"><ele>436.0</ele><time>2026-04-12T07:50:34.603Z</time></trkpt><trkpt lat="36.9945684" lon="15.0806027"><ele>436.00000000000006</ele><time>2026-04-12T07:50:35.602Z</time></trkpt><trkpt lat="36.9945574" lon="15.0804979"><ele>436.0</ele><time>2026-04-12T07:50:36.602Z</time></trkpt><trkpt lat="36.9945473" lon="15.0803915"><ele>435.50000000000006</ele><time>2026-04-12T07:50:37.602Z</time></trkpt><trkpt lat="36.9945351" lon="15.0802921"><ele>435.0</ele><time>2026-04-12T07:50:38.603Z</time></trkpt><trkpt lat="36.9945361" lon="15.0801868"><ele>434.5</ele><time>2026-04-12T07:50:39.602Z</time></trkpt><trkpt lat="36.9945473" lon="15.0800809"><ele>434.0</ele><time>2026-04-12T07:50:40.602Z</time></trkpt><trkpt lat="36.9945609" lon="15.0799769"><ele>433.50000000000006</ele><time>2026-04-12T07:50:41.602Z</time></trkpt><trkpt lat="36.9945624" lon="15.0798794"><ele>433.0</ele><time>2026-04-12T07:50:42.603Z</time></trkpt><trkpt lat="36.9945564" lon="15.0797841"><ele>432.50000000000006</ele><time>2026-04-12T07:50:43.603Z</time></trkpt><trkpt lat="36.99454" lon="15.0796915"><ele>432.0</ele><time>2026-04-12T07:50:44.603Z</time></trkpt><trkpt lat="36.994525" lon="15.079598"><ele>431.5</ele><time>2026-04-12T07:50:45.602Z</time></trkpt><trkpt lat="36.9945118" lon="15.0794989"><ele>431.0</ele><time>2026-04-12T07:50:46.603Z</time></trkpt><trkpt lat="36.994506" lon="15.0793953"><ele>430.50000000000006</ele><time>2026-04-12T07:50:47.603Z</time></trkpt><trkpt lat="36.9944959" lon="15.0792924"><ele>430.0</ele><time>2026-04-12T07:50:48.602Z</time></trkpt><trkpt lat="36.994487" lon="15.0791941"><ele>430.33333333333337</ele><time>2026-04-12T07:50:49.603Z</time></trkpt><trkpt lat="36.9944816" lon="15.0790897"><ele>430.6666666666667</ele><time>2026-04-12T07:50:50.603Z</time></trkpt><trkpt lat="36.9944836" lon="15.0789767"><ele>431.0</ele><time>2026-04-12T07:50:51.603Z</time></trkpt><trkpt lat="36.9944941" lon="15.0788716"><ele>431.33333333333337</ele><time>2026-04-12T07:50:52.603Z</time></trkpt><trkpt lat="36.9945099" lon="15.0787602"><ele>431.6666666666667</ele><time>2026-04-12T07:50:53.603Z</time></trkpt><trkpt lat="36.994519" lon="15.0786451"><ele>432.0</ele><time>2026-04-12T07:50:54.603Z</time></trkpt><trkpt lat="36.9945227" lon="15.0785296"><ele>432.0</ele><time>2026-04-12T07:50:55.603Z</time></trkpt><trkpt lat="36.9945228" lon="15.0784109"><ele>432.00000000000006</ele><time>2026-04-12T07:50:56.602Z</time></trkpt><trkpt lat="36.994521" lon="15.0782922"><ele>432.00000000000006</ele><time>2026-04-12T07:50:57.602Z</time></trkpt><trkpt lat="36.9945196" lon="15.0781715"><ele>432.0</ele><time>2026-04-12T07:50:58.602Z</time></trkpt><trkpt lat="36.9945127" lon="15.0780534"><ele>432.0</ele><time>2026-04-12T07:50:59.602Z</time></trkpt><trkpt lat="36.9945024" lon="15.0779406"><ele>432.6666666666667</ele><time>2026-04-12T07:51:00.602Z</time></trkpt><trkpt lat="36.9944917" lon="15.0778325"><ele>433.33333333333337</ele><time>2026-04-12T07:51:01.602Z</time></trkpt><trkpt lat="36.9944754" lon="15.0777275"><ele>434.0</ele><time>2026-04-12T07:51:02.603Z</time></trkpt><trkpt lat="36.9944551" lon="15.0776431"><ele>434.6666666666667</ele><time>2026-04-12T07:51:03.603Z</time></trkpt><trkpt lat="36.9944345" lon="15.0775665"><ele>435.33333333333337</ele><time>2026-04-12T07:51:04.602Z</time></trkpt><trkpt lat="36.9943392" lon="15.0775072"><ele>436.0</ele><time>2026-04-12T07:51:06.602Z</time></trkpt><trkpt lat="36.9942727" lon="15.0774777"><ele>436.00000000000006</ele><time>2026-04-12T07:51:07.603Z</time></trkpt><trkpt lat="36.9942003" lon="15.0774383"><ele>436.0</ele><time>2026-04-12T07:51:08.603Z</time></trkpt><trkpt lat="36.9941142" lon="15.0773836"><ele>436.0</ele><time>2026-04-12T07:51:09.602Z</time></trkpt><trkpt lat="36.9940321" lon="15.0773259"><ele>436.0</ele><time>2026-04-12T07:51:10.602Z</time></trkpt><trkpt lat="36.9939509" lon="15.0772756"><ele>436.00000000000006</ele><time>2026-04-12T07:51:11.602Z</time></trkpt><trkpt lat="36.9938828" lon="15.0772153"><ele>436.0</ele><time>2026-04-12T07:51:12.603Z</time></trkpt><trkpt lat="36.9938234" lon="15.0771344"><ele>436.0</ele><time>2026-04-12T07:51:13.602Z</time></trkpt><trkpt lat="36.9937665" lon="15.0770361"><ele>436.0</ele><time>2026-04-12T07:51:14.603Z</time></trkpt><trkpt lat="36.9936941" lon="15.0769379"><ele>436.0</ele><time>2026-04-12T07:51:15.603Z</time></trkpt><trkpt lat="36.9936151" lon="15.0768369"><ele>436.0</ele><time>2026-04-12T07:51:16.603Z</time></trkpt><trkpt lat="36.9935352" lon="15.0767311"><ele>436.0</ele><time>2026-04-12T07:51:17.603Z</time></trkpt><trkpt lat="36.9934576" lon="15.0766214"><ele>436.0</ele><time>2026-04-12T07:51:18.603Z</time></trkpt><trkpt lat="36.993371" lon="15.0765167"><ele>436.0</ele><time>2026-04-12T07:51:19.603Z</time></trkpt><trkpt lat="36.9932941" lon="15.0764216"><ele>436.0</ele><time>2026-04-12T07:51:20.602Z</time></trkpt><trkpt lat="36.9932278" lon="15.0763341"><ele>436.0</ele><time>2026-04-12T07:51:21.603Z</time></trkpt><trkpt lat="36.9931773" lon="15.0762571"><ele>436.0</ele><time>2026-04-12T07:51:22.602Z</time></trkpt><trkpt lat="36.9931418" lon="15.076177"><ele>436.1666666666667</ele><time>2026-04-12T07:51:23.602Z</time></trkpt><trkpt lat="36.9931201" lon="15.0760832"><ele>436.33333333333337</ele><time>2026-04-12T07:51:24.603Z</time></trkpt><trkpt lat="36.9931052" lon="15.0759838"><ele>436.5</ele><time>2026-04-12T07:51:25.602Z</time></trkpt><trkpt lat="36.9930927" lon="15.0758865"><ele>436.66666666666663</ele><time>2026-04-12T07:51:26.603Z</time></trkpt><trkpt lat="36.9930745" lon="15.0757947"><ele>436.8333333333333</ele><time>2026-04-12T07:51:27.602Z</time></trkpt><trkpt lat="36.9930521" lon="15.0757047"><ele>437.0</ele><time>2026-04-12T07:51:28.603Z</time></trkpt><trkpt lat="36.9930254" lon="15.0756145"><ele>437.3333333333333</ele><time>2026-04-12T07:51:29.602Z</time></trkpt><trkpt lat="36.9929974" lon="15.0755152"><ele>437.66666666666663</ele><time>2026-04-12T07:51:30.603Z</time></trkpt><trkpt lat="36.9929652" lon="15.075412"><ele>438.0</ele><time>2026-04-12T07:51:31.603Z</time></trkpt><trkpt lat="36.9929318" lon="15.075305"><ele>438.33333333333337</ele><time>2026-04-12T07:51:32.602Z</time></trkpt><trkpt lat="36.992893" lon="15.0752007"><ele>438.6666666666667</ele><time>2026-04-12T07:51:33.603Z</time></trkpt><trkpt lat="36.9928658" lon="15.0750921"><ele>439.0</ele><time>2026-04-12T07:51:34.602Z</time></trkpt><trkpt lat="36.9928397" lon="15.0749931"><ele>439.50000000000006</ele><time>2026-04-12T07:51:35.603Z</time></trkpt><trkpt lat="36.9928186" lon="15.0748913"><ele>440.0</ele><time>2026-04-12T07:51:36.603Z</time></trkpt><trkpt lat="36.9927921" lon="15.0748063"><ele>440.5</ele><time>2026-04-12T07:51:37.603Z</time></trkpt><trkpt lat="36.9927604" lon="15.074712"><ele>441.0</ele><time>2026-04-12T07:51:38.602Z</time></trkpt><trkpt lat="36.9927139" lon="15.0746495"><ele>441.50000000000006</ele><time>2026-04-12T07:51:39.602Z</time></trkpt><trkpt lat="36.9926515" lon="15.0746038"><ele>442.0</ele><time>2026-04-12T07:51:40.603Z</time></trkpt><trkpt lat="36.9925775" lon="15.0745387"><ele>441.6</ele><time>2026-04-12T07:51:41.603Z</time></trkpt><trkpt lat="36.9924967" lon="15.0744666"><ele>441.20000000000005</ele><time>2026-04-12T07:51:42.602Z</time></trkpt><trkpt lat="36.9924198" lon="15.0743936"><ele>440.8</ele><time>2026-04-12T07:51:43.602Z</time></trkpt><trkpt lat="36.9923428" lon="15.0743173"><ele>440.4</ele><time>2026-04-12T07:51:44.602Z</time></trkpt><trkpt lat="36.9922689" lon="15.0742382"><ele>440.0</ele><time>2026-04-12T07:51:45.603Z</time></trkpt><trkpt lat="36.9921959" lon="15.0741682"><ele>440.49999999999994</ele><time>2026-04-12T07:51:46.603Z</time></trkpt><trkpt lat="36.9921281" lon="15.0740984"><ele>441.0</ele><time>2026-04-12T07:51:47.602Z</time></trkpt><trkpt lat="36.992063" lon="15.0740367"><ele>441.5</ele><time>2026-04-12T07:51:48.602Z</time></trkpt><trkpt lat="36.9919946" lon="15.0739822"><ele>442.0</ele><time>2026-04-12T07:51:49.603Z</time></trkpt><trkpt lat="36.9919285" lon="15.0739271"><ele>442.49999999999994</ele><time>2026-04-12T07:51:50.602Z</time></trkpt><trkpt lat="36.9918521" lon="15.0738656"><ele>443.0</ele><time>2026-04-12T07:51:51.602Z</time></trkpt><trkpt lat="36.9917275" lon="15.0737986"><ele>443.2</ele><time>2026-04-12T07:51:52.603Z</time></trkpt><trkpt lat="36.9916275" lon="15.0737413"><ele>443.4</ele><time>2026-04-12T07:51:53.602Z</time></trkpt><trkpt lat="36.9915325" lon="15.0736731"><ele>443.59999999999997</ele><time>2026-04-12T07:51:54.603Z</time></trkpt><trkpt lat="36.9914526" lon="15.0735957"><ele>443.79999999999995</ele><time>2026-04-12T07:51:55.603Z</time></trkpt><trkpt lat="36.9913606" lon="15.0735073"><ele>444.0</ele><time>2026-04-12T07:51:56.602Z</time></trkpt><trkpt lat="36.9912526" lon="15.0733853"><ele>446.0</ele><time>2026-04-12T07:51:57.602Z</time></trkpt><trkpt lat="36.9911233" lon="15.0732475"><ele>448.0</ele><time>2026-04-12T07:51:58.603Z</time></trkpt><trkpt lat="36.990993" lon="15.0731093"><ele>450.0</ele><time>2026-04-12T07:51:59.603Z</time></trkpt><trkpt lat="36.9908786" lon="15.0729873"><ele>449.8</ele><time>2026-04-12T07:52:00.603Z</time></trkpt><trkpt lat="36.990776" lon="15.0728742"><ele>449.6</ele><time>2026-04-12T07:52:01.602Z</time></trkpt><trkpt lat="36.9907135" lon="15.0728115"><ele>449.4</ele><time>2026-04-12T07:52:02.603Z</time></trkpt><trkpt lat="36.9906544" lon="15.0727471"><ele>449.2</ele><time>2026-04-12T07:52:03.602Z</time></trkpt><trkpt lat="36.9905939" lon="15.0726775"><ele>449.0</ele><time>2026-04-12T07:52:05.602Z</time></trkpt><trkpt lat="36.990583" lon="15.0725825"><ele>449.0</ele><time>2026-04-12T07:52:08.602Z</time></trkpt><trkpt lat="36.9906441" lon="15.0724885"><ele>449.0</ele><time>2026-04-12T07:52:10.602Z</time></trkpt><trkpt lat="36.9907231" lon="15.0723612"><ele>449.0</ele><time>2026-04-12T07:52:12.603Z</time></trkpt><trkpt lat="36.9907644" lon="15.0722909"><ele>449.0</ele><time>2026-04-12T07:52:13.602Z</time></trkpt><trkpt lat="36.9908119" lon="15.0722082"><ele>449.0</ele><time>2026-04-12T07:52:14.603Z</time></trkpt><trkpt lat="36.9908629" lon="15.0721189"><ele>449.4</ele><time>2026-04-12T07:52:15.602Z</time></trkpt><trkpt lat="36.9909207" lon="15.0720255"><ele>449.79999999999995</ele><time>2026-04-12T07:52:16.603Z</time></trkpt><trkpt lat="36.9909789" lon="15.0719279"><ele>450.20000000000005</ele><time>2026-04-12T07:52:17.602Z</time></trkpt><trkpt lat="36.9910342" lon="15.0718377"><ele>450.6</ele><time>2026-04-12T07:52:18.603Z</time></trkpt><trkpt lat="36.9910969" lon="15.0717385"><ele>451.0</ele><time>2026-04-12T07:52:19.602Z</time></trkpt><trkpt lat="36.991154" lon="15.0716432"><ele>451.4</ele><time>2026-04-12T07:52:20.602Z</time></trkpt><trkpt lat="36.9912128" lon="15.0715469"><ele>451.8</ele><time>2026-04-12T07:52:21.603Z</time></trkpt><trkpt lat="36.9912716" lon="15.0714537"><ele>452.19999999999993</ele><time>2026-04-12T07:52:22.602Z</time></trkpt><trkpt lat="36.991327" lon="15.071358"><ele>452.59999999999997</ele><time>2026-04-12T07:52:23.602Z</time></trkpt><trkpt lat="36.9913828" lon="15.0712712"><ele>453.0</ele><time>2026-04-12T07:52:24.602Z</time></trkpt><trkpt lat="36.9914358" lon="15.0711835"><ele>452.99999999999994</ele><time>2026-04-12T07:52:25.603Z</time></trkpt><trkpt lat="36.9914808" lon="15.0711037"><ele>453.0</ele><time>2026-04-12T07:52:26.603Z</time></trkpt><trkpt lat="36.9915264" lon="15.0710206"><ele>452.99999999999994</ele><time>2026-04-12T07:52:27.602Z</time></trkpt><trkpt lat="36.9915727" lon="15.0709485"><ele>452.99999999999994</ele><time>2026-04-12T07:52:28.602Z</time></trkpt><trkpt lat="36.9916194" lon="15.0708768"><ele>453.0</ele><time>2026-04-12T07:52:29.603Z</time></trkpt><trkpt lat="36.9916647" lon="15.0708059"><ele>452.99999999999994</ele><time>2026-04-12T07:52:30.602Z</time></trkpt><trkpt lat="36.9917056" lon="15.0707371"><ele>452.99999999999994</ele><time>2026-04-12T07:52:31.602Z</time></trkpt><trkpt lat="36.9917461" lon="15.0706657"><ele>453.1428571428571</ele><time>2026-04-12T07:52:32.603Z</time></trkpt><trkpt lat="36.9917904" lon="15.0706063"><ele>453.2857142857143</ele><time>2026-04-12T07:52:33.603Z</time></trkpt><trkpt lat="36.991836" lon="15.0705384"><ele>453.42857142857144</ele><time>2026-04-12T07:52:34.603Z</time></trkpt><trkpt lat="36.9918779" lon="15.070467"><ele>453.57142857142856</ele><time>2026-04-12T07:52:35.603Z</time></trkpt><trkpt lat="36.9919209" lon="15.0703908"><ele>453.7142857142858</ele><time>2026-04-12T07:52:36.602Z</time></trkpt><trkpt lat="36.9919609" lon="15.0703191"><ele>453.8571428571429</ele><time>2026-04-12T07:52:37.602Z</time></trkpt><trkpt lat="36.9920058" lon="15.0702441"><ele>454.0</ele><time>2026-04-12T07:52:38.603Z</time></trkpt><trkpt lat="36.9920542" lon="15.0701663"><ele>454.00000000000006</ele><time>2026-04-12T07:52:39.602Z</time></trkpt><trkpt lat="36.9921022" lon="15.0700873"><ele>454.0</ele><time>2026-04-12T07:52:40.603Z</time></trkpt><trkpt lat="36.992151" lon="15.0700048"><ele>454.0</ele><time>2026-04-12T07:52:41.603Z</time></trkpt><trkpt lat="36.9921988" lon="15.0699209"><ele>454.0</ele><time>2026-04-12T07:52:42.603Z</time></trkpt><trkpt lat="36.9922417" lon="15.0698387"><ele>454.00000000000006</ele><time>2026-04-12T07:52:43.603Z</time></trkpt><trkpt lat="36.9922899" lon="15.0697533"><ele>454.0</ele><time>2026-04-12T07:52:44.602Z</time></trkpt><trkpt lat="36.9923381" lon="15.0696743"><ele>454.33333333333337</ele><time>2026-04-12T07:52:45.603Z</time></trkpt><trkpt lat="36.992387" lon="15.0695953"><ele>454.6666666666667</ele><time>2026-04-12T07:52:46.602Z</time></trkpt><trkpt lat="36.9924413" lon="15.0695147"><ele>455.0</ele><time>2026-04-12T07:52:47.602Z</time></trkpt><trkpt lat="36.9925023" lon="15.0694362"><ele>455.33333333333337</ele><time>2026-04-12T07:52:48.603Z</time></trkpt><trkpt lat="36.9925716" lon="15.0693558"><ele>455.6666666666667</ele><time>2026-04-12T07:52:49.602Z</time></trkpt><trkpt lat="36.9926433" lon="15.0692827"><ele>456.0</ele><time>2026-04-12T07:52:50.603Z</time></trkpt><trkpt lat="36.9927285" lon="15.0692133"><ele>456.0</ele><time>2026-04-12T07:52:51.603Z</time></trkpt><trkpt lat="36.9928131" lon="15.069146"><ele>456.0</ele><time>2026-04-12T07:52:52.603Z</time></trkpt><trkpt lat="36.9928952" lon="15.0690788"><ele>456.0</ele><time>2026-04-12T07:52:53.602Z</time></trkpt><trkpt lat="36.9929769" lon="15.069014"><ele>456.0</ele><time>2026-04-12T07:52:54.602Z</time></trkpt><trkpt lat="36.9930569" lon="15.0689413"><ele>456.0</ele><time>2026-04-12T07:52:55.603Z</time></trkpt><trkpt lat="36.9931348" lon="15.0688611"><ele>456.0</ele><time>2026-04-12T07:52:56.603Z</time></trkpt><trkpt lat="36.9932106" lon="15.0687692"><ele>456.0</ele><time>2026-04-12T07:52:57.603Z</time></trkpt><trkpt lat="36.9932806" lon="15.0686562"><ele>456.0</ele><time>2026-04-12T07:52:58.603Z</time></trkpt><trkpt lat="36.9933485" lon="15.0685438"><ele>456.0</ele><time>2026-04-12T07:52:59.602Z</time></trkpt><trkpt lat="36.9934181" lon="15.0684232"><ele>456.0</ele><time>2026-04-12T07:53:00.603Z</time></trkpt><trkpt lat="36.9934826" lon="15.068304"><ele>456.0</ele><time>2026-04-12T07:53:01.602Z</time></trkpt><trkpt lat="36.9935445" lon="15.068189"><ele>456.0</ele><time>2026-04-12T07:53:02.602Z</time></trkpt><trkpt lat="36.9935912" lon="15.0680719"><ele>456.0</ele><time>2026-04-12T07:53:03.603Z</time></trkpt><trkpt lat="36.9936282" lon="15.0679542"><ele>456.0</ele><time>2026-04-12T07:53:04.602Z</time></trkpt><trkpt lat="36.9936602" lon="15.0678282"><ele>456.0</ele><time>2026-04-12T07:53:05.602Z</time></trkpt><trkpt lat="36.9936939" lon="15.0677001"><ele>456.0</ele><time>2026-04-12T07:53:06.602Z</time></trkpt><trkpt lat="36.9937329" lon="15.0675757"><ele>456.0</ele><time>2026-04-12T07:53:07.602Z</time></trkpt><trkpt lat="36.9937808" lon="15.067457"><ele>456.0</ele><time>2026-04-12T07:53:08.602Z</time></trkpt><trkpt lat="36.9938403" lon="15.0673373"><ele>456.0</ele><time>2026-04-12T07:53:09.602Z</time></trkpt><trkpt lat="36.9939059" lon="15.0672211"><ele>455.8</ele><time>2026-04-12T07:53:10.603Z</time></trkpt><trkpt lat="36.9939712" lon="15.0671204"><ele>455.6</ele><time>2026-04-12T07:53:11.603Z</time></trkpt><trkpt lat="36.9940327" lon="15.0670356"><ele>455.4</ele><time>2026-04-12T07:53:12.603Z</time></trkpt><trkpt lat="36.9940928" lon="15.0669618"><ele>455.2</ele><time>2026-04-12T07:53:13.603Z</time></trkpt><trkpt lat="36.9941666" lon="15.0668826"><ele>455.0</ele><time>2026-04-12T07:53:14.602Z</time></trkpt><trkpt lat="36.9942537" lon="15.0668035"><ele>455.0</ele><time>2026-04-12T07:53:15.603Z</time></trkpt><trkpt lat="36.9943445" lon="15.0667335"><ele>455.0</ele><time>2026-04-12T07:53:16.603Z</time></trkpt><trkpt lat="36.9944358" lon="15.0666605"><ele>455.0</ele><time>2026-04-12T07:53:17.603Z</time></trkpt><trkpt lat="36.994553" lon="15.066565"><ele>455.0</ele><time>2026-04-12T07:53:18.602Z</time></trkpt><trkpt lat="36.9946632" lon="15.0664798"><ele>455.75</ele><time>2026-04-12T07:53:19.602Z</time></trkpt><trkpt lat="36.9947616" lon="15.0663932"><ele>456.5</ele><time>2026-04-12T07:53:20.602Z</time></trkpt><trkpt lat="36.9948547" lon="15.0663119"><ele>457.25</ele><time>2026-04-12T07:53:21.603Z</time></trkpt><trkpt lat="36.9949429" lon="15.0662298"><ele>458.0</ele><time>2026-04-12T07:53:22.602Z</time></trkpt><trkpt lat="36.9950314" lon="15.0661529"><ele>458.0</ele><time>2026-04-12T07:53:23.603Z</time></trkpt><trkpt lat="36.9951098" lon="15.0660612"><ele>457.99999999999994</ele><time>2026-04-12T07:53:24.603Z</time></trkpt><trkpt lat="36.9951763" lon="15.0659675"><ele>457.99999999999994</ele><time>2026-04-12T07:53:25.602Z</time></trkpt><trkpt lat="36.9952347" lon="15.0658683"><ele>458.0</ele><time>2026-04-12T07:53:26.603Z</time></trkpt><trkpt lat="36.9952847" lon="15.0657656"><ele>458.0</ele><time>2026-04-12T07:53:27.602Z</time></trkpt><trkpt lat="36.9953337" lon="15.0656651"><ele>458.2</ele><time>2026-04-12T07:53:28.602Z</time></trkpt><trkpt lat="36.9953852" lon="15.0655588"><ele>458.4</ele><time>2026-04-12T07:53:29.602Z</time></trkpt><trkpt lat="36.9954326" lon="15.0654492"><ele>458.59999999999997</ele><time>2026-04-12T07:53:30.603Z</time></trkpt><trkpt lat="36.9954815" lon="15.0653418"><ele>458.79999999999995</ele><time>2026-04-12T07:53:31.603Z</time></trkpt><trkpt lat="36.9955328" lon="15.0652317"><ele>459.0</ele><time>2026-04-12T07:53:32.603Z</time></trkpt><trkpt lat="36.9955853" lon="15.0651177"><ele>459.0</ele><time>2026-04-12T07:53:33.603Z</time></trkpt><trkpt lat="36.9956409" lon="15.0650028"><ele>459.0</ele><time>2026-04-12T07:53:34.603Z</time></trkpt><trkpt lat="36.9956998" lon="15.0648878"><ele>459.0</ele><time>2026-04-12T07:53:35.602Z</time></trkpt><trkpt lat="36.9957605" lon="15.064771"><ele>459.0</ele><time>2026-04-12T07:53:36.602Z</time></trkpt><trkpt lat="36.9958261" lon="15.0646609"><ele>459.0</ele><time>2026-04-12T07:53:37.603Z</time></trkpt><trkpt lat="36.9958916" lon="15.0645412"><ele>459.0</ele><time>2026-04-12T07:53:38.602Z</time></trkpt><trkpt lat="36.9959614" lon="15.0644172"><ele>459.0</ele><time>2026-04-12T07:53:39.602Z</time></trkpt><trkpt lat="36.996032" lon="15.0642994"><ele>459.0</ele><time>2026-04-12T07:53:40.602Z</time></trkpt><trkpt lat="36.9960913" lon="15.0641867"><ele>459.0</ele><time>2026-04-12T07:53:41.603Z</time></trkpt><trkpt lat="36.996155" lon="15.0640758"><ele>459.6</ele><time>2026-04-12T07:53:42.602Z</time></trkpt><trkpt lat="36.9962146" lon="15.063962"><ele>460.2</ele><time>2026-04-12T07:53:43.602Z</time></trkpt><trkpt lat="36.9962761" lon="15.0638465"><ele>460.80000000000007</ele><time>2026-04-12T07:53:44.602Z</time></trkpt><trkpt lat="36.9963411" lon="15.0637262"><ele>461.40000000000003</ele><time>2026-04-12T07:53:45.602Z</time></trkpt><trkpt lat="36.9964053" lon="15.0636095"><ele>462.0</ele><time>2026-04-12T07:53:46.602Z</time></trkpt><trkpt lat="36.9964722" lon="15.063493"><ele>462.0</ele><time>2026-04-12T07:53:47.602Z</time></trkpt><trkpt lat="36.9965371" lon="15.0633876"><ele>462.00000000000006</ele><time>2026-04-12T07:53:48.603Z</time></trkpt><trkpt lat="36.9966045" lon="15.0632713"><ele>462.00000000000006</ele><time>2026-04-12T07:53:49.602Z</time></trkpt><trkpt lat="36.9966707" lon="15.0631574"><ele>462.0</ele><time>2026-04-12T07:53:50.602Z</time></trkpt><trkpt lat="36.9967403" lon="15.0630472"><ele>462.0</ele><time>2026-04-12T07:53:51.603Z</time></trkpt><trkpt lat="36.9968105" lon="15.0629369"><ele>462.8</ele><time>2026-04-12T07:53:52.602Z</time></trkpt><trkpt lat="36.9968779" lon="15.0628259"><ele>463.6</ele><time>2026-04-12T07:53:53.602Z</time></trkpt><trkpt lat="36.9969471" lon="15.0627209"><ele>464.40000000000003</ele><time>2026-04-12T07:53:54.603Z</time></trkpt><trkpt lat="36.9970147" lon="15.0626111"><ele>465.20000000000005</ele><time>2026-04-12T07:53:55.602Z</time></trkpt><trkpt lat="36.9970775" lon="15.0625029"><ele>466.0</ele><time>2026-04-12T07:53:56.602Z</time></trkpt><trkpt lat="36.9971438" lon="15.0623985"><ele>467.1666666666667</ele><time>2026-04-12T07:53:57.602Z</time></trkpt><trkpt lat="36.9972075" lon="15.0622974"><ele>468.33333333333337</ele><time>2026-04-12T07:53:58.603Z</time></trkpt><trkpt lat="36.9972637" lon="15.0621956"><ele>469.5</ele><time>2026-04-12T07:53:59.602Z</time></trkpt><trkpt lat="36.9973054" lon="15.0620995"><ele>470.66666666666663</ele><time>2026-04-12T07:54:00.602Z</time></trkpt><trkpt lat="36.9973374" lon="15.0620066"><ele>471.8333333333333</ele><time>2026-04-12T07:54:01.603Z</time></trkpt><trkpt lat="36.9973711" lon="15.0619192"><ele>473.0</ele><time>2026-04-12T07:54:02.603Z</time></trkpt><trkpt lat="36.9973974" lon="15.0618306"><ele>472.99999999999994</ele><time>2026-04-12T07:54:03.603Z</time></trkpt><trkpt lat="36.9974262" lon="15.0617404"><ele>473.0</ele><time>2026-04-12T07:54:04.602Z</time></trkpt><trkpt lat="36.9974584" lon="15.0616617"><ele>473.0</ele><time>2026-04-12T07:54:05.602Z</time></trkpt><trkpt lat="36.9974923" lon="15.0615579"><ele>473.0</ele><time>2026-04-12T07:54:07.603Z</time></trkpt><trkpt lat="36.9974838" lon="15.0614575"><ele>472.99999999999994</ele><time>2026-04-12T07:54:10.602Z</time></trkpt><trkpt lat="36.9974033" lon="15.0614042"><ele>473.0</ele><time>2026-04-12T07:54:12.602Z</time></trkpt><trkpt lat="36.9973274" lon="15.0613656"><ele>472.59999999999997</ele><time>2026-04-12T07:54:14.602Z</time></trkpt><trkpt lat="36.997265" lon="15.0613102"><ele>472.19999999999993</ele><time>2026-04-12T07:54:17.603Z</time></trkpt><trkpt lat="36.9971794" lon="15.0612434"><ele>471.8</ele><time>2026-04-12T07:54:20.602Z</time></trkpt><trkpt lat="36.997079" lon="15.0611771"><ele>471.4</ele><time>2026-04-12T07:54:22.603Z</time></trkpt><trkpt lat="36.9969698" lon="15.0610931"><ele>471.0</ele><time>2026-04-12T07:54:24.602Z</time></trkpt><trkpt lat="36.9968641" lon="15.0610097"><ele>471.0</ele><time>2026-04-12T07:54:26.602Z</time></trkpt><trkpt lat="36.9968061" lon="15.0609785"><ele>471.0</ele><time>2026-04-12T07:54:27.602Z</time></trkpt><trkpt lat="36.9967097" lon="15.0609175"><ele>471.0</ele><time>2026-04-12T07:54:29.603Z</time></trkpt><trkpt lat="36.996641" lon="15.0608798"><ele>471.0</ele><time>2026-04-12T07:54:30.602Z</time></trkpt><trkpt lat="36.9965739" lon="15.060836"><ele>471.0</ele><time>2026-04-12T07:54:31.603Z</time></trkpt><trkpt lat="36.9964922" lon="15.060787"><ele>471.0</ele><time>2026-04-12T07:54:32.602Z</time></trkpt><trkpt lat="36.9963933" lon="15.0607325"><ele>467.8</ele><time>2026-04-12T07:54:33.602Z</time></trkpt><trkpt lat="36.9963056" lon="15.0606757"><ele>464.6</ele><time>2026-04-12T07:54:34.603Z</time></trkpt><trkpt lat="36.9962274" lon="15.0606279"><ele>461.4</ele><time>2026-04-12T07:54:35.603Z</time></trkpt><trkpt lat="36.9961511" lon="15.0605864"><ele>458.2</ele><time>2026-04-12T07:54:36.603Z</time></trkpt><trkpt lat="36.9960888" lon="15.0605431"><ele>455.0</ele><time>2026-04-12T07:54:37.602Z</time></trkpt><trkpt lat="36.9959791" lon="15.0604713"><ele>455.0</ele><time>2026-04-12T07:54:39.602Z</time></trkpt><trkpt lat="36.9958959" lon="15.0604229"><ele>455.0</ele><time>2026-04-12T07:54:41.602Z</time></trkpt><trkpt lat="36.9958109" lon="15.0603822"><ele>455.0</ele><time>2026-04-12T07:54:43.602Z</time></trkpt><trkpt lat="36.9957353" lon="15.0603249"><ele>455.0</ele><time>2026-04-12T07:54:45.602Z</time></trkpt><trkpt lat="36.9956516" lon="15.0602691"><ele>455.0</ele><time>2026-04-12T07:54:47.602Z</time></trkpt><trkpt lat="36.9955645" lon="15.0601781"><ele>454.8</ele><time>2026-04-12T07:54:49.602Z</time></trkpt><trkpt lat="36.9955181" lon="15.0600701"><ele>454.6</ele><time>2026-04-12T07:54:51.603Z</time></trkpt><trkpt lat="36.9954709" lon="15.0599831"><ele>454.4</ele><time>2026-04-12T07:54:53.602Z</time></trkpt><trkpt lat="36.9953981" lon="15.0599075"><ele>454.2</ele><time>2026-04-12T07:54:55.602Z</time></trkpt><trkpt lat="36.9952985" lon="15.0598252"><ele>454.0</ele><time>2026-04-12T07:54:57.603Z</time></trkpt><trkpt lat="36.9952074" lon="15.0597501"><ele>454.00000000000006</ele><time>2026-04-12T07:54:59.602Z</time></trkpt><trkpt lat="36.9951158" lon="15.0597129"><ele>454.0</ele><time>2026-04-12T07:55:01.602Z</time></trkpt><trkpt lat="36.9950199" lon="15.059714"><ele>454.0</ele><time>2026-04-12T07:55:02.602Z</time></trkpt><trkpt lat="36.9949393" lon="15.0597329"><ele>454.0</ele><time>2026-04-12T07:55:03.603Z</time></trkpt><trkpt lat="36.9948628" lon="15.0597453"><ele>454.00000000000006</ele><time>2026-04-12T07:55:04.602Z</time></trkpt><trkpt lat="36.9947886" lon="15.0597479"><ele>454.0</ele><time>2026-04-12T07:55:05.603Z</time></trkpt><trkpt lat="36.9947146" lon="15.059748"><ele>453.6</ele><time>2026-04-12T07:55:06.602Z</time></trkpt><trkpt lat="36.9946458" lon="15.0597355"><ele>453.2</ele><time>2026-04-12T07:55:07.603Z</time></trkpt><trkpt lat="36.994577" lon="15.0597198"><ele>452.80000000000007</ele><time>2026-04-12T07:55:08.603Z</time></trkpt><trkpt lat="36.9944559" lon="15.0597278"><ele>452.40000000000003</ele><time>2026-04-12T07:55:10.603Z</time></trkpt><trkpt lat="36.9943293" lon="15.0597144"><ele>452.0</ele><time>2026-04-12T07:55:12.602Z</time></trkpt><trkpt lat="36.9942602" lon="15.0597043"><ele>451.99999999999994</ele><time>2026-04-12T07:55:13.602Z</time></trkpt><trkpt lat="36.9941878" lon="15.059689"><ele>452.0</ele><time>2026-04-12T07:55:14.603Z</time></trkpt><trkpt lat="36.994121" lon="15.0596736"><ele>452.0</ele><time>2026-04-12T07:55:15.603Z</time></trkpt><trkpt lat="36.99401" lon="15.0596543"><ele>452.0</ele><time>2026-04-12T07:55:17.603Z</time></trkpt><trkpt lat="36.9938836" lon="15.0596494"><ele>451.99999999999994</ele><time>2026-04-12T07:55:19.602Z</time></trkpt><trkpt lat="36.9938156" lon="15.0596416"><ele>452.0</ele><time>2026-04-12T07:55:20.603Z</time></trkpt><trkpt lat="36.9937438" lon="15.059632"><ele>451.8333333333333</ele><time>2026-04-12T07:55:21.603Z</time></trkpt><trkpt lat="36.9936732" lon="15.0596328"><ele>451.66666666666663</ele><time>2026-04-12T07:55:22.602Z</time></trkpt><trkpt lat="36.9936086" lon="15.0596301"><ele>451.5</ele><time>2026-04-12T07:55:23.603Z</time></trkpt><trkpt lat="36.9934925" lon="15.0596139"><ele>451.33333333333337</ele><time>2026-04-12T07:55:25.602Z</time></trkpt><trkpt lat="36.9934279" lon="15.0596125"><ele>451.1666666666667</ele><time>2026-04-12T07:55:26.602Z</time></trkpt><trkpt lat="36.9933045" lon="15.0596126"><ele>451.0</ele><time>2026-04-12T07:55:28.603Z</time></trkpt><trkpt lat="36.9931907" lon="15.0596156"><ele>451.50000000000006</ele><time>2026-04-12T07:55:30.603Z</time></trkpt><trkpt lat="36.9931226" lon="15.0596135"><ele>452.0</ele><time>2026-04-12T07:55:31.603Z</time></trkpt><trkpt lat="36.9930568" lon="15.0596258"><ele>452.5</ele><time>2026-04-12T07:55:32.603Z</time></trkpt><trkpt lat="36.9929714" lon="15.0596297"><ele>453.0</ele><time>2026-04-12T07:55:33.603Z</time></trkpt><trkpt lat="36.9928715" lon="15.0596357"><ele>453.50000000000006</ele><time>2026-04-12T07:55:34.602Z</time></trkpt><trkpt lat="36.9927882" lon="15.0596582"><ele>454.0</ele><time>2026-04-12T07:55:35.602Z</time></trkpt><trkpt lat="36.9927101" lon="15.0596726"><ele>454.0</ele><time>2026-04-12T07:55:36.602Z</time></trkpt><trkpt lat="36.9925919" lon="15.0596635"><ele>454.0</ele><time>2026-04-12T07:55:38.603Z</time></trkpt><trkpt lat="36.9924778" lon="15.0596306"><ele>454.0</ele><time>2026-04-12T07:55:40.602Z</time></trkpt><trkpt lat="36.9923692" lon="15.0595803"><ele>454.0</ele><time>2026-04-12T07:55:42.603Z</time></trkpt><trkpt lat="36.9922648" lon="15.0595294"><ele>452.79999999999995</ele><time>2026-04-12T07:55:44.603Z</time></trkpt><trkpt lat="36.9921715" lon="15.0594813"><ele>451.59999999999997</ele><time>2026-04-12T07:55:46.603Z</time></trkpt><trkpt lat="36.9920743" lon="15.0594293"><ele>450.4</ele><time>2026-04-12T07:55:48.603Z</time></trkpt><trkpt lat="36.9919689" lon="15.0593658"><ele>449.2</ele><time>2026-04-12T07:55:50.602Z</time></trkpt><trkpt lat="36.9918532" lon="15.0593128"><ele>448.0</ele><time>2026-04-12T07:55:52.603Z</time></trkpt><trkpt lat="36.9917588" lon="15.0592376"><ele>447.2</ele><time>2026-04-12T07:55:54.603Z</time></trkpt><trkpt lat="36.9916955" lon="15.0591112"><ele>446.4</ele><time>2026-04-12T07:55:56.602Z</time></trkpt><trkpt lat="36.9916092" lon="15.0589821"><ele>445.59999999999997</ele><time>2026-04-12T07:55:58.602Z</time></trkpt><trkpt lat="36.9915609" lon="15.0588991"><ele>444.79999999999995</ele><time>2026-04-12T07:55:59.603Z</time></trkpt><trkpt lat="36.9915153" lon="15.0588166"><ele>444.0</ele><time>2026-04-12T07:56:00.602Z</time></trkpt><trkpt lat="36.9914676" lon="15.0587339"><ele>444.0</ele><time>2026-04-12T07:56:01.602Z</time></trkpt><trkpt lat="36.9914105" lon="15.0586461"><ele>444.0</ele><time>2026-04-12T07:56:02.603Z</time></trkpt><trkpt lat="36.9913581" lon="15.0585613"><ele>444.0</ele><time>2026-04-12T07:56:03.603Z</time></trkpt><trkpt lat="36.9913093" lon="15.0584746"><ele>444.0</ele><time>2026-04-12T07:56:04.602Z</time></trkpt><trkpt lat="36.9912641" lon="15.0583592"><ele>444.0</ele><time>2026-04-12T07:56:05.602Z</time></trkpt><trkpt lat="36.9912244" lon="15.0582343"><ele>445.0</ele><time>2026-04-12T07:56:06.602Z</time></trkpt><trkpt lat="36.9911864" lon="15.0581213"><ele>446.0</ele><time>2026-04-12T07:56:07.602Z</time></trkpt><trkpt lat="36.9911521" lon="15.0580195"><ele>447.0</ele><time>2026-04-12T07:56:08.602Z</time></trkpt><trkpt lat="36.9911118" lon="15.0579199"><ele>448.0</ele><time>2026-04-12T07:56:09.602Z</time></trkpt><trkpt lat="36.9910719" lon="15.0578098"><ele>449.0</ele><time>2026-04-12T07:56:10.602Z</time></trkpt><trkpt lat="36.9910252" lon="15.0577019"><ele>449.0</ele><time>2026-04-12T07:56:11.603Z</time></trkpt><trkpt lat="36.9909921" lon="15.0575832"><ele>449.0</ele><time>2026-04-12T07:56:12.603Z</time></trkpt><trkpt lat="36.9909556" lon="15.0574742"><ele>449.0</ele><time>2026-04-12T07:56:13.602Z</time></trkpt><trkpt lat="36.9909125" lon="15.0573681"><ele>449.0</ele><time>2026-04-12T07:56:14.603Z</time></trkpt><trkpt lat="36.9908714" lon="15.0572602"><ele>449.0</ele><time>2026-04-12T07:56:15.602Z</time></trkpt><trkpt lat="36.9908371" lon="15.0571643"><ele>447.85714285714283</ele><time>2026-04-12T07:56:16.602Z</time></trkpt><trkpt lat="36.9908075" lon="15.0570826"><ele>446.71428571428567</ele><time>2026-04-12T07:56:17.603Z</time></trkpt><trkpt lat="36.99078" lon="15.057006"><ele>445.57142857142856</ele><time>2026-04-12T07:56:18.603Z</time></trkpt><trkpt lat="36.9907484" lon="15.056924"><ele>444.42857142857144</ele><time>2026-04-12T07:56:19.602Z</time></trkpt><trkpt lat="36.9907149" lon="15.0568455"><ele>443.2857142857143</ele><time>2026-04-12T07:56:20.602Z</time></trkpt><trkpt lat="36.9906862" lon="15.0567671"><ele>442.1428571428571</ele><time>2026-04-12T07:56:21.602Z</time></trkpt><trkpt lat="36.9906611" lon="15.0566667"><ele>441.0</ele><time>2026-04-12T07:56:22.603Z</time></trkpt><trkpt lat="36.9906414" lon="15.056559"><ele>441.0</ele><time>2026-04-12T07:56:23.603Z</time></trkpt><trkpt lat="36.9906258" lon="15.0564192"><ele>441.0</ele><time>2026-04-12T07:56:24.603Z</time></trkpt><trkpt lat="36.990604" lon="15.0562736"><ele>441.0</ele><time>2026-04-12T07:56:25.603Z</time></trkpt><trkpt lat="36.9905862" lon="15.0561413"><ele>441.0</ele><time>2026-04-12T07:56:26.603Z</time></trkpt><trkpt lat="36.9905707" lon="15.0560228"><ele>441.0</ele><time>2026-04-12T07:56:27.602Z</time></trkpt><trkpt lat="36.9905592" lon="15.0559064"><ele>441.0</ele><time>2026-04-12T07:56:28.602Z</time></trkpt><trkpt lat="36.9905465" lon="15.0557921"><ele>441.0</ele><time>2026-04-12T07:56:29.602Z</time></trkpt><trkpt lat="36.9905323" lon="15.0556839"><ele>441.0</ele><time>2026-04-12T07:56:30.603Z</time></trkpt><trkpt lat="36.9905186" lon="15.0555821"><ele>441.0</ele><time>2026-04-12T07:56:31.603Z</time></trkpt><trkpt lat="36.990503" lon="15.05548"><ele>441.0</ele><time>2026-04-12T07:56:32.602Z</time></trkpt><trkpt lat="36.9904902" lon="15.0553799"><ele>441.0</ele><time>2026-04-12T07:56:33.602Z</time></trkpt><trkpt lat="36.9904802" lon="15.0552862"><ele>440.8333333333333</ele><time>2026-04-12T07:56:34.602Z</time></trkpt><trkpt lat="36.9904649" lon="15.0551932"><ele>440.66666666666663</ele><time>2026-04-12T07:56:35.602Z</time></trkpt><trkpt lat="36.9904459" lon="15.0550971"><ele>440.5</ele><time>2026-04-12T07:56:36.602Z</time></trkpt><trkpt lat="36.9904256" lon="15.0550005"><ele>440.3333333333333</ele><time>2026-04-12T07:56:37.603Z</time></trkpt><trkpt lat="36.9904035" lon="15.0549067"><ele>440.16666666666663</ele><time>2026-04-12T07:56:38.602Z</time></trkpt><trkpt lat="36.9903905" lon="15.0548183"><ele>440.0</ele><time>2026-04-12T07:56:39.603Z</time></trkpt><trkpt lat="36.9903775" lon="15.0547304"><ele>439.85714285714283</ele><time>2026-04-12T07:56:40.603Z</time></trkpt><trkpt lat="36.990363" lon="15.0546396"><ele>439.7142857142857</ele><time>2026-04-12T07:56:41.602Z</time></trkpt><trkpt lat="36.9903529" lon="15.0545433"><ele>439.57142857142856</ele><time>2026-04-12T07:56:42.602Z</time></trkpt><trkpt lat="36.9903395" lon="15.054452"><ele>439.42857142857144</ele><time>2026-04-12T07:56:43.602Z</time></trkpt><trkpt lat="36.9903193" lon="15.0543687"><ele>439.2857142857143</ele><time>2026-04-12T07:56:44.603Z</time></trkpt><trkpt lat="36.9902986" lon="15.0542837"><ele>439.1428571428571</ele><time>2026-04-12T07:56:45.603Z</time></trkpt><trkpt lat="36.9902744" lon="15.054203"><ele>439.0</ele><time>2026-04-12T07:56:46.602Z</time></trkpt><trkpt lat="36.9902522" lon="15.0541266"><ele>438.50000000000006</ele><time>2026-04-12T07:56:47.602Z</time></trkpt><trkpt lat="36.9902108" lon="15.0539851"><ele>438.0</ele><time>2026-04-12T07:56:49.602Z</time></trkpt><trkpt lat="36.99018" lon="15.053904"><ele>437.5</ele><time>2026-04-12T07:56:50.602Z</time></trkpt><trkpt lat="36.9901512" lon="15.0538047"><ele>437.0</ele><time>2026-04-12T07:56:51.602Z</time></trkpt><trkpt lat="36.9901271" lon="15.0536998"><ele>436.50000000000006</ele><time>2026-04-12T07:56:52.602Z</time></trkpt><trkpt lat="36.9901055" lon="15.0535989"><ele>436.0</ele><time>2026-04-12T07:56:53.602Z</time></trkpt><trkpt lat="36.9900864" lon="15.0535176"><ele>436.0</ele><time>2026-04-12T07:56:54.603Z</time></trkpt><trkpt lat="36.9900575" lon="15.0533984"><ele>436.0</ele><time>2026-04-12T07:56:56.602Z</time></trkpt><trkpt lat="36.9900289" lon="15.0532998"><ele>436.0</ele><time>2026-04-12T07:56:59.602Z</time></trkpt><trkpt lat="36.9900012" lon="15.0532105"><ele>436.0</ele><time>2026-04-12T07:57:02.603Z</time></trkpt><trkpt lat="36.9899382" lon="15.0531159"><ele>436.0</ele><time>2026-04-12T07:57:05.603Z</time></trkpt><trkpt lat="36.9898742" lon="15.0530227"><ele>435.00000000000006</ele><time>2026-04-12T07:57:07.603Z</time></trkpt><trkpt lat="36.9898228" lon="15.0529429"><ele>434.0</ele><time>2026-04-12T07:57:09.603Z</time></trkpt><trkpt lat="36.9897616" lon="15.0528626"><ele>433.0</ele><time>2026-04-12T07:57:12.603Z</time></trkpt><trkpt lat="36.9896978" lon="15.0527964"><ele>432.0</ele><time>2026-04-12T07:57:14.603Z</time></trkpt><trkpt lat="36.9896237" lon="15.0527364"><ele>431.00000000000006</ele><time>2026-04-12T07:57:16.602Z</time></trkpt><trkpt lat="36.9895573" lon="15.0526499"><ele>430.0</ele><time>2026-04-12T07:57:18.603Z</time></trkpt><trkpt lat="36.9895058" lon="15.0526022"><ele>430.00000000000006</ele><time>2026-04-12T07:57:20.602Z</time></trkpt><trkpt lat="36.9894815" lon="15.0525232"><ele>430.0</ele><time>2026-04-12T07:57:26.603Z</time></trkpt><trkpt lat="36.9894273" lon="15.0524718"><ele>430.0</ele><time>2026-04-12T07:57:29.603Z</time></trkpt><trkpt lat="36.989378" lon="15.0523794"><ele>430.0</ele><time>2026-04-12T07:57:36.603Z</time></trkpt><trkpt lat="36.9893368" lon="15.0522973"><ele>430.00000000000006</ele><time>2026-04-12T07:57:39.602Z</time></trkpt><trkpt lat="36.9893013" lon="15.052219"><ele>430.0</ele><time>2026-04-12T07:57:41.602Z</time></trkpt><trkpt lat="36.9892548" lon="15.0521307"><ele>429.6</ele><time>2026-04-12T07:57:43.602Z</time></trkpt><trkpt lat="36.9892189" lon="15.0520346"><ele>429.2</ele><time>2026-04-12T07:57:46.603Z</time></trkpt><trkpt lat="36.9891747" lon="15.0519364"><ele>428.79999999999995</ele><time>2026-04-12T07:57:49.602Z</time></trkpt><trkpt lat="36.9891328" lon="15.0517964"><ele>428.4</ele><time>2026-04-12T07:57:51.602Z</time></trkpt><trkpt lat="36.9890793" lon="15.0516872"><ele>428.0</ele><time>2026-04-12T07:57:53.603Z</time></trkpt><trkpt lat="36.9890667" lon="15.051571"><ele>426.66666666666663</ele><time>2026-04-12T07:57:55.602Z</time></trkpt><trkpt lat="36.9890565" lon="15.0514458"><ele>425.3333333333333</ele><time>2026-04-12T07:57:57.602Z</time></trkpt><trkpt lat="36.9890452" lon="15.0513467"><ele>424.0</ele><time>2026-04-12T07:57:59.603Z</time></trkpt><trkpt lat="36.9890268" lon="15.0512404"><ele>422.66666666666663</ele><time>2026-04-12T07:58:01.603Z</time></trkpt><trkpt lat="36.9890166" lon="15.0511525"><ele>421.3333333333333</ele><time>2026-04-12T07:58:03.603Z</time></trkpt><trkpt lat="36.988994" lon="15.0510606"><ele>420.0</ele><time>2026-04-12T07:58:06.603Z</time></trkpt><trkpt lat="36.9889652" lon="15.0509675"><ele>420.0</ele><time>2026-04-12T07:58:09.602Z</time></trkpt><trkpt lat="36.9889328" lon="15.0508922"><ele>420.0</ele><time>2026-04-12T07:58:13.602Z</time></trkpt><trkpt lat="36.9889064" lon="15.050812"><ele>420.0</ele><time>2026-04-12T07:58:19.602Z</time></trkpt><trkpt lat="36.9888868" lon="15.0507344"><ele>420.0</ele><time>2026-04-12T07:58:23.603Z</time></trkpt><trkpt lat="36.9888666" lon="15.0506591"><ele>420.0</ele><time>2026-04-12T07:58:43.603Z</time></trkpt><trkpt lat="36.9888099" lon="15.0506075"><ele>420.0</ele><time>2026-04-12T07:58:54.602Z</time></trkpt><trkpt lat="36.9887252" lon="15.0506371"><ele>420.0</ele><time>2026-04-12T08:00:49.603Z</time></trkpt><trkpt lat="36.9886733" lon="15.0505711"><ele>420.14285714285717</ele><time>2026-04-12T08:00:51.602Z</time></trkpt><trkpt lat="36.9886065" lon="15.050519"><ele>420.2857142857143</ele><time>2026-04-12T08:00:53.603Z</time></trkpt><trkpt lat="36.9885512" lon="15.0504626"><ele>420.42857142857144</ele><time>2026-04-12T08:00:55.603Z</time></trkpt><trkpt lat="36.9885048" lon="15.0504039"><ele>420.57142857142856</ele><time>2026-04-12T08:01:01.602Z</time></trkpt><trkpt lat="36.988438" lon="15.0503923"><ele>420.7142857142857</ele><time>2026-04-12T08:02:21.603Z</time></trkpt><trkpt lat="36.9884317" lon="15.0503044"><ele>420.8571428571429</ele><time>2026-04-12T08:02:40.603Z</time></trkpt><trkpt lat="36.9883926" lon="15.0502375"><ele>421.0</ele><time>2026-04-12T08:02:43.603Z</time></trkpt><trkpt lat="36.9884305" lon="15.0503042"><ele>421.00000000000006</ele><time>2026-04-12T08:03:46.602Z</time></trkpt><trkpt lat="36.9883903" lon="15.0502417"><ele>421.0</ele><time>2026-04-12T08:09:07.602Z</time></trkpt><trkpt lat="36.988314" lon="15.0501973"><ele>421.0</ele><time>2026-04-12T08:10:10.603Z</time></trkpt><trkpt lat="36.988249" lon="15.0501833"><ele>421.0</ele><time>2026-04-12T08:10:12.572Z</time></trkpt><trkpt lat="36.9881864" lon="15.0501315"><ele>421.0</ele><time>2026-04-12T08:10:14.592Z</time></trkpt><trkpt lat="36.9881482" lon="15.0500632"><ele>421.00000000000006</ele><time>2026-04-12T08:10:17.602Z</time></trkpt><trkpt lat="36.9880574" lon="15.0500635"><ele>421.0</ele><time>2026-04-12T08:16:03.603Z</time></trkpt><trkpt lat="36.9879799" lon="15.0500418"><ele>421.42857142857144</ele><time>2026-04-12T08:16:05.602Z</time></trkpt><trkpt lat="36.9879325" lon="15.04998"><ele>421.8571428571429</ele><time>2026-04-12T08:16:07.603Z</time></trkpt><trkpt lat="36.9878879" lon="15.0499137"><ele>422.28571428571433</ele><time>2026-04-12T08:16:09.602Z</time></trkpt><trkpt lat="36.9878491" lon="15.0498281"><ele>422.7142857142857</ele><time>2026-04-12T08:16:11.602Z</time></trkpt><trkpt lat="36.9878122" lon="15.0497447"><ele>423.1428571428571</ele><time>2026-04-12T08:16:14.602Z</time></trkpt><trkpt lat="36.9877316" lon="15.0497629"><ele>423.5714285714286</ele><time>2026-04-12T08:16:17.602Z</time></trkpt><trkpt lat="36.9876591" lon="15.0497389"><ele>424.0</ele><time>2026-04-12T08:16:20.603Z</time></trkpt><trkpt lat="36.9876153" lon="15.0496617"><ele>424.6</ele><time>2026-04-12T08:16:22.602Z</time></trkpt><trkpt lat="36.9875828" lon="15.049514"><ele>425.2</ele><time>2026-04-12T08:16:24.603Z</time></trkpt><trkpt lat="36.9875548" lon="15.0494217"><ele>425.80000000000007</ele><time>2026-04-12T08:16:26.602Z</time></trkpt><trkpt lat="36.9874753" lon="15.0493624"><ele>426.40000000000003</ele><time>2026-04-12T08:16:29.602Z</time></trkpt><trkpt lat="36.9873925" lon="15.0493161"><ele>427.0</ele><time>2026-04-12T08:16:31.602Z</time></trkpt><trkpt lat="36.9873262" lon="15.0493035"><ele>427.0</ele><time>2026-04-12T08:16:33.602Z</time></trkpt><trkpt lat="36.9872683" lon="15.0492679"><ele>427.00000000000006</ele><time>2026-04-12T08:16:35.602Z</time></trkpt><trkpt lat="36.9872007" lon="15.0492031"><ele>427.00000000000006</ele><time>2026-04-12T08:16:37.603Z</time></trkpt><trkpt lat="36.9871098" lon="15.0491336"><ele>427.0</ele><time>2026-04-12T08:16:39.603Z</time></trkpt><trkpt lat="36.9870181" lon="15.0490384"><ele>427.0</ele><time>2026-04-12T08:16:41.603Z</time></trkpt><trkpt lat="36.9869301" lon="15.048964"><ele>427.1666666666667</ele><time>2026-04-12T08:16:43.603Z</time></trkpt><trkpt lat="36.9868514" lon="15.0489111"><ele>427.33333333333337</ele><time>2026-04-12T08:16:45.602Z</time></trkpt><trkpt lat="36.9867873" lon="15.048865"><ele>427.5</ele><time>2026-04-12T08:16:47.602Z</time></trkpt><trkpt lat="36.9867163" lon="15.0488055"><ele>427.66666666666663</ele><time>2026-04-12T08:16:49.603Z</time></trkpt><trkpt lat="36.9866373" lon="15.0487718"><ele>427.8333333333333</ele><time>2026-04-12T08:16:51.602Z</time></trkpt><trkpt lat="36.9865601" lon="15.0487217"><ele>428.0</ele><time>2026-04-12T08:16:54.602Z</time></trkpt><trkpt lat="36.9864958" lon="15.0486823"><ele>428.16666666666663</ele><time>2026-04-12T08:16:56.603Z</time></trkpt><trkpt lat="36.9864365" lon="15.0486265"><ele>428.3333333333333</ele><time>2026-04-12T08:16:58.603Z</time></trkpt><trkpt lat="36.9863857" lon="15.0485758"><ele>428.5</ele><time>2026-04-12T08:17:00.603Z</time></trkpt><trkpt lat="36.9863257" lon="15.0485163"><ele>428.66666666666663</ele><time>2026-04-12T08:17:02.602Z</time></trkpt><trkpt lat="36.9862877" lon="15.0484181"><ele>428.8333333333333</ele><time>2026-04-12T08:17:04.603Z</time></trkpt><trkpt lat="36.9863164" lon="15.0482987"><ele>429.0</ele><time>2026-04-12T08:17:06.602Z</time></trkpt><trkpt lat="36.9863727" lon="15.0482328"><ele>429.0</ele><time>2026-04-12T08:17:08.603Z</time></trkpt><trkpt lat="36.9864283" lon="15.0481946"><ele>429.0</ele><time>2026-04-12T08:17:11.603Z</time></trkpt><trkpt lat="36.9864824" lon="15.048099"><ele>429.0</ele><time>2026-04-12T08:17:49.603Z</time></trkpt><trkpt lat="36.9865565" lon="15.0479808"><ele>429.0</ele><time>2026-04-12T08:17:51.602Z</time></trkpt><trkpt lat="36.9865989" lon="15.0479142"><ele>429.0</ele><time>2026-04-12T08:17:52.602Z</time></trkpt><trkpt lat="36.986641" lon="15.0478378"><ele>429.0</ele><time>2026-04-12T08:17:53.603Z</time></trkpt><trkpt lat="36.9866881" lon="15.0477557"><ele>429.0</ele><time>2026-04-12T08:17:54.603Z</time></trkpt><trkpt lat="36.9867361" lon="15.0476661"><ele>429.0</ele><time>2026-04-12T08:17:55.603Z</time></trkpt><trkpt lat="36.9867868" lon="15.0475733"><ele>429.0</ele><time>2026-04-12T08:17:56.603Z</time></trkpt><trkpt lat="36.9868372" lon="15.0474755"><ele>429.0</ele><time>2026-04-12T08:17:57.603Z</time></trkpt><trkpt lat="36.9868874" lon="15.0473724"><ele>429.0</ele><time>2026-04-12T08:17:58.602Z</time></trkpt><trkpt lat="36.9869357" lon="15.04726"><ele>429.5</ele><time>2026-04-12T08:17:59.602Z</time></trkpt><trkpt lat="36.9869875" lon="15.0471483"><ele>430.0</ele><time>2026-04-12T08:18:00.602Z</time></trkpt><trkpt lat="36.9870494" lon="15.047023"><ele>430.5</ele><time>2026-04-12T08:18:01.603Z</time></trkpt><trkpt lat="36.9870991" lon="15.0468844"><ele>431.0</ele><time>2026-04-12T08:18:02.603Z</time></trkpt><trkpt lat="36.9871462" lon="15.0467165"><ele>431.66666666666663</ele><time>2026-04-12T08:18:03.603Z</time></trkpt><trkpt lat="36.9871948" lon="15.0465434"><ele>432.33333333333337</ele><time>2026-04-12T08:18:04.602Z</time></trkpt><trkpt lat="36.9872459" lon="15.0463424"><ele>433.0</ele><time>2026-04-12T08:18:05.603Z</time></trkpt><trkpt lat="36.9873114" lon="15.0461286"><ele>433.0</ele><time>2026-04-12T08:18:06.603Z</time></trkpt><trkpt lat="36.9873701" lon="15.045915"><ele>433.0</ele><time>2026-04-12T08:18:07.603Z</time></trkpt><trkpt lat="36.9874326" lon="15.0456925"><ele>433.0</ele><time>2026-04-12T08:18:08.602Z</time></trkpt><trkpt lat="36.9874842" lon="15.0454676"><ele>433.33333333333337</ele><time>2026-04-12T08:18:09.602Z</time></trkpt><trkpt lat="36.9875284" lon="15.045251"><ele>433.66666666666663</ele><time>2026-04-12T08:18:10.603Z</time></trkpt><trkpt lat="36.987571" lon="15.0450425"><ele>434.0</ele><time>2026-04-12T08:18:11.602Z</time></trkpt><trkpt lat="36.9876157" lon="15.0448447"><ele>435.3333333333333</ele><time>2026-04-12T08:18:12.603Z</time></trkpt><trkpt lat="36.9876785" lon="15.0446711"><ele>436.66666666666663</ele><time>2026-04-12T08:18:13.602Z</time></trkpt><trkpt lat="36.9877443" lon="15.044501"><ele>438.0</ele><time>2026-04-12T08:18:14.603Z</time></trkpt><trkpt lat="36.9878259" lon="15.0443476"><ele>438.0</ele><time>2026-04-12T08:18:15.603Z</time></trkpt><trkpt lat="36.9879141" lon="15.0441947"><ele>438.0</ele><time>2026-04-12T08:18:16.603Z</time></trkpt><trkpt lat="36.9879953" lon="15.044059"><ele>438.0</ele><time>2026-04-12T08:18:17.602Z</time></trkpt><trkpt lat="36.9880663" lon="15.0439301"><ele>438.0</ele><time>2026-04-12T08:18:18.603Z</time></trkpt><trkpt lat="36.9881375" lon="15.0438043"><ele>437.75</ele><time>2026-04-12T08:18:19.603Z</time></trkpt><trkpt lat="36.9882092" lon="15.04368"><ele>437.5</ele><time>2026-04-12T08:18:20.602Z</time></trkpt><trkpt lat="36.9882769" lon="15.0435644"><ele>437.25</ele><time>2026-04-12T08:18:21.603Z</time></trkpt><trkpt lat="36.9883523" lon="15.0434566"><ele>437.0</ele><time>2026-04-12T08:18:22.603Z</time></trkpt><trkpt lat="36.9884308" lon="15.0433527"><ele>438.0</ele><time>2026-04-12T08:18:23.602Z</time></trkpt><trkpt lat="36.9885173" lon="15.0432524"><ele>439.0</ele><time>2026-04-12T08:18:24.603Z</time></trkpt><trkpt lat="36.9886145" lon="15.043153"><ele>440.0</ele><time>2026-04-12T08:18:25.603Z</time></trkpt><trkpt lat="36.988715" lon="15.0430441"><ele>441.0</ele><time>2026-04-12T08:18:26.603Z</time></trkpt><trkpt lat="36.9888277" lon="15.0429252"><ele>441.0</ele><time>2026-04-12T08:18:27.603Z</time></trkpt><trkpt lat="36.9889501" lon="15.0428061"><ele>441.0</ele><time>2026-04-12T08:18:28.603Z</time></trkpt><trkpt lat="36.989079" lon="15.0426733"><ele>441.0</ele><time>2026-04-12T08:18:29.602Z</time></trkpt><trkpt lat="36.9891974" lon="15.0425338"><ele>442.25</ele><time>2026-04-12T08:18:30.603Z</time></trkpt><trkpt lat="36.9893015" lon="15.0423901"><ele>443.5</ele><time>2026-04-12T08:18:31.602Z</time></trkpt><trkpt lat="36.9893931" lon="15.0422685"><ele>444.75</ele><time>2026-04-12T08:18:32.602Z</time></trkpt><trkpt lat="36.989475" lon="15.0421634"><ele>446.0</ele><time>2026-04-12T08:18:33.603Z</time></trkpt><trkpt lat="36.9895456" lon="15.042093"><ele>446.0</ele><time>2026-04-12T08:18:34.602Z</time></trkpt><trkpt lat="36.989631" lon="15.0420437"><ele>446.0</ele><time>2026-04-12T08:18:35.602Z</time></trkpt><trkpt lat="36.9897297" lon="15.0420507"><ele>446.0</ele><time>2026-04-12T08:18:36.603Z</time></trkpt><trkpt lat="36.9898263" lon="15.0420498"><ele>446.0</ele><time>2026-04-12T08:18:37.603Z</time></trkpt><trkpt lat="36.9899602" lon="15.0420553"><ele>446.0</ele><time>2026-04-12T08:18:38.603Z</time></trkpt><trkpt lat="36.9900894" lon="15.0420431"><ele>446.75</ele><time>2026-04-12T08:18:39.603Z</time></trkpt><trkpt lat="36.9902136" lon="15.0420216"><ele>447.5</ele><time>2026-04-12T08:18:40.602Z</time></trkpt><trkpt lat="36.9903367" lon="15.0419706"><ele>448.25</ele><time>2026-04-12T08:18:41.602Z</time></trkpt><trkpt lat="36.990455" lon="15.041892"><ele>449.0</ele><time>2026-04-12T08:18:42.603Z</time></trkpt><trkpt lat="36.9905626" lon="15.0417903"><ele>449.0</ele><time>2026-04-12T08:18:43.603Z</time></trkpt><trkpt lat="36.9906746" lon="15.041698"><ele>449.0</ele><time>2026-04-12T08:18:44.603Z</time></trkpt><trkpt lat="36.9907863" lon="15.0416047"><ele>449.0</ele><time>2026-04-12T08:18:45.602Z</time></trkpt><trkpt lat="36.9909002" lon="15.0415188"><ele>449.0</ele><time>2026-04-12T08:18:46.603Z</time></trkpt><trkpt lat="36.9910131" lon="15.0414357"><ele>449.75</ele><time>2026-04-12T08:18:47.602Z</time></trkpt><trkpt lat="36.9911307" lon="15.0413734"><ele>450.5</ele><time>2026-04-12T08:18:48.602Z</time></trkpt><trkpt lat="36.9912558" lon="15.0413344"><ele>451.25</ele><time>2026-04-12T08:18:49.603Z</time></trkpt><trkpt lat="36.9913899" lon="15.0413243"><ele>452.0</ele><time>2026-04-12T08:18:50.602Z</time></trkpt><trkpt lat="36.9915228" lon="15.0413334"><ele>452.0</ele><time>2026-04-12T08:18:51.603Z</time></trkpt><trkpt lat="36.9916486" lon="15.0413726"><ele>452.0</ele><time>2026-04-12T08:18:52.603Z</time></trkpt><trkpt lat="36.9917736" lon="15.041437"><ele>452.0</ele><time>2026-04-12T08:18:53.603Z</time></trkpt><trkpt lat="36.9919001" lon="15.0415161"><ele>452.0</ele><time>2026-04-12T08:18:54.602Z</time></trkpt><trkpt lat="36.9920268" lon="15.0415943"><ele>454.0</ele><time>2026-04-12T08:18:55.602Z</time></trkpt><trkpt lat="36.9921687" lon="15.041675"><ele>456.0</ele><time>2026-04-12T08:18:56.602Z</time></trkpt><trkpt lat="36.9923089" lon="15.0417555"><ele>458.0</ele><time>2026-04-12T08:18:57.603Z</time></trkpt><trkpt lat="36.9924402" lon="15.0418422"><ele>459.25</ele><time>2026-04-12T08:18:58.603Z</time></trkpt><trkpt lat="36.9925649" lon="15.041922"><ele>460.5</ele><time>2026-04-12T08:18:59.602Z</time></trkpt><trkpt lat="36.9926801" lon="15.0420006"><ele>461.75</ele><time>2026-04-12T08:19:00.602Z</time></trkpt><trkpt lat="36.9927919" lon="15.0420682"><ele>463.0</ele><time>2026-04-12T08:19:01.603Z</time></trkpt><trkpt lat="36.9929063" lon="15.0421173"><ele>463.0</ele><time>2026-04-12T08:19:02.602Z</time></trkpt><trkpt lat="36.9930235" lon="15.0421426"><ele>463.0</ele><time>2026-04-12T08:19:03.603Z</time></trkpt><trkpt lat="36.9931451" lon="15.0421193"><ele>463.0</ele><time>2026-04-12T08:19:04.602Z</time></trkpt><trkpt lat="36.9932697" lon="15.0420828"><ele>463.0</ele><time>2026-04-12T08:19:05.602Z</time></trkpt><trkpt lat="36.9934052" lon="15.0420426"><ele>464.6666666666667</ele><time>2026-04-12T08:19:06.603Z</time></trkpt><trkpt lat="36.9935478" lon="15.0419973"><ele>466.33333333333337</ele><time>2026-04-12T08:19:07.602Z</time></trkpt><trkpt lat="36.9936978" lon="15.0419521"><ele>468.0</ele><time>2026-04-12T08:19:08.603Z</time></trkpt><trkpt lat="36.9938572" lon="15.0419065"><ele>468.0</ele><time>2026-04-12T08:19:09.603Z</time></trkpt><trkpt lat="36.994018" lon="15.0418573"><ele>468.0</ele><time>2026-04-12T08:19:10.603Z</time></trkpt><trkpt lat="36.9941781" lon="15.0418098"><ele>468.0</ele><time>2026-04-12T08:19:11.602Z</time></trkpt><trkpt lat="36.9943414" lon="15.0417622"><ele>468.0</ele><time>2026-04-12T08:19:12.603Z</time></trkpt><trkpt lat="36.9945102" lon="15.0417111"><ele>468.0</ele><time>2026-04-12T08:19:13.603Z</time></trkpt><trkpt lat="36.994678" lon="15.0416617"><ele>468.0</ele><time>2026-04-12T08:19:14.602Z</time></trkpt><trkpt lat="36.9948344" lon="15.0416146"><ele>468.75</ele><time>2026-04-12T08:19:15.602Z</time></trkpt><trkpt lat="36.9949781" lon="15.0415571"><ele>469.5</ele><time>2026-04-12T08:19:16.602Z</time></trkpt><trkpt lat="36.9951053" lon="15.0414791"><ele>470.25</ele><time>2026-04-12T08:19:17.602Z</time></trkpt><trkpt lat="36.9952278" lon="15.0413778"><ele>471.0</ele><time>2026-04-12T08:19:18.602Z</time></trkpt><trkpt lat="36.9953485" lon="15.0412645"><ele>471.0</ele><time>2026-04-12T08:19:19.603Z</time></trkpt><trkpt lat="36.9954658" lon="15.0411526"><ele>471.0</ele><time>2026-04-12T08:19:20.602Z</time></trkpt><trkpt lat="36.9955752" lon="15.0410485"><ele>471.0</ele><time>2026-04-12T08:19:21.603Z</time></trkpt><trkpt lat="36.9956778" lon="15.0409504"><ele>471.0</ele><time>2026-04-12T08:19:22.603Z</time></trkpt><trkpt lat="36.9957697" lon="15.0408558"><ele>471.6</ele><time>2026-04-12T08:19:23.603Z</time></trkpt><trkpt lat="36.9958636" lon="15.0407648"><ele>472.20000000000005</ele><time>2026-04-12T08:19:24.603Z</time></trkpt><trkpt lat="36.9959495" lon="15.0406863"><ele>472.79999999999995</ele><time>2026-04-12T08:19:25.602Z</time></trkpt><trkpt lat="36.9960302" lon="15.0406154"><ele>473.4</ele><time>2026-04-12T08:19:26.602Z</time></trkpt><trkpt lat="36.9960952" lon="15.0405592"><ele>474.0</ele><time>2026-04-12T08:19:27.602Z</time></trkpt><trkpt lat="36.9961631" lon="15.0404765"><ele>474.0</ele><time>2026-04-12T08:19:29.602Z</time></trkpt><trkpt lat="36.9960802" lon="15.0403822"><ele>474.0</ele><time>2026-04-12T08:19:31.603Z</time></trkpt><trkpt lat="36.9959891" lon="15.0403103"><ele>474.0</ele><time>2026-04-12T08:19:32.602Z</time></trkpt><trkpt lat="36.9958887" lon="15.0402361"><ele>474.0</ele><time>2026-04-12T08:19:33.603Z</time></trkpt><trkpt lat="36.9957763" lon="15.0401469"><ele>474.25</ele><time>2026-04-12T08:19:34.602Z</time></trkpt><trkpt lat="36.9956763" lon="15.0400691"><ele>474.5</ele><time>2026-04-12T08:19:35.603Z</time></trkpt><trkpt lat="36.9955771" lon="15.0399924"><ele>474.75</ele><time>2026-04-12T08:19:36.602Z</time></trkpt><trkpt lat="36.9954865" lon="15.0399196"><ele>475.0</ele><time>2026-04-12T08:19:37.602Z</time></trkpt><trkpt lat="36.9953911" lon="15.0398491"><ele>475.0</ele><time>2026-04-12T08:19:38.603Z</time></trkpt><trkpt lat="36.9952844" lon="15.0397638"><ele>475.0</ele><time>2026-04-12T08:19:39.602Z</time></trkpt><trkpt lat="36.9951826" lon="15.0396918"><ele>475.0</ele><time>2026-04-12T08:19:40.602Z</time></trkpt><trkpt lat="36.9950825" lon="15.0396003"><ele>475.0</ele><time>2026-04-12T08:19:41.602Z</time></trkpt><trkpt lat="36.994974" lon="15.0395173"><ele>473.0</ele><time>2026-04-12T08:19:42.603Z</time></trkpt><trkpt lat="36.9948669" lon="15.0394315"><ele>471.0</ele><time>2026-04-12T08:19:43.602Z</time></trkpt><trkpt lat="36.9947715" lon="15.0393534"><ele>469.0</ele><time>2026-04-12T08:19:44.603Z</time></trkpt><trkpt lat="36.9946739" lon="15.0392675"><ele>467.0</ele><time>2026-04-12T08:19:45.602Z</time></trkpt><trkpt lat="36.9945798" lon="15.0391899"><ele>466.49999999999994</ele><time>2026-04-12T08:19:46.603Z</time></trkpt><trkpt lat="36.9944923" lon="15.0391204"><ele>466.0</ele><time>2026-04-12T08:19:47.602Z</time></trkpt><trkpt lat="36.9944268" lon="15.0390614"><ele>465.5</ele><time>2026-04-12T08:19:48.603Z</time></trkpt><trkpt lat="36.9943552" lon="15.0389949"><ele>465.0</ele><time>2026-04-12T08:19:50.602Z</time></trkpt><trkpt lat="36.994361" lon="15.0389111"><ele>464.49999999999994</ele><time>2026-04-12T08:19:52.602Z</time></trkpt><trkpt lat="36.9944275" lon="15.0388037"><ele>464.0</ele><time>2026-04-12T08:19:54.602Z</time></trkpt><trkpt lat="36.9944927" lon="15.0387078"><ele>464.0</ele><time>2026-04-12T08:19:56.603Z</time></trkpt><trkpt lat="36.9945493" lon="15.0386114"><ele>464.0</ele><time>2026-04-12T08:19:58.602Z</time></trkpt><trkpt lat="36.9946094" lon="15.0385114"><ele>464.0</ele><time>2026-04-12T08:20:00.602Z</time></trkpt><trkpt lat="36.9946603" lon="15.038431"><ele>464.0</ele><time>2026-04-12T08:20:01.603Z</time></trkpt><trkpt lat="36.9947171" lon="15.0383384"><ele>464.0</ele><time>2026-04-12T08:20:02.603Z</time></trkpt><trkpt lat="36.9947884" lon="15.0382312"><ele>463.25</ele><time>2026-04-12T08:20:03.603Z</time></trkpt><trkpt lat="36.9948725" lon="15.0380878"><ele>462.5</ele><time>2026-04-12T08:20:04.602Z</time></trkpt><trkpt lat="36.9949504" lon="15.0379605"><ele>461.75</ele><time>2026-04-12T08:20:05.603Z</time></trkpt><trkpt lat="36.9950139" lon="15.0378609"><ele>461.0</ele><time>2026-04-12T08:20:06.603Z</time></trkpt><trkpt lat="36.995069" lon="15.0377809"><ele>461.66666666666663</ele><time>2026-04-12T08:20:07.603Z</time></trkpt><trkpt lat="36.995117" lon="15.0377042"><ele>462.3333333333333</ele><time>2026-04-12T08:20:08.603Z</time></trkpt><trkpt lat="36.9951539" lon="15.037625"><ele>463.0</ele><time>2026-04-12T08:20:09.603Z</time></trkpt><trkpt lat="36.995196" lon="15.0375442"><ele>463.66666666666663</ele><time>2026-04-12T08:20:10.603Z</time></trkpt><trkpt lat="36.9952472" lon="15.0374826"><ele>464.3333333333333</ele><time>2026-04-12T08:20:11.603Z</time></trkpt><trkpt lat="36.9952983" lon="15.0373993"><ele>465.0</ele><time>2026-04-12T08:20:12.603Z</time></trkpt><trkpt lat="36.9953524" lon="15.0373133"><ele>465.0</ele><time>2026-04-12T08:20:13.603Z</time></trkpt><trkpt lat="36.9953993" lon="15.037232"><ele>465.0</ele><time>2026-04-12T08:20:14.602Z</time></trkpt><trkpt lat="36.9954454" lon="15.0371625"><ele>465.0</ele><time>2026-04-12T08:20:15.603Z</time></trkpt><trkpt lat="36.9954831" lon="15.0370918"><ele>465.0</ele><time>2026-04-12T08:20:16.603Z</time></trkpt><trkpt lat="36.9955341" lon="15.0370227"><ele>465.0</ele><time>2026-04-12T08:20:17.603Z</time></trkpt><trkpt lat="36.9955784" lon="15.0369594"><ele>465.0</ele><time>2026-04-12T08:20:18.603Z</time></trkpt><trkpt lat="36.9956221" lon="15.0368852"><ele>465.0</ele><time>2026-04-12T08:20:19.602Z</time></trkpt><trkpt lat="36.9956645" lon="15.0368137"><ele>465.0</ele><time>2026-04-12T08:20:20.602Z</time></trkpt><trkpt lat="36.9957174" lon="15.0367276"><ele>465.0</ele><time>2026-04-12T08:20:21.603Z</time></trkpt><trkpt lat="36.9957659" lon="15.0366467"><ele>465.0</ele><time>2026-04-12T08:20:22.602Z</time></trkpt><trkpt lat="36.9958098" lon="15.0365651"><ele>465.0</ele><time>2026-04-12T08:20:23.602Z</time></trkpt><trkpt lat="36.9958844" lon="15.0364502"><ele>465.0</ele><time>2026-04-12T08:20:25.603Z</time></trkpt><trkpt lat="36.9959484" lon="15.0363527"><ele>465.57142857142856</ele><time>2026-04-12T08:20:27.602Z</time></trkpt><trkpt lat="36.9959907" lon="15.0362869"><ele>466.14285714285717</ele><time>2026-04-12T08:20:28.603Z</time></trkpt><trkpt lat="36.9960396" lon="15.0362317"><ele>466.7142857142857</ele><time>2026-04-12T08:20:29.602Z</time></trkpt><trkpt lat="36.9960924" lon="15.0361732"><ele>467.2857142857143</ele><time>2026-04-12T08:20:30.603Z</time></trkpt><trkpt lat="36.9961429" lon="15.0361193"><ele>467.8571428571429</ele><time>2026-04-12T08:20:31.603Z</time></trkpt><trkpt lat="36.9961957" lon="15.0360652"><ele>468.42857142857144</ele><time>2026-04-12T08:20:32.603Z</time></trkpt><trkpt lat="36.9962501" lon="15.0360195"><ele>469.0</ele><time>2026-04-12T08:20:33.602Z</time></trkpt><trkpt lat="36.9963005" lon="15.0359636"><ele>469.00000000000006</ele><time>2026-04-12T08:20:34.603Z</time></trkpt><trkpt lat="36.9963606" lon="15.0359088"><ele>469.0</ele><time>2026-04-12T08:20:35.602Z</time></trkpt><trkpt lat="36.9964206" lon="15.0358495"><ele>469.0</ele><time>2026-04-12T08:20:36.602Z</time></trkpt><trkpt lat="36.9964776" lon="15.0357602"><ele>469.0</ele><time>2026-04-12T08:20:38.603Z</time></trkpt><trkpt lat="36.9965297" lon="15.0356684"><ele>469.00000000000006</ele><time>2026-04-12T08:20:40.602Z</time></trkpt><trkpt lat="36.9965775" lon="15.0355571"><ele>469.0</ele><time>2026-04-12T08:20:42.603Z</time></trkpt><trkpt lat="36.9966364" lon="15.0354569"><ele>468.83333333333337</ele><time>2026-04-12T08:20:44.602Z</time></trkpt><trkpt lat="36.99666" lon="15.0353668"><ele>468.6666666666667</ele><time>2026-04-12T08:20:46.603Z</time></trkpt><trkpt lat="36.9966925" lon="15.0352801"><ele>468.5</ele><time>2026-04-12T08:20:48.603Z</time></trkpt><trkpt lat="36.9967127" lon="15.0351924"><ele>468.33333333333337</ele><time>2026-04-12T08:20:50.602Z</time></trkpt><trkpt lat="36.9967392" lon="15.0350774"><ele>468.1666666666667</ele><time>2026-04-12T08:20:55.602Z</time></trkpt><trkpt lat="36.9967547" lon="15.0349679"><ele>468.0</ele><time>2026-04-12T08:20:58.602Z</time></trkpt><trkpt lat="36.9967702" lon="15.0348904"><ele>467.2</ele><time>2026-04-12T08:20:59.602Z</time></trkpt><trkpt lat="36.9967894" lon="15.0347861"><ele>466.4</ele><time>2026-04-12T08:21:01.602Z</time></trkpt><trkpt lat="36.9968073" lon="15.0346829"><ele>465.59999999999997</ele><time>2026-04-12T08:21:03.602Z</time></trkpt><trkpt lat="36.9968262" lon="15.0345772"><ele>464.79999999999995</ele><time>2026-04-12T08:21:05.603Z</time></trkpt><trkpt lat="36.9968493" lon="15.0344789"><ele>464.0</ele><time>2026-04-12T08:21:07.603Z</time></trkpt><trkpt lat="36.9969155" lon="15.0343454"><ele>464.0</ele><time>2026-04-12T08:21:09.603Z</time></trkpt><trkpt lat="36.9969585" lon="15.0342803"><ele>464.0</ele><time>2026-04-12T08:21:10.603Z</time></trkpt><trkpt lat="36.9970404" lon="15.0341693"><ele>464.0</ele><time>2026-04-12T08:21:12.602Z</time></trkpt><trkpt lat="36.9971018" lon="15.0340781"><ele>464.0</ele><time>2026-04-12T08:21:14.603Z</time></trkpt><trkpt lat="36.9971465" lon="15.0340175"><ele>464.0</ele><time>2026-04-12T08:21:16.603Z</time></trkpt><trkpt lat="36.9972236" lon="15.0339201"><ele>463.99999999999994</ele><time>2026-04-12T08:21:18.602Z</time></trkpt><trkpt lat="36.9972988" lon="15.0338509"><ele>464.0</ele><time>2026-04-12T08:21:20.602Z</time></trkpt><trkpt lat="36.9973626" lon="15.0338136"><ele>464.0</ele><time>2026-04-12T08:21:22.602Z</time></trkpt><trkpt lat="36.9973896" lon="15.0337382"><ele>464.0</ele><time>2026-04-12T08:21:25.603Z</time></trkpt><trkpt lat="36.997417" lon="15.0336602"><ele>463.99999999999994</ele><time>2026-04-12T08:21:27.603Z</time></trkpt><trkpt lat="36.9974676" lon="15.0335848"><ele>464.0</ele><time>2026-04-12T08:21:29.603Z</time></trkpt><trkpt lat="36.9975445" lon="15.0335224"><ele>465.49999999999994</ele><time>2026-04-12T08:21:31.602Z</time></trkpt><trkpt lat="36.9976086" lon="15.0334609"><ele>467.0</ele><time>2026-04-12T08:21:33.602Z</time></trkpt><trkpt lat="36.9976644" lon="15.0334076"><ele>468.5</ele><time>2026-04-12T08:21:35.603Z</time></trkpt><trkpt lat="36.9977149" lon="15.0333502"><ele>470.0</ele><time>2026-04-12T08:21:37.603Z</time></trkpt><trkpt lat="36.997789" lon="15.0332787"><ele>471.49999999999994</ele><time>2026-04-12T08:21:39.603Z</time></trkpt><trkpt lat="36.9978733" lon="15.033199"><ele>473.0</ele><time>2026-04-12T08:21:41.603Z</time></trkpt><trkpt lat="36.9979311" lon="15.0331335"><ele>473.0</ele><time>2026-04-12T08:21:43.603Z</time></trkpt><trkpt lat="36.9980361" lon="15.0330339"><ele>472.99999999999994</ele><time>2026-04-12T08:21:45.602Z</time></trkpt><trkpt lat="36.9980871" lon="15.0329764"><ele>472.99999999999994</ele><time>2026-04-12T08:21:46.603Z</time></trkpt><trkpt lat="36.9981744" lon="15.0328592"><ele>473.0</ele><time>2026-04-12T08:21:48.602Z</time></trkpt><trkpt lat="36.9982186" lon="15.0327876"><ele>473.0</ele><time>2026-04-12T08:21:49.603Z</time></trkpt><trkpt lat="36.9982598" lon="15.0327134"><ele>472.99999999999994</ele><time>2026-04-12T08:21:50.602Z</time></trkpt><trkpt lat="36.9982957" lon="15.0326387"><ele>473.0</ele><time>2026-04-12T08:21:51.603Z</time></trkpt><trkpt lat="36.9983284" lon="15.0325555"><ele>473.0</ele><time>2026-04-12T08:21:52.603Z</time></trkpt><trkpt lat="36.9983637" lon="15.0324875"><ele>473.0</ele><time>2026-04-12T08:21:53.603Z</time></trkpt><trkpt lat="36.9984225" lon="15.03238"><ele>472.99999999999994</ele><time>2026-04-12T08:21:55.603Z</time></trkpt><trkpt lat="36.9984712" lon="15.0322762"><ele>473.0</ele><time>2026-04-12T08:21:57.603Z</time></trkpt><trkpt lat="36.9985232" lon="15.0321762"><ele>471.66666666666663</ele><time>2026-04-12T08:21:59.603Z</time></trkpt><trkpt lat="36.9985578" lon="15.0320613"><ele>470.3333333333333</ele><time>2026-04-12T08:22:01.602Z</time></trkpt><trkpt lat="36.9985789" lon="15.0319563"><ele>469.0</ele><time>2026-04-12T08:22:03.603Z</time></trkpt><trkpt lat="36.9985948" lon="15.0318684"><ele>467.66666666666663</ele><time>2026-04-12T08:22:05.603Z</time></trkpt><trkpt lat="36.998614" lon="15.0317759"><ele>466.3333333333333</ele><time>2026-04-12T08:22:07.603Z</time></trkpt><trkpt lat="36.998655" lon="15.031659"><ele>465.0</ele><time>2026-04-12T08:22:09.603Z</time></trkpt><trkpt lat="36.9986932" lon="15.0315286"><ele>464.0</ele><time>2026-04-12T08:22:11.602Z</time></trkpt><trkpt lat="36.998723" lon="15.0314216"><ele>463.0</ele><time>2026-04-12T08:22:13.602Z</time></trkpt><trkpt lat="36.9987539" lon="15.0313339"><ele>462.0</ele><time>2026-04-12T08:22:15.603Z</time></trkpt><trkpt lat="36.9987884" lon="15.031215"><ele>461.0</ele><time>2026-04-12T08:22:17.602Z</time></trkpt><trkpt lat="36.9988177" lon="15.0310707"><ele>460.0</ele><time>2026-04-12T08:22:19.602Z</time></trkpt><trkpt lat="36.9988473" lon="15.0309695"><ele>460.00000000000006</ele><time>2026-04-12T08:22:21.602Z</time></trkpt><trkpt lat="36.998875" lon="15.0308873"><ele>460.0</ele><time>2026-04-12T08:22:23.603Z</time></trkpt><trkpt lat="36.9989107" lon="15.0307988"><ele>460.0</ele><time>2026-04-12T08:22:25.603Z</time></trkpt><trkpt lat="36.9989464" lon="15.0307102"><ele>460.0</ele><time>2026-04-12T08:22:27.603Z</time></trkpt><trkpt lat="36.9989734" lon="15.030624"><ele>460.00000000000006</ele><time>2026-04-12T08:22:29.603Z</time></trkpt><trkpt lat="36.9990265" lon="15.0305547"><ele>460.0</ele><time>2026-04-12T08:22:33.602Z</time></trkpt><trkpt lat="36.9990914" lon="15.0305004"><ele>458.6666666666667</ele><time>2026-04-12T08:22:36.602Z</time></trkpt><trkpt lat="36.9991568" lon="15.0304314"><ele>457.33333333333337</ele><time>2026-04-12T08:22:39.602Z</time></trkpt><trkpt lat="36.9992046" lon="15.0303403"><ele>456.0</ele><time>2026-04-12T08:22:41.602Z</time></trkpt><trkpt lat="36.9992428" lon="15.030261"><ele>454.66666666666663</ele><time>2026-04-12T08:22:43.602Z</time></trkpt><trkpt lat="36.9992525" lon="15.030165"><ele>453.3333333333333</ele><time>2026-04-12T08:22:46.602Z</time></trkpt><trkpt lat="36.9992294" lon="15.0300872"><ele>452.0</ele><time>2026-04-12T08:22:49.602Z</time></trkpt><trkpt lat="36.9992356" lon="15.0299875"><ele>452.16666666666663</ele><time>2026-04-12T08:22:52.602Z</time></trkpt><trkpt lat="36.999268" lon="15.0298938"><ele>452.3333333333333</ele><time>2026-04-12T08:22:56.603Z</time></trkpt><trkpt lat="36.9992956" lon="15.0297646"><ele>452.5</ele><time>2026-04-12T08:22:58.602Z</time></trkpt><trkpt lat="36.9993115" lon="15.0296725"><ele>452.66666666666663</ele><time>2026-04-12T08:23:00.602Z</time></trkpt><trkpt lat="36.9993026" lon="15.0295905"><ele>452.8333333333333</ele><time>2026-04-12T08:23:02.603Z</time></trkpt><trkpt lat="36.9992548" lon="15.0294971"><ele>453.0</ele><time>2026-04-12T08:23:05.602Z</time></trkpt><trkpt lat="36.9991944" lon="15.0294083"><ele>453.0</ele><time>2026-04-12T08:23:08.603Z</time></trkpt><trkpt lat="36.9991822" lon="15.0293131"><ele>453.0</ele><time>2026-04-12T08:23:10.603Z</time></trkpt><trkpt lat="36.999185" lon="15.0291891"><ele>453.0</ele><time>2026-04-12T08:23:12.602Z</time></trkpt><trkpt lat="36.9991756" lon="15.0290997"><ele>453.0</ele><time>2026-04-12T08:23:14.602Z</time></trkpt><trkpt lat="36.9991873" lon="15.0289837"><ele>453.0</ele><time>2026-04-12T08:24:44.602Z</time></trkpt><trkpt lat="36.9992547" lon="15.0289188"><ele>453.0</ele><time>2026-04-12T08:24:48.603Z</time></trkpt><trkpt lat="36.9993312" lon="15.0288754"><ele>454.2</ele><time>2026-04-12T08:24:51.602Z</time></trkpt><trkpt lat="36.999406" lon="15.0288598"><ele>455.4</ele><time>2026-04-12T08:24:52.603Z</time></trkpt><trkpt lat="36.9994896" lon="15.0288227"><ele>456.59999999999997</ele><time>2026-04-12T08:24:54.602Z</time></trkpt><trkpt lat="36.9995889" lon="15.0287403"><ele>457.79999999999995</ele><time>2026-04-12T08:24:56.603Z</time></trkpt><trkpt lat="36.9996869" lon="15.0286663"><ele>459.0</ele><time>2026-04-12T08:24:58.603Z</time></trkpt><trkpt lat="36.9997335" lon="15.0286123"><ele>459.0</ele><time>2026-04-12T08:24:59.603Z</time></trkpt><trkpt lat="36.9997959" lon="15.0285587"><ele>459.0</ele><time>2026-04-12T08:25:01.603Z</time></trkpt><trkpt lat="36.9998724" lon="15.0284935"><ele>459.0</ele><time>2026-04-12T08:25:03.603Z</time></trkpt><trkpt lat="36.9999454" lon="15.0284513"><ele>459.0</ele><time>2026-04-12T08:25:05.602Z</time></trkpt><trkpt lat="37.0000232" lon="15.0284027"><ele>459.0</ele><time>2026-04-12T08:25:07.602Z</time></trkpt><trkpt lat="37.0000897" lon="15.0283685"><ele>459.0</ele><time>2026-04-12T08:25:09.602Z</time></trkpt><trkpt lat="37.0001417" lon="15.0283205"><ele>459.6666666666667</ele><time>2026-04-12T08:25:11.602Z</time></trkpt><trkpt lat="37.00018" lon="15.0282492"><ele>460.33333333333337</ele><time>2026-04-12T08:25:13.603Z</time></trkpt><trkpt lat="37.0002025" lon="15.0281601"><ele>461.0</ele><time>2026-04-12T08:25:15.602Z</time></trkpt><trkpt lat="37.0002307" lon="15.0280616"><ele>461.6666666666667</ele><time>2026-04-12T08:25:18.55Z</time></trkpt><trkpt lat="37.0003039" lon="15.027978"><ele>462.33333333333337</ele><time>2026-04-12T08:25:21.602Z</time></trkpt><trkpt lat="37.0003799" lon="15.0278962"><ele>463.0</ele><time>2026-04-12T08:25:23.602Z</time></trkpt><trkpt lat="37.000441" lon="15.0278472"><ele>463.00000000000006</ele><time>2026-04-12T08:25:25.602Z</time></trkpt><trkpt lat="37.0004924" lon="15.0277944"><ele>463.0</ele><time>2026-04-12T08:25:27.602Z</time></trkpt><trkpt lat="37.000553" lon="15.027706"><ele>463.0</ele><time>2026-04-12T08:25:29.601Z</time></trkpt><trkpt lat="37.0006307" lon="15.0276352"><ele>463.0</ele><time>2026-04-12T08:25:31.603Z</time></trkpt><trkpt lat="37.000711" lon="15.0275603"><ele>463.00000000000006</ele><time>2026-04-12T08:25:33.602Z</time></trkpt><trkpt lat="37.0007958" lon="15.0275259"><ele>463.0</ele><time>2026-04-12T08:25:35.603Z</time></trkpt><trkpt lat="37.0008709" lon="15.0275055"><ele>464.50000000000006</ele><time>2026-04-12T08:25:37.602Z</time></trkpt><trkpt lat="37.0009562" lon="15.0275397"><ele>466.0</ele><time>2026-04-12T08:25:39.602Z</time></trkpt><trkpt lat="37.0010209" lon="15.0275799"><ele>467.5</ele><time>2026-04-12T08:25:41.602Z</time></trkpt><trkpt lat="37.0010932" lon="15.0276141"><ele>469.0</ele><time>2026-04-12T08:25:43.603Z</time></trkpt><trkpt lat="37.0011578" lon="15.0276393"><ele>470.50000000000006</ele><time>2026-04-12T08:25:45.602Z</time></trkpt><trkpt lat="37.0012343" lon="15.0276653"><ele>472.0</ele><time>2026-04-12T08:25:48.552Z</time></trkpt><trkpt lat="37.0013034" lon="15.0276935"><ele>472.00000000000006</ele><time>2026-04-12T08:25:50.603Z</time></trkpt><trkpt lat="37.0013811" lon="15.0277208"><ele>472.0</ele><time>2026-04-12T08:25:52.465Z</time></trkpt><trkpt lat="37.0014734" lon="15.0277612"><ele>472.0</ele><time>2026-04-12T08:25:54.602Z</time></trkpt><trkpt lat="37.0015384" lon="15.0277977"><ele>472.0</ele><time>2026-04-12T08:25:56.602Z</time></trkpt><trkpt lat="37.0016184" lon="15.0278392"><ele>472.00000000000006</ele><time>2026-04-12T08:25:58.603Z</time></trkpt><trkpt lat="37.0016988" lon="15.0278574"><ele>472.0</ele><time>2026-04-12T08:26:00.603Z</time></trkpt><trkpt lat="37.0017686" lon="15.0278838"><ele>472.57142857142856</ele><time>2026-04-12T08:26:02.549Z</time></trkpt><trkpt lat="37.0018493" lon="15.0278944"><ele>473.14285714285717</ele><time>2026-04-12T08:26:05.603Z</time></trkpt><trkpt lat="37.0019137" lon="15.0278891"><ele>473.7142857142857</ele><time>2026-04-12T08:26:07.603Z</time></trkpt><trkpt lat="37.0019858" lon="15.0278769"><ele>474.2857142857143</ele><time>2026-04-12T08:26:10.602Z</time></trkpt><trkpt lat="37.0020562" lon="15.0278992"><ele>474.8571428571429</ele><time>2026-04-12T08:26:13.602Z</time></trkpt><trkpt lat="37.0021188" lon="15.0279211"><ele>475.42857142857144</ele><time>2026-04-12T08:26:40.602Z</time></trkpt><trkpt lat="37.0021867" lon="15.0279176"><ele>476.0</ele><time>2026-04-12T08:26:43.602Z</time></trkpt><trkpt lat="37.0022794" lon="15.0279246"><ele>475.99999999999994</ele><time>2026-04-12T08:26:46.602Z</time></trkpt><trkpt lat="37.0023442" lon="15.0279416"><ele>476.0</ele><time>2026-04-12T08:26:48.603Z</time></trkpt><trkpt lat="37.0024151" lon="15.0279876"><ele>476.0</ele><time>2026-04-12T08:26:50.602Z</time></trkpt><trkpt lat="37.002492" lon="15.0280417"><ele>476.0</ele><time>2026-04-12T08:26:53.603Z</time></trkpt><trkpt lat="37.00257" lon="15.0280759"><ele>475.99999999999994</ele><time>2026-04-12T08:26:56.603Z</time></trkpt><trkpt lat="37.0026596" lon="15.0281027"><ele>476.0</ele><time>2026-04-12T08:26:58.603Z</time></trkpt><trkpt lat="37.0027396" lon="15.0281264"><ele>476.0</ele><time>2026-04-12T08:27:00.603Z</time></trkpt><trkpt lat="37.0028062" lon="15.0281853"><ele>476.0</ele><time>2026-04-12T08:27:02.603Z</time></trkpt><trkpt lat="37.0029004" lon="15.028256"><ele>476.0</ele><time>2026-04-12T08:27:06.603Z</time></trkpt><trkpt lat="37.0029714" lon="15.028353"><ele>476.0</ele><time>2026-04-12T08:27:08.603Z</time></trkpt><trkpt lat="37.0030369" lon="15.0284285"><ele>476.0</ele><time>2026-04-12T08:27:10.603Z</time></trkpt><trkpt lat="37.0030948" lon="15.0284999"><ele>475.99999999999994</ele><time>2026-04-12T08:27:12.602Z</time></trkpt><trkpt lat="37.0031655" lon="15.0285752"><ele>476.0</ele><time>2026-04-12T08:27:14.602Z</time></trkpt><trkpt lat="37.0032332" lon="15.0286254"><ele>476.0</ele><time>2026-04-12T08:27:16.603Z</time></trkpt><trkpt lat="37.0032928" lon="15.0286694"><ele>476.0</ele><time>2026-04-12T08:27:18.603Z</time></trkpt><trkpt lat="37.0033525" lon="15.0287113"><ele>475.99999999999994</ele><time>2026-04-12T08:27:20.602Z</time></trkpt><trkpt lat="37.0034164" lon="15.028773"><ele>476.0</ele><time>2026-04-12T08:27:23.602Z</time></trkpt><trkpt lat="37.0034887" lon="15.0288452"><ele>475.57142857142856</ele><time>2026-04-12T08:27:27.602Z</time></trkpt><trkpt lat="37.0035445" lon="15.0289145"><ele>475.1428571428571</ele><time>2026-04-12T08:27:29.602Z</time></trkpt><trkpt lat="37.0035905" lon="15.0289746"><ele>474.7142857142857</ele><time>2026-04-12T08:27:31.602Z</time></trkpt><trkpt lat="37.0036447" lon="15.0290217"><ele>474.2857142857143</ele><time>2026-04-12T08:27:33.603Z</time></trkpt><trkpt lat="37.0037034" lon="15.0290848"><ele>473.85714285714283</ele><time>2026-04-12T08:27:35.603Z</time></trkpt><trkpt lat="37.0037508" lon="15.029182"><ele>473.42857142857144</ele><time>2026-04-12T08:27:37.603Z</time></trkpt><trkpt lat="37.0037831" lon="15.0292514"><ele>473.0</ele><time>2026-04-12T08:27:38.602Z</time></trkpt><trkpt lat="37.0038536" lon="15.0292823"><ele>472.99999999999994</ele><time>2026-04-12T08:27:42.602Z</time></trkpt><trkpt lat="37.0039027" lon="15.0292152"><ele>473.0</ele><time>2026-04-12T08:27:44.602Z</time></trkpt><trkpt lat="37.0039693" lon="15.0291241"><ele>473.0</ele><time>2026-04-12T08:27:46.602Z</time></trkpt><trkpt lat="37.0040122" lon="15.0290203"><ele>473.0</ele><time>2026-04-12T08:27:48.602Z</time></trkpt><trkpt lat="37.0040472" lon="15.028941"><ele>472.99999999999994</ele><time>2026-04-12T08:27:49.603Z</time></trkpt><trkpt lat="37.0041044" lon="15.0288552"><ele>473.0</ele><time>2026-04-12T08:27:51.602Z</time></trkpt><trkpt lat="37.004171" lon="15.0287844"><ele>474.57142857142856</ele><time>2026-04-12T08:27:53.601Z</time></trkpt><trkpt lat="37.0042179" lon="15.0287303"><ele>476.1428571428571</ele><time>2026-04-12T08:27:55.603Z</time></trkpt><trkpt lat="37.0042739" lon="15.0286743"><ele>477.71428571428567</ele><time>2026-04-12T08:27:57.603Z</time></trkpt><trkpt lat="37.0043459" lon="15.0286233"><ele>479.2857142857143</ele><time>2026-04-12T08:27:59.602Z</time></trkpt><trkpt lat="37.0044061" lon="15.0285922"><ele>480.8571428571428</ele><time>2026-04-12T08:28:01.603Z</time></trkpt><trkpt lat="37.0044657" lon="15.0285423"><ele>482.4285714285714</ele><time>2026-04-12T08:28:04.603Z</time></trkpt><trkpt lat="37.004538" lon="15.0284918"><ele>484.0</ele><time>2026-04-12T08:28:07.602Z</time></trkpt><trkpt lat="37.0046001" lon="15.0284297"><ele>484.00000000000006</ele><time>2026-04-12T08:28:10.603Z</time></trkpt><trkpt lat="37.004669" lon="15.0283784"><ele>484.0</ele><time>2026-04-12T08:28:12.602Z</time></trkpt><trkpt lat="37.0047418" lon="15.0283404"><ele>484.0</ele><time>2026-04-12T08:28:14.603Z</time></trkpt><trkpt lat="37.0048328" lon="15.0283052"><ele>484.0</ele><time>2026-04-12T08:28:17.603Z</time></trkpt><trkpt lat="37.0048949" lon="15.0282709"><ele>484.00000000000006</ele><time>2026-04-12T08:28:19.603Z</time></trkpt><trkpt lat="37.0049617" lon="15.028246"><ele>484.0</ele><time>2026-04-12T08:28:22.602Z</time></trkpt><trkpt lat="37.0050133" lon="15.0283159"><ele>485.1666666666667</ele><time>2026-04-12T08:31:03.603Z</time></trkpt><trkpt lat="37.0050382" lon="15.028402"><ele>486.33333333333337</ele><time>2026-04-12T08:31:05.602Z</time></trkpt><trkpt lat="37.0050811" lon="15.0285028"><ele>487.5</ele><time>2026-04-12T08:31:09.603Z</time></trkpt><trkpt lat="37.0050986" lon="15.0285816"><ele>488.66666666666663</ele><time>2026-04-12T08:31:11.602Z</time></trkpt><trkpt lat="37.0051166" lon="15.0286693"><ele>489.8333333333333</ele><time>2026-04-12T08:31:13.603Z</time></trkpt><trkpt lat="37.005173" lon="15.0287408"><ele>491.0</ele><time>2026-04-12T08:31:16.602Z</time></trkpt><trkpt lat="37.0052881" lon="15.0287488"><ele>491.0</ele><time>2026-04-12T08:31:20.602Z</time></trkpt><trkpt lat="37.0053609" lon="15.0287118"><ele>491.0</ele><time>2026-04-12T08:31:22.602Z</time></trkpt><trkpt lat="37.0054532" lon="15.0286471"><ele>491.0</ele><time>2026-04-12T08:31:24.603Z</time></trkpt><trkpt lat="37.0055392" lon="15.0286043"><ele>491.0</ele><time>2026-04-12T08:31:26.603Z</time></trkpt><trkpt lat="37.0056344" lon="15.028555"><ele>491.0</ele><time>2026-04-12T08:31:28.602Z</time></trkpt><trkpt lat="37.0057291" lon="15.0285002"><ele>491.0</ele><time>2026-04-12T08:31:30.602Z</time></trkpt><trkpt lat="37.0057835" lon="15.0284518"><ele>490.99999999999994</ele><time>2026-04-12T08:31:31.603Z</time></trkpt><trkpt lat="37.0058412" lon="15.0283865"><ele>491.0</ele><time>2026-04-12T08:31:32.603Z</time></trkpt><trkpt lat="37.0058859" lon="15.0283293"><ele>491.0</ele><time>2026-04-12T08:31:33.603Z</time></trkpt><trkpt lat="37.0059376" lon="15.0282682"><ele>490.99999999999994</ele><time>2026-04-12T08:31:34.603Z</time></trkpt><trkpt lat="37.005998" lon="15.0282029"><ele>491.0</ele><time>2026-04-12T08:31:35.603Z</time></trkpt><trkpt lat="37.0060561" lon="15.0281294"><ele>491.0</ele><time>2026-04-12T08:31:36.602Z</time></trkpt><trkpt lat="37.0061202" lon="15.0280344"><ele>491.20000000000005</ele><time>2026-04-12T08:31:37.602Z</time></trkpt><trkpt lat="37.0061751" lon="15.0279322"><ele>491.40000000000003</ele><time>2026-04-12T08:31:38.603Z</time></trkpt><trkpt lat="37.006223" lon="15.0278263"><ele>491.6</ele><time>2026-04-12T08:31:39.602Z</time></trkpt><trkpt lat="37.0062762" lon="15.0277241"><ele>491.8</ele><time>2026-04-12T08:31:40.602Z</time></trkpt><trkpt lat="37.0063227" lon="15.0276323"><ele>492.0</ele><time>2026-04-12T08:31:41.603Z</time></trkpt><trkpt lat="37.0063695" lon="15.0275397"><ele>493.0</ele><time>2026-04-12T08:31:42.602Z</time></trkpt><trkpt lat="37.006448" lon="15.0274245"><ele>494.00000000000006</ele><time>2026-04-12T08:31:44.602Z</time></trkpt><trkpt lat="37.0065591" lon="15.0273826"><ele>495.00000000000006</ele><time>2026-04-12T08:31:46.602Z</time></trkpt><trkpt lat="37.0066427" lon="15.0273544"><ele>496.0</ele><time>2026-04-12T08:31:47.603Z</time></trkpt><trkpt lat="37.0067217" lon="15.0273158"><ele>497.0</ele><time>2026-04-12T08:31:48.602Z</time></trkpt><trkpt lat="37.0067907" lon="15.0272768"><ele>496.99999999999994</ele><time>2026-04-12T08:31:49.602Z</time></trkpt><trkpt lat="37.0068403" lon="15.0272279"><ele>497.0</ele><time>2026-04-12T08:31:50.602Z</time></trkpt><trkpt lat="37.006907" lon="15.0271325"><ele>497.0</ele><time>2026-04-12T08:31:52.602Z</time></trkpt><trkpt lat="37.0069323" lon="15.0269842"><ele>497.0</ele><time>2026-04-12T08:31:54.602Z</time></trkpt><trkpt lat="37.006951" lon="15.02689"><ele>496.99999999999994</ele><time>2026-04-12T08:31:55.602Z</time></trkpt><trkpt lat="37.0069788" lon="15.026792"><ele>497.0</ele><time>2026-04-12T08:31:56.603Z</time></trkpt><trkpt lat="37.0070134" lon="15.0266929"><ele>497.3333333333333</ele><time>2026-04-12T08:31:57.603Z</time></trkpt><trkpt lat="37.0070565" lon="15.0265862"><ele>497.66666666666663</ele><time>2026-04-12T08:31:58.603Z</time></trkpt><trkpt lat="37.0070972" lon="15.026492"><ele>498.0</ele><time>2026-04-12T08:31:59.603Z</time></trkpt><trkpt lat="37.0071237" lon="15.0263986"><ele>498.33333333333337</ele><time>2026-04-12T08:32:00.602Z</time></trkpt><trkpt lat="37.007146" lon="15.0263099"><ele>498.6666666666667</ele><time>2026-04-12T08:32:01.603Z</time></trkpt><trkpt lat="37.0071681" lon="15.0262232"><ele>499.0</ele><time>2026-04-12T08:32:02.602Z</time></trkpt><trkpt lat="37.00719" lon="15.0261394"><ele>499.0</ele><time>2026-04-12T08:32:03.603Z</time></trkpt><trkpt lat="37.0072386" lon="15.0260109"><ele>499.0</ele><time>2026-04-12T08:32:05.602Z</time></trkpt><trkpt lat="37.0072662" lon="15.0258988"><ele>499.0</ele><time>2026-04-12T08:32:07.603Z</time></trkpt><trkpt lat="37.007235" lon="15.0257882"><ele>499.0</ele><time>2026-04-12T08:32:09.602Z</time></trkpt><trkpt lat="37.0071888" lon="15.0256494"><ele>499.0</ele><time>2026-04-12T08:32:11.602Z</time></trkpt><trkpt lat="37.0071817" lon="15.0255693"><ele>498.2</ele><time>2026-04-12T08:32:12.602Z</time></trkpt><trkpt lat="37.00717" lon="15.0254323"><ele>497.4</ele><time>2026-04-12T08:32:14.602Z</time></trkpt><trkpt lat="37.0071896" lon="15.0253303"><ele>496.6</ele><time>2026-04-12T08:32:16.602Z</time></trkpt><trkpt lat="37.0072178" lon="15.025231"><ele>495.8</ele><time>2026-04-12T08:32:18.603Z</time></trkpt><trkpt lat="37.0072469" lon="15.0251182"><ele>495.0</ele><time>2026-04-12T08:32:20.602Z</time></trkpt><trkpt lat="37.0072592" lon="15.0250213"><ele>493.8</ele><time>2026-04-12T08:32:22.602Z</time></trkpt><trkpt lat="37.0072975" lon="15.024907"><ele>492.6</ele><time>2026-04-12T08:32:24.602Z</time></trkpt><trkpt lat="37.0073157" lon="15.0247986"><ele>491.4</ele><time>2026-04-12T08:32:26.602Z</time></trkpt><trkpt lat="37.0073503" lon="15.0246641"><ele>490.2</ele><time>2026-04-12T08:32:28.602Z</time></trkpt><trkpt lat="37.0073732" lon="15.0245766"><ele>489.0</ele><time>2026-04-12T08:32:30.602Z</time></trkpt><trkpt lat="37.0073911" lon="15.0244651"><ele>489.0</ele><time>2026-04-12T08:32:32.603Z</time></trkpt><trkpt lat="37.0074254" lon="15.0243298"><ele>489.0</ele><time>2026-04-12T08:32:34.602Z</time></trkpt><trkpt lat="37.0074562" lon="15.0242285"><ele>489.0</ele><time>2026-04-12T08:32:36.603Z</time></trkpt><trkpt lat="37.0074798" lon="15.0241429"><ele>489.0</ele><time>2026-04-12T08:32:38.602Z</time></trkpt><trkpt lat="37.0074994" lon="15.0240485"><ele>489.0</ele><time>2026-04-12T08:32:40.603Z</time></trkpt><trkpt lat="37.0075116" lon="15.0239305"><ele>489.0</ele><time>2026-04-12T08:32:42.601Z</time></trkpt><trkpt lat="37.0075482" lon="15.0238225"><ele>487.6666666666667</ele><time>2026-04-12T08:32:44.602Z</time></trkpt><trkpt lat="37.007582" lon="15.0236951"><ele>486.33333333333337</ele><time>2026-04-12T08:32:46.603Z</time></trkpt><trkpt lat="37.0075975" lon="15.0236082"><ele>485.0</ele><time>2026-04-12T08:32:48.602Z</time></trkpt><trkpt lat="37.0076132" lon="15.0235017"><ele>483.6666666666667</ele><time>2026-04-12T08:32:50.602Z</time></trkpt><trkpt lat="37.0076422" lon="15.0234139"><ele>482.33333333333337</ele><time>2026-04-12T08:32:52.602Z</time></trkpt><trkpt lat="37.0076838" lon="15.0233244"><ele>481.0</ele><time>2026-04-12T08:32:54.602Z</time></trkpt><trkpt lat="37.0077492" lon="15.0232392"><ele>479.50000000000006</ele><time>2026-04-12T08:32:56.602Z</time></trkpt><trkpt lat="37.0078061" lon="15.0231587"><ele>478.0</ele><time>2026-04-12T08:32:58.603Z</time></trkpt><trkpt lat="37.0078352" lon="15.0230706"><ele>476.5</ele><time>2026-04-12T08:33:00.603Z</time></trkpt><trkpt lat="37.0078789" lon="15.02297"><ele>475.0</ele><time>2026-04-12T08:33:02.602Z</time></trkpt><trkpt lat="37.0079333" lon="15.0228864"><ele>473.50000000000006</ele><time>2026-04-12T08:33:05.602Z</time></trkpt><trkpt lat="37.0080058" lon="15.0228299"><ele>472.0</ele><time>2026-04-12T08:33:08.602Z</time></trkpt><trkpt lat="37.0080636" lon="15.022778"><ele>472.00000000000006</ele><time>2026-04-12T08:33:11.603Z</time></trkpt><trkpt lat="37.0081211" lon="15.0227142"><ele>472.0</ele><time>2026-04-12T08:33:16.603Z</time></trkpt><trkpt lat="37.0080765" lon="15.0226321"><ele>472.0</ele><time>2026-04-12T08:33:55.602Z</time></trkpt><trkpt lat="37.0080054" lon="15.0226008"><ele>472.0</ele><time>2026-04-12T08:33:57.603Z</time></trkpt><trkpt lat="37.0079099" lon="15.0225433"><ele>472.00000000000006</ele><time>2026-04-12T08:34:00.602Z</time></trkpt><trkpt lat="37.0078441" lon="15.0225201"><ele>472.0</ele><time>2026-04-12T08:34:02.603Z</time></trkpt><trkpt lat="37.0077612" lon="15.0224981"><ele>472.00000000000006</ele><time>2026-04-12T08:34:05.602Z</time></trkpt><trkpt lat="37.0076891" lon="15.0224594"><ele>472.0</ele><time>2026-04-12T08:34:08.602Z</time></trkpt><trkpt lat="37.0076226" lon="15.0224059"><ele>472.0</ele><time>2026-04-12T08:34:12.603Z</time></trkpt><trkpt lat="37.0075643" lon="15.0223573"><ele>472.0</ele><time>2026-04-12T08:34:17.603Z</time></trkpt><trkpt lat="37.0075071" lon="15.0223038"><ele>472.00000000000006</ele><time>2026-04-12T08:34:20.602Z</time></trkpt><trkpt lat="37.0074476" lon="15.0222589"><ele>472.0</ele><time>2026-04-12T08:34:24.603Z</time></trkpt><trkpt lat="37.007369" lon="15.0221988"><ele>471.85714285714283</ele><time>2026-04-12T08:34:28.602Z</time></trkpt><trkpt lat="37.0073133" lon="15.0221482"><ele>471.7142857142858</ele><time>2026-04-12T08:34:32.536Z</time></trkpt><trkpt lat="37.007248" lon="15.0220947"><ele>471.5714285714286</ele><time>2026-04-12T08:34:35.519Z</time></trkpt><trkpt lat="37.007209" lon="15.0220284"><ele>471.42857142857144</ele><time>2026-04-12T08:34:42.557Z</time></trkpt><trkpt lat="37.0072478" lon="15.0219334"><ele>471.28571428571433</ele><time>2026-04-12T08:34:45.602Z</time></trkpt><trkpt lat="37.0072573" lon="15.0218496"><ele>471.1428571428572</ele><time>2026-04-12T08:34:46.602Z</time></trkpt><trkpt lat="37.0072781" lon="15.0217667"><ele>471.00000000000006</ele><time>2026-04-12T08:34:47.602Z</time></trkpt><trkpt lat="37.0073288" lon="15.0216325"><ele>473.20000000000005</ele><time>2026-04-12T08:34:49.602Z</time></trkpt><trkpt lat="37.0073782" lon="15.0214904"><ele>475.40000000000003</ele><time>2026-04-12T08:34:51.602Z</time></trkpt><trkpt lat="37.0074013" lon="15.0214095"><ele>477.6</ele><time>2026-04-12T08:34:52.603Z</time></trkpt><trkpt lat="37.0074252" lon="15.0213256"><ele>479.8</ele><time>2026-04-12T08:34:53.603Z</time></trkpt><trkpt lat="37.0074278" lon="15.0212205"><ele>482.0</ele><time>2026-04-12T08:34:55.603Z</time></trkpt><trkpt lat="37.0074564" lon="15.0210914"><ele>482.0</ele><time>2026-04-12T08:34:57.602Z</time></trkpt><trkpt lat="37.0074733" lon="15.0209729"><ele>482.00000000000006</ele><time>2026-04-12T08:34:59.602Z</time></trkpt><trkpt lat="37.0074958" lon="15.0208383"><ele>482.00000000000006</ele><time>2026-04-12T08:35:01.602Z</time></trkpt><trkpt lat="37.0075118" lon="15.0207461"><ele>482.0</ele><time>2026-04-12T08:35:02.602Z</time></trkpt><trkpt lat="37.0075262" lon="15.0206307"><ele>482.0</ele><time>2026-04-12T08:35:03.6Z</time></trkpt><trkpt lat="37.007538" lon="15.0205157"><ele>481.8</ele><time>2026-04-12T08:35:04.602Z</time></trkpt><trkpt lat="37.0075454" lon="15.0204181"><ele>481.6</ele><time>2026-04-12T08:35:05.602Z</time></trkpt><trkpt lat="37.0075417" lon="15.0203054"><ele>481.40000000000003</ele><time>2026-04-12T08:35:06.603Z</time></trkpt><trkpt lat="37.0075371" lon="15.0201946"><ele>481.20000000000005</ele><time>2026-04-12T08:35:07.603Z</time></trkpt><trkpt lat="37.0075343" lon="15.0200602"><ele>481.0</ele><time>2026-04-12T08:35:09.603Z</time></trkpt><trkpt lat="37.0075249" lon="15.0199513"><ele>480.1666666666667</ele><time>2026-04-12T08:35:10.603Z</time></trkpt><trkpt lat="37.0075016" lon="15.0198343"><ele>479.33333333333337</ele><time>2026-04-12T08:35:11.603Z</time></trkpt><trkpt lat="37.007474" lon="15.019727"><ele>478.5</ele><time>2026-04-12T08:35:12.602Z</time></trkpt><trkpt lat="37.0074466" lon="15.0196255"><ele>477.66666666666663</ele><time>2026-04-12T08:35:13.602Z</time></trkpt><trkpt lat="37.0074314" lon="15.0195382"><ele>476.8333333333333</ele><time>2026-04-12T08:35:14.602Z</time></trkpt><trkpt lat="37.0074171" lon="15.0194558"><ele>476.0</ele><time>2026-04-12T08:35:15.602Z</time></trkpt><trkpt lat="37.007401" lon="15.0193732"><ele>474.8</ele><time>2026-04-12T08:35:16.602Z</time></trkpt><trkpt lat="37.0073666" lon="15.0192143"><ele>473.6</ele><time>2026-04-12T08:35:18.602Z</time></trkpt><trkpt lat="37.0073521" lon="15.0191158"><ele>472.4</ele><time>2026-04-12T08:35:19.602Z</time></trkpt><trkpt lat="37.0073317" lon="15.0190395"><ele>471.2</ele><time>2026-04-12T08:35:20.603Z</time></trkpt><trkpt lat="37.0073255" lon="15.0188743"><ele>470.0</ele><time>2026-04-12T08:35:22.602Z</time></trkpt><trkpt lat="37.0073285" lon="15.0187927"><ele>468.49999999999994</ele><time>2026-04-12T08:35:23.603Z</time></trkpt><trkpt lat="37.0073263" lon="15.0187074"><ele>467.0</ele><time>2026-04-12T08:35:24.602Z</time></trkpt><trkpt lat="37.0073261" lon="15.018623"><ele>465.5</ele><time>2026-04-12T08:35:25.602Z</time></trkpt><trkpt lat="37.0073287" lon="15.0185029"><ele>464.0</ele><time>2026-04-12T08:35:27.6Z</time></trkpt><trkpt lat="37.0073135" lon="15.0184182"><ele>462.49999999999994</ele><time>2026-04-12T08:35:30.603Z</time></trkpt><trkpt lat="37.0073072" lon="15.0182937"><ele>461.0</ele><time>2026-04-12T08:35:35.603Z</time></trkpt><trkpt lat="37.0073286" lon="15.0182014"><ele>460.6</ele><time>2026-04-12T08:35:36.603Z</time></trkpt><trkpt lat="37.0073267" lon="15.0180742"><ele>460.20000000000005</ele><time>2026-04-12T08:35:37.603Z</time></trkpt><trkpt lat="37.0073327" lon="15.0179595"><ele>459.79999999999995</ele><time>2026-04-12T08:35:38.603Z</time></trkpt><trkpt lat="37.0073409" lon="15.0178685"><ele>459.4</ele><time>2026-04-12T08:35:39.602Z</time></trkpt><trkpt lat="37.0073331" lon="15.0177453"><ele>459.0</ele><time>2026-04-12T08:35:41.603Z</time></trkpt><trkpt lat="37.0072487" lon="15.0176265"><ele>459.0</ele><time>2026-04-12T08:35:43.603Z</time></trkpt><trkpt lat="37.0071883" lon="15.0175473"><ele>459.0</ele><time>2026-04-12T08:35:44.603Z</time></trkpt><trkpt lat="37.0071236" lon="15.017453"><ele>459.0</ele><time>2026-04-12T08:35:45.603Z</time></trkpt><trkpt lat="37.0070694" lon="15.0173556"><ele>459.0</ele><time>2026-04-12T08:35:46.602Z</time></trkpt><trkpt lat="37.0070205" lon="15.0172583"><ele>459.0</ele><time>2026-04-12T08:35:47.603Z</time></trkpt><trkpt lat="37.0069719" lon="15.0171638"><ele>458.75</ele><time>2026-04-12T08:35:48.603Z</time></trkpt><trkpt lat="37.0069306" lon="15.0170539"><ele>458.5</ele><time>2026-04-12T08:35:49.602Z</time></trkpt><trkpt lat="37.0068697" lon="15.0169071"><ele>458.25</ele><time>2026-04-12T08:35:50.602Z</time></trkpt><trkpt lat="37.006806" lon="15.0167596"><ele>458.0</ele><time>2026-04-12T08:35:51.602Z</time></trkpt><trkpt lat="37.0067463" lon="15.0166298"><ele>457.79999999999995</ele><time>2026-04-12T08:35:52.603Z</time></trkpt><trkpt lat="37.0066933" lon="15.0165074"><ele>457.59999999999997</ele><time>2026-04-12T08:35:53.603Z</time></trkpt><trkpt lat="37.0066632" lon="15.0164259"><ele>457.40000000000003</ele><time>2026-04-12T08:35:54.603Z</time></trkpt><trkpt lat="37.0066278" lon="15.0163429"><ele>457.20000000000005</ele><time>2026-04-12T08:35:55.602Z</time></trkpt><trkpt lat="37.0065629" lon="15.0162271"><ele>457.0</ele><time>2026-04-12T08:35:57.602Z</time></trkpt><trkpt lat="37.0065082" lon="15.0161465"><ele>456.33333333333337</ele><time>2026-04-12T08:36:00.603Z</time></trkpt><trkpt lat="37.0064403" lon="15.0161378"><ele>455.6666666666667</ele><time>2026-04-12T08:42:13.599Z</time></trkpt><trkpt lat="37.0063563" lon="15.016197"><ele>455.0</ele><time>2026-04-12T08:42:15.6Z</time></trkpt><trkpt lat="37.006301" lon="15.0162516"><ele>454.33333333333337</ele><time>2026-04-12T08:42:16.603Z</time></trkpt><trkpt lat="37.0062436" lon="15.0163097"><ele>453.6666666666667</ele><time>2026-04-12T08:42:17.602Z</time></trkpt><trkpt lat="37.0061817" lon="15.0163779"><ele>453.0</ele><time>2026-04-12T08:42:18.6Z</time></trkpt><trkpt lat="37.0061109" lon="15.0164509"><ele>453.0</ele><time>2026-04-12T08:42:19.602Z</time></trkpt><trkpt lat="37.0060371" lon="15.016527"><ele>452.99999999999994</ele><time>2026-04-12T08:42:20.603Z</time></trkpt><trkpt lat="37.0059529" lon="15.0166106"><ele>452.99999999999994</ele><time>2026-04-12T08:42:21.6Z</time></trkpt><trkpt lat="37.0058655" lon="15.0167062"><ele>453.0</ele><time>2026-04-12T08:42:22.6Z</time></trkpt><trkpt lat="37.0057752" lon="15.016798"><ele>453.0</ele><time>2026-04-12T08:42:23.6Z</time></trkpt><trkpt lat="37.0056838" lon="15.0168917"><ele>453.25</ele><time>2026-04-12T08:42:24.6Z</time></trkpt><trkpt lat="37.0055941" lon="15.0169864"><ele>453.5</ele><time>2026-04-12T08:42:25.603Z</time></trkpt><trkpt lat="37.005505" lon="15.0170801"><ele>453.75</ele><time>2026-04-12T08:42:26.602Z</time></trkpt><trkpt lat="37.0054194" lon="15.0171724"><ele>454.0</ele><time>2026-04-12T08:42:27.603Z</time></trkpt><trkpt lat="37.005331" lon="15.0172628"><ele>454.0</ele><time>2026-04-12T08:42:28.602Z</time></trkpt><trkpt lat="37.0052438" lon="15.0173511"><ele>454.0</ele><time>2026-04-12T08:42:29.599Z</time></trkpt><trkpt lat="37.005149" lon="15.0174378"><ele>454.0</ele><time>2026-04-12T08:42:30.602Z</time></trkpt><trkpt lat="37.0050429" lon="15.0175178"><ele>454.0</ele><time>2026-04-12T08:42:31.603Z</time></trkpt><trkpt lat="37.0049328" lon="15.0175935"><ele>454.5</ele><time>2026-04-12T08:42:32.602Z</time></trkpt><trkpt lat="37.0048266" lon="15.0176655"><ele>455.0</ele><time>2026-04-12T08:42:33.603Z</time></trkpt><trkpt lat="37.0047124" lon="15.0177414"><ele>455.5</ele><time>2026-04-12T08:42:34.602Z</time></trkpt><trkpt lat="37.0045996" lon="15.0178182"><ele>456.0</ele><time>2026-04-12T08:42:35.601Z</time></trkpt><trkpt lat="37.0044811" lon="15.0178958"><ele>456.0</ele><time>2026-04-12T08:42:36.602Z</time></trkpt><trkpt lat="37.0043629" lon="15.0179777"><ele>456.0</ele><time>2026-04-12T08:42:37.602Z</time></trkpt><trkpt lat="37.0042451" lon="15.0180565"><ele>456.0</ele><time>2026-04-12T08:42:38.602Z</time></trkpt><trkpt lat="37.0041244" lon="15.0181357"><ele>456.0</ele><time>2026-04-12T08:42:39.603Z</time></trkpt><trkpt lat="37.004003" lon="15.0182151"><ele>456.25</ele><time>2026-04-12T08:42:40.603Z</time></trkpt><trkpt lat="37.0038791" lon="15.0182989"><ele>456.5</ele><time>2026-04-12T08:42:41.602Z</time></trkpt><trkpt lat="37.0037518" lon="15.0183726"><ele>456.75</ele><time>2026-04-12T08:42:42.602Z</time></trkpt><trkpt lat="37.0036187" lon="15.0184407"><ele>457.0</ele><time>2026-04-12T08:42:43.602Z</time></trkpt><trkpt lat="37.0034873" lon="15.0185099"><ele>455.25</ele><time>2026-04-12T08:42:44.602Z</time></trkpt><trkpt lat="37.0033573" lon="15.0185781"><ele>453.5</ele><time>2026-04-12T08:42:45.6Z</time></trkpt><trkpt lat="37.0032269" lon="15.0186431"><ele>451.75</ele><time>2026-04-12T08:42:46.601Z</time></trkpt><trkpt lat="37.003092" lon="15.0187041"><ele>450.0</ele><time>2026-04-12T08:42:47.601Z</time></trkpt><trkpt lat="37.0029592" lon="15.0187718"><ele>449.5</ele><time>2026-04-12T08:42:48.603Z</time></trkpt><trkpt lat="37.0028245" lon="15.0188412"><ele>449.0</ele><time>2026-04-12T08:42:49.601Z</time></trkpt><trkpt lat="37.0026908" lon="15.0189087"><ele>448.5</ele><time>2026-04-12T08:42:50.602Z</time></trkpt><trkpt lat="37.0025582" lon="15.0189771"><ele>448.0</ele><time>2026-04-12T08:42:51.602Z</time></trkpt><trkpt lat="37.0024307" lon="15.0190447"><ele>447.5</ele><time>2026-04-12T08:42:52.601Z</time></trkpt><trkpt lat="37.0022992" lon="15.0191076"><ele>447.0</ele><time>2026-04-12T08:42:53.603Z</time></trkpt><trkpt lat="37.0021706" lon="15.0191673"><ele>446.5</ele><time>2026-04-12T08:42:54.602Z</time></trkpt><trkpt lat="37.0020434" lon="15.0192368"><ele>446.0</ele><time>2026-04-12T08:42:55.602Z</time></trkpt><trkpt lat="37.0019141" lon="15.0193003"><ele>445.75</ele><time>2026-04-12T08:42:56.603Z</time></trkpt><trkpt lat="37.0017847" lon="15.0193625"><ele>445.5</ele><time>2026-04-12T08:42:57.603Z</time></trkpt><trkpt lat="37.0016549" lon="15.0194264"><ele>445.25</ele><time>2026-04-12T08:42:58.601Z</time></trkpt><trkpt lat="37.0015249" lon="15.0194961"><ele>445.0</ele><time>2026-04-12T08:42:59.602Z</time></trkpt><trkpt lat="37.0013913" lon="15.0195616"><ele>444.6666666666667</ele><time>2026-04-12T08:43:00.603Z</time></trkpt><trkpt lat="37.0012392" lon="15.0196387"><ele>444.33333333333337</ele><time>2026-04-12T08:43:01.602Z</time></trkpt><trkpt lat="37.0010598" lon="15.0197286"><ele>444.0</ele><time>2026-04-12T08:43:02.603Z</time></trkpt><trkpt lat="37.0008703" lon="15.0198276"><ele>444.0</ele><time>2026-04-12T08:43:03.601Z</time></trkpt><trkpt lat="37.0006526" lon="15.0199335"><ele>444.0</ele><time>2026-04-12T08:43:04.602Z</time></trkpt><trkpt lat="37.0004303" lon="15.0200417"><ele>444.0</ele><time>2026-04-12T08:43:05.601Z</time></trkpt><trkpt lat="37.0002274" lon="15.0201376"><ele>444.0</ele><time>2026-04-12T08:43:06.602Z</time></trkpt><trkpt lat="37.0000372" lon="15.0202226"><ele>444.0</ele><time>2026-04-12T08:43:07.602Z</time></trkpt><trkpt lat="36.9998785" lon="15.0203167"><ele>444.0</ele><time>2026-04-12T08:43:08.603Z</time></trkpt><trkpt lat="36.9997219" lon="15.0204284"><ele>444.0</ele><time>2026-04-12T08:43:09.603Z</time></trkpt><trkpt lat="36.9995567" lon="15.0205606"><ele>444.0</ele><time>2026-04-12T08:43:10.602Z</time></trkpt><trkpt lat="36.9993853" lon="15.0207099"><ele>444.0</ele><time>2026-04-12T08:43:11.603Z</time></trkpt><trkpt lat="36.9992305" lon="15.0208575"><ele>444.0</ele><time>2026-04-12T08:43:12.602Z</time></trkpt><trkpt lat="36.9990972" lon="15.0209816"><ele>444.0</ele><time>2026-04-12T08:43:13.602Z</time></trkpt><trkpt lat="36.9989794" lon="15.0211014"><ele>444.0</ele><time>2026-04-12T08:43:14.601Z</time></trkpt><trkpt lat="36.9988652" lon="15.0212067"><ele>444.0</ele><time>2026-04-12T08:43:15.603Z</time></trkpt><trkpt lat="36.9987611" lon="15.0213054"><ele>444.0</ele><time>2026-04-12T08:43:16.602Z</time></trkpt><trkpt lat="36.998668" lon="15.0213979"><ele>444.0</ele><time>2026-04-12T08:43:17.602Z</time></trkpt><trkpt lat="36.9985814" lon="15.021478"><ele>444.0</ele><time>2026-04-12T08:43:18.6Z</time></trkpt><trkpt lat="36.9985121" lon="15.0215361"><ele>444.0</ele><time>2026-04-12T08:43:19.602Z</time></trkpt><trkpt lat="36.9984528" lon="15.0215893"><ele>444.0</ele><time>2026-04-12T08:43:20.603Z</time></trkpt><trkpt lat="36.9983964" lon="15.0216377"><ele>444.0</ele><time>2026-04-12T08:43:21.601Z</time></trkpt><trkpt lat="36.9983245" lon="15.021695"><ele>444.0</ele><time>2026-04-12T08:43:23.602Z</time></trkpt><trkpt lat="36.9982453" lon="15.0218075"><ele>444.0</ele><time>2026-04-12T08:43:42.603Z</time></trkpt><trkpt lat="36.9981627" lon="15.0218861"><ele>443.75</ele><time>2026-04-12T08:43:43.602Z</time></trkpt><trkpt lat="36.9980609" lon="15.0219888"><ele>443.5</ele><time>2026-04-12T08:43:44.601Z</time></trkpt><trkpt lat="36.9979502" lon="15.0221042"><ele>443.25</ele><time>2026-04-12T08:43:45.602Z</time></trkpt><trkpt lat="36.9978261" lon="15.0222248"><ele>443.0</ele><time>2026-04-12T08:43:46.602Z</time></trkpt><trkpt lat="36.9976995" lon="15.0223521"><ele>443.0</ele><time>2026-04-12T08:43:47.603Z</time></trkpt><trkpt lat="36.9975873" lon="15.0224675"><ele>443.0</ele><time>2026-04-12T08:43:48.602Z</time></trkpt><trkpt lat="36.9974587" lon="15.0225925"><ele>443.0</ele><time>2026-04-12T08:43:49.601Z</time></trkpt><trkpt lat="36.9973007" lon="15.0227322"><ele>443.0</ele><time>2026-04-12T08:43:50.603Z</time></trkpt><trkpt lat="36.9971314" lon="15.0228873"><ele>443.0</ele><time>2026-04-12T08:43:51.603Z</time></trkpt><trkpt lat="36.996968" lon="15.0230415"><ele>443.0</ele><time>2026-04-12T08:43:52.601Z</time></trkpt><trkpt lat="36.9968045" lon="15.0231964"><ele>442.3333333333333</ele><time>2026-04-12T08:43:53.602Z</time></trkpt><trkpt lat="36.9966467" lon="15.0233492"><ele>441.66666666666663</ele><time>2026-04-12T08:43:54.601Z</time></trkpt><trkpt lat="36.9964831" lon="15.0235073"><ele>441.0</ele><time>2026-04-12T08:43:55.602Z</time></trkpt><trkpt lat="36.9963177" lon="15.0236649"><ele>441.0</ele><time>2026-04-12T08:43:56.602Z</time></trkpt><trkpt lat="36.9961594" lon="15.0238153"><ele>441.0</ele><time>2026-04-12T08:43:57.602Z</time></trkpt><trkpt lat="36.996002" lon="15.023959"><ele>441.0</ele><time>2026-04-12T08:43:58.599Z</time></trkpt><trkpt lat="36.9958616" lon="15.0240971"><ele>441.33333333333337</ele><time>2026-04-12T08:43:59.602Z</time></trkpt><trkpt lat="36.9957156" lon="15.0242372"><ele>441.6666666666667</ele><time>2026-04-12T08:44:00.601Z</time></trkpt><trkpt lat="36.9955717" lon="15.0243811"><ele>442.0</ele><time>2026-04-12T08:44:01.6Z</time></trkpt><trkpt lat="36.9954272" lon="15.0245288"><ele>442.0</ele><time>2026-04-12T08:44:02.603Z</time></trkpt><trkpt lat="36.9952757" lon="15.024669"><ele>442.0</ele><time>2026-04-12T08:44:03.602Z</time></trkpt><trkpt lat="36.9951276" lon="15.024789"><ele>442.0</ele><time>2026-04-12T08:44:04.602Z</time></trkpt><trkpt lat="36.9949749" lon="15.0248864"><ele>442.0</ele><time>2026-04-12T08:44:05.602Z</time></trkpt><trkpt lat="36.9948225" lon="15.0249609"><ele>442.0</ele><time>2026-04-12T08:44:06.603Z</time></trkpt><trkpt lat="36.9946543" lon="15.0250128"><ele>442.0</ele><time>2026-04-12T08:44:07.602Z</time></trkpt><trkpt lat="36.9944872" lon="15.025056"><ele>442.0</ele><time>2026-04-12T08:44:08.602Z</time></trkpt><trkpt lat="36.9943115" lon="15.0251021"><ele>442.0</ele><time>2026-04-12T08:44:09.602Z</time></trkpt><trkpt lat="36.9941301" lon="15.0251542"><ele>442.0</ele><time>2026-04-12T08:44:10.602Z</time></trkpt><trkpt lat="36.993944" lon="15.0252083"><ele>441.6666666666667</ele><time>2026-04-12T08:44:11.602Z</time></trkpt><trkpt lat="36.9937617" lon="15.025257"><ele>441.33333333333337</ele><time>2026-04-12T08:44:12.602Z</time></trkpt><trkpt lat="36.9935767" lon="15.0253075"><ele>441.0</ele><time>2026-04-12T08:44:13.602Z</time></trkpt><trkpt lat="36.993393" lon="15.0253563"><ele>440.0</ele><time>2026-04-12T08:44:14.602Z</time></trkpt><trkpt lat="36.9932162" lon="15.0254126"><ele>439.0</ele><time>2026-04-12T08:44:15.602Z</time></trkpt><trkpt lat="36.9930373" lon="15.0254644"><ele>438.0</ele><time>2026-04-12T08:44:16.602Z</time></trkpt><trkpt lat="36.9928569" lon="15.025516"><ele>438.0</ele><time>2026-04-12T08:44:17.603Z</time></trkpt><trkpt lat="36.9926823" lon="15.025568"><ele>438.0</ele><time>2026-04-12T08:44:18.601Z</time></trkpt><trkpt lat="36.9925172" lon="15.0256161"><ele>438.0</ele><time>2026-04-12T08:44:19.602Z</time></trkpt><trkpt lat="36.992357" lon="15.0256608"><ele>438.33333333333337</ele><time>2026-04-12T08:44:20.602Z</time></trkpt><trkpt lat="36.9922023" lon="15.0257033"><ele>438.6666666666667</ele><time>2026-04-12T08:44:21.601Z</time></trkpt><trkpt lat="36.9920553" lon="15.0257452"><ele>439.0</ele><time>2026-04-12T08:44:22.601Z</time></trkpt><trkpt lat="36.991918" lon="15.0257942"><ele>438.75</ele><time>2026-04-12T08:44:23.602Z</time></trkpt><trkpt lat="36.9917783" lon="15.0258382"><ele>438.5</ele><time>2026-04-12T08:44:24.6Z</time></trkpt><trkpt lat="36.9916331" lon="15.0258818"><ele>438.25</ele><time>2026-04-12T08:44:25.603Z</time></trkpt><trkpt lat="36.9914819" lon="15.025925"><ele>438.0</ele><time>2026-04-12T08:44:26.602Z</time></trkpt><trkpt lat="36.9913263" lon="15.02597"><ele>437.5</ele><time>2026-04-12T08:44:27.603Z</time></trkpt><trkpt lat="36.9911748" lon="15.0260143"><ele>437.0</ele><time>2026-04-12T08:44:28.602Z</time></trkpt><trkpt lat="36.9910318" lon="15.0260558"><ele>436.5</ele><time>2026-04-12T08:44:29.6Z</time></trkpt><trkpt lat="36.9908928" lon="15.0260956"><ele>436.0</ele><time>2026-04-12T08:44:30.601Z</time></trkpt><trkpt lat="36.9907636" lon="15.0261348"><ele>434.25</ele><time>2026-04-12T08:44:31.603Z</time></trkpt><trkpt lat="36.9906379" lon="15.0261696"><ele>432.5</ele><time>2026-04-12T08:44:32.602Z</time></trkpt><trkpt lat="36.9905209" lon="15.026208"><ele>430.75</ele><time>2026-04-12T08:44:33.603Z</time></trkpt><trkpt lat="36.9904074" lon="15.0262366"><ele>429.0</ele><time>2026-04-12T08:44:34.603Z</time></trkpt><trkpt lat="36.9902926" lon="15.0262593"><ele>429.0</ele><time>2026-04-12T08:44:35.602Z</time></trkpt><trkpt lat="36.9901805" lon="15.0262569"><ele>429.0</ele><time>2026-04-12T08:44:36.6Z</time></trkpt><trkpt lat="36.9900829" lon="15.0261856"><ele>429.0</ele><time>2026-04-12T08:44:37.602Z</time></trkpt><trkpt lat="36.9899824" lon="15.026108"><ele>429.0</ele><time>2026-04-12T08:44:38.602Z</time></trkpt><trkpt lat="36.989882" lon="15.0260083"><ele>427.66666666666663</ele><time>2026-04-12T08:44:39.602Z</time></trkpt><trkpt lat="36.9897734" lon="15.0258893"><ele>426.3333333333333</ele><time>2026-04-12T08:44:40.603Z</time></trkpt><trkpt lat="36.9896674" lon="15.0257496"><ele>425.0</ele><time>2026-04-12T08:44:41.602Z</time></trkpt><trkpt lat="36.9895722" lon="15.0255877"><ele>422.75</ele><time>2026-04-12T08:44:42.602Z</time></trkpt><trkpt lat="36.9894958" lon="15.0254234"><ele>420.5</ele><time>2026-04-12T08:44:43.603Z</time></trkpt><trkpt lat="36.989444" lon="15.025272"><ele>418.25</ele><time>2026-04-12T08:44:44.601Z</time></trkpt><trkpt lat="36.989422" lon="15.0251161"><ele>416.0</ele><time>2026-04-12T08:44:45.603Z</time></trkpt><trkpt lat="36.9894335" lon="15.0249506"><ele>414.75</ele><time>2026-04-12T08:44:46.602Z</time></trkpt><trkpt lat="36.9894541" lon="15.0247788"><ele>413.5</ele><time>2026-04-12T08:44:47.602Z</time></trkpt><trkpt lat="36.9894537" lon="15.0246128"><ele>412.25</ele><time>2026-04-12T08:44:48.603Z</time></trkpt><trkpt lat="36.9894158" lon="15.0244658"><ele>411.0</ele><time>2026-04-12T08:44:49.601Z</time></trkpt><trkpt lat="36.9893566" lon="15.0243565"><ele>411.0</ele><time>2026-04-12T08:44:50.599Z</time></trkpt><trkpt lat="36.9892895" lon="15.0242683"><ele>411.0</ele><time>2026-04-12T08:44:51.601Z</time></trkpt><trkpt lat="36.9891714" lon="15.0242877"><ele>411.0</ele><time>2026-04-12T08:44:52.603Z</time></trkpt><trkpt lat="36.989057" lon="15.0243256"><ele>411.0</ele><time>2026-04-12T08:44:53.602Z</time></trkpt><trkpt lat="36.9889289" lon="15.0243819"><ele>412.0</ele><time>2026-04-12T08:44:54.6Z</time></trkpt><trkpt lat="36.9888036" lon="15.0244392"><ele>413.0</ele><time>2026-04-12T08:44:55.602Z</time></trkpt><trkpt lat="36.9886902" lon="15.0245107"><ele>414.0</ele><time>2026-04-12T08:44:56.601Z</time></trkpt><trkpt lat="36.9885957" lon="15.0246201"><ele>415.0</ele><time>2026-04-12T08:44:57.603Z</time></trkpt><trkpt lat="36.9885277" lon="15.0247698"><ele>415.0</ele><time>2026-04-12T08:44:58.602Z</time></trkpt><trkpt lat="36.9884881" lon="15.0249405"><ele>415.0</ele><time>2026-04-12T08:44:59.599Z</time></trkpt><trkpt lat="36.9884666" lon="15.025134"><ele>415.0</ele><time>2026-04-12T08:45:00.603Z</time></trkpt><trkpt lat="36.9884508" lon="15.0253277"><ele>416.33333333333337</ele><time>2026-04-12T08:45:01.603Z</time></trkpt><trkpt lat="36.988425" lon="15.0255252"><ele>417.66666666666663</ele><time>2026-04-12T08:45:02.6Z</time></trkpt><trkpt lat="36.988395" lon="15.0257223"><ele>419.0</ele><time>2026-04-12T08:45:03.602Z</time></trkpt><trkpt lat="36.9883562" lon="15.025918"><ele>415.66666666666663</ele><time>2026-04-12T08:45:04.602Z</time></trkpt><trkpt lat="36.9882807" lon="15.0261005"><ele>412.33333333333337</ele><time>2026-04-12T08:45:05.599Z</time></trkpt><trkpt lat="36.9882136" lon="15.0262828"><ele>409.0</ele><time>2026-04-12T08:45:06.601Z</time></trkpt><trkpt lat="36.9881455" lon="15.0264636"><ele>409.0</ele><time>2026-04-12T08:45:07.603Z</time></trkpt><trkpt lat="36.9880811" lon="15.0266409"><ele>409.0</ele><time>2026-04-12T08:45:08.602Z</time></trkpt><trkpt lat="36.9880203" lon="15.0268134"><ele>409.0</ele><time>2026-04-12T08:45:09.602Z</time></trkpt><trkpt lat="36.9879506" lon="15.0269876"><ele>408.0</ele><time>2026-04-12T08:45:10.603Z</time></trkpt><trkpt lat="36.9878812" lon="15.0271632"><ele>407.0</ele><time>2026-04-12T08:45:11.601Z</time></trkpt><trkpt lat="36.9878116" lon="15.0273197"><ele>406.0</ele><time>2026-04-12T08:45:12.603Z</time></trkpt><trkpt lat="36.9877303" lon="15.0274553"><ele>405.0</ele><time>2026-04-12T08:45:13.603Z</time></trkpt><trkpt lat="36.9876088" lon="15.0275508"><ele>408.0</ele><time>2026-04-12T08:45:14.603Z</time></trkpt><trkpt lat="36.9874805" lon="15.0276256"><ele>411.0</ele><time>2026-04-12T08:45:15.603Z</time></trkpt><trkpt lat="36.9873415" lon="15.0276921"><ele>414.0</ele><time>2026-04-12T08:45:16.603Z</time></trkpt><trkpt lat="36.9871874" lon="15.0277586"><ele>414.0</ele><time>2026-04-12T08:45:17.6Z</time></trkpt><trkpt lat="36.9870377" lon="15.0278287"><ele>414.0</ele><time>2026-04-12T08:45:18.602Z</time></trkpt><trkpt lat="36.9869182" lon="15.0278878"><ele>414.0</ele><time>2026-04-12T08:45:19.602Z</time></trkpt><trkpt lat="36.9868132" lon="15.0279131"><ele>414.0</ele><time>2026-04-12T08:45:20.601Z</time></trkpt><trkpt lat="36.9867284" lon="15.0278992"><ele>414.0</ele><time>2026-04-12T08:45:21.602Z</time></trkpt><trkpt lat="36.9867025" lon="15.027788"><ele>414.0</ele><time>2026-04-12T08:45:22.602Z</time></trkpt><trkpt lat="36.9866969" lon="15.02767"><ele>414.0</ele><time>2026-04-12T08:45:23.602Z</time></trkpt><trkpt lat="36.9867155" lon="15.0275358"><ele>414.0</ele><time>2026-04-12T08:45:24.602Z</time></trkpt><trkpt lat="36.9867286" lon="15.0273741"><ele>414.0</ele><time>2026-04-12T08:45:25.602Z</time></trkpt><trkpt lat="36.9867369" lon="15.0271982"><ele>415.0</ele><time>2026-04-12T08:45:26.602Z</time></trkpt><trkpt lat="36.9867324" lon="15.0270141"><ele>416.0</ele><time>2026-04-12T08:45:27.601Z</time></trkpt><trkpt lat="36.9867054" lon="15.0268435"><ele>417.0</ele><time>2026-04-12T08:45:28.599Z</time></trkpt><trkpt lat="36.9866624" lon="15.0266978"><ele>418.0</ele><time>2026-04-12T08:45:29.6Z</time></trkpt><trkpt lat="36.9866181" lon="15.0265866"><ele>418.0</ele><time>2026-04-12T08:45:30.6Z</time></trkpt><trkpt lat="36.9865798" lon="15.0265155"><ele>418.0</ele><time>2026-04-12T08:45:31.601Z</time></trkpt><trkpt lat="36.9865487" lon="15.0264104"><ele>418.0</ele><time>2026-04-12T08:45:34.602Z</time></trkpt><trkpt lat="36.9865893" lon="15.0262922"><ele>418.0</ele><time>2026-04-12T08:45:36.603Z</time></trkpt><trkpt lat="36.9866262" lon="15.0261641"><ele>418.0</ele><time>2026-04-12T08:45:38.601Z</time></trkpt><trkpt lat="36.9866542" lon="15.0260177"><ele>418.0</ele><time>2026-04-12T08:45:40.602Z</time></trkpt><trkpt lat="36.9866587" lon="15.0259327"><ele>418.0</ele><time>2026-04-12T08:45:41.603Z</time></trkpt><trkpt lat="36.9866517" lon="15.0258506"><ele>418.0</ele><time>2026-04-12T08:45:42.603Z</time></trkpt><trkpt lat="36.986568" lon="15.0257013"><ele>418.0</ele><time>2026-04-12T08:45:44.6Z</time></trkpt><trkpt lat="36.9865378" lon="15.0256137"><ele>418.0</ele><time>2026-04-12T08:45:45.601Z</time></trkpt><trkpt lat="36.9865777" lon="15.0254791"><ele>417.79999999999995</ele><time>2026-04-12T08:45:46.603Z</time></trkpt><trkpt lat="36.9865917" lon="15.0253713"><ele>417.6</ele><time>2026-04-12T08:45:47.6Z</time></trkpt><trkpt lat="36.9866113" lon="15.0252422"><ele>417.4</ele><time>2026-04-12T08:45:48.601Z</time></trkpt><trkpt lat="36.9866202" lon="15.0251417"><ele>417.20000000000005</ele><time>2026-04-12T08:45:49.603Z</time></trkpt><trkpt lat="36.9866765" lon="15.0250017"><ele>417.0</ele><time>2026-04-12T08:45:50.602Z</time></trkpt><trkpt lat="36.9867263" lon="15.0248779"><ele>415.6</ele><time>2026-04-12T08:45:51.603Z</time></trkpt><trkpt lat="36.9867547" lon="15.024791"><ele>414.20000000000005</ele><time>2026-04-12T08:45:52.602Z</time></trkpt><trkpt lat="36.9868105" lon="15.0246454"><ele>412.8</ele><time>2026-04-12T08:45:54.599Z</time></trkpt><trkpt lat="36.986841" lon="15.0245222"><ele>411.4</ele><time>2026-04-12T08:45:56.603Z</time></trkpt><trkpt lat="36.9868616" lon="15.0244249"><ele>410.0</ele><time>2026-04-12T08:45:57.602Z</time></trkpt><trkpt lat="36.9868672" lon="15.0243062"><ele>410.0</ele><time>2026-04-12T08:45:58.602Z</time></trkpt><trkpt lat="36.9868698" lon="15.0241913"><ele>410.0</ele><time>2026-04-12T08:45:59.603Z</time></trkpt><trkpt lat="36.9869226" lon="15.0240716"><ele>410.0</ele><time>2026-04-12T08:46:00.603Z</time></trkpt><trkpt lat="36.9869612" lon="15.0239407"><ele>410.0</ele><time>2026-04-12T08:46:01.603Z</time></trkpt><trkpt lat="36.9869611" lon="15.0238134"><ele>410.0</ele><time>2026-04-12T08:46:02.603Z</time></trkpt><trkpt lat="36.9869282" lon="15.0236974"><ele>411.3333333333333</ele><time>2026-04-12T08:46:03.601Z</time></trkpt><trkpt lat="36.9868821" lon="15.0235928"><ele>412.66666666666663</ele><time>2026-04-12T08:46:04.602Z</time></trkpt><trkpt lat="36.9868419" lon="15.0234921"><ele>414.0</ele><time>2026-04-12T08:46:05.602Z</time></trkpt><trkpt lat="36.9868076" lon="15.0233797"><ele>415.33333333333337</ele><time>2026-04-12T08:46:06.601Z</time></trkpt><trkpt lat="36.9867857" lon="15.0233005"><ele>416.6666666666667</ele><time>2026-04-12T08:46:07.601Z</time></trkpt><trkpt lat="36.9867614" lon="15.0232143"><ele>418.0</ele><time>2026-04-12T08:46:08.602Z</time></trkpt><trkpt lat="36.9867374" lon="15.0231172"><ele>418.0</ele><time>2026-04-12T08:46:09.603Z</time></trkpt><trkpt lat="36.986721" lon="15.0230163"><ele>418.0</ele><time>2026-04-12T08:46:10.601Z</time></trkpt><trkpt lat="36.9866887" lon="15.0229224"><ele>418.0</ele><time>2026-04-12T08:46:11.599Z</time></trkpt><trkpt lat="36.9866683" lon="15.0228278"><ele>418.0</ele><time>2026-04-12T08:46:12.601Z</time></trkpt><trkpt lat="36.9866657" lon="15.022708"><ele>418.0</ele><time>2026-04-12T08:46:13.602Z</time></trkpt><trkpt lat="36.986647" lon="15.0225344"><ele>418.2857142857143</ele><time>2026-04-12T08:46:15.597Z</time></trkpt><trkpt lat="36.9866465" lon="15.0224426"><ele>418.57142857142856</ele><time>2026-04-12T08:46:16.603Z</time></trkpt><trkpt lat="36.986649" lon="15.0223594"><ele>418.8571428571429</ele><time>2026-04-12T08:46:17.601Z</time></trkpt><trkpt lat="36.9866623" lon="15.022276"><ele>419.1428571428571</ele><time>2026-04-12T08:46:18.599Z</time></trkpt><trkpt lat="36.9866846" lon="15.022196"><ele>419.42857142857144</ele><time>2026-04-12T08:46:19.602Z</time></trkpt><trkpt lat="36.9867192" lon="15.0221161"><ele>419.7142857142857</ele><time>2026-04-12T08:46:20.603Z</time></trkpt><trkpt lat="36.9867872" lon="15.0220226"><ele>420.0</ele><time>2026-04-12T08:46:21.601Z</time></trkpt><trkpt lat="36.9868714" lon="15.0219336"><ele>422.5</ele><time>2026-04-12T08:46:22.603Z</time></trkpt><trkpt lat="36.9869574" lon="15.0218431"><ele>425.0</ele><time>2026-04-12T08:46:23.602Z</time></trkpt><trkpt lat="36.9870684" lon="15.0218066"><ele>427.5</ele><time>2026-04-12T08:46:24.6Z</time></trkpt><trkpt lat="36.9871913" lon="15.0217844"><ele>430.0</ele><time>2026-04-12T08:46:25.603Z</time></trkpt><trkpt lat="36.9873276" lon="15.0217593"><ele>430.0</ele><time>2026-04-12T08:46:26.602Z</time></trkpt><trkpt lat="36.9874647" lon="15.0217205"><ele>430.0</ele><time>2026-04-12T08:46:27.602Z</time></trkpt><trkpt lat="36.9875806" lon="15.0216902"><ele>430.0</ele><time>2026-04-12T08:46:28.603Z</time></trkpt><trkpt lat="36.9876803" lon="15.021635"><ele>430.0</ele><time>2026-04-12T08:46:29.602Z</time></trkpt><trkpt lat="36.9877777" lon="15.0215681"><ele>431.0</ele><time>2026-04-12T08:46:30.603Z</time></trkpt><trkpt lat="36.9878488" lon="15.0214565"><ele>432.0</ele><time>2026-04-12T08:46:31.602Z</time></trkpt><trkpt lat="36.9879241" lon="15.0213434"><ele>433.0</ele><time>2026-04-12T08:46:32.6Z</time></trkpt><trkpt lat="36.9879485" lon="15.0212116"><ele>434.0</ele><time>2026-04-12T08:46:33.603Z</time></trkpt><trkpt lat="36.9879463" lon="15.0210666"><ele>434.0</ele><time>2026-04-12T08:46:34.602Z</time></trkpt><trkpt lat="36.9879355" lon="15.0209212"><ele>434.0</ele><time>2026-04-12T08:46:35.601Z</time></trkpt><trkpt lat="36.9879255" lon="15.0207662"><ele>434.0</ele><time>2026-04-12T08:46:36.603Z</time></trkpt><trkpt lat="36.9879212" lon="15.0206151"><ele>434.0</ele><time>2026-04-12T08:46:37.603Z</time></trkpt><trkpt lat="36.9879115" lon="15.0204612"><ele>435.0</ele><time>2026-04-12T08:46:38.6Z</time></trkpt><trkpt lat="36.9879025" lon="15.0203087"><ele>436.0</ele><time>2026-04-12T08:46:39.602Z</time></trkpt><trkpt lat="36.9879046" lon="15.0201498"><ele>437.0</ele><time>2026-04-12T08:46:40.603Z</time></trkpt><trkpt lat="36.9878944" lon="15.0199849"><ele>438.0</ele><time>2026-04-12T08:46:41.602Z</time></trkpt><trkpt lat="36.9878923" lon="15.0198348"><ele>438.4</ele><time>2026-04-12T08:46:42.603Z</time></trkpt><trkpt lat="36.9879067" lon="15.0196939"><ele>438.79999999999995</ele><time>2026-04-12T08:46:43.603Z</time></trkpt><trkpt lat="36.9879126" lon="15.0195649"><ele>439.2</ele><time>2026-04-12T08:46:44.603Z</time></trkpt><trkpt lat="36.9879169" lon="15.0194248"><ele>439.6</ele><time>2026-04-12T08:46:45.603Z</time></trkpt><trkpt lat="36.987914" lon="15.0192872"><ele>440.0</ele><time>2026-04-12T08:46:46.602Z</time></trkpt><trkpt lat="36.9879106" lon="15.0191537"><ele>440.2</ele><time>2026-04-12T08:46:47.603Z</time></trkpt><trkpt lat="36.9879033" lon="15.0190075"><ele>440.4</ele><time>2026-04-12T08:46:48.603Z</time></trkpt><trkpt lat="36.9879043" lon="15.0188666"><ele>440.6</ele><time>2026-04-12T08:46:49.6Z</time></trkpt><trkpt lat="36.987903" lon="15.0187348"><ele>440.8</ele><time>2026-04-12T08:46:50.603Z</time></trkpt><trkpt lat="36.9878917" lon="15.018608"><ele>441.0</ele><time>2026-04-12T08:46:51.602Z</time></trkpt><trkpt lat="36.9878739" lon="15.0184852"><ele>441.0</ele><time>2026-04-12T08:46:52.6Z</time></trkpt><trkpt lat="36.9878465" lon="15.0183633"><ele>441.0</ele><time>2026-04-12T08:46:53.599Z</time></trkpt><trkpt lat="36.9878102" lon="15.0182397"><ele>441.0</ele><time>2026-04-12T08:46:54.603Z</time></trkpt><trkpt lat="36.9877703" lon="15.0181189"><ele>441.0</ele><time>2026-04-12T08:46:55.602Z</time></trkpt><trkpt lat="36.9877242" lon="15.0179957"><ele>441.0</ele><time>2026-04-12T08:46:56.602Z</time></trkpt><trkpt lat="36.9876816" lon="15.0178704"><ele>440.8</ele><time>2026-04-12T08:46:57.602Z</time></trkpt><trkpt lat="36.9876316" lon="15.0177487"><ele>440.6</ele><time>2026-04-12T08:46:58.602Z</time></trkpt><trkpt lat="36.9875912" lon="15.0176186"><ele>440.4</ele><time>2026-04-12T08:46:59.601Z</time></trkpt><trkpt lat="36.9875419" lon="15.0174961"><ele>440.2</ele><time>2026-04-12T08:47:00.603Z</time></trkpt><trkpt lat="36.9874878" lon="15.017376"><ele>440.0</ele><time>2026-04-12T08:47:01.603Z</time></trkpt><trkpt lat="36.9874295" lon="15.0172593"><ele>440.0</ele><time>2026-04-12T08:47:02.6Z</time></trkpt><trkpt lat="36.9873745" lon="15.0171392"><ele>440.0</ele><time>2026-04-12T08:47:03.603Z</time></trkpt><trkpt lat="36.9873289" lon="15.0170124"><ele>440.0</ele><time>2026-04-12T08:47:04.603Z</time></trkpt><trkpt lat="36.9872864" lon="15.0168772"><ele>440.0</ele><time>2026-04-12T08:47:05.598Z</time></trkpt><trkpt lat="36.9872566" lon="15.016735"><ele>440.25</ele><time>2026-04-12T08:47:06.602Z</time></trkpt><trkpt lat="36.9872327" lon="15.0165897"><ele>440.5</ele><time>2026-04-12T08:47:07.601Z</time></trkpt><trkpt lat="36.9872195" lon="15.0164528"><ele>440.75</ele><time>2026-04-12T08:47:08.601Z</time></trkpt><trkpt lat="36.9872147" lon="15.0163111"><ele>441.0</ele><time>2026-04-12T08:47:09.603Z</time></trkpt><trkpt lat="36.9872259" lon="15.0161672"><ele>441.0</ele><time>2026-04-12T08:47:10.602Z</time></trkpt><trkpt lat="36.9872419" lon="15.0160252"><ele>441.0</ele><time>2026-04-12T08:47:11.6Z</time></trkpt><trkpt lat="36.9872616" lon="15.0158779"><ele>441.0</ele><time>2026-04-12T08:47:12.6Z</time></trkpt><trkpt lat="36.987275" lon="15.0157388"><ele>441.0</ele><time>2026-04-12T08:47:13.601Z</time></trkpt><trkpt lat="36.9872894" lon="15.0155941"><ele>441.4</ele><time>2026-04-12T08:47:14.601Z</time></trkpt><trkpt lat="36.9873021" lon="15.0154616"><ele>441.8</ele><time>2026-04-12T08:47:15.603Z</time></trkpt><trkpt lat="36.9873118" lon="15.0153418"><ele>442.19999999999993</ele><time>2026-04-12T08:47:16.602Z</time></trkpt><trkpt lat="36.9873312" lon="15.0152265"><ele>442.59999999999997</ele><time>2026-04-12T08:47:17.601Z</time></trkpt><trkpt lat="36.9873462" lon="15.0151243"><ele>443.0</ele><time>2026-04-12T08:47:18.602Z</time></trkpt><trkpt lat="36.9873746" lon="15.0150233"><ele>443.0</ele><time>2026-04-12T08:47:19.599Z</time></trkpt><trkpt lat="36.9874406" lon="15.0149369"><ele>442.99999999999994</ele><time>2026-04-12T08:47:20.601Z</time></trkpt><trkpt lat="36.9875045" lon="15.0148342"><ele>442.99999999999994</ele><time>2026-04-12T08:47:21.602Z</time></trkpt><trkpt lat="36.9875765" lon="15.0147311"><ele>443.0</ele><time>2026-04-12T08:47:22.601Z</time></trkpt><trkpt lat="36.9876496" lon="15.0146316"><ele>443.0</ele><time>2026-04-12T08:47:23.601Z</time></trkpt><trkpt lat="36.9877165" lon="15.0145228"><ele>443.4</ele><time>2026-04-12T08:47:24.601Z</time></trkpt><trkpt lat="36.9877727" lon="15.014416"><ele>443.79999999999995</ele><time>2026-04-12T08:47:25.603Z</time></trkpt><trkpt lat="36.9878029" lon="15.0143085"><ele>444.2</ele><time>2026-04-12T08:47:26.6Z</time></trkpt><trkpt lat="36.9878117" lon="15.0141731"><ele>444.6</ele><time>2026-04-12T08:47:27.599Z</time></trkpt><trkpt lat="36.9878222" lon="15.0140289"><ele>445.0</ele><time>2026-04-12T08:47:28.599Z</time></trkpt><trkpt lat="36.987827" lon="15.0138856"><ele>445.0</ele><time>2026-04-12T08:47:29.601Z</time></trkpt><trkpt lat="36.9878346" lon="15.0137494"><ele>445.0</ele><time>2026-04-12T08:47:30.602Z</time></trkpt><trkpt lat="36.9878309" lon="15.0136198"><ele>445.0</ele><time>2026-04-12T08:47:31.602Z</time></trkpt><trkpt lat="36.9878367" lon="15.0135017"><ele>445.0</ele><time>2026-04-12T08:47:32.603Z</time></trkpt><trkpt lat="36.9878404" lon="15.013382"><ele>445.0</ele><time>2026-04-12T08:47:33.6Z</time></trkpt><trkpt lat="36.9878406" lon="15.0132655"><ele>445.0</ele><time>2026-04-12T08:47:34.603Z</time></trkpt><trkpt lat="36.9878477" lon="15.0131467"><ele>445.0</ele><time>2026-04-12T08:47:35.602Z</time></trkpt><trkpt lat="36.9878566" lon="15.0130331"><ele>445.0</ele><time>2026-04-12T08:47:36.603Z</time></trkpt><trkpt lat="36.9878589" lon="15.0129104"><ele>445.0</ele><time>2026-04-12T08:47:37.602Z</time></trkpt><trkpt lat="36.9878641" lon="15.0127877"><ele>445.0</ele><time>2026-04-12T08:47:38.602Z</time></trkpt><trkpt lat="36.9878671" lon="15.0126676"><ele>445.0</ele><time>2026-04-12T08:47:39.6Z</time></trkpt><trkpt lat="36.9878716" lon="15.0125526"><ele>445.0</ele><time>2026-04-12T08:47:40.602Z</time></trkpt><trkpt lat="36.9878751" lon="15.0124491"><ele>445.0</ele><time>2026-04-12T08:47:41.602Z</time></trkpt><trkpt lat="36.9878701" lon="15.0123686"><ele>445.0</ele><time>2026-04-12T08:47:42.602Z</time></trkpt><trkpt lat="36.9878574" lon="15.0122898"><ele>445.0</ele><time>2026-04-12T08:47:43.6Z</time></trkpt><trkpt lat="36.9878375" lon="15.012214"><ele>445.0</ele><time>2026-04-12T08:47:44.602Z</time></trkpt><trkpt lat="36.9878083" lon="15.0121362"><ele>445.0</ele><time>2026-04-12T08:47:45.603Z</time></trkpt><trkpt lat="36.9877718" lon="15.0120682"><ele>445.57142857142856</ele><time>2026-04-12T08:47:46.603Z</time></trkpt><trkpt lat="36.9877301" lon="15.012003"><ele>446.1428571428571</ele><time>2026-04-12T08:47:47.603Z</time></trkpt><trkpt lat="36.9876924" lon="15.0119327"><ele>446.71428571428567</ele><time>2026-04-12T08:47:48.602Z</time></trkpt><trkpt lat="36.9876495" lon="15.0118536"><ele>447.2857142857143</ele><time>2026-04-12T08:47:49.6Z</time></trkpt><trkpt lat="36.9876025" lon="15.0117731"><ele>447.8571428571428</ele><time>2026-04-12T08:47:50.6Z</time></trkpt><trkpt lat="36.9875591" lon="15.0116948"><ele>448.4285714285714</ele><time>2026-04-12T08:47:51.603Z</time></trkpt><trkpt lat="36.9875143" lon="15.0116185"><ele>449.0</ele><time>2026-04-12T08:47:52.602Z</time></trkpt><trkpt lat="36.9874715" lon="15.0115324"><ele>449.66666666666663</ele><time>2026-04-12T08:47:53.603Z</time></trkpt><trkpt lat="36.9873944" lon="15.0113922"><ele>450.3333333333333</ele><time>2026-04-12T08:47:55.602Z</time></trkpt><trkpt lat="36.9873537" lon="15.0113171"><ele>451.0</ele><time>2026-04-12T08:47:56.602Z</time></trkpt><trkpt lat="36.9873097" lon="15.0112395"><ele>451.66666666666663</ele><time>2026-04-12T08:47:57.601Z</time></trkpt><trkpt lat="36.9872646" lon="15.0111633"><ele>452.3333333333333</ele><time>2026-04-12T08:47:58.601Z</time></trkpt><trkpt lat="36.9872179" lon="15.0110867"><ele>453.0</ele><time>2026-04-12T08:47:59.603Z</time></trkpt><trkpt lat="36.9871633" lon="15.0109985"><ele>453.0</ele><time>2026-04-12T08:48:00.601Z</time></trkpt><trkpt lat="36.9871122" lon="15.0108881"><ele>452.99999999999994</ele><time>2026-04-12T08:48:01.601Z</time></trkpt><trkpt lat="36.9870707" lon="15.0107945"><ele>452.99999999999994</ele><time>2026-04-12T08:48:02.6Z</time></trkpt><trkpt lat="36.9870244" lon="15.0106915"><ele>453.0</ele><time>2026-04-12T08:48:03.602Z</time></trkpt><trkpt lat="36.9869639" lon="15.0105979"><ele>453.0</ele><time>2026-04-12T08:48:04.603Z</time></trkpt><trkpt lat="36.9869045" lon="15.0105016"><ele>453.4</ele><time>2026-04-12T08:48:05.603Z</time></trkpt><trkpt lat="36.9868453" lon="15.0104022"><ele>453.79999999999995</ele><time>2026-04-12T08:48:06.601Z</time></trkpt><trkpt lat="36.9867822" lon="15.0102917"><ele>454.2</ele><time>2026-04-12T08:48:07.602Z</time></trkpt><trkpt lat="36.986723" lon="15.010179"><ele>454.6</ele><time>2026-04-12T08:48:08.602Z</time></trkpt><trkpt lat="36.9866729" lon="15.0100804"><ele>455.0</ele><time>2026-04-12T08:48:09.601Z</time></trkpt><trkpt lat="36.9866272" lon="15.0100012"><ele>455.6</ele><time>2026-04-12T08:48:10.603Z</time></trkpt><trkpt lat="36.9866038" lon="15.0098509"><ele>456.2</ele><time>2026-04-12T08:48:12.603Z</time></trkpt><trkpt lat="36.9866312" lon="15.0097449"><ele>456.79999999999995</ele><time>2026-04-12T08:48:13.602Z</time></trkpt><trkpt lat="36.986667" lon="15.0096213"><ele>457.4</ele><time>2026-04-12T08:48:14.602Z</time></trkpt><trkpt lat="36.986712" lon="15.009495"><ele>458.0</ele><time>2026-04-12T08:48:15.603Z</time></trkpt><trkpt lat="36.9867541" lon="15.0093748"><ele>458.0</ele><time>2026-04-12T08:48:16.603Z</time></trkpt><trkpt lat="36.9867933" lon="15.0092536"><ele>457.99999999999994</ele><time>2026-04-12T08:48:17.599Z</time></trkpt><trkpt lat="36.986823" lon="15.0091343"><ele>457.99999999999994</ele><time>2026-04-12T08:48:18.602Z</time></trkpt><trkpt lat="36.9868253" lon="15.009037"><ele>458.0</ele><time>2026-04-12T08:48:19.599Z</time></trkpt><trkpt lat="36.9867996" lon="15.0089098"><ele>458.0</ele><time>2026-04-12T08:48:21.601Z</time></trkpt><trkpt lat="36.9867824" lon="15.0088119"><ele>458.0</ele><time>2026-04-12T08:48:23.598Z</time></trkpt><trkpt lat="36.9868125" lon="15.0086865"><ele>457.99999999999994</ele><time>2026-04-12T08:48:25.602Z</time></trkpt><trkpt lat="36.9868554" lon="15.0085952"><ele>457.99999999999994</ele><time>2026-04-12T08:48:27.602Z</time></trkpt><trkpt lat="36.9869103" lon="15.0084455"><ele>458.0</ele><time>2026-04-12T08:48:29.602Z</time></trkpt><trkpt lat="36.9869965" lon="15.0083734"><ele>458.0</ele><time>2026-04-12T08:48:30.601Z</time></trkpt><trkpt lat="36.9870858" lon="15.0082939"><ele>458.5</ele><time>2026-04-12T08:48:31.601Z</time></trkpt><trkpt lat="36.9872012" lon="15.0081859"><ele>459.0</ele><time>2026-04-12T08:48:32.602Z</time></trkpt><trkpt lat="36.9873011" lon="15.0080836"><ele>459.5</ele><time>2026-04-12T08:48:33.601Z</time></trkpt><trkpt lat="36.9874105" lon="15.0080079"><ele>460.0</ele><time>2026-04-12T08:48:34.603Z</time></trkpt><trkpt lat="36.9875303" lon="15.0078945"><ele>460.0</ele><time>2026-04-12T08:48:35.602Z</time></trkpt><trkpt lat="36.9876635" lon="15.0077726"><ele>460.0</ele><time>2026-04-12T08:48:36.602Z</time></trkpt><trkpt lat="36.987792" lon="15.0076465"><ele>460.0</ele><time>2026-04-12T08:48:37.602Z</time></trkpt><trkpt lat="36.9878962" lon="15.0075431"><ele>458.6666666666667</ele><time>2026-04-12T08:48:38.599Z</time></trkpt><trkpt lat="36.9879835" lon="15.0074695"><ele>457.33333333333337</ele><time>2026-04-12T08:48:39.602Z</time></trkpt><trkpt lat="36.9880435" lon="15.0074082"><ele>456.0</ele><time>2026-04-12T08:48:40.603Z</time></trkpt><trkpt lat="36.9880836" lon="15.0073257"><ele>454.66666666666663</ele><time>2026-04-12T08:48:41.598Z</time></trkpt><trkpt lat="36.988103" lon="15.0072145"><ele>453.3333333333333</ele><time>2026-04-12T08:48:42.603Z</time></trkpt><trkpt lat="36.9881078" lon="15.0070942"><ele>452.0</ele><time>2026-04-12T08:48:43.602Z</time></trkpt><trkpt lat="36.988095" lon="15.0070009"><ele>452.0</ele><time>2026-04-12T08:48:44.601Z</time></trkpt><trkpt lat="36.9880604" lon="15.0069263"><ele>452.00000000000006</ele><time>2026-04-12T08:48:45.601Z</time></trkpt><trkpt lat="36.9880156" lon="15.0068571"><ele>452.00000000000006</ele><time>2026-04-12T08:48:46.603Z</time></trkpt><trkpt lat="36.9879356" lon="15.006759"><ele>452.0</ele><time>2026-04-12T08:48:48.602Z</time></trkpt><trkpt lat="36.9878568" lon="15.0066326"><ele>452.0</ele><time>2026-04-12T08:48:50.602Z</time></trkpt><trkpt lat="36.9878233" lon="15.0065487"><ele>452.20000000000005</ele><time>2026-04-12T08:48:51.602Z</time></trkpt><trkpt lat="36.9877847" lon="15.0064452"><ele>452.40000000000003</ele><time>2026-04-12T08:48:52.6Z</time></trkpt><trkpt lat="36.9877477" lon="15.0063357"><ele>452.59999999999997</ele><time>2026-04-12T08:48:53.602Z</time></trkpt><trkpt lat="36.9877084" lon="15.0062069"><ele>452.79999999999995</ele><time>2026-04-12T08:48:54.602Z</time></trkpt><trkpt lat="36.9876783" lon="15.0060744"><ele>453.0</ele><time>2026-04-12T08:48:55.602Z</time></trkpt><trkpt lat="36.9876409" lon="15.0059703"><ele>453.0</ele><time>2026-04-12T08:48:56.602Z</time></trkpt><trkpt lat="36.9875831" lon="15.0059067"><ele>453.0</ele><time>2026-04-12T08:48:57.603Z</time></trkpt><trkpt lat="36.9875141" lon="15.0058433"><ele>453.0</ele><time>2026-04-12T08:48:58.6Z</time></trkpt><trkpt lat="36.9874451" lon="15.0057924"><ele>453.0</ele><time>2026-04-12T08:48:59.6Z</time></trkpt><trkpt lat="36.9873795" lon="15.0057544"><ele>453.0</ele><time>2026-04-12T08:49:00.603Z</time></trkpt><trkpt lat="36.9873001" lon="15.0056984"><ele>453.0</ele><time>2026-04-12T08:49:02.602Z</time></trkpt><trkpt lat="36.9872093" lon="15.0056614"><ele>452.6666666666667</ele><time>2026-04-12T08:49:04.602Z</time></trkpt><trkpt lat="36.987122" lon="15.0056038"><ele>452.33333333333337</ele><time>2026-04-12T08:49:06.602Z</time></trkpt><trkpt lat="36.9870567" lon="15.0055144"><ele>452.0</ele><time>2026-04-12T08:49:08.6Z</time></trkpt><trkpt lat="36.9869886" lon="15.0054556"><ele>451.6666666666667</ele><time>2026-04-12T08:49:10.602Z</time></trkpt><trkpt lat="36.9869289" lon="15.0054132"><ele>451.33333333333337</ele><time>2026-04-12T08:49:11.601Z</time></trkpt><trkpt lat="36.9868752" lon="15.0053688"><ele>451.0</ele><time>2026-04-12T08:49:12.602Z</time></trkpt><trkpt lat="36.9867764" lon="15.0053006"><ele>451.00000000000006</ele><time>2026-04-12T08:49:14.603Z</time></trkpt><trkpt lat="36.9867353" lon="15.0052229"><ele>451.0</ele><time>2026-04-12T08:49:19.602Z</time></trkpt><trkpt lat="36.9867452" lon="15.0051343"><ele>451.0</ele><time>2026-04-12T08:49:22.599Z</time></trkpt><trkpt lat="36.9867503" lon="15.0050312"><ele>451.0</ele><time>2026-04-12T08:49:26.601Z</time></trkpt><trkpt lat="36.9868477" lon="15.0050077"><ele>451.00000000000006</ele><time>2026-04-12T08:49:28.599Z</time></trkpt><trkpt lat="36.9869652" lon="15.0050122"><ele>451.0</ele><time>2026-04-12T08:49:30.602Z</time></trkpt><trkpt lat="36.9870627" lon="15.0049867"><ele>452.1666666666667</ele><time>2026-04-12T08:49:32.599Z</time></trkpt><trkpt lat="36.9871268" lon="15.0049323"><ele>453.33333333333337</ele><time>2026-04-12T08:49:34.603Z</time></trkpt><trkpt lat="36.9872118" lon="15.0048799"><ele>454.5</ele><time>2026-04-12T08:49:36.602Z</time></trkpt><trkpt lat="36.9872731" lon="15.0048223"><ele>455.66666666666663</ele><time>2026-04-12T08:49:38.603Z</time></trkpt><trkpt lat="36.9873064" lon="15.0047261"><ele>456.8333333333333</ele><time>2026-04-12T08:49:41.602Z</time></trkpt><trkpt lat="36.9873142" lon="15.0046142"><ele>458.0</ele><time>2026-04-12T08:49:44.602Z</time></trkpt><trkpt lat="36.987275" lon="15.0045135"><ele>457.99999999999994</ele><time>2026-04-12T08:49:47.6Z</time></trkpt><trkpt lat="36.9872888" lon="15.004411"><ele>458.0</ele><time>2026-04-12T08:49:50.602Z</time></trkpt><trkpt lat="36.9873114" lon="15.004306"><ele>458.0</ele><time>2026-04-12T08:49:53.601Z</time></trkpt><trkpt lat="36.9873158" lon="15.0042221"><ele>458.0</ele><time>2026-04-12T08:49:55.602Z</time></trkpt><trkpt lat="36.9872991" lon="15.0041416"><ele>457.99999999999994</ele><time>2026-04-12T08:49:57.597Z</time></trkpt><trkpt lat="36.987268" lon="15.0040397"><ele>458.0</ele><time>2026-04-12T08:49:59.601Z</time></trkpt><trkpt lat="36.9872502" lon="15.0039581"><ele>459.16666666666663</ele><time>2026-04-12T08:50:01.603Z</time></trkpt><trkpt lat="36.9873018" lon="15.003858"><ele>460.3333333333333</ele><time>2026-04-12T08:50:03.603Z</time></trkpt><trkpt lat="36.987359" lon="15.0037551"><ele>461.5</ele><time>2026-04-12T08:50:05.602Z</time></trkpt><trkpt lat="36.9873741" lon="15.0036736"><ele>462.66666666666663</ele><time>2026-04-12T08:50:07.602Z</time></trkpt><trkpt lat="36.9873574" lon="15.0035972"><ele>463.8333333333333</ele><time>2026-04-12T08:50:09.598Z</time></trkpt><trkpt lat="36.9873626" lon="15.0034891"><ele>465.0</ele><time>2026-04-12T08:50:11.603Z</time></trkpt><trkpt lat="36.9873937" lon="15.0033861"><ele>465.8333333333333</ele><time>2026-04-12T08:50:13.603Z</time></trkpt><trkpt lat="36.9873934" lon="15.0033049"><ele>466.66666666666663</ele><time>2026-04-12T08:50:15.602Z</time></trkpt><trkpt lat="36.9873995" lon="15.0032063"><ele>467.5</ele><time>2026-04-12T08:50:16.599Z</time></trkpt><trkpt lat="36.9874064" lon="15.0031254"><ele>468.3333333333333</ele><time>2026-04-12T08:50:17.602Z</time></trkpt><trkpt lat="36.9874281" lon="15.0030245"><ele>469.16666666666663</ele><time>2026-04-12T08:50:19.599Z</time></trkpt><trkpt lat="36.9874203" lon="15.0029101"><ele>470.0</ele><time>2026-04-12T08:50:21.599Z</time></trkpt><trkpt lat="36.9874441" lon="15.0027839"><ele>469.99999999999994</ele><time>2026-04-12T08:50:23.599Z</time></trkpt><trkpt lat="36.9874509" lon="15.0027044"><ele>470.0</ele><time>2026-04-12T08:50:24.602Z</time></trkpt><trkpt lat="36.987456" lon="15.002618"><ele>470.0</ele><time>2026-04-12T08:50:25.602Z</time></trkpt><trkpt lat="36.9874701" lon="15.0025374"><ele>470.0</ele><time>2026-04-12T08:50:26.599Z</time></trkpt><trkpt lat="36.9874772" lon="15.0024272"><ele>469.99999999999994</ele><time>2026-04-12T08:50:28.602Z</time></trkpt><trkpt lat="36.9875059" lon="15.0022806"><ele>470.0</ele><time>2026-04-12T08:50:30.602Z</time></trkpt><trkpt lat="36.9875226" lon="15.0022029"><ele>470.2</ele><time>2026-04-12T08:50:31.603Z</time></trkpt><trkpt lat="36.9875445" lon="15.0020682"><ele>470.4</ele><time>2026-04-12T08:50:33.601Z</time></trkpt><trkpt lat="36.987563" lon="15.001925"><ele>470.6</ele><time>2026-04-12T08:50:35.601Z</time></trkpt><trkpt lat="36.9875762" lon="15.0018453"><ele>470.8</ele><time>2026-04-12T08:50:36.603Z</time></trkpt><trkpt lat="36.9875964" lon="15.0017631"><ele>471.0</ele><time>2026-04-12T08:50:37.602Z</time></trkpt><trkpt lat="36.9876118" lon="15.0016058"><ele>471.0</ele><time>2026-04-12T08:50:39.602Z</time></trkpt><trkpt lat="36.9876215" lon="15.0015218"><ele>471.0</ele><time>2026-04-12T08:50:40.602Z</time></trkpt><trkpt lat="36.9876374" lon="15.0014324"><ele>471.0</ele><time>2026-04-12T08:50:41.602Z</time></trkpt><trkpt lat="36.9876528" lon="15.0013488"><ele>471.0</ele><time>2026-04-12T08:50:42.602Z</time></trkpt><trkpt lat="36.9876844" lon="15.0012009"><ele>471.0</ele><time>2026-04-12T08:50:44.602Z</time></trkpt><trkpt lat="36.9877248" lon="15.0010769"><ele>471.0</ele><time>2026-04-12T08:50:45.601Z</time></trkpt><trkpt lat="36.9877615" lon="15.0009571"><ele>471.0</ele><time>2026-04-12T08:50:46.603Z</time></trkpt><trkpt lat="36.9877908" lon="15.0008529"><ele>471.0</ele><time>2026-04-12T08:50:47.603Z</time></trkpt><trkpt lat="36.9878168" lon="15.0007637"><ele>471.0</ele><time>2026-04-12T08:50:48.602Z</time></trkpt><trkpt lat="36.9878514" lon="15.0006273"><ele>471.0</ele><time>2026-04-12T08:50:50.6Z</time></trkpt><trkpt lat="36.9878712" lon="15.0005162"><ele>471.0</ele><time>2026-04-12T08:50:52.602Z</time></trkpt><trkpt lat="36.9879647" lon="15.0003658"><ele>472.3333333333333</ele><time>2026-04-12T08:50:54.6Z</time></trkpt><trkpt lat="36.9880088" lon="15.0002759"><ele>473.66666666666663</ele><time>2026-04-12T08:50:55.603Z</time></trkpt><trkpt lat="36.9880531" lon="15.0001917"><ele>475.0</ele><time>2026-04-12T08:50:56.601Z</time></trkpt><trkpt lat="36.9880871" lon="15.000104"><ele>476.3333333333333</ele><time>2026-04-12T08:50:57.602Z</time></trkpt><trkpt lat="36.9881233" lon="15.0000305"><ele>477.66666666666663</ele><time>2026-04-12T08:50:58.602Z</time></trkpt><trkpt lat="36.988164" lon="14.9999683"><ele>479.0</ele><time>2026-04-12T08:50:59.603Z</time></trkpt><trkpt lat="36.9882231" lon="14.9998297"><ele>479.0</ele><time>2026-04-12T08:51:01.601Z</time></trkpt><trkpt lat="36.9882653" lon="14.9997485"><ele>479.0</ele><time>2026-04-12T08:51:02.602Z</time></trkpt><trkpt lat="36.9882964" lon="14.9996697"><ele>479.0</ele><time>2026-04-12T08:51:03.6Z</time></trkpt><trkpt lat="36.9883289" lon="14.9995895"><ele>479.0</ele><time>2026-04-12T08:51:04.602Z</time></trkpt><trkpt lat="36.9883619" lon="14.9995179"><ele>479.0</ele><time>2026-04-12T08:51:05.602Z</time></trkpt><trkpt lat="36.9883999" lon="14.9994313"><ele>479.0</ele><time>2026-04-12T08:51:06.602Z</time></trkpt><trkpt lat="36.9884426" lon="14.9993605"><ele>479.0</ele><time>2026-04-12T08:51:07.601Z</time></trkpt><trkpt lat="36.9884818" lon="14.9992809"><ele>477.8333333333333</ele><time>2026-04-12T08:51:08.601Z</time></trkpt><trkpt lat="36.9885147" lon="14.9992073"><ele>476.66666666666663</ele><time>2026-04-12T08:51:09.602Z</time></trkpt><trkpt lat="36.9885498" lon="14.9991259"><ele>475.5</ele><time>2026-04-12T08:51:10.602Z</time></trkpt><trkpt lat="36.9886059" lon="14.9989884"><ele>474.33333333333337</ele><time>2026-04-12T08:51:12.6Z</time></trkpt><trkpt lat="36.9886172" lon="14.9988469"><ele>473.1666666666667</ele><time>2026-04-12T08:51:14.603Z</time></trkpt><trkpt lat="36.9886149" lon="14.9987579"><ele>472.0</ele><time>2026-04-12T08:51:15.602Z</time></trkpt><trkpt lat="36.988611" lon="14.9986687"><ele>472.0</ele><time>2026-04-12T08:51:16.603Z</time></trkpt><trkpt lat="36.9886005" lon="14.9985704"><ele>472.0</ele><time>2026-04-12T08:51:17.601Z</time></trkpt><trkpt lat="36.9885851" lon="14.9984748"><ele>472.0</ele><time>2026-04-12T08:51:18.601Z</time></trkpt><trkpt lat="36.9885691" lon="14.9983798"><ele>472.0</ele><time>2026-04-12T08:51:19.602Z</time></trkpt><trkpt lat="36.9885482" lon="14.9982997"><ele>472.0</ele><time>2026-04-12T08:51:20.6Z</time></trkpt><trkpt lat="36.9885312" lon="14.9982106"><ele>472.0</ele><time>2026-04-12T08:51:21.602Z</time></trkpt><trkpt lat="36.9885224" lon="14.9981321"><ele>472.0</ele><time>2026-04-12T08:51:22.602Z</time></trkpt><trkpt lat="36.9885116" lon="14.9980439"><ele>473.00000000000006</ele><time>2026-04-12T08:51:23.6Z</time></trkpt><trkpt lat="36.9885239" lon="14.997954"><ele>474.0</ele><time>2026-04-12T08:51:24.598Z</time></trkpt><trkpt lat="36.98853" lon="14.9978675"><ele>475.0</ele><time>2026-04-12T08:51:25.602Z</time></trkpt><trkpt lat="36.9885493" lon="14.9977021"><ele>476.0</ele><time>2026-04-12T08:51:27.603Z</time></trkpt><trkpt lat="36.988573" lon="14.997615"><ele>477.00000000000006</ele><time>2026-04-12T08:51:28.599Z</time></trkpt><trkpt lat="36.9885971" lon="14.9975258"><ele>478.0</ele><time>2026-04-12T08:51:29.598Z</time></trkpt><trkpt lat="36.9886252" lon="14.9974332"><ele>479.00000000000006</ele><time>2026-04-12T08:51:30.603Z</time></trkpt><trkpt lat="36.9886656" lon="14.9973407"><ele>480.0</ele><time>2026-04-12T08:51:31.601Z</time></trkpt><trkpt lat="36.9887139" lon="14.9972634"><ele>481.0</ele><time>2026-04-12T08:51:32.602Z</time></trkpt><trkpt lat="36.9887547" lon="14.9971982"><ele>482.0</ele><time>2026-04-12T08:51:33.602Z</time></trkpt><trkpt lat="36.9888125" lon="14.9971272"><ele>483.00000000000006</ele><time>2026-04-12T08:51:35.601Z</time></trkpt><trkpt lat="36.9888814" lon="14.9970666"><ele>484.0</ele><time>2026-04-12T08:56:47.599Z</time></trkpt><trkpt lat="36.988934" lon="14.9969893"><ele>484.0</ele><time>2026-04-12T08:56:49.599Z</time></trkpt><trkpt lat="36.9890158" lon="14.9968674"><ele>484.0</ele><time>2026-04-12T08:56:51.601Z</time></trkpt><trkpt lat="36.9890758" lon="14.9967899"><ele>484.0</ele><time>2026-04-12T08:56:52.603Z</time></trkpt><trkpt lat="36.9891345" lon="14.9967167"><ele>484.0</ele><time>2026-04-12T08:56:53.602Z</time></trkpt><trkpt lat="36.9891955" lon="14.9966337"><ele>484.0</ele><time>2026-04-12T08:56:54.603Z</time></trkpt><trkpt lat="36.9892746" lon="14.9965515"><ele>485.4</ele><time>2026-04-12T08:56:55.598Z</time></trkpt><trkpt lat="36.9893499" lon="14.9964607"><ele>486.79999999999995</ele><time>2026-04-12T08:56:56.598Z</time></trkpt><trkpt lat="36.9894219" lon="14.9963648"><ele>488.20000000000005</ele><time>2026-04-12T08:56:57.599Z</time></trkpt><trkpt lat="36.9895007" lon="14.9962676"><ele>489.6</ele><time>2026-04-12T08:56:58.6Z</time></trkpt><trkpt lat="36.9895881" lon="14.9961663"><ele>491.0</ele><time>2026-04-12T08:56:59.6Z</time></trkpt><trkpt lat="36.9896905" lon="14.996036"><ele>491.0</ele><time>2026-04-12T08:57:00.599Z</time></trkpt><trkpt lat="36.9898121" lon="14.9958853"><ele>491.0</ele><time>2026-04-12T08:57:01.599Z</time></trkpt><trkpt lat="36.9899473" lon="14.995719"><ele>491.0</ele><time>2026-04-12T08:57:02.6Z</time></trkpt><trkpt lat="36.9900991" lon="14.9955514"><ele>495.0</ele><time>2026-04-12T08:57:03.603Z</time></trkpt><trkpt lat="36.99022" lon="14.9953992"><ele>499.0</ele><time>2026-04-12T08:57:04.601Z</time></trkpt><trkpt lat="36.9903359" lon="14.9952658"><ele>503.0</ele><time>2026-04-12T08:57:05.599Z</time></trkpt><trkpt lat="36.9904323" lon="14.9951561"><ele>503.0</ele><time>2026-04-12T08:57:06.6Z</time></trkpt><trkpt lat="36.9905115" lon="14.9950639"><ele>503.0</ele><time>2026-04-12T08:57:07.599Z</time></trkpt><trkpt lat="36.9905631" lon="14.9949451"><ele>503.0</ele><time>2026-04-12T08:57:08.599Z</time></trkpt><trkpt lat="36.9905859" lon="14.9947998"><ele>503.0</ele><time>2026-04-12T08:57:09.6Z</time></trkpt><trkpt lat="36.990623" lon="14.9946587"><ele>504.66666666666663</ele><time>2026-04-12T08:57:10.603Z</time></trkpt><trkpt lat="36.9906914" lon="14.99451"><ele>506.33333333333337</ele><time>2026-04-12T08:57:11.602Z</time></trkpt><trkpt lat="36.9907824" lon="14.9943376"><ele>508.0</ele><time>2026-04-12T08:57:12.598Z</time></trkpt><trkpt lat="36.9908785" lon="14.9941692"><ele>509.0</ele><time>2026-04-12T08:57:13.603Z</time></trkpt><trkpt lat="36.9909738" lon="14.9939983"><ele>510.0</ele><time>2026-04-12T08:57:14.602Z</time></trkpt><trkpt lat="36.9910674" lon="14.9938321"><ele>511.0</ele><time>2026-04-12T08:57:15.6Z</time></trkpt><trkpt lat="36.9911607" lon="14.9936579"><ele>511.0</ele><time>2026-04-12T08:57:16.602Z</time></trkpt><trkpt lat="36.9912674" lon="14.9934725"><ele>511.0</ele><time>2026-04-12T08:57:17.603Z</time></trkpt><trkpt lat="36.9913673" lon="14.9932936"><ele>511.0</ele><time>2026-04-12T08:57:18.602Z</time></trkpt><trkpt lat="36.9914717" lon="14.993112"><ele>511.33333333333337</ele><time>2026-04-12T08:57:19.598Z</time></trkpt><trkpt lat="36.9915628" lon="14.9929477"><ele>511.66666666666663</ele><time>2026-04-12T08:57:20.598Z</time></trkpt><trkpt lat="36.9916563" lon="14.992791"><ele>512.0</ele><time>2026-04-12T08:57:21.601Z</time></trkpt><trkpt lat="36.9917376" lon="14.9926483"><ele>512.0</ele><time>2026-04-12T08:57:22.601Z</time></trkpt><trkpt lat="36.9918169" lon="14.9925093"><ele>512.0</ele><time>2026-04-12T08:57:23.597Z</time></trkpt><trkpt lat="36.9918983" lon="14.9923668"><ele>512.0</ele><time>2026-04-12T08:57:24.598Z</time></trkpt><trkpt lat="36.9919832" lon="14.9922235"><ele>512.0</ele><time>2026-04-12T08:57:25.601Z</time></trkpt><trkpt lat="36.9920748" lon="14.992083"><ele>512.5</ele><time>2026-04-12T08:57:26.602Z</time></trkpt><trkpt lat="36.9921691" lon="14.9919444"><ele>513.0</ele><time>2026-04-12T08:57:27.6Z</time></trkpt><trkpt lat="36.9922749" lon="14.9918128"><ele>513.5</ele><time>2026-04-12T08:57:28.601Z</time></trkpt><trkpt lat="36.9923815" lon="14.9916929"><ele>514.0</ele><time>2026-04-12T08:57:29.601Z</time></trkpt><trkpt lat="36.9924925" lon="14.9915744"><ele>513.75</ele><time>2026-04-12T08:57:30.601Z</time></trkpt><trkpt lat="36.9926101" lon="14.9914538"><ele>513.5</ele><time>2026-04-12T08:57:31.598Z</time></trkpt><trkpt lat="36.9927268" lon="14.99134"><ele>513.25</ele><time>2026-04-12T08:57:32.601Z</time></trkpt><trkpt lat="36.9928448" lon="14.9912308"><ele>513.0</ele><time>2026-04-12T08:57:33.602Z</time></trkpt><trkpt lat="36.9929573" lon="14.9911198"><ele>513.0</ele><time>2026-04-12T08:57:34.599Z</time></trkpt><trkpt lat="36.9930686" lon="14.9910078"><ele>513.0</ele><time>2026-04-12T08:57:35.603Z</time></trkpt><trkpt lat="36.9931823" lon="14.9908972"><ele>513.0</ele><time>2026-04-12T08:57:36.6Z</time></trkpt><trkpt lat="36.993297" lon="14.9907853"><ele>513.0</ele><time>2026-04-12T08:57:37.598Z</time></trkpt><trkpt lat="36.9934066" lon="14.9906788"><ele>514.0</ele><time>2026-04-12T08:57:38.6Z</time></trkpt><trkpt lat="36.9935105" lon="14.9905784"><ele>515.0</ele><time>2026-04-12T08:57:39.6Z</time></trkpt><trkpt lat="36.9935832" lon="14.9905041"><ele>516.0</ele><time>2026-04-12T08:57:40.6Z</time></trkpt><trkpt lat="36.9936518" lon="14.9904489"><ele>517.0</ele><time>2026-04-12T08:57:41.601Z</time></trkpt><trkpt lat="36.9937386" lon="14.9905161"><ele>518.0</ele><time>2026-04-12T08:57:43.601Z</time></trkpt><trkpt lat="36.9938171" lon="14.9906074"><ele>518.0</ele><time>2026-04-12T08:57:44.6Z</time></trkpt><trkpt lat="36.9938911" lon="14.9906766"><ele>518.0</ele><time>2026-04-12T08:57:45.6Z</time></trkpt><trkpt lat="36.9939737" lon="14.990716"><ele>518.0</ele><time>2026-04-12T08:57:46.601Z</time></trkpt><trkpt lat="36.9940596" lon="14.9907123"><ele>518.0</ele><time>2026-04-12T08:57:47.602Z</time></trkpt><trkpt lat="36.9941381" lon="14.9906922"><ele>518.0</ele><time>2026-04-12T08:57:48.601Z</time></trkpt><trkpt lat="36.9942086" lon="14.9906386"><ele>518.0</ele><time>2026-04-12T08:57:49.601Z</time></trkpt><trkpt lat="36.994282" lon="14.9905507"><ele>517.4</ele><time>2026-04-12T08:57:50.602Z</time></trkpt><trkpt lat="36.9943512" lon="14.9904647"><ele>516.8</ele><time>2026-04-12T08:57:51.603Z</time></trkpt><trkpt lat="36.9944195" lon="14.9903859"><ele>516.2</ele><time>2026-04-12T08:57:52.601Z</time></trkpt><trkpt lat="36.9944747" lon="14.9903184"><ele>515.6</ele><time>2026-04-12T08:57:53.599Z</time></trkpt><trkpt lat="36.9945496" lon="14.9902338"><ele>515.0</ele><time>2026-04-12T08:57:55.603Z</time></trkpt><trkpt lat="36.9945603" lon="14.9901106"><ele>515.0</ele><time>2026-04-12T08:57:58.602Z</time></trkpt><trkpt lat="36.9945319" lon="14.9900157"><ele>515.0</ele><time>2026-04-12T08:57:59.603Z</time></trkpt><trkpt lat="36.9944901" lon="14.9898949"><ele>515.0</ele><time>2026-04-12T08:58:00.601Z</time></trkpt><trkpt lat="36.9944384" lon="14.989735"><ele>515.0</ele><time>2026-04-12T08:58:01.599Z</time></trkpt><trkpt lat="36.9943676" lon="14.9894679"><ele>517.0</ele><time>2026-04-12T08:58:02.602Z</time></trkpt><trkpt lat="36.9943091" lon="14.9892069"><ele>519.0</ele><time>2026-04-12T08:58:03.602Z</time></trkpt><trkpt lat="36.9942471" lon="14.9889659"><ele>521.0</ele><time>2026-04-12T08:58:04.601Z</time></trkpt><trkpt lat="36.9941477" lon="14.9887144"><ele>521.6666666666666</ele><time>2026-04-12T08:58:05.602Z</time></trkpt><trkpt lat="36.9940403" lon="14.9884799"><ele>522.3333333333334</ele><time>2026-04-12T08:58:06.6Z</time></trkpt><trkpt lat="36.9939228" lon="14.9882703"><ele>523.0</ele><time>2026-04-12T08:58:07.599Z</time></trkpt><trkpt lat="36.9937976" lon="14.9880776"><ele>521.6666666666667</ele><time>2026-04-12T08:58:08.599Z</time></trkpt><trkpt lat="36.9936872" lon="14.9878876"><ele>520.3333333333334</ele><time>2026-04-12T08:58:09.601Z</time></trkpt><trkpt lat="36.9935736" lon="14.9877032"><ele>519.0</ele><time>2026-04-12T08:58:10.599Z</time></trkpt><trkpt lat="36.9934551" lon="14.9875125"><ele>519.3333333333334</ele><time>2026-04-12T08:58:11.603Z</time></trkpt><trkpt lat="36.9933514" lon="14.9873437"><ele>519.6666666666667</ele><time>2026-04-12T08:58:12.6Z</time></trkpt><trkpt lat="36.9932449" lon="14.987184"><ele>520.0</ele><time>2026-04-12T08:58:13.599Z</time></trkpt><trkpt lat="36.9931429" lon="14.9870229"><ele>520.0</ele><time>2026-04-12T08:58:14.597Z</time></trkpt><trkpt lat="36.9930521" lon="14.9868606"><ele>520.0</ele><time>2026-04-12T08:58:15.6Z</time></trkpt><trkpt lat="36.9929869" lon="14.9867015"><ele>520.0</ele><time>2026-04-12T08:58:16.597Z</time></trkpt><trkpt lat="36.9929418" lon="14.9865357"><ele>520.0</ele><time>2026-04-12T08:58:17.6Z</time></trkpt><trkpt lat="36.9929295" lon="14.9863526"><ele>518.25</ele><time>2026-04-12T08:58:18.599Z</time></trkpt><trkpt lat="36.9929402" lon="14.9861666"><ele>516.5</ele><time>2026-04-12T08:58:19.597Z</time></trkpt><trkpt lat="36.9929643" lon="14.9859825"><ele>514.75</ele><time>2026-04-12T08:58:20.602Z</time></trkpt><trkpt lat="36.9929858" lon="14.9857986"><ele>513.0</ele><time>2026-04-12T08:58:21.603Z</time></trkpt><trkpt lat="36.9930064" lon="14.9856207"><ele>513.0</ele><time>2026-04-12T08:58:22.598Z</time></trkpt><trkpt lat="36.9930096" lon="14.9854496"><ele>513.0</ele><time>2026-04-12T08:58:23.602Z</time></trkpt><trkpt lat="36.9929692" lon="14.9853418"><ele>513.0</ele><time>2026-04-12T08:58:24.601Z</time></trkpt><trkpt lat="36.9929122" lon="14.9852402"><ele>513.0</ele><time>2026-04-12T08:58:25.601Z</time></trkpt><trkpt lat="36.9928404" lon="14.9851547"><ele>513.0</ele><time>2026-04-12T08:58:26.6Z</time></trkpt><trkpt lat="36.9927632" lon="14.9850783"><ele>513.8333333333334</ele><time>2026-04-12T08:58:27.599Z</time></trkpt><trkpt lat="36.9927146" lon="14.9849971"><ele>514.6666666666666</ele><time>2026-04-12T08:58:28.598Z</time></trkpt><trkpt lat="36.9927414" lon="14.9848683"><ele>515.5</ele><time>2026-04-12T08:58:30.601Z</time></trkpt><trkpt lat="36.9928016" lon="14.9848067"><ele>516.3333333333333</ele><time>2026-04-12T08:58:31.598Z</time></trkpt><trkpt lat="36.9928738" lon="14.9847453"><ele>517.1666666666666</ele><time>2026-04-12T08:58:32.601Z</time></trkpt><trkpt lat="36.9929506" lon="14.9846795"><ele>518.0</ele><time>2026-04-12T08:58:33.599Z</time></trkpt><trkpt lat="36.9930292" lon="14.9846123"><ele>518.0</ele><time>2026-04-12T08:58:34.601Z</time></trkpt><trkpt lat="36.9931046" lon="14.9845466"><ele>518.0</ele><time>2026-04-12T08:58:35.603Z</time></trkpt><trkpt lat="36.9931682" lon="14.9844798"><ele>518.0</ele><time>2026-04-12T08:58:36.601Z</time></trkpt><trkpt lat="36.9932214" lon="14.9844115"><ele>518.0</ele><time>2026-04-12T08:58:37.599Z</time></trkpt><trkpt lat="36.9932087" lon="14.984309"><ele>518.0</ele><time>2026-04-12T08:58:39.6Z</time></trkpt><trkpt lat="36.993135" lon="14.9842737"><ele>518.0</ele><time>2026-04-12T08:58:41.6Z</time></trkpt><trkpt lat="36.9930462" lon="14.9842826"><ele>518.0</ele><time>2026-04-12T08:58:43.601Z</time></trkpt><trkpt lat="36.9929547" lon="14.9842791"><ele>518.0</ele><time>2026-04-12T08:58:45.601Z</time></trkpt><trkpt lat="36.9928472" lon="14.9842399"><ele>518.0</ele><time>2026-04-12T08:58:47.601Z</time></trkpt><trkpt lat="36.9927988" lon="14.9841864"><ele>518.0</ele><time>2026-04-12T08:58:48.603Z</time></trkpt><trkpt lat="36.9927555" lon="14.9841121"><ele>518.0</ele><time>2026-04-12T08:58:49.601Z</time></trkpt><trkpt lat="36.9927141" lon="14.9840057"><ele>518.0</ele><time>2026-04-12T08:58:50.601Z</time></trkpt><trkpt lat="36.9926684" lon="14.9838845"><ele>520.0</ele><time>2026-04-12T08:58:51.602Z</time></trkpt><trkpt lat="36.9926179" lon="14.9837471"><ele>522.0</ele><time>2026-04-12T08:58:52.603Z</time></trkpt><trkpt lat="36.9925685" lon="14.9836011"><ele>524.0</ele><time>2026-04-12T08:58:53.602Z</time></trkpt><trkpt lat="36.9925085" lon="14.9834436"><ele>526.0</ele><time>2026-04-12T08:58:54.6Z</time></trkpt><trkpt lat="36.9924468" lon="14.9832668"><ele>527.0</ele><time>2026-04-12T08:58:55.602Z</time></trkpt><trkpt lat="36.9923928" lon="14.9831022"><ele>528.0</ele><time>2026-04-12T08:58:56.601Z</time></trkpt><trkpt lat="36.9923353" lon="14.9829388"><ele>529.0</ele><time>2026-04-12T08:58:57.6Z</time></trkpt><trkpt lat="36.9922757" lon="14.9827528"><ele>530.0</ele><time>2026-04-12T08:58:58.599Z</time></trkpt><trkpt lat="36.9922132" lon="14.9825742"><ele>531.0</ele><time>2026-04-12T08:58:59.602Z</time></trkpt><trkpt lat="36.9921404" lon="14.9823736"><ele>532.0</ele><time>2026-04-12T08:59:00.603Z</time></trkpt><trkpt lat="36.9920784" lon="14.9821927"><ele>533.0</ele><time>2026-04-12T08:59:01.603Z</time></trkpt><trkpt lat="36.9920207" lon="14.9820222"><ele>533.0</ele><time>2026-04-12T08:59:02.601Z</time></trkpt><trkpt lat="36.9919696" lon="14.9818611"><ele>533.0</ele><time>2026-04-12T08:59:03.602Z</time></trkpt><trkpt lat="36.991919" lon="14.9817089"><ele>533.0</ele><time>2026-04-12T08:59:04.6Z</time></trkpt><trkpt lat="36.9918708" lon="14.9815818"><ele>533.0</ele><time>2026-04-12T08:59:05.6Z</time></trkpt><trkpt lat="36.9918272" lon="14.9814603"><ele>534.0</ele><time>2026-04-12T08:59:06.598Z</time></trkpt><trkpt lat="36.9917862" lon="14.9813499"><ele>535.0</ele><time>2026-04-12T08:59:07.602Z</time></trkpt><trkpt lat="36.9917485" lon="14.9812507"><ele>536.0</ele><time>2026-04-12T08:59:08.603Z</time></trkpt><trkpt lat="36.9917131" lon="14.9811581"><ele>537.0</ele><time>2026-04-12T08:59:09.601Z</time></trkpt><trkpt lat="36.9916637" lon="14.9810642"><ele>538.0</ele><time>2026-04-12T08:59:10.6Z</time></trkpt><trkpt lat="36.991596" lon="14.9809662"><ele>538.6666666666667</ele><time>2026-04-12T08:59:11.603Z</time></trkpt><trkpt lat="36.9915034" lon="14.9808602"><ele>539.3333333333334</ele><time>2026-04-12T08:59:12.603Z</time></trkpt><trkpt lat="36.991384" lon="14.9807377"><ele>540.0</ele><time>2026-04-12T08:59:13.602Z</time></trkpt><trkpt lat="36.9912452" lon="14.9806085"><ele>540.6666666666666</ele><time>2026-04-12T08:59:14.601Z</time></trkpt><trkpt lat="36.9910863" lon="14.9804602"><ele>541.3333333333333</ele><time>2026-04-12T08:59:15.6Z</time></trkpt><trkpt lat="36.9909195" lon="14.9803003"><ele>542.0</ele><time>2026-04-12T08:59:16.6Z</time></trkpt><trkpt lat="36.990745" lon="14.9801206"><ele>542.0</ele><time>2026-04-12T08:59:17.599Z</time></trkpt><trkpt lat="36.9905499" lon="14.9799349"><ele>542.0</ele><time>2026-04-12T08:59:18.6Z</time></trkpt><trkpt lat="36.9903614" lon="14.9797596"><ele>542.0</ele><time>2026-04-12T08:59:19.599Z</time></trkpt><trkpt lat="36.9901961" lon="14.9795967"><ele>542.0</ele><time>2026-04-12T08:59:20.602Z</time></trkpt><trkpt lat="36.9900634" lon="14.9794677"><ele>542.0</ele><time>2026-04-12T08:59:21.601Z</time></trkpt><trkpt lat="36.9899421" lon="14.9793556"><ele>542.0</ele><time>2026-04-12T08:59:22.601Z</time></trkpt><trkpt lat="36.9898104" lon="14.9792335"><ele>542.0</ele><time>2026-04-12T08:59:23.601Z</time></trkpt><trkpt lat="36.9896751" lon="14.9790964"><ele>542.0</ele><time>2026-04-12T08:59:24.603Z</time></trkpt><trkpt lat="36.9895249" lon="14.9789362"><ele>542.0</ele><time>2026-04-12T08:59:25.601Z</time></trkpt><trkpt lat="36.989379" lon="14.9787837"><ele>542.0</ele><time>2026-04-12T08:59:26.602Z</time></trkpt><trkpt lat="36.9892377" lon="14.9786254"><ele>542.0</ele><time>2026-04-12T08:59:27.603Z</time></trkpt><trkpt lat="36.9891073" lon="14.9784964"><ele>542.5</ele><time>2026-04-12T08:59:28.602Z</time></trkpt><trkpt lat="36.9889817" lon="14.9784177"><ele>543.0</ele><time>2026-04-12T08:59:29.599Z</time></trkpt><trkpt lat="36.9888498" lon="14.9783277"><ele>543.5</ele><time>2026-04-12T08:59:30.602Z</time></trkpt><trkpt lat="36.9887173" lon="14.978267"><ele>544.0</ele><time>2026-04-12T08:59:31.601Z</time></trkpt><trkpt lat="36.9886039" lon="14.978211"><ele>544.25</ele><time>2026-04-12T08:59:32.6Z</time></trkpt><trkpt lat="36.9884974" lon="14.9781784"><ele>544.5</ele><time>2026-04-12T08:59:33.601Z</time></trkpt><trkpt lat="36.9883864" lon="14.9781125"><ele>544.75</ele><time>2026-04-12T08:59:34.603Z</time></trkpt><trkpt lat="36.9882721" lon="14.9780495"><ele>545.0</ele><time>2026-04-12T08:59:35.602Z</time></trkpt><trkpt lat="36.9881628" lon="14.9779926"><ele>545.0</ele><time>2026-04-12T08:59:36.597Z</time></trkpt><trkpt lat="36.988056" lon="14.9779327"><ele>545.0</ele><time>2026-04-12T08:59:37.601Z</time></trkpt><trkpt lat="36.9879472" lon="14.9778781"><ele>545.0</ele><time>2026-04-12T08:59:38.6Z</time></trkpt><trkpt lat="36.9878443" lon="14.9778326"><ele>545.0</ele><time>2026-04-12T08:59:39.599Z</time></trkpt><trkpt lat="36.9877124" lon="14.9777739"><ele>545.0</ele><time>2026-04-12T08:59:40.602Z</time></trkpt><trkpt lat="36.9875661" lon="14.977706"><ele>545.0</ele><time>2026-04-12T08:59:41.6Z</time></trkpt><trkpt lat="36.987426" lon="14.97764"><ele>545.0</ele><time>2026-04-12T08:59:42.598Z</time></trkpt><trkpt lat="36.9873046" lon="14.9775735"><ele>545.0</ele><time>2026-04-12T08:59:43.599Z</time></trkpt><trkpt lat="36.9872051" lon="14.9775124"><ele>544.4</ele><time>2026-04-12T08:59:44.599Z</time></trkpt><trkpt lat="36.9871234" lon="14.9774819"><ele>543.8</ele><time>2026-04-12T08:59:45.6Z</time></trkpt><trkpt lat="36.9870373" lon="14.9774777"><ele>543.2</ele><time>2026-04-12T08:59:46.6Z</time></trkpt><trkpt lat="36.98694" lon="14.9775075"><ele>542.6</ele><time>2026-04-12T08:59:47.598Z</time></trkpt><trkpt lat="36.9868419" lon="14.9775604"><ele>542.0</ele><time>2026-04-12T08:59:48.602Z</time></trkpt><trkpt lat="36.9867399" lon="14.9776144"><ele>543.5</ele><time>2026-04-12T08:59:49.601Z</time></trkpt><trkpt lat="36.9866374" lon="14.9776646"><ele>545.0</ele><time>2026-04-12T08:59:50.601Z</time></trkpt><trkpt lat="36.9865261" lon="14.9777177"><ele>546.5</ele><time>2026-04-12T08:59:51.599Z</time></trkpt><trkpt lat="36.986418" lon="14.9777675"><ele>548.0</ele><time>2026-04-12T08:59:52.601Z</time></trkpt><trkpt lat="36.9863092" lon="14.9778015"><ele>548.0</ele><time>2026-04-12T08:59:53.601Z</time></trkpt><trkpt lat="36.9862011" lon="14.9778166"><ele>548.0</ele><time>2026-04-12T08:59:54.599Z</time></trkpt><trkpt lat="36.9860986" lon="14.9778308"><ele>548.0</ele><time>2026-04-12T08:59:55.6Z</time></trkpt><trkpt lat="36.9859831" lon="14.9778387"><ele>548.0</ele><time>2026-04-12T08:59:56.599Z</time></trkpt><trkpt lat="36.985868" lon="14.9778447"><ele>548.0</ele><time>2026-04-12T08:59:57.601Z</time></trkpt><trkpt lat="36.9857564" lon="14.9778443"><ele>548.4</ele><time>2026-04-12T08:59:58.601Z</time></trkpt><trkpt lat="36.9856605" lon="14.9778378"><ele>548.8</ele><time>2026-04-12T08:59:59.601Z</time></trkpt><trkpt lat="36.9855548" lon="14.9778197"><ele>549.2</ele><time>2026-04-12T09:00:00.6Z</time></trkpt><trkpt lat="36.9854497" lon="14.9778031"><ele>549.6</ele><time>2026-04-12T09:00:01.6Z</time></trkpt><trkpt lat="36.9853491" lon="14.9777854"><ele>550.0</ele><time>2026-04-12T09:00:02.6Z</time></trkpt><trkpt lat="36.9852352" lon="14.9777744"><ele>550.0</ele><time>2026-04-12T09:00:03.6Z</time></trkpt><trkpt lat="36.9851294" lon="14.9777586"><ele>550.0</ele><time>2026-04-12T09:00:04.599Z</time></trkpt><trkpt lat="36.9850249" lon="14.9777386"><ele>550.0</ele><time>2026-04-12T09:00:05.602Z</time></trkpt><trkpt lat="36.9849267" lon="14.9777264"><ele>550.0</ele><time>2026-04-12T09:00:06.601Z</time></trkpt><trkpt lat="36.98483" lon="14.9777021"><ele>550.0</ele><time>2026-04-12T09:00:07.6Z</time></trkpt><trkpt lat="36.9847335" lon="14.9776822"><ele>548.6</ele><time>2026-04-12T09:00:08.599Z</time></trkpt><trkpt lat="36.9846369" lon="14.9776496"><ele>547.2</ele><time>2026-04-12T09:00:09.602Z</time></trkpt><trkpt lat="36.9845379" lon="14.9776203"><ele>545.8</ele><time>2026-04-12T09:00:10.602Z</time></trkpt><trkpt lat="36.984435" lon="14.9775916"><ele>544.4</ele><time>2026-04-12T09:00:11.6Z</time></trkpt><trkpt lat="36.9843332" lon="14.9775647"><ele>543.0</ele><time>2026-04-12T09:00:12.601Z</time></trkpt><trkpt lat="36.9842434" lon="14.977541"><ele>543.6666666666666</ele><time>2026-04-12T09:00:13.6Z</time></trkpt><trkpt lat="36.9841566" lon="14.9775129"><ele>544.3333333333334</ele><time>2026-04-12T09:00:14.6Z</time></trkpt><trkpt lat="36.9840818" lon="14.9774886"><ele>545.0</ele><time>2026-04-12T09:00:15.601Z</time></trkpt><trkpt lat="36.9840152" lon="14.9774803"><ele>545.6666666666667</ele><time>2026-04-12T09:00:16.598Z</time></trkpt><trkpt lat="36.9839382" lon="14.9774725"><ele>546.3333333333334</ele><time>2026-04-12T09:00:17.603Z</time></trkpt><trkpt lat="36.9838621" lon="14.9774679"><ele>547.0</ele><time>2026-04-12T09:00:18.601Z</time></trkpt><trkpt lat="36.9837856" lon="14.9774632"><ele>547.0</ele><time>2026-04-12T09:00:19.599Z</time></trkpt><trkpt lat="36.9837042" lon="14.9774577"><ele>547.0</ele><time>2026-04-12T09:00:20.602Z</time></trkpt><trkpt lat="36.9836155" lon="14.97746"><ele>547.0</ele><time>2026-04-12T09:00:21.601Z</time></trkpt><trkpt lat="36.9835244" lon="14.9774791"><ele>547.0</ele><time>2026-04-12T09:00:22.603Z</time></trkpt><trkpt lat="36.9834199" lon="14.9775072"><ele>547.0</ele><time>2026-04-12T09:00:23.599Z</time></trkpt><trkpt lat="36.9833007" lon="14.9775233"><ele>547.4</ele><time>2026-04-12T09:00:24.601Z</time></trkpt><trkpt lat="36.9831758" lon="14.9775365"><ele>547.8000000000001</ele><time>2026-04-12T09:00:25.6Z</time></trkpt><trkpt lat="36.9830635" lon="14.977542"><ele>548.2</ele><time>2026-04-12T09:00:26.602Z</time></trkpt><trkpt lat="36.9829662" lon="14.9775422"><ele>548.6</ele><time>2026-04-12T09:00:27.597Z</time></trkpt><trkpt lat="36.9828745" lon="14.977529"><ele>549.0</ele><time>2026-04-12T09:00:28.599Z</time></trkpt><trkpt lat="36.9827879" lon="14.9775063"><ele>549.4</ele><time>2026-04-12T09:00:29.6Z</time></trkpt><trkpt lat="36.9827" lon="14.9774793"><ele>549.8</ele><time>2026-04-12T09:00:30.602Z</time></trkpt><trkpt lat="36.9826074" lon="14.9774372"><ele>550.2</ele><time>2026-04-12T09:00:31.6Z</time></trkpt><trkpt lat="36.9825071" lon="14.9773962"><ele>550.6</ele><time>2026-04-12T09:00:32.602Z</time></trkpt><trkpt lat="36.9824065" lon="14.9773499"><ele>551.0</ele><time>2026-04-12T09:00:33.601Z</time></trkpt><trkpt lat="36.9823032" lon="14.9773101"><ele>552.6</ele><time>2026-04-12T09:00:34.601Z</time></trkpt><trkpt lat="36.9822" lon="14.9772546"><ele>554.2</ele><time>2026-04-12T09:00:35.597Z</time></trkpt><trkpt lat="36.9820986" lon="14.9772003"><ele>555.8</ele><time>2026-04-12T09:00:36.602Z</time></trkpt><trkpt lat="36.9819963" lon="14.9771388"><ele>557.4</ele><time>2026-04-12T09:00:37.6Z</time></trkpt><trkpt lat="36.9819053" lon="14.9770649"><ele>559.0</ele><time>2026-04-12T09:00:38.6Z</time></trkpt><trkpt lat="36.9818208" lon="14.9769859"><ele>559.0</ele><time>2026-04-12T09:00:39.602Z</time></trkpt><trkpt lat="36.9817422" lon="14.9769171"><ele>559.0</ele><time>2026-04-12T09:00:40.6Z</time></trkpt><trkpt lat="36.9816677" lon="14.9768485"><ele>559.0</ele><time>2026-04-12T09:00:41.6Z</time></trkpt><trkpt lat="36.9816081" lon="14.9767784"><ele>559.0</ele><time>2026-04-12T09:00:42.597Z</time></trkpt><trkpt lat="36.9815606" lon="14.976697"><ele>559.0</ele><time>2026-04-12T09:00:43.603Z</time></trkpt><trkpt lat="36.9815171" lon="14.9766071"><ele>559.0</ele><time>2026-04-12T09:00:44.601Z</time></trkpt><trkpt lat="36.9814727" lon="14.9765116"><ele>561.0</ele><time>2026-04-12T09:00:45.597Z</time></trkpt><trkpt lat="36.9814311" lon="14.9764088"><ele>563.0</ele><time>2026-04-12T09:00:46.603Z</time></trkpt><trkpt lat="36.9813945" lon="14.9763014"><ele>565.0</ele><time>2026-04-12T09:00:47.597Z</time></trkpt><trkpt lat="36.9813694" lon="14.9761897"><ele>567.0</ele><time>2026-04-12T09:00:48.6Z</time></trkpt><trkpt lat="36.9813455" lon="14.9760784"><ele>569.0</ele><time>2026-04-12T09:00:49.601Z</time></trkpt><trkpt lat="36.981312" lon="14.975971"><ele>569.0</ele><time>2026-04-12T09:00:50.597Z</time></trkpt><trkpt lat="36.9812602" lon="14.9758658"><ele>569.0</ele><time>2026-04-12T09:00:51.597Z</time></trkpt><trkpt lat="36.9811992" lon="14.975771"><ele>569.0</ele><time>2026-04-12T09:00:52.599Z</time></trkpt><trkpt lat="36.9811393" lon="14.9756878"><ele>569.0</ele><time>2026-04-12T09:00:53.598Z</time></trkpt><trkpt lat="36.9810702" lon="14.9755771"><ele>569.0</ele><time>2026-04-12T09:00:55.601Z</time></trkpt><trkpt lat="36.9809806" lon="14.9755019"><ele>570.0</ele><time>2026-04-12T09:00:57.6Z</time></trkpt><trkpt lat="36.980879" lon="14.9754358"><ele>571.0</ele><time>2026-04-12T09:00:59.601Z</time></trkpt><trkpt lat="36.9807647" lon="14.9754269"><ele>572.0</ele><time>2026-04-12T09:01:01.603Z</time></trkpt><trkpt lat="36.9806603" lon="14.9754587"><ele>573.0</ele><time>2026-04-12T09:01:03.602Z</time></trkpt><trkpt lat="36.9805745" lon="14.9754963"><ele>574.0</ele><time>2026-04-12T09:01:05.603Z</time></trkpt><trkpt lat="36.9804925" lon="14.9755565"><ele>574.0</ele><time>2026-04-12T09:01:07.602Z</time></trkpt><trkpt lat="36.9804328" lon="14.9755821"><ele>574.0</ele><time>2026-04-12T09:01:08.602Z</time></trkpt><trkpt lat="36.9803554" lon="14.9755965"><ele>574.0</ele><time>2026-04-12T09:01:09.601Z</time></trkpt><trkpt lat="36.9802897" lon="14.9755938"><ele>574.0</ele><time>2026-04-12T09:01:10.599Z</time></trkpt><trkpt lat="36.9801805" lon="14.9755656"><ele>574.0</ele><time>2026-04-12T09:01:12.599Z</time></trkpt><trkpt lat="36.9800861" lon="14.9755118"><ele>574.0</ele><time>2026-04-12T09:01:14.599Z</time></trkpt><trkpt lat="36.9799857" lon="14.975467"><ele>574.1428571428571</ele><time>2026-04-12T09:01:16.603Z</time></trkpt><trkpt lat="36.9799278" lon="14.9754155"><ele>574.2857142857142</ele><time>2026-04-12T09:01:18.602Z</time></trkpt><trkpt lat="36.9798731" lon="14.9753145"><ele>574.4285714285714</ele><time>2026-04-12T09:01:21.601Z</time></trkpt><trkpt lat="36.9798426" lon="14.9752333"><ele>574.5714285714286</ele><time>2026-04-12T09:01:23.6Z</time></trkpt><trkpt lat="36.9798067" lon="14.9751553"><ele>574.7142857142857</ele><time>2026-04-12T09:01:25.599Z</time></trkpt><trkpt lat="36.9797704" lon="14.9750905"><ele>574.8571428571429</ele><time>2026-04-12T09:01:27.599Z</time></trkpt><trkpt lat="36.9797365" lon="14.9750206"><ele>575.0</ele><time>2026-04-12T09:01:29.597Z</time></trkpt><trkpt lat="36.9796769" lon="14.9749723"><ele>575.6</ele><time>2026-04-12T09:01:31.599Z</time></trkpt><trkpt lat="36.9796513" lon="14.9748677"><ele>576.2</ele><time>2026-04-12T09:01:34.6Z</time></trkpt><trkpt lat="36.9796251" lon="14.9747674"><ele>576.8</ele><time>2026-04-12T09:01:48.598Z</time></trkpt><trkpt lat="36.9796069" lon="14.974649"><ele>577.4</ele><time>2026-04-12T09:01:51.599Z</time></trkpt><trkpt lat="36.9795965" lon="14.9745459"><ele>578.0</ele><time>2026-04-12T09:01:53.597Z</time></trkpt><trkpt lat="36.9795763" lon="14.9744195"><ele>578.0</ele><time>2026-04-12T09:01:55.597Z</time></trkpt><trkpt lat="36.9795263" lon="14.9743269"><ele>578.0</ele><time>2026-04-12T09:01:57.6Z</time></trkpt><trkpt lat="36.9794908" lon="14.9742547"><ele>578.0</ele><time>2026-04-12T09:01:58.597Z</time></trkpt><trkpt lat="36.9794514" lon="14.9741801"><ele>578.0</ele><time>2026-04-12T09:01:59.601Z</time></trkpt><trkpt lat="36.9794024" lon="14.9740741"><ele>578.0</ele><time>2026-04-12T09:02:00.599Z</time></trkpt><trkpt lat="36.9793434" lon="14.9739731"><ele>578.0</ele><time>2026-04-12T09:02:01.602Z</time></trkpt><trkpt lat="36.9792729" lon="14.9738877"><ele>580.1999999999999</ele><time>2026-04-12T09:02:02.601Z</time></trkpt><trkpt lat="36.979206" lon="14.9738167"><ele>582.4</ele><time>2026-04-12T09:02:03.6Z</time></trkpt><trkpt lat="36.9791425" lon="14.9737402"><ele>584.5999999999999</ele><time>2026-04-12T09:02:04.601Z</time></trkpt><trkpt lat="36.9790809" lon="14.9736339"><ele>586.8</ele><time>2026-04-12T09:02:05.599Z</time></trkpt><trkpt lat="36.9790197" lon="14.9735477"><ele>589.0</ele><time>2026-04-12T09:02:06.596Z</time></trkpt><trkpt lat="36.9789583" lon="14.9734709"><ele>589.0</ele><time>2026-04-12T09:02:07.598Z</time></trkpt><trkpt lat="36.9788975" lon="14.9734054"><ele>589.0</ele><time>2026-04-12T09:02:08.599Z</time></trkpt><trkpt lat="36.9788337" lon="14.9733391"><ele>589.0</ele><time>2026-04-12T09:02:09.6Z</time></trkpt><trkpt lat="36.978753" lon="14.9732425"><ele>589.0</ele><time>2026-04-12T09:02:10.602Z</time></trkpt><trkpt lat="36.9786721" lon="14.9731517"><ele>589.0</ele><time>2026-04-12T09:02:11.599Z</time></trkpt><trkpt lat="36.9785938" lon="14.9730633"><ele>589.2</ele><time>2026-04-12T09:02:12.601Z</time></trkpt><trkpt lat="36.9785178" lon="14.9729784"><ele>589.4</ele><time>2026-04-12T09:02:13.601Z</time></trkpt><trkpt lat="36.9784394" lon="14.9728943"><ele>589.6</ele><time>2026-04-12T09:02:14.602Z</time></trkpt><trkpt lat="36.9783702" lon="14.9728369"><ele>589.8</ele><time>2026-04-12T09:02:15.602Z</time></trkpt><trkpt lat="36.978304" lon="14.9727802"><ele>590.0</ele><time>2026-04-12T09:02:16.598Z</time></trkpt><trkpt lat="36.9782217" lon="14.9726985"><ele>590.3333333333333</ele><time>2026-04-12T09:02:18.6Z</time></trkpt><trkpt lat="36.9781646" lon="14.9726571"><ele>590.6666666666666</ele><time>2026-04-12T09:02:21.597Z</time></trkpt><trkpt lat="36.9780837" lon="14.9726725"><ele>591.0</ele><time>2026-04-12T09:02:24.598Z</time></trkpt><trkpt lat="36.9780157" lon="14.9726923"><ele>591.3333333333334</ele><time>2026-04-12T09:02:27.602Z</time></trkpt><trkpt lat="36.9779351" lon="14.9727225"><ele>591.6666666666667</ele><time>2026-04-12T09:02:31.603Z</time></trkpt><trkpt lat="36.9778616" lon="14.9727554"><ele>592.0</ele><time>2026-04-12T09:02:34.602Z</time></trkpt><trkpt lat="36.977793" lon="14.9727843"><ele>592.0</ele><time>2026-04-12T09:02:37.602Z</time></trkpt><trkpt lat="36.9777122" lon="14.9728059"><ele>592.0</ele><time>2026-04-12T09:02:40.602Z</time></trkpt><trkpt lat="36.977644" lon="14.9727926"><ele>592.0</ele><time>2026-04-12T09:08:15.596Z</time></trkpt><trkpt lat="36.9775849" lon="14.9728483"><ele>592.0</ele><time>2026-04-12T09:15:25.598Z</time></trkpt><trkpt lat="36.9775414" lon="14.9729378"><ele>592.0</ele><time>2026-04-12T09:15:28.597Z</time></trkpt><trkpt lat="36.9775259" lon="14.9730402"><ele>592.0</ele><time>2026-04-12T09:15:32.6Z</time></trkpt><trkpt lat="36.9775883" lon="14.9731167"><ele>592.0</ele><time>2026-04-12T09:15:35.602Z</time></trkpt><trkpt lat="36.9776383" lon="14.9731963"><ele>592.0</ele><time>2026-04-12T09:15:38.598Z</time></trkpt><trkpt lat="36.9776647" lon="14.9732907"><ele>592.0</ele><time>2026-04-12T09:15:41.599Z</time></trkpt><trkpt lat="36.9776488" lon="14.9733787"><ele>592.0</ele><time>2026-04-12T09:16:13.595Z</time></trkpt><trkpt lat="36.9776192" lon="14.9734582"><ele>592.0</ele><time>2026-04-12T09:16:19.598Z</time></trkpt><trkpt lat="36.9775545" lon="14.9735224"><ele>592.0</ele><time>2026-04-12T09:16:22.599Z</time></trkpt><trkpt lat="36.977494" lon="14.9736001"><ele>594.5</ele><time>2026-04-12T09:16:25.598Z</time></trkpt><trkpt lat="36.9774597" lon="14.9737003"><ele>597.0</ele><time>2026-04-12T09:16:28.596Z</time></trkpt><trkpt lat="36.9774142" lon="14.9737993"><ele>599.5</ele><time>2026-04-12T09:16:30.601Z</time></trkpt><trkpt lat="36.9773762" lon="14.9738997"><ele>602.0</ele><time>2026-04-12T09:16:32.6Z</time></trkpt><trkpt lat="36.9773345" lon="14.9739842"><ele>604.5</ele><time>2026-04-12T09:16:34.595Z</time></trkpt><trkpt lat="36.9772974" lon="14.9740736"><ele>607.0</ele><time>2026-04-12T09:16:36.599Z</time></trkpt><trkpt lat="36.9772471" lon="14.9741333"><ele>606.8333333333334</ele><time>2026-04-12T09:16:38.595Z</time></trkpt><trkpt lat="36.9771991" lon="14.9741994"><ele>606.6666666666667</ele><time>2026-04-12T09:16:40.6Z</time></trkpt><trkpt lat="36.9771416" lon="14.9742551"><ele>606.5</ele><time>2026-04-12T09:16:42.6Z</time></trkpt><trkpt lat="36.9770907" lon="14.9743076"><ele>606.3333333333334</ele><time>2026-04-12T09:16:44.595Z</time></trkpt><trkpt lat="36.9770147" lon="14.974363"><ele>606.1666666666666</ele><time>2026-04-12T09:16:47.598Z</time></trkpt><trkpt lat="36.9769513" lon="14.9744421"><ele>606.0</ele><time>2026-04-12T09:16:50.596Z</time></trkpt><trkpt lat="36.9768973" lon="14.9745129"><ele>606.0</ele><time>2026-04-12T09:16:52.599Z</time></trkpt><trkpt lat="36.9768331" lon="14.9745713"><ele>606.0</ele><time>2026-04-12T09:16:54.6Z</time></trkpt><trkpt lat="36.9767723" lon="14.9746452"><ele>606.0</ele><time>2026-04-12T09:16:56.596Z</time></trkpt><trkpt lat="36.9767077" lon="14.97471"><ele>606.0</ele><time>2026-04-12T09:16:58.598Z</time></trkpt><trkpt lat="36.9766415" lon="14.9747782"><ele>606.0</ele><time>2026-04-12T09:17:00.598Z</time></trkpt><trkpt lat="36.9765828" lon="14.9748437"><ele>606.0</ele><time>2026-04-12T09:17:02.595Z</time></trkpt><trkpt lat="36.976508" lon="14.9749089"><ele>606.0</ele><time>2026-04-12T09:17:04.598Z</time></trkpt><trkpt lat="36.9764526" lon="14.9749817"><ele>606.0</ele><time>2026-04-12T09:17:06.598Z</time></trkpt><trkpt lat="36.9763936" lon="14.9750546"><ele>606.0</ele><time>2026-04-12T09:17:08.597Z</time></trkpt><trkpt lat="36.9763231" lon="14.9751251"><ele>606.0</ele><time>2026-04-12T09:17:10.597Z</time></trkpt><trkpt lat="36.9762504" lon="14.9751899"><ele>606.0</ele><time>2026-04-12T09:17:12.597Z</time></trkpt><trkpt lat="36.9761812" lon="14.9752633"><ele>606.0</ele><time>2026-04-12T09:17:14.599Z</time></trkpt><trkpt lat="36.9761249" lon="14.9753546"><ele>605.6</ele><time>2026-04-12T09:17:16.598Z</time></trkpt><trkpt lat="36.9760825" lon="14.9754769"><ele>605.2</ele><time>2026-04-12T09:17:18.599Z</time></trkpt><trkpt lat="36.9760401" lon="14.9755934"><ele>604.8</ele><time>2026-04-12T09:17:20.602Z</time></trkpt><trkpt lat="36.9759687" lon="14.9757005"><ele>604.4</ele><time>2026-04-12T09:17:22.596Z</time></trkpt><trkpt lat="36.9758974" lon="14.9758118"><ele>604.0</ele><time>2026-04-12T09:17:24.597Z</time></trkpt><trkpt lat="36.9758167" lon="14.9759121"><ele>604.0</ele><time>2026-04-12T09:17:26.599Z</time></trkpt><trkpt lat="36.9757242" lon="14.976015"><ele>604.0</ele><time>2026-04-12T09:17:28.596Z</time></trkpt><trkpt lat="36.9756439" lon="14.976132"><ele>604.0</ele><time>2026-04-12T09:17:30.597Z</time></trkpt><trkpt lat="36.9755682" lon="14.9762655"><ele>604.0</ele><time>2026-04-12T09:17:32.595Z</time></trkpt><trkpt lat="36.9755276" lon="14.9763298"><ele>604.0</ele><time>2026-04-12T09:17:33.595Z</time></trkpt><trkpt lat="36.9754551" lon="14.9764486"><ele>604.0</ele><time>2026-04-12T09:17:35.599Z</time></trkpt><trkpt lat="36.9753688" lon="14.9765597"><ele>604.0</ele><time>2026-04-12T09:17:37.601Z</time></trkpt><trkpt lat="36.9753234" lon="14.9766166"><ele>604.0</ele><time>2026-04-12T09:17:38.601Z</time></trkpt><trkpt lat="36.9752615" lon="14.9767327"><ele>604.0</ele><time>2026-04-12T09:17:40.598Z</time></trkpt><trkpt lat="36.975231" lon="14.9768434"><ele>604.0</ele><time>2026-04-12T09:17:42.598Z</time></trkpt><trkpt lat="36.9751985" lon="14.9769443"><ele>604.0</ele><time>2026-04-12T09:17:44.598Z</time></trkpt><trkpt lat="36.9751257" lon="14.9770306"><ele>604.0</ele><time>2026-04-12T09:17:46.599Z</time></trkpt><trkpt lat="36.9750566" lon="14.977137"><ele>604.0</ele><time>2026-04-12T09:17:48.595Z</time></trkpt><trkpt lat="36.9750149" lon="14.9772045"><ele>604.0</ele><time>2026-04-12T09:17:49.597Z</time></trkpt><trkpt lat="36.9749636" lon="14.9772751"><ele>604.0</ele><time>2026-04-12T09:17:50.6Z</time></trkpt><trkpt lat="36.9749133" lon="14.9773518"><ele>604.0</ele><time>2026-04-12T09:17:51.598Z</time></trkpt><trkpt lat="36.9748718" lon="14.9774273"><ele>603.6666666666667</ele><time>2026-04-12T09:17:52.601Z</time></trkpt><trkpt lat="36.9748285" lon="14.9774897"><ele>603.3333333333334</ele><time>2026-04-12T09:17:53.598Z</time></trkpt><trkpt lat="36.9747455" lon="14.9776032"><ele>603.0</ele><time>2026-04-12T09:17:55.599Z</time></trkpt><trkpt lat="36.9746682" lon="14.9777031"><ele>602.6666666666666</ele><time>2026-04-12T09:17:57.602Z</time></trkpt><trkpt lat="36.9746195" lon="14.9777593"><ele>602.3333333333333</ele><time>2026-04-12T09:17:58.6Z</time></trkpt><trkpt lat="36.9745731" lon="14.9778374"><ele>602.0</ele><time>2026-04-12T09:17:59.601Z</time></trkpt><trkpt lat="36.9745319" lon="14.9779177"><ele>601.5714285714286</ele><time>2026-04-12T09:18:00.597Z</time></trkpt><trkpt lat="36.9744932" lon="14.9780015"><ele>601.1428571428571</ele><time>2026-04-12T09:18:01.598Z</time></trkpt><trkpt lat="36.9744571" lon="14.9780835"><ele>600.7142857142858</ele><time>2026-04-12T09:18:02.596Z</time></trkpt><trkpt lat="36.9744186" lon="14.9781576"><ele>600.2857142857142</ele><time>2026-04-12T09:18:03.598Z</time></trkpt><trkpt lat="36.974378" lon="14.9782245"><ele>599.8571428571429</ele><time>2026-04-12T09:18:04.6Z</time></trkpt><trkpt lat="36.9743309" lon="14.9782874"><ele>599.4285714285714</ele><time>2026-04-12T09:18:05.599Z</time></trkpt><trkpt lat="36.9742942" lon="14.9783536"><ele>599.0</ele><time>2026-04-12T09:18:06.6Z</time></trkpt><trkpt lat="36.9742628" lon="14.9784246"><ele>598.2857142857143</ele><time>2026-04-12T09:18:07.595Z</time></trkpt><trkpt lat="36.9742253" lon="14.9784936"><ele>597.5714285714286</ele><time>2026-04-12T09:18:08.597Z</time></trkpt><trkpt lat="36.9741957" lon="14.9785665"><ele>596.8571428571429</ele><time>2026-04-12T09:18:09.599Z</time></trkpt><trkpt lat="36.9741624" lon="14.9786488"><ele>596.1428571428571</ele><time>2026-04-12T09:18:10.596Z</time></trkpt><trkpt lat="36.9741231" lon="14.9787312"><ele>595.4285714285714</ele><time>2026-04-12T09:18:11.598Z</time></trkpt><trkpt lat="36.9740838" lon="14.9788121"><ele>594.7142857142858</ele><time>2026-04-12T09:18:12.598Z</time></trkpt><trkpt lat="36.9740438" lon="14.9788971"><ele>594.0</ele><time>2026-04-12T09:18:13.596Z</time></trkpt><trkpt lat="36.9740083" lon="14.9789865"><ele>593.5</ele><time>2026-04-12T09:18:14.596Z</time></trkpt><trkpt lat="36.9739774" lon="14.9790796"><ele>593.0</ele><time>2026-04-12T09:18:15.598Z</time></trkpt><trkpt lat="36.9739206" lon="14.9791611"><ele>592.5</ele><time>2026-04-12T09:18:16.596Z</time></trkpt><trkpt lat="36.9738749" lon="14.979241"><ele>592.0</ele><time>2026-04-12T09:18:17.596Z</time></trkpt><trkpt lat="36.9738242" lon="14.9793196"><ele>591.5</ele><time>2026-04-12T09:18:18.601Z</time></trkpt><trkpt lat="36.9737697" lon="14.9793989"><ele>591.0</ele><time>2026-04-12T09:18:19.596Z</time></trkpt><trkpt lat="36.9737256" lon="14.9794672"><ele>590.8571428571429</ele><time>2026-04-12T09:18:20.598Z</time></trkpt><trkpt lat="36.9736828" lon="14.9795309"><ele>590.7142857142858</ele><time>2026-04-12T09:18:21.599Z</time></trkpt><trkpt lat="36.9736442" lon="14.9795968"><ele>590.5714285714287</ele><time>2026-04-12T09:18:22.598Z</time></trkpt><trkpt lat="36.9736045" lon="14.9796639"><ele>590.4285714285714</ele><time>2026-04-12T09:18:23.598Z</time></trkpt><trkpt lat="36.9735731" lon="14.9797592"><ele>590.2857142857143</ele><time>2026-04-12T09:18:24.598Z</time></trkpt><trkpt lat="36.9735423" lon="14.9798393"><ele>590.1428571428572</ele><time>2026-04-12T09:18:25.596Z</time></trkpt><trkpt lat="36.9735125" lon="14.9799089"><ele>590.0</ele><time>2026-04-12T09:18:26.598Z</time></trkpt><trkpt lat="36.9734736" lon="14.9799931"><ele>590.1666666666666</ele><time>2026-04-12T09:18:28.598Z</time></trkpt><trkpt lat="36.9734053" lon="14.9800235"><ele>590.3333333333333</ele><time>2026-04-12T09:18:31.596Z</time></trkpt><trkpt lat="36.9733333" lon="14.9800146"><ele>590.5</ele><time>2026-04-12T09:18:33.597Z</time></trkpt><trkpt lat="36.973265" lon="14.9800004"><ele>590.6666666666666</ele><time>2026-04-12T09:18:35.597Z</time></trkpt><trkpt lat="36.9731872" lon="14.9799875"><ele>590.8333333333334</ele><time>2026-04-12T09:18:37.596Z</time></trkpt><trkpt lat="36.9730987" lon="14.9799717"><ele>591.0</ele><time>2026-04-12T09:18:39.597Z</time></trkpt><trkpt lat="36.9730023" lon="14.9799428"><ele>590.6666666666666</ele><time>2026-04-12T09:18:41.598Z</time></trkpt><trkpt lat="36.9728893" lon="14.9798998"><ele>590.3333333333334</ele><time>2026-04-12T09:18:43.603Z</time></trkpt><trkpt lat="36.9727776" lon="14.9798478"><ele>590.0</ele><time>2026-04-12T09:18:45.6Z</time></trkpt><trkpt lat="36.9727136" lon="14.9798299"><ele>589.6666666666667</ele><time>2026-04-12T09:18:46.599Z</time></trkpt><trkpt lat="36.9726477" lon="14.979814"><ele>589.3333333333334</ele><time>2026-04-12T09:18:47.599Z</time></trkpt><trkpt lat="36.9725845" lon="14.9797924"><ele>589.0</ele><time>2026-04-12T09:18:48.596Z</time></trkpt><trkpt lat="36.9724774" lon="14.9797493"><ele>588.2</ele><time>2026-04-12T09:18:50.597Z</time></trkpt><trkpt lat="36.9723755" lon="14.9797109"><ele>587.4</ele><time>2026-04-12T09:18:52.602Z</time></trkpt><trkpt lat="36.9722842" lon="14.979688"><ele>586.6</ele><time>2026-04-12T09:18:54.602Z</time></trkpt><trkpt lat="36.9721908" lon="14.9796908"><ele>585.8</ele><time>2026-04-12T09:18:56.596Z</time></trkpt><trkpt lat="36.9721002" lon="14.9796517"><ele>585.0</ele><time>2026-04-12T09:18:58.598Z</time></trkpt><trkpt lat="36.972027" lon="14.9796302"><ele>585.0</ele><time>2026-04-12T09:19:00.6Z</time></trkpt><trkpt lat="36.9719532" lon="14.9795768"><ele>585.0</ele><time>2026-04-12T09:19:02.594Z</time></trkpt><trkpt lat="36.9719083" lon="14.9795169"><ele>585.0</ele><time>2026-04-12T09:19:04.594Z</time></trkpt><trkpt lat="36.9718432" lon="14.9794838"><ele>585.0</ele><time>2026-04-12T09:19:06.595Z</time></trkpt><trkpt lat="36.9717752" lon="14.9794985"><ele>585.0</ele><time>2026-04-12T09:19:08.594Z</time></trkpt><trkpt lat="36.971703" lon="14.9794422"><ele>585.0</ele><time>2026-04-12T09:19:10.598Z</time></trkpt><trkpt lat="36.9716418" lon="14.9793649"><ele>584.8</ele><time>2026-04-12T09:19:12.595Z</time></trkpt><trkpt lat="36.9716028" lon="14.9792563"><ele>584.6</ele><time>2026-04-12T09:19:14.603Z</time></trkpt><trkpt lat="36.9715672" lon="14.9791292"><ele>584.4</ele><time>2026-04-12T09:19:16.595Z</time></trkpt><trkpt lat="36.9715245" lon="14.9790209"><ele>584.2</ele><time>2026-04-12T09:19:18.602Z</time></trkpt><trkpt lat="36.9714601" lon="14.978903"><ele>584.0</ele><time>2026-04-12T09:19:20.596Z</time></trkpt><trkpt lat="36.9713773" lon="14.9787885"><ele>584.2857142857142</ele><time>2026-04-12T09:19:22.596Z</time></trkpt><trkpt lat="36.9713211" lon="14.978729"><ele>584.5714285714286</ele><time>2026-04-12T09:19:23.598Z</time></trkpt><trkpt lat="36.9712748" lon="14.9786697"><ele>584.8571428571429</ele><time>2026-04-12T09:19:24.593Z</time></trkpt><trkpt lat="36.9712253" lon="14.978612"><ele>585.1428571428571</ele><time>2026-04-12T09:19:25.597Z</time></trkpt><trkpt lat="36.9711676" lon="14.978559"><ele>585.4285714285714</ele><time>2026-04-12T09:19:26.598Z</time></trkpt><trkpt lat="36.9711059" lon="14.9785078"><ele>585.7142857142857</ele><time>2026-04-12T09:19:27.596Z</time></trkpt><trkpt lat="36.9710341" lon="14.9784577"><ele>586.0</ele><time>2026-04-12T09:19:28.6Z</time></trkpt><trkpt lat="36.9709655" lon="14.9784091"><ele>586.0</ele><time>2026-04-12T09:19:29.6Z</time></trkpt><trkpt lat="36.9709057" lon="14.9783591"><ele>586.0</ele><time>2026-04-12T09:19:30.599Z</time></trkpt><trkpt lat="36.9708691" lon="14.9782924"><ele>586.0</ele><time>2026-04-12T09:19:31.6Z</time></trkpt><trkpt lat="36.9708856" lon="14.9781337"><ele>586.0</ele><time>2026-04-12T09:19:33.6Z</time></trkpt><trkpt lat="36.9709158" lon="14.9780507"><ele>586.0</ele><time>2026-04-12T09:19:34.596Z</time></trkpt><trkpt lat="36.970946" lon="14.9779625"><ele>586.0</ele><time>2026-04-12T09:19:35.6Z</time></trkpt><trkpt lat="36.9709615" lon="14.9778783"><ele>586.0</ele><time>2026-04-12T09:19:36.596Z</time></trkpt><trkpt lat="36.9709582" lon="14.9777995"><ele>586.0</ele><time>2026-04-12T09:19:37.6Z</time></trkpt><trkpt lat="36.9708819" lon="14.9777109"><ele>586.0</ele><time>2026-04-12T09:19:39.598Z</time></trkpt><trkpt lat="36.970759" lon="14.9776386"><ele>586.0</ele><time>2026-04-12T09:19:41.596Z</time></trkpt><trkpt lat="36.9706914" lon="14.9775816"><ele>586.0</ele><time>2026-04-12T09:19:42.6Z</time></trkpt><trkpt lat="36.9706251" lon="14.9775091"><ele>586.2</ele><time>2026-04-12T09:19:43.595Z</time></trkpt><trkpt lat="36.970558" lon="14.9774251"><ele>586.4000000000001</ele><time>2026-04-12T09:19:44.595Z</time></trkpt><trkpt lat="36.9704904" lon="14.9773358"><ele>586.6</ele><time>2026-04-12T09:19:45.6Z</time></trkpt><trkpt lat="36.9704219" lon="14.9772367"><ele>586.8000000000001</ele><time>2026-04-12T09:19:46.598Z</time></trkpt><trkpt lat="36.9703528" lon="14.9771372"><ele>587.0</ele><time>2026-04-12T09:19:47.597Z</time></trkpt><trkpt lat="36.9702825" lon="14.9770325"><ele>587.0</ele><time>2026-04-12T09:19:48.598Z</time></trkpt><trkpt lat="36.970213" lon="14.9769303"><ele>587.0</ele><time>2026-04-12T09:19:49.6Z</time></trkpt><trkpt lat="36.9701543" lon="14.9768282"><ele>587.0</ele><time>2026-04-12T09:19:50.596Z</time></trkpt><trkpt lat="36.970104" lon="14.9767421"><ele>587.0</ele><time>2026-04-12T09:19:51.601Z</time></trkpt><trkpt lat="36.9700519" lon="14.9766643"><ele>587.0</ele><time>2026-04-12T09:19:52.595Z</time></trkpt><trkpt lat="36.9699844" lon="14.9766458"><ele>587.0</ele><time>2026-04-12T09:19:53.596Z</time></trkpt><trkpt lat="36.9699053" lon="14.9766339"><ele>586.8333333333333</ele><time>2026-04-12T09:19:54.597Z</time></trkpt><trkpt lat="36.9698193" lon="14.9766391"><ele>586.6666666666666</ele><time>2026-04-12T09:19:55.599Z</time></trkpt><trkpt lat="36.9697302" lon="14.9766421"><ele>586.5</ele><time>2026-04-12T09:19:56.596Z</time></trkpt><trkpt lat="36.9696379" lon="14.9766503"><ele>586.3333333333334</ele><time>2026-04-12T09:19:57.601Z</time></trkpt><trkpt lat="36.9695532" lon="14.9766822"><ele>586.1666666666667</ele><time>2026-04-12T09:19:58.596Z</time></trkpt><trkpt lat="36.9694777" lon="14.9767366"><ele>586.0</ele><time>2026-04-12T09:19:59.594Z</time></trkpt><trkpt lat="36.9693988" lon="14.9767914"><ele>586.0</ele><time>2026-04-12T09:20:00.598Z</time></trkpt><trkpt lat="36.9693025" lon="14.976822"><ele>586.0</ele><time>2026-04-12T09:20:01.596Z</time></trkpt><trkpt lat="36.969202" lon="14.9768317"><ele>586.0</ele><time>2026-04-12T09:20:02.602Z</time></trkpt><trkpt lat="36.9691001" lon="14.9768291"><ele>586.0</ele><time>2026-04-12T09:20:03.602Z</time></trkpt><trkpt lat="36.9689992" lon="14.9768212"><ele>586.0</ele><time>2026-04-12T09:20:04.6Z</time></trkpt><trkpt lat="36.9689066" lon="14.9768159"><ele>586.3333333333334</ele><time>2026-04-12T09:20:05.602Z</time></trkpt><trkpt lat="36.9688154" lon="14.9768051"><ele>586.6666666666667</ele><time>2026-04-12T09:20:06.598Z</time></trkpt><trkpt lat="36.9687242" lon="14.9767937"><ele>587.0</ele><time>2026-04-12T09:20:07.599Z</time></trkpt><trkpt lat="36.96864" lon="14.9767957"><ele>587.3333333333334</ele><time>2026-04-12T09:20:08.594Z</time></trkpt><trkpt lat="36.9685548" lon="14.9767999"><ele>587.6666666666666</ele><time>2026-04-12T09:20:09.6Z</time></trkpt><trkpt lat="36.9684704" lon="14.976805"><ele>588.0</ele><time>2026-04-12T09:20:10.601Z</time></trkpt><trkpt lat="36.9683867" lon="14.9768144"><ele>588.8333333333334</ele><time>2026-04-12T09:20:11.597Z</time></trkpt><trkpt lat="36.9683044" lon="14.9768269"><ele>589.6666666666666</ele><time>2026-04-12T09:20:12.595Z</time></trkpt><trkpt lat="36.9682178" lon="14.9768397"><ele>590.5</ele><time>2026-04-12T09:20:13.6Z</time></trkpt><trkpt lat="36.9681282" lon="14.976853"><ele>591.3333333333333</ele><time>2026-04-12T09:20:14.596Z</time></trkpt><trkpt lat="36.9680439" lon="14.9768617"><ele>592.1666666666666</ele><time>2026-04-12T09:20:15.596Z</time></trkpt><trkpt lat="36.9679774" lon="14.9768531"><ele>593.0</ele><time>2026-04-12T09:20:16.6Z</time></trkpt><trkpt lat="36.9679115" lon="14.9768476"><ele>593.0</ele><time>2026-04-12T09:20:17.6Z</time></trkpt><trkpt lat="36.9677862" lon="14.9768367"><ele>593.0</ele><time>2026-04-12T09:20:19.6Z</time></trkpt><trkpt lat="36.9677172" lon="14.9768249"><ele>593.0</ele><time>2026-04-12T09:20:20.6Z</time></trkpt><trkpt lat="36.9676505" lon="14.9768189"><ele>593.0</ele><time>2026-04-12T09:20:21.6Z</time></trkpt><trkpt lat="36.9675402" lon="14.976804"><ele>593.0</ele><time>2026-04-12T09:20:23.596Z</time></trkpt><trkpt lat="36.9674404" lon="14.9767599"><ele>592.4</ele><time>2026-04-12T09:20:25.596Z</time></trkpt><trkpt lat="36.9673654" lon="14.976683"><ele>591.8</ele><time>2026-04-12T09:20:27.601Z</time></trkpt><trkpt lat="36.9673148" lon="14.9765613"><ele>591.2</ele><time>2026-04-12T09:20:29.598Z</time></trkpt><trkpt lat="36.9672892" lon="14.976425"><ele>590.6</ele><time>2026-04-12T09:20:31.596Z</time></trkpt><trkpt lat="36.967283" lon="14.9763289"><ele>590.0</ele><time>2026-04-12T09:20:32.598Z</time></trkpt><trkpt lat="36.967285" lon="14.976231"><ele>590.0000000000001</ele><time>2026-04-12T09:20:33.595Z</time></trkpt><trkpt lat="36.9673054" lon="14.9761209"><ele>590.0</ele><time>2026-04-12T09:20:34.6Z</time></trkpt><trkpt lat="36.9673235" lon="14.9760271"><ele>590.0</ele><time>2026-04-12T09:20:35.597Z</time></trkpt><trkpt lat="36.9673307" lon="14.9759423"><ele>590.0</ele><time>2026-04-12T09:20:36.599Z</time></trkpt><trkpt lat="36.9673397" lon="14.9758566"><ele>590.0</ele><time>2026-04-12T09:20:37.597Z</time></trkpt><trkpt lat="36.967346" lon="14.9757734"><ele>590.0000000000001</ele><time>2026-04-12T09:20:38.594Z</time></trkpt><trkpt lat="36.9673533" lon="14.9756878"><ele>590.0</ele><time>2026-04-12T09:20:39.596Z</time></trkpt><trkpt lat="36.9673487" lon="14.9755571"><ele>589.25</ele><time>2026-04-12T09:20:40.597Z</time></trkpt><trkpt lat="36.9673387" lon="14.9754178"><ele>588.5</ele><time>2026-04-12T09:20:41.6Z</time></trkpt><trkpt lat="36.9673315" lon="14.975268"><ele>587.75</ele><time>2026-04-12T09:20:42.599Z</time></trkpt><trkpt lat="36.9673262" lon="14.9751161"><ele>587.0</ele><time>2026-04-12T09:20:43.594Z</time></trkpt><trkpt lat="36.9673478" lon="14.9749694"><ele>587.0</ele><time>2026-04-12T09:20:44.595Z</time></trkpt><trkpt lat="36.9673885" lon="14.9748304"><ele>587.0</ele><time>2026-04-12T09:20:45.601Z</time></trkpt><trkpt lat="36.9674296" lon="14.9746888"><ele>587.0</ele><time>2026-04-12T09:20:46.596Z</time></trkpt><trkpt lat="36.9674832" lon="14.9745439"><ele>587.0</ele><time>2026-04-12T09:20:47.594Z</time></trkpt><trkpt lat="36.967544" lon="14.9743991"><ele>587.0</ele><time>2026-04-12T09:20:48.596Z</time></trkpt><trkpt lat="36.9675987" lon="14.9742602"><ele>587.0</ele><time>2026-04-12T09:20:49.597Z</time></trkpt><trkpt lat="36.9676493" lon="14.9741247"><ele>587.0</ele><time>2026-04-12T09:20:50.6Z</time></trkpt><trkpt lat="36.9676877" lon="14.9739895"><ele>587.0</ele><time>2026-04-12T09:20:51.596Z</time></trkpt><trkpt lat="36.9677006" lon="14.9738583"><ele>586.5</ele><time>2026-04-12T09:20:52.597Z</time></trkpt><trkpt lat="36.9677097" lon="14.9737648"><ele>586.0</ele><time>2026-04-12T09:20:53.596Z</time></trkpt><trkpt lat="36.9676981" lon="14.9736344"><ele>585.5</ele><time>2026-04-12T09:20:55.594Z</time></trkpt><trkpt lat="36.9676447" lon="14.9735808"><ele>585.0</ele><time>2026-04-12T09:20:56.597Z</time></trkpt><trkpt lat="36.9675669" lon="14.9735295"><ele>584.5</ele><time>2026-04-12T09:20:57.595Z</time></trkpt><trkpt lat="36.9674742" lon="14.9734955"><ele>584.0</ele><time>2026-04-12T09:20:58.596Z</time></trkpt><trkpt lat="36.9673797" lon="14.9734528"><ele>584.0</ele><time>2026-04-12T09:20:59.596Z</time></trkpt><trkpt lat="36.9672836" lon="14.9734065"><ele>584.0</ele><time>2026-04-12T09:21:00.594Z</time></trkpt><trkpt lat="36.9671833" lon="14.9733613"><ele>584.0</ele><time>2026-04-12T09:21:01.597Z</time></trkpt><trkpt lat="36.967083" lon="14.9733207"><ele>584.0</ele><time>2026-04-12T09:21:02.596Z</time></trkpt><trkpt lat="36.9669818" lon="14.9733013"><ele>584.0</ele><time>2026-04-12T09:21:03.599Z</time></trkpt><trkpt lat="36.9668884" lon="14.9732931"><ele>583.6</ele><time>2026-04-12T09:21:04.596Z</time></trkpt><trkpt lat="36.9668055" lon="14.9732923"><ele>583.2</ele><time>2026-04-12T09:21:05.597Z</time></trkpt><trkpt lat="36.9667355" lon="14.9732849"><ele>582.8000000000001</ele><time>2026-04-12T09:21:06.598Z</time></trkpt><trkpt lat="36.9666367" lon="14.9732753"><ele>582.4</ele><time>2026-04-12T09:21:08.596Z</time></trkpt><trkpt lat="36.966718" lon="14.9733195"><ele>582.0</ele><time>2026-04-12T09:25:25.595Z</time></trkpt><trkpt lat="36.966832" lon="14.97331"><ele>582.0</ele><time>2026-04-12T09:25:26.596Z</time></trkpt><trkpt lat="36.9669738" lon="14.9733148"><ele>582.0</ele><time>2026-04-12T09:25:27.595Z</time></trkpt><trkpt lat="36.9671544" lon="14.9733648"><ele>582.0</ele><time>2026-04-12T09:25:28.599Z</time></trkpt><trkpt lat="36.9673379" lon="14.9734456"><ele>582.2</ele><time>2026-04-12T09:25:29.597Z</time></trkpt><trkpt lat="36.9674821" lon="14.9735201"><ele>582.4000000000001</ele><time>2026-04-12T09:25:30.595Z</time></trkpt><trkpt lat="36.9675869" lon="14.9735926"><ele>582.5999999999999</ele><time>2026-04-12T09:25:31.598Z</time></trkpt><trkpt lat="36.9676594" lon="14.9736611"><ele>582.8</ele><time>2026-04-12T09:25:32.597Z</time></trkpt><trkpt lat="36.9677013" lon="14.9737474"><ele>583.0</ele><time>2026-04-12T09:25:33.597Z</time></trkpt><trkpt lat="36.9677125" lon="14.9738765"><ele>583.0</ele><time>2026-04-12T09:25:34.598Z</time></trkpt><trkpt lat="36.9677027" lon="14.9740123"><ele>583.0</ele><time>2026-04-12T09:25:35.598Z</time></trkpt><trkpt lat="36.967651" lon="14.9741718"><ele>583.0</ele><time>2026-04-12T09:25:36.598Z</time></trkpt><trkpt lat="36.9675679" lon="14.9743671"><ele>583.0</ele><time>2026-04-12T09:25:37.598Z</time></trkpt><trkpt lat="36.9674797" lon="14.9745697"><ele>584.0</ele><time>2026-04-12T09:25:38.597Z</time></trkpt><trkpt lat="36.9674001" lon="14.9747694"><ele>585.0</ele><time>2026-04-12T09:25:39.597Z</time></trkpt><trkpt lat="36.9673689" lon="14.9749361"><ele>586.0</ele><time>2026-04-12T09:25:40.596Z</time></trkpt><trkpt lat="36.9673411" lon="14.9751202"><ele>586.25</ele><time>2026-04-12T09:25:41.596Z</time></trkpt><trkpt lat="36.9673551" lon="14.9753254"><ele>586.5</ele><time>2026-04-12T09:25:42.598Z</time></trkpt><trkpt lat="36.9673704" lon="14.9755129"><ele>586.75</ele><time>2026-04-12T09:25:43.595Z</time></trkpt><trkpt lat="36.9673703" lon="14.9756154"><ele>587.0</ele><time>2026-04-12T09:25:44.597Z</time></trkpt><trkpt lat="36.9673625" lon="14.9757016"><ele>587.0</ele><time>2026-04-12T09:25:45.595Z</time></trkpt><trkpt lat="36.9673546" lon="14.9758292"><ele>587.0</ele><time>2026-04-12T09:25:47.595Z</time></trkpt><trkpt lat="36.9673372" lon="14.9759517"><ele>587.0</ele><time>2026-04-12T09:25:49.6Z</time></trkpt><trkpt lat="36.967333" lon="14.9760506"><ele>587.0</ele><time>2026-04-12T09:25:50.599Z</time></trkpt><trkpt lat="36.9673063" lon="14.9761918"><ele>587.0</ele><time>2026-04-12T09:25:51.601Z</time></trkpt><trkpt lat="36.9672733" lon="14.9763364"><ele>587.4</ele><time>2026-04-12T09:25:52.599Z</time></trkpt><trkpt lat="36.9672756" lon="14.9764803"><ele>587.8000000000001</ele><time>2026-04-12T09:25:53.598Z</time></trkpt><trkpt lat="36.9673242" lon="14.9766049"><ele>588.2</ele><time>2026-04-12T09:25:54.6Z</time></trkpt><trkpt lat="36.9673765" lon="14.9766803"><ele>588.6</ele><time>2026-04-12T09:25:55.595Z</time></trkpt><trkpt lat="36.9674313" lon="14.9767421"><ele>589.0</ele><time>2026-04-12T09:25:56.596Z</time></trkpt><trkpt lat="36.9675135" lon="14.976774"><ele>590.0</ele><time>2026-04-12T09:25:57.592Z</time></trkpt><trkpt lat="36.967626" lon="14.9767965"><ele>591.0</ele><time>2026-04-12T09:25:58.594Z</time></trkpt><trkpt lat="36.9677693" lon="14.9768131"><ele>592.0</ele><time>2026-04-12T09:25:59.598Z</time></trkpt><trkpt lat="36.9679113" lon="14.9768253"><ele>593.0</ele><time>2026-04-12T09:26:00.598Z</time></trkpt><trkpt lat="36.9680438" lon="14.9768234"><ele>593.0</ele><time>2026-04-12T09:26:01.597Z</time></trkpt><trkpt lat="36.9681616" lon="14.9768124"><ele>593.0</ele><time>2026-04-12T09:26:02.598Z</time></trkpt><trkpt lat="36.9682669" lon="14.9767997"><ele>593.0</ele><time>2026-04-12T09:26:03.595Z</time></trkpt><trkpt lat="36.9683662" lon="14.9767927"><ele>593.0</ele><time>2026-04-12T09:26:04.595Z</time></trkpt><trkpt lat="36.9684546" lon="14.9767895"><ele>593.0</ele><time>2026-04-12T09:26:05.598Z</time></trkpt><trkpt lat="36.9685411" lon="14.9767832"><ele>591.75</ele><time>2026-04-12T09:26:06.598Z</time></trkpt><trkpt lat="36.9686459" lon="14.9767813"><ele>590.5</ele><time>2026-04-12T09:26:07.597Z</time></trkpt><trkpt lat="36.9687675" lon="14.9767902"><ele>589.25</ele><time>2026-04-12T09:26:08.598Z</time></trkpt><trkpt lat="36.9688933" lon="14.9768014"><ele>588.0</ele><time>2026-04-12T09:26:09.597Z</time></trkpt><trkpt lat="36.9690281" lon="14.9768137"><ele>588.0</ele><time>2026-04-12T09:26:10.596Z</time></trkpt><trkpt lat="36.9691563" lon="14.9768253"><ele>588.0</ele><time>2026-04-12T09:26:11.596Z</time></trkpt><trkpt lat="36.9692772" lon="14.9768325"><ele>588.0</ele><time>2026-04-12T09:26:12.597Z</time></trkpt><trkpt lat="36.9693759" lon="14.9767878"><ele>588.0</ele><time>2026-04-12T09:26:13.596Z</time></trkpt><trkpt lat="36.9694801" lon="14.9767108"><ele>589.0</ele><time>2026-04-12T09:26:14.598Z</time></trkpt><trkpt lat="36.9695921" lon="14.9766589"><ele>590.0</ele><time>2026-04-12T09:26:15.598Z</time></trkpt><trkpt lat="36.969731" lon="14.9766304"><ele>591.0</ele><time>2026-04-12T09:26:16.595Z</time></trkpt><trkpt lat="36.9698585" lon="14.9766161"><ele>592.0</ele><time>2026-04-12T09:26:17.597Z</time></trkpt><trkpt lat="36.9699562" lon="14.9766166"><ele>591.25</ele><time>2026-04-12T09:26:18.597Z</time></trkpt><trkpt lat="36.9700408" lon="14.9766375"><ele>590.5</ele><time>2026-04-12T09:26:19.595Z</time></trkpt><trkpt lat="36.9701301" lon="14.9767752"><ele>589.75</ele><time>2026-04-12T09:26:20.597Z</time></trkpt><trkpt lat="36.9702143" lon="14.9768947"><ele>589.0</ele><time>2026-04-12T09:26:21.595Z</time></trkpt><trkpt lat="36.9703616" lon="14.9771167"><ele>588.3333333333334</ele><time>2026-04-12T09:26:22.599Z</time></trkpt><trkpt lat="36.9704927" lon="14.9773077"><ele>587.6666666666666</ele><time>2026-04-12T09:26:23.598Z</time></trkpt><trkpt lat="36.9706034" lon="14.9774656"><ele>587.0</ele><time>2026-04-12T09:26:24.597Z</time></trkpt><trkpt lat="36.9706996" lon="14.9775728"><ele>586.8333333333333</ele><time>2026-04-12T09:26:25.595Z</time></trkpt><trkpt lat="36.9708036" lon="14.9776482"><ele>586.6666666666666</ele><time>2026-04-12T09:26:26.596Z</time></trkpt><trkpt lat="36.9708874" lon="14.9776946"><ele>586.5</ele><time>2026-04-12T09:26:27.596Z</time></trkpt><trkpt lat="36.9709382" lon="14.9777507"><ele>586.3333333333334</ele><time>2026-04-12T09:26:28.598Z</time></trkpt><trkpt lat="36.9709584" lon="14.9778375"><ele>586.1666666666667</ele><time>2026-04-12T09:26:29.596Z</time></trkpt><trkpt lat="36.9709475" lon="14.9779575"><ele>586.0</ele><time>2026-04-12T09:26:30.596Z</time></trkpt><trkpt lat="36.9709007" lon="14.9780915"><ele>586.0</ele><time>2026-04-12T09:26:31.597Z</time></trkpt><trkpt lat="36.9708697" lon="14.978193"><ele>586.0</ele><time>2026-04-12T09:26:32.594Z</time></trkpt><trkpt lat="36.970857" lon="14.9782767"><ele>586.0</ele><time>2026-04-12T09:26:33.596Z</time></trkpt><trkpt lat="36.9709299" lon="14.9783545"><ele>586.0</ele><time>2026-04-12T09:26:34.596Z</time></trkpt><trkpt lat="36.9710406" lon="14.978442"><ele>586.0</ele><time>2026-04-12T09:26:35.595Z</time></trkpt><trkpt lat="36.9711564" lon="14.9785448"><ele>586.0</ele><time>2026-04-12T09:26:36.598Z</time></trkpt><trkpt lat="36.9712702" lon="14.9786622"><ele>586.0</ele><time>2026-04-12T09:26:37.599Z</time></trkpt><trkpt lat="36.9713564" lon="14.9787649"><ele>586.0</ele><time>2026-04-12T09:26:38.595Z</time></trkpt><trkpt lat="36.9714203" lon="14.978841"><ele>586.0</ele><time>2026-04-12T09:26:39.596Z</time></trkpt><trkpt lat="36.9714741" lon="14.9789366"><ele>586.0</ele><time>2026-04-12T09:26:41.598Z</time></trkpt><trkpt lat="36.9715394" lon="14.9790224"><ele>586.0</ele><time>2026-04-12T09:26:43.596Z</time></trkpt><trkpt lat="36.971571" lon="14.9791283"><ele>586.0</ele><time>2026-04-12T09:26:46.596Z</time></trkpt><trkpt lat="36.971622" lon="14.9792646"><ele>586.0</ele><time>2026-04-12T09:26:48.596Z</time></trkpt><trkpt lat="36.9716703" lon="14.9793857"><ele>586.0</ele><time>2026-04-12T09:26:50.595Z</time></trkpt><trkpt lat="36.9717414" lon="14.9794176"><ele>586.0</ele><time>2026-04-12T09:26:52.593Z</time></trkpt><trkpt lat="36.9718276" lon="14.9794206"><ele>585.8</ele><time>2026-04-12T09:26:54.599Z</time></trkpt><trkpt lat="36.971905" lon="14.9794548"><ele>585.6</ele><time>2026-04-12T09:26:56.602Z</time></trkpt><trkpt lat="36.9719711" lon="14.9795213"><ele>585.4</ele><time>2026-04-12T09:26:58.595Z</time></trkpt><trkpt lat="36.9720745" lon="14.9795702"><ele>585.2</ele><time>2026-04-12T09:27:00.603Z</time></trkpt><trkpt lat="36.9721732" lon="14.9796144"><ele>585.0</ele><time>2026-04-12T09:27:01.595Z</time></trkpt><trkpt lat="36.9722891" lon="14.979649"><ele>585.0</ele><time>2026-04-12T09:27:02.596Z</time></trkpt><trkpt lat="36.9724183" lon="14.9796971"><ele>585.0</ele><time>2026-04-12T09:27:03.598Z</time></trkpt><trkpt lat="36.9725431" lon="14.9797413"><ele>585.0</ele><time>2026-04-12T09:27:04.595Z</time></trkpt><trkpt lat="36.972677" lon="14.9797862"><ele>585.0</ele><time>2026-04-12T09:27:05.596Z</time></trkpt><trkpt lat="36.9728182" lon="14.979848"><ele>586.0</ele><time>2026-04-12T09:27:06.598Z</time></trkpt><trkpt lat="36.9729688" lon="14.9799191"><ele>587.0</ele><time>2026-04-12T09:27:07.595Z</time></trkpt><trkpt lat="36.9731114" lon="14.979958"><ele>588.0</ele><time>2026-04-12T09:27:08.598Z</time></trkpt><trkpt lat="36.9732299" lon="14.9799809"><ele>589.0</ele><time>2026-04-12T09:27:09.595Z</time></trkpt><trkpt lat="36.9733314" lon="14.9800042"><ele>589.2</ele><time>2026-04-12T09:27:10.595Z</time></trkpt><trkpt lat="36.9734292" lon="14.9799876"><ele>589.4</ele><time>2026-04-12T09:27:12.593Z</time></trkpt><trkpt lat="36.973494" lon="14.9799351"><ele>589.6</ele><time>2026-04-12T09:27:13.596Z</time></trkpt><trkpt lat="36.9735444" lon="14.9798657"><ele>589.8</ele><time>2026-04-12T09:27:14.593Z</time></trkpt><trkpt lat="36.9735983" lon="14.979745"><ele>590.0</ele><time>2026-04-12T09:27:15.597Z</time></trkpt><trkpt lat="36.9736709" lon="14.9795886"><ele>590.0</ele><time>2026-04-12T09:27:16.592Z</time></trkpt><trkpt lat="36.9737302" lon="14.9794823"><ele>590.0</ele><time>2026-04-12T09:27:17.595Z</time></trkpt><trkpt lat="36.9737884" lon="14.9793842"><ele>590.0</ele><time>2026-04-12T09:27:18.597Z</time></trkpt><trkpt lat="36.9738568" lon="14.9792863"><ele>590.0</ele><time>2026-04-12T09:27:19.597Z</time></trkpt><trkpt lat="36.9739189" lon="14.9791759"><ele>590.0</ele><time>2026-04-12T09:27:20.596Z</time></trkpt><trkpt lat="36.9739767" lon="14.9790804"><ele>590.2</ele><time>2026-04-12T09:27:21.597Z</time></trkpt><trkpt lat="36.9740188" lon="14.9789784"><ele>590.4</ele><time>2026-04-12T09:27:22.594Z</time></trkpt><trkpt lat="36.974062" lon="14.9788468"><ele>590.6</ele><time>2026-04-12T09:27:23.598Z</time></trkpt><trkpt lat="36.9741087" lon="14.9787308"><ele>590.8</ele><time>2026-04-12T09:27:24.593Z</time></trkpt><trkpt lat="36.974154" lon="14.9786347"><ele>591.0</ele><time>2026-04-12T09:27:25.595Z</time></trkpt><trkpt lat="36.9742119" lon="14.9785568"><ele>591.5</ele><time>2026-04-12T09:27:26.599Z</time></trkpt><trkpt lat="36.9742601" lon="14.9784638"><ele>592.0</ele><time>2026-04-12T09:27:27.597Z</time></trkpt><trkpt lat="36.9743101" lon="14.9783691"><ele>592.5</ele><time>2026-04-12T09:27:28.596Z</time></trkpt><trkpt lat="36.9743668" lon="14.9782762"><ele>593.0</ele><time>2026-04-12T09:27:29.598Z</time></trkpt><trkpt lat="36.9744286" lon="14.9781818"><ele>593.5</ele><time>2026-04-12T09:27:30.594Z</time></trkpt><trkpt lat="36.9744627" lon="14.9781042"><ele>594.0</ele><time>2026-04-12T09:27:31.599Z</time></trkpt><trkpt lat="36.9744943" lon="14.9780136"><ele>594.8333333333334</ele><time>2026-04-12T09:27:32.597Z</time></trkpt><trkpt lat="36.9745355" lon="14.9779089"><ele>595.6666666666666</ele><time>2026-04-12T09:27:33.597Z</time></trkpt><trkpt lat="36.974585" lon="14.9777958"><ele>596.5</ele><time>2026-04-12T09:27:34.599Z</time></trkpt><trkpt lat="36.9746184" lon="14.9776959"><ele>597.3333333333333</ele><time>2026-04-12T09:27:35.596Z</time></trkpt><trkpt lat="36.9746452" lon="14.9775999"><ele>598.1666666666666</ele><time>2026-04-12T09:27:36.596Z</time></trkpt><trkpt lat="36.9746665" lon="14.9775235"><ele>599.0</ele><time>2026-04-12T09:27:37.598Z</time></trkpt><trkpt lat="36.9746942" lon="14.9774165"><ele>599.6</ele><time>2026-04-12T09:27:39.594Z</time></trkpt><trkpt lat="36.9747684" lon="14.9773306"><ele>600.2</ele><time>2026-04-12T09:27:42.603Z</time></trkpt><trkpt lat="36.9748351" lon="14.9772592"><ele>600.8000000000001</ele><time>2026-04-12T09:27:44.593Z</time></trkpt><trkpt lat="36.974912" lon="14.9772621"><ele>601.4</ele><time>2026-04-12T09:27:46.592Z</time></trkpt><trkpt lat="36.9749906" lon="14.9772311"><ele>602.0</ele><time>2026-04-12T09:27:48.594Z</time></trkpt><trkpt lat="36.9750589" lon="14.9771324"><ele>602.4</ele><time>2026-04-12T09:27:50.593Z</time></trkpt><trkpt lat="36.9751421" lon="14.9770034"><ele>602.8000000000001</ele><time>2026-04-12T09:27:52.595Z</time></trkpt><trkpt lat="36.9751892" lon="14.9769394"><ele>603.2</ele><time>2026-04-12T09:27:53.596Z</time></trkpt><trkpt lat="36.9752436" lon="14.9768451"><ele>603.6</ele><time>2026-04-12T09:27:55.597Z</time></trkpt><trkpt lat="36.9752877" lon="14.9767019"><ele>604.0</ele><time>2026-04-12T09:27:57.602Z</time></trkpt><trkpt lat="36.9753582" lon="14.97659"><ele>604.0</ele><time>2026-04-12T09:27:58.595Z</time></trkpt><trkpt lat="36.975416" lon="14.9765088"><ele>604.0</ele><time>2026-04-12T09:27:59.595Z</time></trkpt><trkpt lat="36.9754649" lon="14.9764487"><ele>604.0</ele><time>2026-04-12T09:28:00.594Z</time></trkpt><trkpt lat="36.9755162" lon="14.9763688"><ele>604.0</ele><time>2026-04-12T09:28:01.597Z</time></trkpt><trkpt lat="36.9755707" lon="14.9762655"><ele>604.0</ele><time>2026-04-12T09:28:02.595Z</time></trkpt><trkpt lat="36.9756617" lon="14.9761446"><ele>604.0</ele><time>2026-04-12T09:28:03.596Z</time></trkpt><trkpt lat="36.9757358" lon="14.9760287"><ele>604.0</ele><time>2026-04-12T09:28:04.596Z</time></trkpt><trkpt lat="36.9758271" lon="14.9759132"><ele>604.0</ele><time>2026-04-12T09:28:05.593Z</time></trkpt><trkpt lat="36.9759161" lon="14.9757984"><ele>604.0</ele><time>2026-04-12T09:28:06.599Z</time></trkpt><trkpt lat="36.9759783" lon="14.9757015"><ele>603.8333333333334</ele><time>2026-04-12T09:28:07.601Z</time></trkpt><trkpt lat="36.9760347" lon="14.9756264"><ele>603.6666666666667</ele><time>2026-04-12T09:28:08.596Z</time></trkpt><trkpt lat="36.9760747" lon="14.9755317"><ele>603.5</ele><time>2026-04-12T09:28:09.598Z</time></trkpt><trkpt lat="36.9761157" lon="14.9754422"><ele>603.3333333333334</ele><time>2026-04-12T09:28:10.597Z</time></trkpt><trkpt lat="36.9761484" lon="14.9753402"><ele>603.1666666666666</ele><time>2026-04-12T09:28:11.598Z</time></trkpt><trkpt lat="36.9761954" lon="14.9752566"><ele>603.0</ele><time>2026-04-12T09:28:12.596Z</time></trkpt><trkpt lat="36.9762507" lon="14.9751817"><ele>603.0</ele><time>2026-04-12T09:28:13.597Z</time></trkpt><trkpt lat="36.9763086" lon="14.9751127"><ele>603.0</ele><time>2026-04-12T09:28:14.597Z</time></trkpt><trkpt lat="36.9763726" lon="14.9750554"><ele>603.0</ele><time>2026-04-12T09:28:15.596Z</time></trkpt><trkpt lat="36.9764351" lon="14.9749897"><ele>603.0</ele><time>2026-04-12T09:28:16.597Z</time></trkpt><trkpt lat="36.9765025" lon="14.9749147"><ele>603.0</ele><time>2026-04-12T09:28:17.596Z</time></trkpt><trkpt lat="36.9765737" lon="14.9748348"><ele>603.0</ele><time>2026-04-12T09:28:18.595Z</time></trkpt><trkpt lat="36.9766415" lon="14.9747653"><ele>603.5</ele><time>2026-04-12T09:28:19.594Z</time></trkpt><trkpt lat="36.9767071" lon="14.9746961"><ele>604.0</ele><time>2026-04-12T09:28:20.598Z</time></trkpt><trkpt lat="36.9767668" lon="14.9746281"><ele>604.5</ele><time>2026-04-12T09:28:21.597Z</time></trkpt><trkpt lat="36.97682" lon="14.9745653"><ele>605.0</ele><time>2026-04-12T09:28:22.6Z</time></trkpt><trkpt lat="36.9768705" lon="14.9745162"><ele>605.5</ele><time>2026-04-12T09:28:23.594Z</time></trkpt><trkpt lat="36.9769342" lon="14.9744336"><ele>606.0</ele><time>2026-04-12T09:28:25.597Z</time></trkpt><trkpt lat="36.977008" lon="14.974334"><ele>606.0</ele><time>2026-04-12T09:28:28.601Z</time></trkpt><trkpt lat="36.9770669" lon="14.9742949"><ele>606.0</ele><time>2026-04-12T09:28:29.602Z</time></trkpt><trkpt lat="36.9771259" lon="14.9742516"><ele>606.0</ele><time>2026-04-12T09:28:30.599Z</time></trkpt><trkpt lat="36.9771954" lon="14.9741761"><ele>606.0</ele><time>2026-04-12T09:28:32.595Z</time></trkpt><trkpt lat="36.9772639" lon="14.9740939"><ele>606.0</ele><time>2026-04-12T09:28:34.601Z</time></trkpt><trkpt lat="36.9773294" lon="14.9739635"><ele>606.0</ele><time>2026-04-12T09:28:36.595Z</time></trkpt><trkpt lat="36.9773665" lon="14.9738978"><ele>606.1666666666666</ele><time>2026-04-12T09:28:37.594Z</time></trkpt><trkpt lat="36.9773984" lon="14.9738194"><ele>606.3333333333334</ele><time>2026-04-12T09:28:38.596Z</time></trkpt><trkpt lat="36.9774305" lon="14.9737474"><ele>606.5</ele><time>2026-04-12T09:28:39.595Z</time></trkpt><trkpt lat="36.9774636" lon="14.9736414"><ele>606.6666666666667</ele><time>2026-04-12T09:28:41.603Z</time></trkpt><trkpt lat="36.9775017" lon="14.9735213"><ele>606.8333333333334</ele><time>2026-04-12T09:28:43.6Z</time></trkpt><trkpt lat="36.9775557" lon="14.9734156"><ele>607.0</ele><time>2026-04-12T09:28:45.603Z</time></trkpt><trkpt lat="36.9776023" lon="14.9733596"><ele>606.6666666666667</ele><time>2026-04-12T09:28:47.594Z</time></trkpt><trkpt lat="36.9776492" lon="14.9732889"><ele>606.3333333333334</ele><time>2026-04-12T09:28:50.599Z</time></trkpt><trkpt lat="36.9775872" lon="14.9731949"><ele>606.0</ele><time>2026-04-12T09:28:53.596Z</time></trkpt><trkpt lat="36.9775514" lon="14.9731004"><ele>605.6666666666666</ele><time>2026-04-12T09:28:56.596Z</time></trkpt><trkpt lat="36.9774914" lon="14.9730225"><ele>605.3333333333333</ele><time>2026-04-12T09:28:59.597Z</time></trkpt><trkpt lat="36.9774643" lon="14.9729277"><ele>605.0</ele><time>2026-04-12T09:29:02.596Z</time></trkpt><trkpt lat="36.9774986" lon="14.9728421"><ele>603.1428571428571</ele><time>2026-04-12T09:29:04.597Z</time></trkpt><trkpt lat="36.9775643" lon="14.9728033"><ele>601.2857142857143</ele><time>2026-04-12T09:29:06.596Z</time></trkpt><trkpt lat="36.9776259" lon="14.9727831"><ele>599.4285714285714</ele><time>2026-04-12T09:29:08.594Z</time></trkpt><trkpt lat="36.9776999" lon="14.9728318"><ele>597.5714285714286</ele><time>2026-04-12T09:29:11.597Z</time></trkpt><trkpt lat="36.9777619" lon="14.9728591"><ele>595.7142857142857</ele><time>2026-04-12T09:29:14.593Z</time></trkpt><trkpt lat="36.9778323" lon="14.9727798"><ele>593.8571428571429</ele><time>2026-04-12T09:29:17.596Z</time></trkpt><trkpt lat="36.9778792" lon="14.9727252"><ele>592.0</ele><time>2026-04-12T09:29:19.597Z</time></trkpt><trkpt lat="36.9779158" lon="14.9726534"><ele>592.0</ele><time>2026-04-12T09:29:21.597Z</time></trkpt><trkpt lat="36.9779927" lon="14.9726139"><ele>592.0</ele><time>2026-04-12T09:29:24.596Z</time></trkpt><trkpt lat="36.9780487" lon="14.9726537"><ele>592.0</ele><time>2026-04-12T09:29:26.595Z</time></trkpt><trkpt lat="36.9781233" lon="14.9726334"><ele>592.0</ele><time>2026-04-12T09:29:29.594Z</time></trkpt><trkpt lat="36.9782114" lon="14.972654"><ele>592.0</ele><time>2026-04-12T09:29:31.594Z</time></trkpt><trkpt lat="36.9783225" lon="14.9727421"><ele>592.0</ele><time>2026-04-12T09:29:33.595Z</time></trkpt><trkpt lat="36.978391" lon="14.9727931"><ele>591.6</ele><time>2026-04-12T09:29:34.595Z</time></trkpt><trkpt lat="36.9784498" lon="14.9728394"><ele>591.2</ele><time>2026-04-12T09:29:35.595Z</time></trkpt><trkpt lat="36.9785191" lon="14.9729072"><ele>590.8</ele><time>2026-04-12T09:29:36.593Z</time></trkpt><trkpt lat="36.9785886" lon="14.9729908"><ele>590.4</ele><time>2026-04-12T09:29:37.595Z</time></trkpt><trkpt lat="36.97866" lon="14.9730828"><ele>590.0</ele><time>2026-04-12T09:29:38.597Z</time></trkpt><trkpt lat="36.9787326" lon="14.9731657"><ele>590.0</ele><time>2026-04-12T09:29:39.594Z</time></trkpt><trkpt lat="36.9788031" lon="14.9732459"><ele>590.0</ele><time>2026-04-12T09:29:40.594Z</time></trkpt><trkpt lat="36.9788654" lon="14.9733277"><ele>590.0</ele><time>2026-04-12T09:29:41.596Z</time></trkpt><trkpt lat="36.9789303" lon="14.9734025"><ele>590.0</ele><time>2026-04-12T09:29:42.594Z</time></trkpt><trkpt lat="36.9789926" lon="14.973466"><ele>590.0</ele><time>2026-04-12T09:29:43.595Z</time></trkpt><trkpt lat="36.9790493" lon="14.9735434"><ele>590.0</ele><time>2026-04-12T09:29:44.594Z</time></trkpt><trkpt lat="36.979103" lon="14.9736324"><ele>590.0</ele><time>2026-04-12T09:29:45.596Z</time></trkpt><trkpt lat="36.9791648" lon="14.9737178"><ele>590.0</ele><time>2026-04-12T09:29:46.594Z</time></trkpt><trkpt lat="36.9792316" lon="14.9737976"><ele>590.0</ele><time>2026-04-12T09:29:47.595Z</time></trkpt><trkpt lat="36.9792988" lon="14.9738642"><ele>590.0</ele><time>2026-04-12T09:29:48.594Z</time></trkpt><trkpt lat="36.9793608" lon="14.9739284"><ele>590.0</ele><time>2026-04-12T09:29:49.596Z</time></trkpt><trkpt lat="36.9794098" lon="14.9740041"><ele>590.0</ele><time>2026-04-12T09:29:50.595Z</time></trkpt><trkpt lat="36.9794469" lon="14.974091"><ele>590.0</ele><time>2026-04-12T09:29:51.594Z</time></trkpt><trkpt lat="36.979481" lon="14.9741775"><ele>590.0</ele><time>2026-04-12T09:29:52.594Z</time></trkpt><trkpt lat="36.9795198" lon="14.9742461"><ele>590.0</ele><time>2026-04-12T09:29:53.595Z</time></trkpt><trkpt lat="36.9795601" lon="14.9743093"><ele>590.0</ele><time>2026-04-12T09:29:54.595Z</time></trkpt><trkpt lat="36.9796207" lon="14.9744314"><ele>590.0</ele><time>2026-04-12T09:29:56.594Z</time></trkpt><trkpt lat="36.9796459" lon="14.9745374"><ele>590.0</ele><time>2026-04-12T09:29:58.596Z</time></trkpt><trkpt lat="36.9796596" lon="14.9746484"><ele>588.0</ele><time>2026-04-12T09:30:00.595Z</time></trkpt><trkpt lat="36.9796744" lon="14.974738"><ele>586.0</ele><time>2026-04-12T09:30:02.597Z</time></trkpt><trkpt lat="36.979703" lon="14.9748208"><ele>584.0</ele><time>2026-04-12T09:30:04.596Z</time></trkpt><trkpt lat="36.9797151" lon="14.9749403"><ele>582.0</ele><time>2026-04-12T09:30:06.598Z</time></trkpt><trkpt lat="36.9797818" lon="14.9750116"><ele>580.0</ele><time>2026-04-12T09:30:09.596Z</time></trkpt><trkpt lat="36.9798233" lon="14.9750901"><ele>578.0</ele><time>2026-04-12T09:30:11.596Z</time></trkpt><trkpt lat="36.9798625" lon="14.9751655"><ele>577.5</ele><time>2026-04-12T09:30:13.594Z</time></trkpt><trkpt lat="36.9799043" lon="14.9752546"><ele>577.0</ele><time>2026-04-12T09:30:15.595Z</time></trkpt><trkpt lat="36.979952" lon="14.9753477"><ele>576.5</ele><time>2026-04-12T09:30:18.593Z</time></trkpt><trkpt lat="36.9800186" lon="14.9754097"><ele>576.0</ele><time>2026-04-12T09:30:20.592Z</time></trkpt><trkpt lat="36.9801274" lon="14.9754669"><ele>575.5</ele><time>2026-04-12T09:30:22.596Z</time></trkpt><trkpt lat="36.9801833" lon="14.9755111"><ele>575.0</ele><time>2026-04-12T09:30:23.596Z</time></trkpt><trkpt lat="36.9802501" lon="14.9755377"><ele>574.8333333333333</ele><time>2026-04-12T09:30:24.594Z</time></trkpt><trkpt lat="36.9803157" lon="14.9755505"><ele>574.6666666666666</ele><time>2026-04-12T09:30:25.595Z</time></trkpt><trkpt lat="36.9804236" lon="14.9755399"><ele>574.5</ele><time>2026-04-12T09:30:27.597Z</time></trkpt><trkpt lat="36.9805069" lon="14.9755067"><ele>574.3333333333334</ele><time>2026-04-12T09:30:29.599Z</time></trkpt><trkpt lat="36.9806181" lon="14.9754646"><ele>574.1666666666667</ele><time>2026-04-12T09:30:31.602Z</time></trkpt><trkpt lat="36.9806777" lon="14.975437"><ele>574.0</ele><time>2026-04-12T09:30:32.595Z</time></trkpt><trkpt lat="36.9807513" lon="14.9754143"><ele>574.0</ele><time>2026-04-12T09:30:35.597Z</time></trkpt><trkpt lat="36.9808488" lon="14.9754178"><ele>574.0</ele><time>2026-04-12T09:30:38.6Z</time></trkpt><trkpt lat="36.9809485" lon="14.9754757"><ele>574.0</ele><time>2026-04-12T09:30:40.592Z</time></trkpt><trkpt lat="36.981038" lon="14.9755404"><ele>574.0</ele><time>2026-04-12T09:30:42.596Z</time></trkpt><trkpt lat="36.981116" lon="14.9756474"><ele>574.0</ele><time>2026-04-12T09:30:44.592Z</time></trkpt><trkpt lat="36.981187" lon="14.9757322"><ele>574.6</ele><time>2026-04-12T09:32:59.597Z</time></trkpt><trkpt lat="36.9812413" lon="14.9758176"><ele>575.2</ele><time>2026-04-12T09:33:01.596Z</time></trkpt><trkpt lat="36.9812954" lon="14.9758998"><ele>575.8000000000001</ele><time>2026-04-12T09:33:03.603Z</time></trkpt><trkpt lat="36.9813488" lon="14.9760594"><ele>576.4</ele><time>2026-04-12T09:33:05.593Z</time></trkpt><trkpt lat="36.9813784" lon="14.9761659"><ele>577.0</ele><time>2026-04-12T09:33:06.596Z</time></trkpt><trkpt lat="36.9814047" lon="14.9762723"><ele>576.1666666666667</ele><time>2026-04-12T09:33:07.597Z</time></trkpt><trkpt lat="36.9814333" lon="14.9763696"><ele>575.3333333333334</ele><time>2026-04-12T09:33:08.597Z</time></trkpt><trkpt lat="36.9814711" lon="14.9764646"><ele>574.5</ele><time>2026-04-12T09:33:09.598Z</time></trkpt><trkpt lat="36.9815216" lon="14.9765571"><ele>573.6666666666666</ele><time>2026-04-12T09:33:10.598Z</time></trkpt><trkpt lat="36.9815675" lon="14.9766549"><ele>572.8333333333333</ele><time>2026-04-12T09:33:11.595Z</time></trkpt><trkpt lat="36.9816219" lon="14.9767449"><ele>572.0</ele><time>2026-04-12T09:33:12.594Z</time></trkpt><trkpt lat="36.9816884" lon="14.9768252"><ele>569.4</ele><time>2026-04-12T09:33:13.597Z</time></trkpt><trkpt lat="36.9817655" lon="14.9769006"><ele>566.8000000000001</ele><time>2026-04-12T09:33:14.597Z</time></trkpt><trkpt lat="36.9818437" lon="14.9769716"><ele>564.2</ele><time>2026-04-12T09:33:15.595Z</time></trkpt><trkpt lat="36.9819249" lon="14.977052"><ele>561.6</ele><time>2026-04-12T09:33:16.592Z</time></trkpt><trkpt lat="36.9820103" lon="14.9771157"><ele>559.0</ele><time>2026-04-12T09:33:17.593Z</time></trkpt><trkpt lat="36.9821071" lon="14.9771808"><ele>559.0</ele><time>2026-04-12T09:33:18.596Z</time></trkpt><trkpt lat="36.9822112" lon="14.9772411"><ele>559.0</ele><time>2026-04-12T09:33:19.592Z</time></trkpt><trkpt lat="36.98232" lon="14.9772968"><ele>559.0</ele><time>2026-04-12T09:33:20.596Z</time></trkpt><trkpt lat="36.9824209" lon="14.9773342"><ele>559.0</ele><time>2026-04-12T09:33:21.595Z</time></trkpt><trkpt lat="36.9825243" lon="14.9773835"><ele>559.0</ele><time>2026-04-12T09:33:22.593Z</time></trkpt><trkpt lat="36.9826281" lon="14.9774368"><ele>557.4</ele><time>2026-04-12T09:33:23.598Z</time></trkpt><trkpt lat="36.9827377" lon="14.9774704"><ele>555.8</ele><time>2026-04-12T09:33:24.595Z</time></trkpt><trkpt lat="36.9828457" lon="14.9774982"><ele>554.2</ele><time>2026-04-12T09:33:25.595Z</time></trkpt><trkpt lat="36.9829566" lon="14.9775175"><ele>552.6</ele><time>2026-04-12T09:33:26.596Z</time></trkpt><trkpt lat="36.9830706" lon="14.9775122"><ele>551.0</ele><time>2026-04-12T09:33:27.596Z</time></trkpt><trkpt lat="36.9831931" lon="14.9775009"><ele>551.0</ele><time>2026-04-12T09:33:28.595Z</time></trkpt><trkpt lat="36.9833113" lon="14.9774851"><ele>551.0</ele><time>2026-04-12T09:33:29.594Z</time></trkpt><trkpt lat="36.9834317" lon="14.9774614"><ele>551.0</ele><time>2026-04-12T09:33:30.596Z</time></trkpt><trkpt lat="36.9835406" lon="14.9774379"><ele>551.0</ele><time>2026-04-12T09:33:31.594Z</time></trkpt><trkpt lat="36.9836463" lon="14.9774263"><ele>550.4</ele><time>2026-04-12T09:33:32.594Z</time></trkpt><trkpt lat="36.9837556" lon="14.9774274"><ele>549.8</ele><time>2026-04-12T09:33:33.595Z</time></trkpt><trkpt lat="36.9838682" lon="14.9774324"><ele>549.1999999999999</ele><time>2026-04-12T09:33:34.593Z</time></trkpt><trkpt lat="36.9839788" lon="14.9774429"><ele>548.6</ele><time>2026-04-12T09:33:35.596Z</time></trkpt><trkpt lat="36.9840882" lon="14.9774674"><ele>548.0</ele><time>2026-04-12T09:33:36.595Z</time></trkpt><trkpt lat="36.9841962" lon="14.9774963"><ele>546.75</ele><time>2026-04-12T09:33:37.594Z</time></trkpt><trkpt lat="36.9843139" lon="14.9775254"><ele>545.5</ele><time>2026-04-12T09:33:38.596Z</time></trkpt><trkpt lat="36.9844382" lon="14.9775705"><ele>544.25</ele><time>2026-04-12T09:33:39.595Z</time></trkpt><trkpt lat="36.984561" lon="14.9776077"><ele>543.0</ele><time>2026-04-12T09:33:40.593Z</time></trkpt><trkpt lat="36.9846832" lon="14.9776448"><ele>543.0</ele><time>2026-04-12T09:33:41.597Z</time></trkpt><trkpt lat="36.9847934" lon="14.9776771"><ele>543.0</ele><time>2026-04-12T09:33:42.596Z</time></trkpt><trkpt lat="36.9848979" lon="14.9777028"><ele>543.0</ele><time>2026-04-12T09:33:43.592Z</time></trkpt><trkpt lat="36.9850061" lon="14.9777237"><ele>543.0</ele><time>2026-04-12T09:33:44.594Z</time></trkpt><trkpt lat="36.9851165" lon="14.9777359"><ele>543.0</ele><time>2026-04-12T09:33:45.594Z</time></trkpt><trkpt lat="36.9852277" lon="14.9777499"><ele>544.4</ele><time>2026-04-12T09:33:46.593Z</time></trkpt><trkpt lat="36.9853395" lon="14.9777602"><ele>545.8</ele><time>2026-04-12T09:33:47.592Z</time></trkpt><trkpt lat="36.9854416" lon="14.9777755"><ele>547.2</ele><time>2026-04-12T09:33:48.594Z</time></trkpt><trkpt lat="36.9855454" lon="14.9777901"><ele>548.6</ele><time>2026-04-12T09:33:49.595Z</time></trkpt><trkpt lat="36.9856428" lon="14.9778039"><ele>550.0</ele><time>2026-04-12T09:33:50.597Z</time></trkpt><trkpt lat="36.9857281" lon="14.9778196"><ele>550.0</ele><time>2026-04-12T09:33:51.596Z</time></trkpt><trkpt lat="36.9857989" lon="14.9778185"><ele>550.0</ele><time>2026-04-12T09:33:52.597Z</time></trkpt><trkpt lat="36.9858782" lon="14.9778138"><ele>550.0</ele><time>2026-04-12T09:33:53.597Z</time></trkpt><trkpt lat="36.9859656" lon="14.9778089"><ele>550.0</ele><time>2026-04-12T09:33:54.596Z</time></trkpt><trkpt lat="36.9860563" lon="14.9778179"><ele>550.0</ele><time>2026-04-12T09:33:55.598Z</time></trkpt><trkpt lat="36.9861509" lon="14.9778193"><ele>550.0</ele><time>2026-04-12T09:33:56.596Z</time></trkpt><trkpt lat="36.9862425" lon="14.977809"><ele>549.6</ele><time>2026-04-12T09:33:57.592Z</time></trkpt><trkpt lat="36.9863348" lon="14.9777902"><ele>549.2</ele><time>2026-04-12T09:33:58.596Z</time></trkpt><trkpt lat="36.9864302" lon="14.9777535"><ele>548.8</ele><time>2026-04-12T09:33:59.596Z</time></trkpt><trkpt lat="36.9865249" lon="14.9777109"><ele>548.4</ele><time>2026-04-12T09:34:00.594Z</time></trkpt><trkpt lat="36.9866152" lon="14.9776656"><ele>548.0</ele><time>2026-04-12T09:34:01.598Z</time></trkpt><trkpt lat="36.9867039" lon="14.9776244"><ele>547.0</ele><time>2026-04-12T09:34:02.599Z</time></trkpt><trkpt lat="36.9867885" lon="14.9775856"><ele>546.0</ele><time>2026-04-12T09:34:03.598Z</time></trkpt><trkpt lat="36.9868708" lon="14.977546"><ele>545.0</ele><time>2026-04-12T09:34:04.599Z</time></trkpt><trkpt lat="36.9869544" lon="14.9774967"><ele>544.0</ele><time>2026-04-12T09:34:05.597Z</time></trkpt><trkpt lat="36.9870399" lon="14.9774585"><ele>543.0</ele><time>2026-04-12T09:34:06.593Z</time></trkpt><trkpt lat="36.9871249" lon="14.9774668"><ele>542.0</ele><time>2026-04-12T09:34:07.6Z</time></trkpt><trkpt lat="36.9872162" lon="14.9774951"><ele>541.8333333333333</ele><time>2026-04-12T09:34:08.596Z</time></trkpt><trkpt lat="36.9873117" lon="14.977542"><ele>541.6666666666666</ele><time>2026-04-12T09:34:09.596Z</time></trkpt><trkpt lat="36.9874019" lon="14.9775843"><ele>541.5</ele><time>2026-04-12T09:34:10.595Z</time></trkpt><trkpt lat="36.987484" lon="14.9776197"><ele>541.3333333333334</ele><time>2026-04-12T09:34:11.593Z</time></trkpt><trkpt lat="36.9875544" lon="14.9776507"><ele>541.1666666666667</ele><time>2026-04-12T09:34:12.595Z</time></trkpt><trkpt lat="36.9876242" lon="14.9776894"><ele>541.0</ele><time>2026-04-12T09:34:13.595Z</time></trkpt><trkpt lat="36.9877211" lon="14.9777432"><ele>542.0</ele><time>2026-04-12T09:34:14.597Z</time></trkpt><trkpt lat="36.9878279" lon="14.977786"><ele>543.0</ele><time>2026-04-12T09:34:15.601Z</time></trkpt><trkpt lat="36.9879354" lon="14.9778427"><ele>544.0</ele><time>2026-04-12T09:34:16.597Z</time></trkpt><trkpt lat="36.988044" lon="14.9778914"><ele>545.0</ele><time>2026-04-12T09:34:17.597Z</time></trkpt><trkpt lat="36.9881558" lon="14.9779482"><ele>545.0</ele><time>2026-04-12T09:34:18.599Z</time></trkpt><trkpt lat="36.9882589" lon="14.9779935"><ele>545.0</ele><time>2026-04-12T09:34:19.596Z</time></trkpt><trkpt lat="36.9883763" lon="14.9780595"><ele>545.0</ele><time>2026-04-12T09:34:20.596Z</time></trkpt><trkpt lat="36.9884849" lon="14.9781036"><ele>545.0</ele><time>2026-04-12T09:34:21.598Z</time></trkpt><trkpt lat="36.9885953" lon="14.978156"><ele>544.8</ele><time>2026-04-12T09:34:22.595Z</time></trkpt><trkpt lat="36.9887003" lon="14.9782122"><ele>544.6</ele><time>2026-04-12T09:34:23.597Z</time></trkpt><trkpt lat="36.9888053" lon="14.9782676"><ele>544.4</ele><time>2026-04-12T09:34:24.596Z</time></trkpt><trkpt lat="36.9889025" lon="14.9783279"><ele>544.2</ele><time>2026-04-12T09:34:25.595Z</time></trkpt><trkpt lat="36.9889996" lon="14.9783945"><ele>544.0</ele><time>2026-04-12T09:34:26.593Z</time></trkpt><trkpt lat="36.9890894" lon="14.9784733"><ele>543.6</ele><time>2026-04-12T09:34:27.593Z</time></trkpt><trkpt lat="36.9891855" lon="14.978551"><ele>543.2</ele><time>2026-04-12T09:34:28.595Z</time></trkpt><trkpt lat="36.9892741" lon="14.9786327"><ele>542.8000000000001</ele><time>2026-04-12T09:34:29.594Z</time></trkpt><trkpt lat="36.989359" lon="14.9787257"><ele>542.4</ele><time>2026-04-12T09:34:30.596Z</time></trkpt><trkpt lat="36.9894432" lon="14.978814"><ele>542.0</ele><time>2026-04-12T09:34:31.596Z</time></trkpt><trkpt lat="36.9895242" lon="14.9789015"><ele>542.0</ele><time>2026-04-12T09:34:32.593Z</time></trkpt><trkpt lat="36.9895959" lon="14.9789882"><ele>542.0</ele><time>2026-04-12T09:34:33.596Z</time></trkpt><trkpt lat="36.9896591" lon="14.9790537"><ele>542.0</ele><time>2026-04-12T09:34:34.595Z</time></trkpt><trkpt lat="36.9897165" lon="14.9791094"><ele>542.0</ele><time>2026-04-12T09:34:35.593Z</time></trkpt><trkpt lat="36.9897826" lon="14.979174"><ele>542.0</ele><time>2026-04-12T09:34:36.595Z</time></trkpt><trkpt lat="36.9898561" lon="14.9792563"><ele>542.0</ele><time>2026-04-12T09:34:37.594Z</time></trkpt><trkpt lat="36.9899463" lon="14.9793462"><ele>542.0</ele><time>2026-04-12T09:34:38.596Z</time></trkpt><trkpt lat="36.9900456" lon="14.9794359"><ele>542.0</ele><time>2026-04-12T09:34:39.594Z</time></trkpt><trkpt lat="36.9901414" lon="14.9795345"><ele>542.0</ele><time>2026-04-12T09:34:40.593Z</time></trkpt><trkpt lat="36.9902431" lon="14.979636"><ele>542.0</ele><time>2026-04-12T09:34:41.593Z</time></trkpt><trkpt lat="36.9903477" lon="14.9797401"><ele>542.0</ele><time>2026-04-12T09:34:42.595Z</time></trkpt><trkpt lat="36.9904545" lon="14.9798438"><ele>542.0</ele><time>2026-04-12T09:34:43.593Z</time></trkpt><trkpt lat="36.9905653" lon="14.9799576"><ele>542.0</ele><time>2026-04-12T09:34:44.595Z</time></trkpt><trkpt lat="36.9906782" lon="14.9800701"><ele>542.0</ele><time>2026-04-12T09:34:45.595Z</time></trkpt><trkpt lat="36.9907938" lon="14.9801794"><ele>542.0</ele><time>2026-04-12T09:34:46.594Z</time></trkpt><trkpt lat="36.9909102" lon="14.9802909"><ele>542.0</ele><time>2026-04-12T09:34:47.595Z</time></trkpt><trkpt lat="36.9910266" lon="14.9804029"><ele>542.0</ele><time>2026-04-12T09:34:48.595Z</time></trkpt><trkpt lat="36.991139" lon="14.9805087"><ele>542.0</ele><time>2026-04-12T09:34:49.595Z</time></trkpt><trkpt lat="36.9912504" lon="14.9806141"><ele>542.0</ele><time>2026-04-12T09:34:50.594Z</time></trkpt><trkpt lat="36.9913584" lon="14.9807223"><ele>542.0</ele><time>2026-04-12T09:34:51.593Z</time></trkpt><trkpt lat="36.9914617" lon="14.9808266"><ele>542.0</ele><time>2026-04-12T09:34:52.594Z</time></trkpt><trkpt lat="36.9915572" lon="14.9809375"><ele>542.0</ele><time>2026-04-12T09:34:53.594Z</time></trkpt><trkpt lat="36.9916368" lon="14.9810687"><ele>541.0</ele><time>2026-04-12T09:34:54.594Z</time></trkpt><trkpt lat="36.9917101" lon="14.9812109"><ele>540.0</ele><time>2026-04-12T09:34:55.595Z</time></trkpt><trkpt lat="36.9917739" lon="14.9813661"><ele>539.0</ele><time>2026-04-12T09:34:56.594Z</time></trkpt><trkpt lat="36.9918381" lon="14.9815333"><ele>538.0</ele><time>2026-04-12T09:34:57.593Z</time></trkpt><trkpt lat="36.991903" lon="14.9817142"><ele>536.3333333333334</ele><time>2026-04-12T09:34:58.593Z</time></trkpt><trkpt lat="36.9919713" lon="14.981911"><ele>534.6666666666666</ele><time>2026-04-12T09:34:59.593Z</time></trkpt><trkpt lat="36.9920447" lon="14.9821182"><ele>533.0</ele><time>2026-04-12T09:35:00.593Z</time></trkpt><trkpt lat="36.9921193" lon="14.9823377"><ele>532.0</ele><time>2026-04-12T09:35:01.595Z</time></trkpt><trkpt lat="36.9921981" lon="14.9825722"><ele>531.0</ele><time>2026-04-12T09:35:02.594Z</time></trkpt><trkpt lat="36.9922757" lon="14.9827978"><ele>530.0</ele><time>2026-04-12T09:35:03.592Z</time></trkpt><trkpt lat="36.9923535" lon="14.9830309"><ele>530.0</ele><time>2026-04-12T09:35:04.594Z</time></trkpt><trkpt lat="36.9924319" lon="14.9832603"><ele>530.0</ele><time>2026-04-12T09:35:05.593Z</time></trkpt><trkpt lat="36.9925049" lon="14.9834815"><ele>530.0</ele><time>2026-04-12T09:35:06.593Z</time></trkpt><trkpt lat="36.9925748" lon="14.9836895"><ele>529.0</ele><time>2026-04-12T09:35:07.595Z</time></trkpt><trkpt lat="36.9926426" lon="14.9838892"><ele>528.0</ele><time>2026-04-12T09:35:08.592Z</time></trkpt><trkpt lat="36.9927035" lon="14.9840515"><ele>527.0</ele><time>2026-04-12T09:35:09.591Z</time></trkpt><trkpt lat="36.9927623" lon="14.9841727"><ele>526.0</ele><time>2026-04-12T09:35:10.596Z</time></trkpt><trkpt lat="36.9928468" lon="14.9842507"><ele>524.4</ele><time>2026-04-12T09:35:11.595Z</time></trkpt><trkpt lat="36.992957" lon="14.9842833"><ele>522.8</ele><time>2026-04-12T09:35:12.594Z</time></trkpt><trkpt lat="36.9930576" lon="14.9842945"><ele>521.1999999999999</ele><time>2026-04-12T09:35:13.595Z</time></trkpt><trkpt lat="36.9931271" lon="14.9843006"><ele>519.6</ele><time>2026-04-12T09:35:14.595Z</time></trkpt><trkpt lat="36.9931885" lon="14.984387"><ele>518.0</ele><time>2026-04-12T09:35:16.595Z</time></trkpt><trkpt lat="36.9930972" lon="14.9845253"><ele>518.0</ele><time>2026-04-12T09:35:18.599Z</time></trkpt><trkpt lat="36.9930123" lon="14.9845898"><ele>518.0</ele><time>2026-04-12T09:35:19.597Z</time></trkpt><trkpt lat="36.9929048" lon="14.9846623"><ele>518.0</ele><time>2026-04-12T09:35:20.597Z</time></trkpt><trkpt lat="36.992807" lon="14.984739"><ele>518.0</ele><time>2026-04-12T09:35:21.599Z</time></trkpt><trkpt lat="36.9927198" lon="14.9848043"><ele>518.0</ele><time>2026-04-12T09:35:22.598Z</time></trkpt><trkpt lat="36.9926608" lon="14.9848637"><ele>518.0</ele><time>2026-04-12T09:35:23.595Z</time></trkpt><trkpt lat="36.9926327" lon="14.9849428"><ele>518.0</ele><time>2026-04-12T09:35:24.596Z</time></trkpt><trkpt lat="36.9926206" lon="14.9850203"><ele>518.0</ele><time>2026-04-12T09:35:25.594Z</time></trkpt><trkpt lat="36.992694" lon="14.9850876"><ele>518.0</ele><time>2026-04-12T09:35:26.595Z</time></trkpt><trkpt lat="36.992778" lon="14.9851575"><ele>518.0</ele><time>2026-04-12T09:35:27.594Z</time></trkpt><trkpt lat="36.9928615" lon="14.985223"><ele>518.0</ele><time>2026-04-12T09:35:28.595Z</time></trkpt><trkpt lat="36.992933" lon="14.9853147"><ele>516.75</ele><time>2026-04-12T09:35:29.594Z</time></trkpt><trkpt lat="36.9929754" lon="14.9854247"><ele>515.5</ele><time>2026-04-12T09:35:30.595Z</time></trkpt><trkpt lat="36.9929839" lon="14.9855647"><ele>514.25</ele><time>2026-04-12T09:35:31.594Z</time></trkpt><trkpt lat="36.992968" lon="14.9857133"><ele>513.0</ele><time>2026-04-12T09:35:32.596Z</time></trkpt><trkpt lat="36.9929469" lon="14.9858742"><ele>512.75</ele><time>2026-04-12T09:35:33.596Z</time></trkpt><trkpt lat="36.9929271" lon="14.9860425"><ele>512.5</ele><time>2026-04-12T09:35:34.593Z</time></trkpt><trkpt lat="36.9929005" lon="14.9861966"><ele>512.25</ele><time>2026-04-12T09:35:35.594Z</time></trkpt><trkpt lat="36.9928909" lon="14.986343"><ele>512.0</ele><time>2026-04-12T09:35:36.595Z</time></trkpt><trkpt lat="36.9928907" lon="14.9864809"><ele>512.0</ele><time>2026-04-12T09:35:37.594Z</time></trkpt><trkpt lat="36.9929214" lon="14.9866165"><ele>512.0</ele><time>2026-04-12T09:35:38.594Z</time></trkpt><trkpt lat="36.9929714" lon="14.986751"><ele>512.0</ele><time>2026-04-12T09:35:39.593Z</time></trkpt><trkpt lat="36.9930369" lon="14.9868703"><ele>512.0</ele><time>2026-04-12T09:35:40.595Z</time></trkpt><trkpt lat="36.9931132" lon="14.9869934"><ele>513.25</ele><time>2026-04-12T09:35:41.594Z</time></trkpt><trkpt lat="36.9931974" lon="14.9871177"><ele>514.5</ele><time>2026-04-12T09:35:42.595Z</time></trkpt><trkpt lat="36.9932819" lon="14.9872452"><ele>515.75</ele><time>2026-04-12T09:35:43.595Z</time></trkpt><trkpt lat="36.9933708" lon="14.9873702"><ele>517.0</ele><time>2026-04-12T09:35:44.593Z</time></trkpt><trkpt lat="36.9934607" lon="14.9875051"><ele>517.5</ele><time>2026-04-12T09:35:45.596Z</time></trkpt><trkpt lat="36.99355" lon="14.9876406"><ele>518.0</ele><time>2026-04-12T09:35:46.596Z</time></trkpt><trkpt lat="36.9936385" lon="14.9877896"><ele>518.5</ele><time>2026-04-12T09:35:47.595Z</time></trkpt><trkpt lat="36.9937273" lon="14.9879385"><ele>519.0</ele><time>2026-04-12T09:35:48.593Z</time></trkpt><trkpt lat="36.9938162" lon="14.9880851"><ele>519.0</ele><time>2026-04-12T09:35:49.594Z</time></trkpt><trkpt lat="36.993905" lon="14.9882267"><ele>519.0</ele><time>2026-04-12T09:35:50.594Z</time></trkpt><trkpt lat="36.9939906" lon="14.9883777"><ele>519.0</ele><time>2026-04-12T09:35:51.592Z</time></trkpt><trkpt lat="36.9940681" lon="14.9885134"><ele>519.0</ele><time>2026-04-12T09:35:52.594Z</time></trkpt><trkpt lat="36.9941375" lon="14.98865"><ele>519.5</ele><time>2026-04-12T09:35:53.593Z</time></trkpt><trkpt lat="36.9941924" lon="14.9887922"><ele>520.0</ele><time>2026-04-12T09:35:54.593Z</time></trkpt><trkpt lat="36.9942367" lon="14.9889422"><ele>520.5</ele><time>2026-04-12T09:35:55.592Z</time></trkpt><trkpt lat="36.9942765" lon="14.9890866"><ele>521.0</ele><time>2026-04-12T09:35:56.594Z</time></trkpt><trkpt lat="36.9943109" lon="14.9892139"><ele>521.0</ele><time>2026-04-12T09:35:57.593Z</time></trkpt><trkpt lat="36.9943348" lon="14.989313"><ele>521.0</ele><time>2026-04-12T09:35:58.595Z</time></trkpt><trkpt lat="36.9943512" lon="14.9893912"><ele>521.0</ele><time>2026-04-12T09:35:59.595Z</time></trkpt><trkpt lat="36.9943535" lon="14.9894705"><ele>521.0</ele><time>2026-04-12T09:36:00.593Z</time></trkpt><trkpt lat="36.9943581" lon="14.9896018"><ele>521.0</ele><time>2026-04-12T09:36:02.594Z</time></trkpt><trkpt lat="36.9943684" lon="14.9897293"><ele>521.0</ele><time>2026-04-12T09:36:04.593Z</time></trkpt><trkpt lat="36.9943866" lon="14.9898531"><ele>521.0</ele><time>2026-04-12T09:36:06.594Z</time></trkpt><trkpt lat="36.9943531" lon="14.9899725"><ele>521.0</ele><time>2026-04-12T09:36:07.594Z</time></trkpt><trkpt lat="36.9943219" lon="14.9900644"><ele>521.0</ele><time>2026-04-12T09:36:09.594Z</time></trkpt><trkpt lat="36.9943713" lon="14.990139"><ele>521.0</ele><time>2026-04-12T09:36:11.598Z</time></trkpt><trkpt lat="36.9944487" lon="14.9902095"><ele>521.0</ele><time>2026-04-12T09:36:13.596Z</time></trkpt><trkpt lat="36.9944849" lon="14.9902746"><ele>521.0</ele><time>2026-04-12T09:36:15.594Z</time></trkpt><trkpt lat="36.9944363" lon="14.9903881"><ele>520.4</ele><time>2026-04-12T09:36:17.597Z</time></trkpt><trkpt lat="36.994382" lon="14.9904537"><ele>519.8</ele><time>2026-04-12T09:36:18.593Z</time></trkpt><trkpt lat="36.9943015" lon="14.9905577"><ele>519.1999999999999</ele><time>2026-04-12T09:36:19.593Z</time></trkpt><trkpt lat="36.9942329" lon="14.990642"><ele>518.6</ele><time>2026-04-12T09:36:20.593Z</time></trkpt><trkpt lat="36.9941449" lon="14.9906902"><ele>518.0</ele><time>2026-04-12T09:36:21.598Z</time></trkpt><trkpt lat="36.9940364" lon="14.9907106"><ele>518.0</ele><time>2026-04-12T09:36:22.595Z</time></trkpt><trkpt lat="36.99395" lon="14.9907097"><ele>518.0</ele><time>2026-04-12T09:36:23.596Z</time></trkpt><trkpt lat="36.9938694" lon="14.9906457"><ele>518.0</ele><time>2026-04-12T09:36:24.593Z</time></trkpt><trkpt lat="36.9937948" lon="14.9905707"><ele>518.0</ele><time>2026-04-12T09:36:25.597Z</time></trkpt><trkpt lat="36.9937427" lon="14.9905034"><ele>518.0</ele><time>2026-04-12T09:36:26.594Z</time></trkpt><trkpt lat="36.9936618" lon="14.9904788"><ele>518.0</ele><time>2026-04-12T09:36:28.594Z</time></trkpt><trkpt lat="36.9936038" lon="14.9905194"><ele>518.0</ele><time>2026-04-12T09:36:29.602Z</time></trkpt><trkpt lat="36.9935138" lon="14.9905969"><ele>518.0</ele><time>2026-04-12T09:36:30.596Z</time></trkpt><trkpt lat="36.9934195" lon="14.9906841"><ele>518.0</ele><time>2026-04-12T09:36:31.597Z</time></trkpt><trkpt lat="36.993321" lon="14.9907707"><ele>518.0</ele><time>2026-04-12T09:36:32.595Z</time></trkpt><trkpt lat="36.9932217" lon="14.9908773"><ele>516.75</ele><time>2026-04-12T09:36:33.595Z</time></trkpt><trkpt lat="36.9931118" lon="14.9909797"><ele>515.5</ele><time>2026-04-12T09:36:34.59Z</time></trkpt><trkpt lat="36.9929996" lon="14.9910823"><ele>514.25</ele><time>2026-04-12T09:36:35.592Z</time></trkpt><trkpt lat="36.9928881" lon="14.9911885"><ele>513.0</ele><time>2026-04-12T09:36:36.595Z</time></trkpt><trkpt lat="36.9927785" lon="14.9912928"><ele>513.0</ele><time>2026-04-12T09:36:37.597Z</time></trkpt><trkpt lat="36.9926669" lon="14.9913995"><ele>513.0</ele><time>2026-04-12T09:36:38.592Z</time></trkpt><trkpt lat="36.9925624" lon="14.9915038"><ele>513.0</ele><time>2026-04-12T09:36:39.595Z</time></trkpt><trkpt lat="36.9924567" lon="14.9916113"><ele>513.0</ele><time>2026-04-12T09:36:40.594Z</time></trkpt><trkpt lat="36.9923542" lon="14.9917241"><ele>513.25</ele><time>2026-04-12T09:36:41.595Z</time></trkpt><trkpt lat="36.9922525" lon="14.9918431"><ele>513.5</ele><time>2026-04-12T09:36:42.597Z</time></trkpt><trkpt lat="36.9921536" lon="14.991968"><ele>513.75</ele><time>2026-04-12T09:36:43.597Z</time></trkpt><trkpt lat="36.9920601" lon="14.9920993"><ele>514.0</ele><time>2026-04-12T09:36:44.594Z</time></trkpt><trkpt lat="36.9919703" lon="14.9922365"><ele>514.0</ele><time>2026-04-12T09:36:45.597Z</time></trkpt><trkpt lat="36.9918827" lon="14.9923793"><ele>514.0</ele><time>2026-04-12T09:36:46.596Z</time></trkpt><trkpt lat="36.991794" lon="14.9925238"><ele>514.0</ele><time>2026-04-12T09:36:47.596Z</time></trkpt><trkpt lat="36.9917097" lon="14.992671"><ele>514.0</ele><time>2026-04-12T09:36:48.592Z</time></trkpt><trkpt lat="36.9916276" lon="14.9928239"><ele>514.0</ele><time>2026-04-12T09:36:49.594Z</time></trkpt><trkpt lat="36.9915411" lon="14.9929786"><ele>514.0</ele><time>2026-04-12T09:36:50.596Z</time></trkpt><trkpt lat="36.9914515" lon="14.9931342"><ele>514.0</ele><time>2026-04-12T09:36:51.595Z</time></trkpt><trkpt lat="36.9913609" lon="14.9932831"><ele>513.25</ele><time>2026-04-12T09:36:52.595Z</time></trkpt><trkpt lat="36.9912802" lon="14.9934277"><ele>512.5</ele><time>2026-04-12T09:36:53.596Z</time></trkpt><trkpt lat="36.9912016" lon="14.9935641"><ele>511.75</ele><time>2026-04-12T09:36:54.594Z</time></trkpt><trkpt lat="36.9911253" lon="14.993703"><ele>511.0</ele><time>2026-04-12T09:36:55.593Z</time></trkpt><trkpt lat="36.9910459" lon="14.9938453"><ele>511.0</ele><time>2026-04-12T09:36:56.593Z</time></trkpt><trkpt lat="36.9909642" lon="14.993989"><ele>511.0</ele><time>2026-04-12T09:36:57.594Z</time></trkpt><trkpt lat="36.9908842" lon="14.9941305"><ele>511.0</ele><time>2026-04-12T09:36:58.594Z</time></trkpt><trkpt lat="36.9908069" lon="14.9942645"><ele>511.0</ele><time>2026-04-12T09:36:59.594Z</time></trkpt><trkpt lat="36.9907364" lon="14.9943888"><ele>510.4</ele><time>2026-04-12T09:37:00.597Z</time></trkpt><trkpt lat="36.9906714" lon="14.9945026"><ele>509.8</ele><time>2026-04-12T09:37:01.595Z</time></trkpt><trkpt lat="36.9906152" lon="14.9946226"><ele>509.19999999999993</ele><time>2026-04-12T09:37:02.596Z</time></trkpt><trkpt lat="36.9905737" lon="14.994744"><ele>508.59999999999997</ele><time>2026-04-12T09:37:03.596Z</time></trkpt><trkpt lat="36.9905622" lon="14.994866"><ele>508.0</ele><time>2026-04-12T09:37:04.594Z</time></trkpt><trkpt lat="36.9905378" lon="14.9949735"><ele>506.75</ele><time>2026-04-12T09:37:05.595Z</time></trkpt><trkpt lat="36.9905032" lon="14.9950849"><ele>505.5</ele><time>2026-04-12T09:37:06.595Z</time></trkpt><trkpt lat="36.9904086" lon="14.9951727"><ele>504.25</ele><time>2026-04-12T09:37:07.593Z</time></trkpt><trkpt lat="36.9903211" lon="14.9952765"><ele>503.0</ele><time>2026-04-12T09:37:08.595Z</time></trkpt><trkpt lat="36.9902313" lon="14.995397"><ele>503.0</ele><time>2026-04-12T09:37:09.594Z</time></trkpt><trkpt lat="36.9901377" lon="14.9955195"><ele>503.0</ele><time>2026-04-12T09:37:10.592Z</time></trkpt><trkpt lat="36.9900406" lon="14.9956362"><ele>503.0</ele><time>2026-04-12T09:37:11.594Z</time></trkpt><trkpt lat="36.9899489" lon="14.9957502"><ele>503.0</ele><time>2026-04-12T09:37:12.594Z</time></trkpt><trkpt lat="36.9898574" lon="14.9958557"><ele>500.0</ele><time>2026-04-12T09:37:13.595Z</time></trkpt><trkpt lat="36.9897716" lon="14.9959612"><ele>497.0</ele><time>2026-04-12T09:37:14.596Z</time></trkpt><trkpt lat="36.9896833" lon="14.9960653"><ele>494.0</ele><time>2026-04-12T09:37:15.595Z</time></trkpt><trkpt lat="36.9895978" lon="14.9961798"><ele>491.0</ele><time>2026-04-12T09:37:16.594Z</time></trkpt><trkpt lat="36.9895075" lon="14.996293"><ele>491.0</ele><time>2026-04-12T09:37:17.596Z</time></trkpt><trkpt lat="36.9894142" lon="14.9964083"><ele>491.0</ele><time>2026-04-12T09:37:18.594Z</time></trkpt><trkpt lat="36.989324" lon="14.9965201"><ele>491.0</ele><time>2026-04-12T09:37:19.593Z</time></trkpt><trkpt lat="36.989237" lon="14.9966274"><ele>491.0</ele><time>2026-04-12T09:37:20.597Z</time></trkpt><trkpt lat="36.9891465" lon="14.996733"><ele>489.6</ele><time>2026-04-12T09:37:21.598Z</time></trkpt><trkpt lat="36.9890643" lon="14.9968194"><ele>488.20000000000005</ele><time>2026-04-12T09:37:22.593Z</time></trkpt><trkpt lat="36.9889939" lon="14.9969081"><ele>486.79999999999995</ele><time>2026-04-12T09:37:23.595Z</time></trkpt><trkpt lat="36.988927" lon="14.9969916"><ele>485.4</ele><time>2026-04-12T09:37:24.593Z</time></trkpt><trkpt lat="36.9888634" lon="14.9970757"><ele>484.0</ele><time>2026-04-12T09:37:25.59Z</time></trkpt><trkpt lat="36.9888033" lon="14.9971659"><ele>484.00000000000006</ele><time>2026-04-12T09:37:26.596Z</time></trkpt><trkpt lat="36.9887431" lon="14.9972595"><ele>484.0</ele><time>2026-04-12T09:37:27.598Z</time></trkpt><trkpt lat="36.9886971" lon="14.9973574"><ele>484.0</ele><time>2026-04-12T09:37:28.594Z</time></trkpt><trkpt lat="36.9886504" lon="14.9974587"><ele>484.0</ele><time>2026-04-12T09:37:29.597Z</time></trkpt><trkpt lat="36.9886248" lon="14.9975563"><ele>484.00000000000006</ele><time>2026-04-12T09:37:30.597Z</time></trkpt><trkpt lat="36.9885988" lon="14.9976517"><ele>484.0</ele><time>2026-04-12T09:37:31.595Z</time></trkpt><trkpt lat="36.9885808" lon="14.9977427"><ele>483.00000000000006</ele><time>2026-04-12T09:37:32.595Z</time></trkpt><trkpt lat="36.9885688" lon="14.9978476"><ele>482.0</ele><time>2026-04-12T09:37:33.595Z</time></trkpt><trkpt lat="36.9885661" lon="14.99795"><ele>481.0</ele><time>2026-04-12T09:37:34.598Z</time></trkpt><trkpt lat="36.9885557" lon="14.9980523"><ele>480.0</ele><time>2026-04-12T09:37:35.594Z</time></trkpt><trkpt lat="36.9885575" lon="14.9981416"><ele>479.00000000000006</ele><time>2026-04-12T09:37:36.594Z</time></trkpt><trkpt lat="36.9885585" lon="14.9982244"><ele>478.0</ele><time>2026-04-12T09:37:37.595Z</time></trkpt><trkpt lat="36.9885724" lon="14.9983135"><ele>476.79999999999995</ele><time>2026-04-12T09:37:38.596Z</time></trkpt><trkpt lat="36.9885865" lon="14.9984072"><ele>475.59999999999997</ele><time>2026-04-12T09:37:39.594Z</time></trkpt><trkpt lat="36.9886054" lon="14.9985154"><ele>474.40000000000003</ele><time>2026-04-12T09:37:40.595Z</time></trkpt><trkpt lat="36.9886211" lon="14.9986456"><ele>473.20000000000005</ele><time>2026-04-12T09:37:41.596Z</time></trkpt><trkpt lat="36.9886343" lon="14.9987768"><ele>472.0</ele><time>2026-04-12T09:37:42.595Z</time></trkpt><trkpt lat="36.9886327" lon="14.9988893"><ele>472.00000000000006</ele><time>2026-04-12T09:37:43.597Z</time></trkpt><trkpt lat="36.988618" lon="14.9989785"><ele>472.0</ele><time>2026-04-12T09:37:44.595Z</time></trkpt><trkpt lat="36.988599" lon="14.9990689"><ele>472.0</ele><time>2026-04-12T09:37:45.596Z</time></trkpt><trkpt lat="36.9885566" lon="14.9991577"><ele>472.0</ele><time>2026-04-12T09:37:46.595Z</time></trkpt><trkpt lat="36.9885058" lon="14.999253"><ele>472.00000000000006</ele><time>2026-04-12T09:37:47.597Z</time></trkpt><trkpt lat="36.9884543" lon="14.9993544"><ele>472.0</ele><time>2026-04-12T09:37:48.591Z</time></trkpt><trkpt lat="36.9884002" lon="14.9994391"><ele>471.50000000000006</ele><time>2026-04-12T09:37:49.596Z</time></trkpt><trkpt lat="36.988363" lon="14.9995204"><ele>471.0</ele><time>2026-04-12T09:37:50.595Z</time></trkpt><trkpt lat="36.9883302" lon="14.9995977"><ele>470.5</ele><time>2026-04-12T09:37:51.594Z</time></trkpt><trkpt lat="36.9882899" lon="14.9996716"><ele>470.0</ele><time>2026-04-12T09:37:52.594Z</time></trkpt><trkpt lat="36.9882528" lon="14.9997555"><ele>469.50000000000006</ele><time>2026-04-12T09:37:53.596Z</time></trkpt><trkpt lat="36.9882122" lon="14.9998415"><ele>469.0</ele><time>2026-04-12T09:37:54.595Z</time></trkpt><trkpt lat="36.9881694" lon="14.9999383"><ele>470.6666666666667</ele><time>2026-04-12T09:37:55.595Z</time></trkpt><trkpt lat="36.9881262" lon="15.0000395"><ele>472.33333333333337</ele><time>2026-04-12T09:37:56.598Z</time></trkpt><trkpt lat="36.988078" lon="15.0001289"><ele>474.0</ele><time>2026-04-12T09:37:57.594Z</time></trkpt><trkpt lat="36.9880347" lon="15.0002277"><ele>475.66666666666663</ele><time>2026-04-12T09:37:58.595Z</time></trkpt><trkpt lat="36.9879897" lon="15.0003178"><ele>477.3333333333333</ele><time>2026-04-12T09:37:59.596Z</time></trkpt><trkpt lat="36.9879555" lon="15.0004002"><ele>479.0</ele><time>2026-04-12T09:38:00.594Z</time></trkpt><trkpt lat="36.9879258" lon="15.0004794"><ele>479.0</ele><time>2026-04-12T09:38:01.597Z</time></trkpt><trkpt lat="36.9878971" lon="15.0005616"><ele>479.0</ele><time>2026-04-12T09:38:02.597Z</time></trkpt><trkpt lat="36.9878753" lon="15.0006598"><ele>479.0</ele><time>2026-04-12T09:38:03.597Z</time></trkpt><trkpt lat="36.9878486" lon="15.0007473"><ele>479.0</ele><time>2026-04-12T09:38:04.598Z</time></trkpt><trkpt lat="36.9878205" lon="15.0008203"><ele>479.0</ele><time>2026-04-12T09:38:05.597Z</time></trkpt><trkpt lat="36.9877992" lon="15.0009023"><ele>479.0</ele><time>2026-04-12T09:38:06.598Z</time></trkpt><trkpt lat="36.9877893" lon="15.0009924"><ele>479.0</ele><time>2026-04-12T09:38:07.593Z</time></trkpt><trkpt lat="36.9877729" lon="15.0010802"><ele>477.66666666666663</ele><time>2026-04-12T09:38:08.595Z</time></trkpt><trkpt lat="36.9877446" lon="15.0011647"><ele>476.3333333333333</ele><time>2026-04-12T09:38:09.595Z</time></trkpt><trkpt lat="36.9877238" lon="15.0012435"><ele>475.0</ele><time>2026-04-12T09:38:10.595Z</time></trkpt><trkpt lat="36.9876878" lon="15.0013753"><ele>473.66666666666663</ele><time>2026-04-12T09:38:12.594Z</time></trkpt><trkpt lat="36.9876665" lon="15.0015355"><ele>472.3333333333333</ele><time>2026-04-12T09:38:14.601Z</time></trkpt><trkpt lat="36.9876649" lon="15.0016194"><ele>471.0</ele><time>2026-04-12T09:38:15.594Z</time></trkpt><trkpt lat="36.9876653" lon="15.0017015"><ele>470.20000000000005</ele><time>2026-04-12T09:38:16.596Z</time></trkpt><trkpt lat="36.9876561" lon="15.0017804"><ele>469.40000000000003</ele><time>2026-04-12T09:38:17.596Z</time></trkpt><trkpt lat="36.9876219" lon="15.0018578"><ele>468.6</ele><time>2026-04-12T09:38:18.594Z</time></trkpt><trkpt lat="36.9876118" lon="15.0019956"><ele>467.8</ele><time>2026-04-12T09:38:20.595Z</time></trkpt><trkpt lat="36.9875914" lon="15.0021247"><ele>467.0</ele><time>2026-04-12T09:38:22.593Z</time></trkpt><trkpt lat="36.987559" lon="15.0022498"><ele>467.0</ele><time>2026-04-12T09:38:24.596Z</time></trkpt><trkpt lat="36.9875501" lon="15.0023587"><ele>467.00000000000006</ele><time>2026-04-12T09:38:26.594Z</time></trkpt><trkpt lat="36.9875393" lon="15.0024945"><ele>467.00000000000006</ele><time>2026-04-12T09:38:28.602Z</time></trkpt><trkpt lat="36.9875153" lon="15.0026268"><ele>467.0</ele><time>2026-04-12T09:38:30.596Z</time></trkpt><trkpt lat="36.9874944" lon="15.0027622"><ele>467.0</ele><time>2026-04-12T09:38:32.593Z</time></trkpt><trkpt lat="36.987469" lon="15.0028809"><ele>466.66666666666663</ele><time>2026-04-12T09:38:34.598Z</time></trkpt><trkpt lat="36.9874839" lon="15.0029829"><ele>466.3333333333333</ele><time>2026-04-12T09:38:36.596Z</time></trkpt><trkpt lat="36.9874731" lon="15.0031018"><ele>466.0</ele><time>2026-04-12T09:38:38.598Z</time></trkpt><trkpt lat="36.9874481" lon="15.0032017"><ele>465.66666666666663</ele><time>2026-04-12T09:38:40.595Z</time></trkpt><trkpt lat="36.9874381" lon="15.0033163"><ele>465.3333333333333</ele><time>2026-04-12T09:38:42.592Z</time></trkpt><trkpt lat="36.9874204" lon="15.0034303"><ele>465.0</ele><time>2026-04-12T09:38:44.597Z</time></trkpt><trkpt lat="36.9874126" lon="15.0035313"><ele>465.0</ele><time>2026-04-12T09:38:46.595Z</time></trkpt><trkpt lat="36.9874054" lon="15.0036193"><ele>465.0</ele><time>2026-04-12T09:38:48.594Z</time></trkpt><trkpt lat="36.9873635" lon="15.0037344"><ele>465.0</ele><time>2026-04-12T09:38:50.597Z</time></trkpt><trkpt lat="36.987307" lon="15.0038212"><ele>465.0</ele><time>2026-04-12T09:38:53.596Z</time></trkpt><trkpt lat="36.9872961" lon="15.0039363"><ele>465.0</ele><time>2026-04-12T09:38:56.595Z</time></trkpt><trkpt lat="36.9873048" lon="15.0040487"><ele>465.0</ele><time>2026-04-12T09:38:59.595Z</time></trkpt><trkpt lat="36.9873177" lon="15.0041274"><ele>464.0</ele><time>2026-04-12T09:39:01.595Z</time></trkpt><trkpt lat="36.9873374" lon="15.0042109"><ele>463.0</ele><time>2026-04-12T09:39:03.594Z</time></trkpt><trkpt lat="36.9873556" lon="15.004296"><ele>462.0</ele><time>2026-04-12T09:39:05.595Z</time></trkpt><trkpt lat="36.9874033" lon="15.0043635"><ele>461.0</ele><time>2026-04-12T09:39:07.591Z</time></trkpt><trkpt lat="36.9874276" lon="15.0044403"><ele>460.0</ele><time>2026-04-12T09:39:09.594Z</time></trkpt><trkpt lat="36.9874558" lon="15.0045482"><ele>459.0</ele><time>2026-04-12T09:39:12.594Z</time></trkpt><trkpt lat="36.9874673" lon="15.0046261"><ele>458.0</ele><time>2026-04-12T09:39:14.595Z</time></trkpt><trkpt lat="36.9874367" lon="15.0047092"><ele>458.0</ele><time>2026-04-12T09:39:17.595Z</time></trkpt><trkpt lat="36.9873727" lon="15.0047171"><ele>458.0</ele><time>2026-04-12T09:39:19.595Z</time></trkpt><trkpt lat="36.9873249" lon="15.0047701"><ele>458.0</ele><time>2026-04-12T09:39:22.594Z</time></trkpt><trkpt lat="36.9872897" lon="15.0048473"><ele>458.0</ele><time>2026-04-12T09:39:25.594Z</time></trkpt><trkpt lat="36.9872421" lon="15.004916"><ele>458.0</ele><time>2026-04-12T09:39:28.596Z</time></trkpt><trkpt lat="36.9871672" lon="15.00496"><ele>458.0</ele><time>2026-04-12T09:39:31.593Z</time></trkpt><trkpt lat="36.9871018" lon="15.0050079"><ele>458.0</ele><time>2026-04-12T09:39:33.593Z</time></trkpt><trkpt lat="36.9870281" lon="15.0050133"><ele>456.8333333333333</ele><time>2026-04-12T09:39:35.594Z</time></trkpt><trkpt lat="36.9869608" lon="15.0050179"><ele>455.66666666666663</ele><time>2026-04-12T09:39:37.596Z</time></trkpt><trkpt lat="36.9868885" lon="15.0050222"><ele>454.5</ele><time>2026-04-12T09:39:39.595Z</time></trkpt><trkpt lat="36.9868335" lon="15.0050619"><ele>453.33333333333337</ele><time>2026-04-12T09:40:06.594Z</time></trkpt><trkpt lat="36.9868324" lon="15.0051602"><ele>452.1666666666667</ele><time>2026-04-12T09:40:10.595Z</time></trkpt><trkpt lat="36.9868959" lon="15.0052475"><ele>451.0</ele><time>2026-04-12T09:40:13.593Z</time></trkpt><trkpt lat="36.9869868" lon="15.0053241"><ele>451.00000000000006</ele><time>2026-04-12T09:40:15.595Z</time></trkpt><trkpt lat="36.9870711" lon="15.0053597"><ele>451.0</ele><time>2026-04-12T09:40:17.595Z</time></trkpt><trkpt lat="36.9871027" lon="15.00545"><ele>451.0</ele><time>2026-04-12T09:40:19.597Z</time></trkpt><trkpt lat="36.9871586" lon="15.0055307"><ele>451.0</ele><time>2026-04-12T09:40:21.596Z</time></trkpt><trkpt lat="36.9872253" lon="15.0056019"><ele>451.00000000000006</ele><time>2026-04-12T09:40:25.597Z</time></trkpt><trkpt lat="36.9873132" lon="15.005613"><ele>451.0</ele><time>2026-04-12T09:40:28.595Z</time></trkpt><trkpt lat="36.9874064" lon="15.0056847"><ele>451.0</ele><time>2026-04-12T09:40:30.596Z</time></trkpt><trkpt lat="36.9874769" lon="15.0057188"><ele>451.0</ele><time>2026-04-12T09:40:31.595Z</time></trkpt><trkpt lat="36.987554" lon="15.0057814"><ele>451.0</ele><time>2026-04-12T09:40:32.593Z</time></trkpt><trkpt lat="36.9876056" lon="15.005881"><ele>451.0</ele><time>2026-04-12T09:40:33.594Z</time></trkpt><trkpt lat="36.987656" lon="15.0060132"><ele>451.0</ele><time>2026-04-12T09:40:34.595Z</time></trkpt><trkpt lat="36.9876924" lon="15.0061442"><ele>451.1666666666667</ele><time>2026-04-12T09:40:35.597Z</time></trkpt><trkpt lat="36.9877232" lon="15.0062596"><ele>451.33333333333337</ele><time>2026-04-12T09:40:36.599Z</time></trkpt><trkpt lat="36.9877599" lon="15.0063598"><ele>451.5</ele><time>2026-04-12T09:40:37.595Z</time></trkpt><trkpt lat="36.9877946" lon="15.0064363"><ele>451.66666666666663</ele><time>2026-04-12T09:40:38.592Z</time></trkpt><trkpt lat="36.9878226" lon="15.006507"><ele>451.8333333333333</ele><time>2026-04-12T09:40:39.596Z</time></trkpt><trkpt lat="36.987864" lon="15.0066227"><ele>452.0</ele><time>2026-04-12T09:40:41.596Z</time></trkpt><trkpt lat="36.9879183" lon="15.0067216"><ele>451.99999999999994</ele><time>2026-04-12T09:40:44.596Z</time></trkpt><trkpt lat="36.9879879" lon="15.0068051"><ele>452.0</ele><time>2026-04-12T09:40:46.602Z</time></trkpt><trkpt lat="36.988039" lon="15.0068623"><ele>452.0</ele><time>2026-04-12T09:40:47.598Z</time></trkpt><trkpt lat="36.988096" lon="15.0069935"><ele>452.0</ele><time>2026-04-12T09:40:49.593Z</time></trkpt><trkpt lat="36.988098" lon="15.0070876"><ele>451.99999999999994</ele><time>2026-04-12T09:40:50.594Z</time></trkpt><trkpt lat="36.9880985" lon="15.0071736"><ele>452.0</ele><time>2026-04-12T09:40:51.593Z</time></trkpt><trkpt lat="36.9880853" lon="15.0072551"><ele>452.0</ele><time>2026-04-12T09:40:52.594Z</time></trkpt><trkpt lat="36.9880575" lon="15.0073955"><ele>452.00000000000006</ele><time>2026-04-12T09:40:54.594Z</time></trkpt><trkpt lat="36.98801" lon="15.0074517"><ele>452.00000000000006</ele><time>2026-04-12T09:40:55.594Z</time></trkpt><trkpt lat="36.9879539" lon="15.0075061"><ele>452.0</ele><time>2026-04-12T09:40:56.593Z</time></trkpt><trkpt lat="36.9878578" lon="15.0075968"><ele>452.0</ele><time>2026-04-12T09:40:57.593Z</time></trkpt><trkpt lat="36.9877747" lon="15.007679"><ele>454.0</ele><time>2026-04-12T09:40:58.593Z</time></trkpt><trkpt lat="36.98768" lon="15.0077711"><ele>456.0</ele><time>2026-04-12T09:40:59.592Z</time></trkpt><trkpt lat="36.9875733" lon="15.007862"><ele>458.0</ele><time>2026-04-12T09:41:00.592Z</time></trkpt><trkpt lat="36.9874619" lon="15.0079643"><ele>460.0</ele><time>2026-04-12T09:41:01.592Z</time></trkpt><trkpt lat="36.9873725" lon="15.0080447"><ele>460.33333333333337</ele><time>2026-04-12T09:41:02.592Z</time></trkpt><trkpt lat="36.9872926" lon="15.0081047"><ele>460.6666666666667</ele><time>2026-04-12T09:41:03.597Z</time></trkpt><trkpt lat="36.9872245" lon="15.0081672"><ele>461.0</ele><time>2026-04-12T09:41:04.594Z</time></trkpt><trkpt lat="36.9871683" lon="15.0082388"><ele>461.33333333333337</ele><time>2026-04-12T09:41:05.592Z</time></trkpt><trkpt lat="36.9871114" lon="15.0083044"><ele>461.6666666666667</ele><time>2026-04-12T09:41:06.592Z</time></trkpt><trkpt lat="36.9870462" lon="15.0083647"><ele>462.0</ele><time>2026-04-12T09:41:07.593Z</time></trkpt><trkpt lat="36.98697" lon="15.0084168"><ele>461.20000000000005</ele><time>2026-04-12T09:41:08.595Z</time></trkpt><trkpt lat="36.9869121" lon="15.0084774"><ele>460.40000000000003</ele><time>2026-04-12T09:41:09.592Z</time></trkpt><trkpt lat="36.9868513" lon="15.0086324"><ele>459.59999999999997</ele><time>2026-04-12T09:41:11.591Z</time></trkpt><trkpt lat="36.9868226" lon="15.0087231"><ele>458.79999999999995</ele><time>2026-04-12T09:41:12.595Z</time></trkpt><trkpt lat="36.9868042" lon="15.0088063"><ele>458.0</ele><time>2026-04-12T09:41:13.594Z</time></trkpt><trkpt lat="36.9868063" lon="15.0089482"><ele>458.0</ele><time>2026-04-12T09:41:15.592Z</time></trkpt><trkpt lat="36.9868228" lon="15.0090834"><ele>457.99999999999994</ele><time>2026-04-12T09:41:17.591Z</time></trkpt><trkpt lat="36.9867805" lon="15.0092243"><ele>457.99999999999994</ele><time>2026-04-12T09:41:19.597Z</time></trkpt><trkpt lat="36.9867574" lon="15.0093045"><ele>458.0</ele><time>2026-04-12T09:41:20.593Z</time></trkpt><trkpt lat="36.9867343" lon="15.009383"><ele>458.0</ele><time>2026-04-12T09:41:21.592Z</time></trkpt><trkpt lat="36.9866837" lon="15.0095353"><ele>457.99999999999994</ele><time>2026-04-12T09:41:23.591Z</time></trkpt><trkpt lat="36.9866562" lon="15.009612"><ele>458.0</ele><time>2026-04-12T09:41:24.593Z</time></trkpt><trkpt lat="36.9866302" lon="15.0096864"><ele>458.0</ele><time>2026-04-12T09:41:25.593Z</time></trkpt><trkpt lat="36.9866099" lon="15.0097652"><ele>458.0</ele><time>2026-04-12T09:41:26.593Z</time></trkpt><trkpt lat="36.9866008" lon="15.0098496"><ele>457.99999999999994</ele><time>2026-04-12T09:41:27.593Z</time></trkpt><trkpt lat="36.9866193" lon="15.0099958"><ele>458.0</ele><time>2026-04-12T09:41:29.592Z</time></trkpt><trkpt lat="36.9866677" lon="15.0100801"><ele>457.25</ele><time>2026-04-12T09:41:30.594Z</time></trkpt><trkpt lat="36.9867308" lon="15.0101856"><ele>456.5</ele><time>2026-04-12T09:41:31.593Z</time></trkpt><trkpt lat="36.9867965" lon="15.0103049"><ele>455.75</ele><time>2026-04-12T09:41:32.592Z</time></trkpt><trkpt lat="36.9868704" lon="15.0104224"><ele>455.0</ele><time>2026-04-12T09:41:33.595Z</time></trkpt><trkpt lat="36.9869437" lon="15.0105582"><ele>455.0</ele><time>2026-04-12T09:41:34.592Z</time></trkpt><trkpt lat="36.9870181" lon="15.0106868"><ele>455.0</ele><time>2026-04-12T09:41:35.597Z</time></trkpt><trkpt lat="36.9870858" lon="15.0108095"><ele>455.0</ele><time>2026-04-12T09:41:36.592Z</time></trkpt><trkpt lat="36.9871504" lon="15.0109245"><ele>455.0</ele><time>2026-04-12T09:41:37.594Z</time></trkpt><trkpt lat="36.9872222" lon="15.0110398"><ele>454.5</ele><time>2026-04-12T09:41:38.593Z</time></trkpt><trkpt lat="36.9873001" lon="15.0111649"><ele>454.0</ele><time>2026-04-12T09:41:39.592Z</time></trkpt><trkpt lat="36.9873698" lon="15.0112993"><ele>453.5</ele><time>2026-04-12T09:41:40.593Z</time></trkpt><trkpt lat="36.9874341" lon="15.01144"><ele>453.0</ele><time>2026-04-12T09:41:41.594Z</time></trkpt><trkpt lat="36.9875027" lon="15.0115755"><ele>452.2</ele><time>2026-04-12T09:41:42.596Z</time></trkpt><trkpt lat="36.9875746" lon="15.0116986"><ele>451.4</ele><time>2026-04-12T09:41:43.594Z</time></trkpt><trkpt lat="36.9876434" lon="15.0118072"><ele>450.59999999999997</ele><time>2026-04-12T09:41:44.593Z</time></trkpt><trkpt lat="36.9877082" lon="15.0119083"><ele>449.79999999999995</ele><time>2026-04-12T09:41:45.593Z</time></trkpt><trkpt lat="36.9877639" lon="15.0120083"><ele>449.0</ele><time>2026-04-12T09:41:46.593Z</time></trkpt><trkpt lat="36.9878161" lon="15.0121198"><ele>449.0</ele><time>2026-04-12T09:41:47.593Z</time></trkpt><trkpt lat="36.9878555" lon="15.0122645"><ele>449.0</ele><time>2026-04-12T09:41:48.593Z</time></trkpt><trkpt lat="36.9878689" lon="15.0124046"><ele>449.0</ele><time>2026-04-12T09:41:49.593Z</time></trkpt><trkpt lat="36.9878687" lon="15.0125661"><ele>449.0</ele><time>2026-04-12T09:41:50.596Z</time></trkpt><trkpt lat="36.9878574" lon="15.0127411"><ele>448.0</ele><time>2026-04-12T09:41:51.593Z</time></trkpt><trkpt lat="36.9878495" lon="15.0129175"><ele>447.0</ele><time>2026-04-12T09:41:52.597Z</time></trkpt><trkpt lat="36.9878501" lon="15.0130903"><ele>446.0</ele><time>2026-04-12T09:41:53.596Z</time></trkpt><trkpt lat="36.9878486" lon="15.0132683"><ele>445.0</ele><time>2026-04-12T09:41:54.596Z</time></trkpt><trkpt lat="36.9878449" lon="15.0134362"><ele>445.0</ele><time>2026-04-12T09:41:55.596Z</time></trkpt><trkpt lat="36.9878508" lon="15.0135933"><ele>445.0</ele><time>2026-04-12T09:41:56.595Z</time></trkpt><trkpt lat="36.9878451" lon="15.0137454"><ele>445.0</ele><time>2026-04-12T09:41:57.596Z</time></trkpt><trkpt lat="36.9878422" lon="15.0138907"><ele>445.0</ele><time>2026-04-12T09:41:58.592Z</time></trkpt><trkpt lat="36.9878384" lon="15.0140258"><ele>445.0</ele><time>2026-04-12T09:41:59.594Z</time></trkpt><trkpt lat="36.9878322" lon="15.0141467"><ele>445.0</ele><time>2026-04-12T09:42:00.594Z</time></trkpt><trkpt lat="36.9878203" lon="15.0142617"><ele>445.0</ele><time>2026-04-12T09:42:01.598Z</time></trkpt><trkpt lat="36.9878015" lon="15.0143645"><ele>445.0</ele><time>2026-04-12T09:42:02.595Z</time></trkpt><trkpt lat="36.9877657" lon="15.0144727"><ele>445.0</ele><time>2026-04-12T09:42:03.595Z</time></trkpt><trkpt lat="36.987709" lon="15.0145776"><ele>445.2</ele><time>2026-04-12T09:42:04.597Z</time></trkpt><trkpt lat="36.9876425" lon="15.0146656"><ele>445.4</ele><time>2026-04-12T09:42:05.594Z</time></trkpt><trkpt lat="36.9875829" lon="15.0147512"><ele>445.6</ele><time>2026-04-12T09:42:06.594Z</time></trkpt><trkpt lat="36.9875226" lon="15.0148401"><ele>445.8</ele><time>2026-04-12T09:42:07.6Z</time></trkpt><trkpt lat="36.9874573" lon="15.0149227"><ele>446.0</ele><time>2026-04-12T09:42:08.594Z</time></trkpt><trkpt lat="36.9874076" lon="15.0150062"><ele>445.4</ele><time>2026-04-12T09:42:09.594Z</time></trkpt><trkpt lat="36.9873694" lon="15.0151057"><ele>444.8</ele><time>2026-04-12T09:42:10.593Z</time></trkpt><trkpt lat="36.9873469" lon="15.0152255"><ele>444.19999999999993</ele><time>2026-04-12T09:42:11.594Z</time></trkpt><trkpt lat="36.9873252" lon="15.01535"><ele>443.59999999999997</ele><time>2026-04-12T09:42:12.596Z</time></trkpt><trkpt lat="36.9873022" lon="15.0155205"><ele>443.0</ele><time>2026-04-12T09:42:13.595Z</time></trkpt><trkpt lat="36.9872824" lon="15.0156691"><ele>443.0</ele><time>2026-04-12T09:42:14.592Z</time></trkpt><trkpt lat="36.9872691" lon="15.0158191"><ele>443.0</ele><time>2026-04-12T09:42:15.592Z</time></trkpt><trkpt lat="36.9872577" lon="15.0159575"><ele>443.0</ele><time>2026-04-12T09:42:16.594Z</time></trkpt><trkpt lat="36.9872485" lon="15.0160915"><ele>443.0</ele><time>2026-04-12T09:42:17.593Z</time></trkpt><trkpt lat="36.9872321" lon="15.0162343"><ele>442.59999999999997</ele><time>2026-04-12T09:42:18.596Z</time></trkpt><trkpt lat="36.9872255" lon="15.0163634"><ele>442.19999999999993</ele><time>2026-04-12T09:42:19.592Z</time></trkpt><trkpt lat="36.9872308" lon="15.0165071"><ele>441.8</ele><time>2026-04-12T09:42:20.594Z</time></trkpt><trkpt lat="36.9872447" lon="15.0166382"><ele>441.4</ele><time>2026-04-12T09:42:21.594Z</time></trkpt><trkpt lat="36.9872721" lon="15.0167833"><ele>441.0</ele><time>2026-04-12T09:42:22.596Z</time></trkpt><trkpt lat="36.9873155" lon="15.0169289"><ele>441.0</ele><time>2026-04-12T09:42:23.596Z</time></trkpt><trkpt lat="36.9873734" lon="15.0170664"><ele>441.0</ele><time>2026-04-12T09:42:24.593Z</time></trkpt><trkpt lat="36.9874302" lon="15.0172042"><ele>441.0</ele><time>2026-04-12T09:42:25.597Z</time></trkpt><trkpt lat="36.9874871" lon="15.0173398"><ele>441.0</ele><time>2026-04-12T09:42:26.595Z</time></trkpt><trkpt lat="36.9875485" lon="15.0174798"><ele>440.5</ele><time>2026-04-12T09:42:27.593Z</time></trkpt><trkpt lat="36.9876016" lon="15.0176156"><ele>440.0</ele><time>2026-04-12T09:42:28.591Z</time></trkpt><trkpt lat="36.9876542" lon="15.0177397"><ele>439.5</ele><time>2026-04-12T09:42:29.592Z</time></trkpt><trkpt lat="36.9877139" lon="15.017888"><ele>439.0</ele><time>2026-04-12T09:42:30.592Z</time></trkpt><trkpt lat="36.987757" lon="15.0180219"><ele>439.0</ele><time>2026-04-12T09:42:31.592Z</time></trkpt><trkpt lat="36.9877982" lon="15.0181468"><ele>439.0</ele><time>2026-04-12T09:42:32.589Z</time></trkpt><trkpt lat="36.9878403" lon="15.0182837"><ele>439.0</ele><time>2026-04-12T09:42:33.592Z</time></trkpt><trkpt lat="36.9878706" lon="15.018422"><ele>439.0</ele><time>2026-04-12T09:42:34.592Z</time></trkpt><trkpt lat="36.987893" lon="15.0185599"><ele>439.25</ele><time>2026-04-12T09:42:35.594Z</time></trkpt><trkpt lat="36.9879156" lon="15.018712"><ele>439.5</ele><time>2026-04-12T09:42:36.592Z</time></trkpt><trkpt lat="36.9879167" lon="15.0188802"><ele>439.75</ele><time>2026-04-12T09:42:37.596Z</time></trkpt><trkpt lat="36.9879218" lon="15.0190475"><ele>440.0</ele><time>2026-04-12T09:42:38.594Z</time></trkpt><trkpt lat="36.987924" lon="15.0192172"><ele>440.0</ele><time>2026-04-12T09:42:39.595Z</time></trkpt><trkpt lat="36.9879213" lon="15.0193941"><ele>440.0</ele><time>2026-04-12T09:42:40.592Z</time></trkpt><trkpt lat="36.9879191" lon="15.0195731"><ele>440.0</ele><time>2026-04-12T09:42:41.596Z</time></trkpt><trkpt lat="36.9879194" lon="15.0197569"><ele>440.0</ele><time>2026-04-12T09:42:42.596Z</time></trkpt><trkpt lat="36.9879151" lon="15.0199281"><ele>439.5</ele><time>2026-04-12T09:42:43.594Z</time></trkpt><trkpt lat="36.9879122" lon="15.0200955"><ele>439.0</ele><time>2026-04-12T09:42:44.592Z</time></trkpt><trkpt lat="36.9879162" lon="15.0202568"><ele>438.5</ele><time>2026-04-12T09:42:45.595Z</time></trkpt><trkpt lat="36.9879239" lon="15.0204043"><ele>438.0</ele><time>2026-04-12T09:42:46.594Z</time></trkpt><trkpt lat="36.9879283" lon="15.0205442"><ele>438.0</ele><time>2026-04-12T09:42:47.595Z</time></trkpt><trkpt lat="36.9879406" lon="15.020681"><ele>437.99999999999994</ele><time>2026-04-12T09:42:48.596Z</time></trkpt><trkpt lat="36.9879507" lon="15.0208297"><ele>437.99999999999994</ele><time>2026-04-12T09:42:49.594Z</time></trkpt><trkpt lat="36.9879633" lon="15.0209718"><ele>438.0</ele><time>2026-04-12T09:42:50.595Z</time></trkpt><trkpt lat="36.9879747" lon="15.0211007"><ele>438.0</ele><time>2026-04-12T09:42:51.595Z</time></trkpt><trkpt lat="36.9879511" lon="15.0212246"><ele>437.2</ele><time>2026-04-12T09:42:52.594Z</time></trkpt><trkpt lat="36.987917" lon="15.0213416"><ele>436.4</ele><time>2026-04-12T09:42:53.597Z</time></trkpt><trkpt lat="36.9878607" lon="15.0214553"><ele>435.59999999999997</ele><time>2026-04-12T09:42:54.598Z</time></trkpt><trkpt lat="36.987805" lon="15.0215387"><ele>434.79999999999995</ele><time>2026-04-12T09:42:55.597Z</time></trkpt><trkpt lat="36.9877365" lon="15.0216028"><ele>434.0</ele><time>2026-04-12T09:42:56.594Z</time></trkpt><trkpt lat="36.9876494" lon="15.0216547"><ele>433.25</ele><time>2026-04-12T09:42:57.594Z</time></trkpt><trkpt lat="36.9875513" lon="15.0216835"><ele>432.5</ele><time>2026-04-12T09:42:58.595Z</time></trkpt><trkpt lat="36.9874301" lon="15.0217239"><ele>431.75</ele><time>2026-04-12T09:42:59.597Z</time></trkpt><trkpt lat="36.987314" lon="15.0217564"><ele>431.0</ele><time>2026-04-12T09:43:00.593Z</time></trkpt><trkpt lat="36.9872" lon="15.0217888"><ele>430.8</ele><time>2026-04-12T09:43:01.594Z</time></trkpt><trkpt lat="36.9870946" lon="15.0218138"><ele>430.6</ele><time>2026-04-12T09:43:02.595Z</time></trkpt><trkpt lat="36.9870015" lon="15.0218473"><ele>430.4</ele><time>2026-04-12T09:43:03.595Z</time></trkpt><trkpt lat="36.9869189" lon="15.0219078"><ele>430.2</ele><time>2026-04-12T09:43:04.594Z</time></trkpt><trkpt lat="36.9868459" lon="15.0219869"><ele>430.0</ele><time>2026-04-12T09:43:05.596Z</time></trkpt><trkpt lat="36.9867774" lon="15.022065"><ele>430.0</ele><time>2026-04-12T09:43:06.594Z</time></trkpt><trkpt lat="36.986723" lon="15.022148"><ele>430.0</ele><time>2026-04-12T09:43:07.594Z</time></trkpt><trkpt lat="36.9866895" lon="15.0222494"><ele>430.0</ele><time>2026-04-12T09:43:08.594Z</time></trkpt><trkpt lat="36.9866762" lon="15.0223678"><ele>430.0</ele><time>2026-04-12T09:43:09.595Z</time></trkpt><trkpt lat="36.9866773" lon="15.0224953"><ele>430.0</ele><time>2026-04-12T09:43:10.594Z</time></trkpt><trkpt lat="36.9866866" lon="15.0226279"><ele>428.8</ele><time>2026-04-12T09:43:11.596Z</time></trkpt><trkpt lat="36.9867001" lon="15.0227648"><ele>427.6</ele><time>2026-04-12T09:43:12.593Z</time></trkpt><trkpt lat="36.9867252" lon="15.0228936"><ele>426.4</ele><time>2026-04-12T09:43:13.591Z</time></trkpt><trkpt lat="36.9867489" lon="15.0230213"><ele>425.2</ele><time>2026-04-12T09:43:14.593Z</time></trkpt><trkpt lat="36.9867772" lon="15.0231408"><ele>424.0</ele><time>2026-04-12T09:43:15.594Z</time></trkpt><trkpt lat="36.9868082" lon="15.0232578"><ele>422.79999999999995</ele><time>2026-04-12T09:43:16.594Z</time></trkpt><trkpt lat="36.9868375" lon="15.023378"><ele>421.59999999999997</ele><time>2026-04-12T09:43:17.593Z</time></trkpt><trkpt lat="36.9868838" lon="15.0234881"><ele>420.4</ele><time>2026-04-12T09:43:18.595Z</time></trkpt><trkpt lat="36.9869268" lon="15.0235862"><ele>419.2</ele><time>2026-04-12T09:43:19.592Z</time></trkpt><trkpt lat="36.986971" lon="15.0236706"><ele>418.0</ele><time>2026-04-12T09:43:20.596Z</time></trkpt><trkpt lat="36.9870006" lon="15.0237799"><ele>418.00000000000006</ele><time>2026-04-12T09:43:21.594Z</time></trkpt><trkpt lat="36.9870097" lon="15.0238911"><ele>418.0</ele><time>2026-04-12T09:43:22.594Z</time></trkpt><trkpt lat="36.987021" lon="15.0239917"><ele>418.0</ele><time>2026-04-12T09:43:23.595Z</time></trkpt><trkpt lat="36.9869851" lon="15.0240808"><ele>418.0</ele><time>2026-04-12T09:43:24.595Z</time></trkpt><trkpt lat="36.9869746" lon="15.0241686"><ele>418.00000000000006</ele><time>2026-04-12T09:43:25.593Z</time></trkpt><trkpt lat="36.9869701" lon="15.024288"><ele>418.0</ele><time>2026-04-12T09:43:27.595Z</time></trkpt><trkpt lat="36.9869593" lon="15.0243752"><ele>416.6666666666667</ele><time>2026-04-12T09:43:29.594Z</time></trkpt><trkpt lat="36.9869379" lon="15.0244614"><ele>415.33333333333337</ele><time>2026-04-12T09:43:32.593Z</time></trkpt><trkpt lat="36.9869153" lon="15.0245366"><ele>414.0</ele><time>2026-04-12T09:43:34.602Z</time></trkpt><trkpt lat="36.9868729" lon="15.0246385"><ele>412.66666666666663</ele><time>2026-04-12T09:43:36.596Z</time></trkpt><trkpt lat="36.9868273" lon="15.0247637"><ele>411.3333333333333</ele><time>2026-04-12T09:43:38.592Z</time></trkpt><trkpt lat="36.9867909" lon="15.0248351"><ele>410.0</ele><time>2026-04-12T09:43:39.595Z</time></trkpt><trkpt lat="36.9867439" lon="15.0249606"><ele>409.49999999999994</ele><time>2026-04-12T09:43:41.593Z</time></trkpt><trkpt lat="36.9867104" lon="15.025095"><ele>409.0</ele><time>2026-04-12T09:43:43.597Z</time></trkpt><trkpt lat="36.9866879" lon="15.0252352"><ele>408.5</ele><time>2026-04-12T09:43:45.594Z</time></trkpt><trkpt lat="36.9866636" lon="15.0253167"><ele>408.0</ele><time>2026-04-12T09:43:46.591Z</time></trkpt><trkpt lat="36.9866399" lon="15.0253999"><ele>407.49999999999994</ele><time>2026-04-12T09:43:47.593Z</time></trkpt><trkpt lat="36.9866045" lon="15.0254732"><ele>407.0</ele><time>2026-04-12T09:43:48.596Z</time></trkpt><trkpt lat="36.9865965" lon="15.025556"><ele>406.8333333333333</ele><time>2026-04-12T09:43:49.594Z</time></trkpt><trkpt lat="36.9866127" lon="15.025633"><ele>406.66666666666663</ele><time>2026-04-12T09:43:50.591Z</time></trkpt><trkpt lat="36.9866752" lon="15.0257805"><ele>406.5</ele><time>2026-04-12T09:43:52.593Z</time></trkpt><trkpt lat="36.9866928" lon="15.0258853"><ele>406.33333333333337</ele><time>2026-04-12T09:43:53.592Z</time></trkpt><trkpt lat="36.9866934" lon="15.0259815"><ele>406.1666666666667</ele><time>2026-04-12T09:43:54.592Z</time></trkpt><trkpt lat="36.986679" lon="15.0260756"><ele>406.0</ele><time>2026-04-12T09:43:55.593Z</time></trkpt><trkpt lat="36.9866588" lon="15.0261834"><ele>408.00000000000006</ele><time>2026-04-12T09:43:56.591Z</time></trkpt><trkpt lat="36.9866264" lon="15.0262734"><ele>410.0</ele><time>2026-04-12T09:43:57.591Z</time></trkpt><trkpt lat="36.9865775" lon="15.0263401"><ele>412.0</ele><time>2026-04-12T09:43:58.593Z</time></trkpt><trkpt lat="36.9865173" lon="15.0264051"><ele>414.0</ele><time>2026-04-12T09:44:00.595Z</time></trkpt><trkpt lat="36.9863982" lon="15.0263954"><ele>416.00000000000006</ele><time>2026-04-12T09:44:02.598Z</time></trkpt><trkpt lat="36.9863263" lon="15.0264011"><ele>418.0</ele><time>2026-04-12T09:44:03.596Z</time></trkpt><trkpt lat="36.9862625" lon="15.0264388"><ele>418.00000000000006</ele><time>2026-04-12T09:44:04.596Z</time></trkpt><trkpt lat="36.9862075" lon="15.0265004"><ele>418.0</ele><time>2026-04-12T09:44:05.596Z</time></trkpt><trkpt lat="36.9861575" lon="15.0265867"><ele>418.0</ele><time>2026-04-12T09:44:06.595Z</time></trkpt><trkpt lat="36.9861176" lon="15.0266868"><ele>418.0</ele><time>2026-04-12T09:44:07.594Z</time></trkpt><trkpt lat="36.9860752" lon="15.0267944"><ele>418.00000000000006</ele><time>2026-04-12T09:44:08.595Z</time></trkpt><trkpt lat="36.9860343" lon="15.0269055"><ele>418.0</ele><time>2026-04-12T09:44:09.594Z</time></trkpt><trkpt lat="36.9859973" lon="15.0270251"><ele>418.4</ele><time>2026-04-12T09:44:10.594Z</time></trkpt><trkpt lat="36.9859565" lon="15.0271466"><ele>418.79999999999995</ele><time>2026-04-12T09:44:11.594Z</time></trkpt><trkpt lat="36.9859111" lon="15.0272681"><ele>419.2</ele><time>2026-04-12T09:44:12.591Z</time></trkpt><trkpt lat="36.985856" lon="15.0273817"><ele>419.6</ele><time>2026-04-12T09:44:13.596Z</time></trkpt><trkpt lat="36.9857915" lon="15.0274911"><ele>420.0</ele><time>2026-04-12T09:44:14.597Z</time></trkpt><trkpt lat="36.9857237" lon="15.0276013"><ele>421.75</ele><time>2026-04-12T09:44:15.601Z</time></trkpt><trkpt lat="36.9856478" lon="15.0277028"><ele>423.5</ele><time>2026-04-12T09:44:16.594Z</time></trkpt><trkpt lat="36.9855583" lon="15.0277932"><ele>425.25</ele><time>2026-04-12T09:44:17.597Z</time></trkpt><trkpt lat="36.9854583" lon="15.0278696"><ele>427.0</ele><time>2026-04-12T09:44:18.594Z</time></trkpt><trkpt lat="36.9853454" lon="15.0279217"><ele>427.0</ele><time>2026-04-12T09:44:19.596Z</time></trkpt><trkpt lat="36.985231" lon="15.0279585"><ele>427.0</ele><time>2026-04-12T09:44:20.598Z</time></trkpt><trkpt lat="36.9851101" lon="15.0279945"><ele>427.0</ele><time>2026-04-12T09:44:21.598Z</time></trkpt><trkpt lat="36.9849814" lon="15.0280492"><ele>427.0</ele><time>2026-04-12T09:44:22.594Z</time></trkpt><trkpt lat="36.9848493" lon="15.0280966"><ele>428.75</ele><time>2026-04-12T09:44:23.597Z</time></trkpt><trkpt lat="36.9847124" lon="15.0281422"><ele>430.5</ele><time>2026-04-12T09:44:24.595Z</time></trkpt><trkpt lat="36.9845776" lon="15.0281765"><ele>432.25</ele><time>2026-04-12T09:44:25.595Z</time></trkpt><trkpt lat="36.984445" lon="15.0282208"><ele>434.0</ele><time>2026-04-12T09:44:26.596Z</time></trkpt><trkpt lat="36.9843157" lon="15.0282666"><ele>433.75</ele><time>2026-04-12T09:44:27.597Z</time></trkpt><trkpt lat="36.9841877" lon="15.0283112"><ele>433.5</ele><time>2026-04-12T09:44:28.595Z</time></trkpt><trkpt lat="36.9840618" lon="15.0283559"><ele>433.25</ele><time>2026-04-12T09:44:29.596Z</time></trkpt><trkpt lat="36.9839341" lon="15.0284044"><ele>433.0</ele><time>2026-04-12T09:44:30.595Z</time></trkpt><trkpt lat="36.9838061" lon="15.0284514"><ele>433.0</ele><time>2026-04-12T09:44:31.596Z</time></trkpt><trkpt lat="36.9836792" lon="15.0284948"><ele>433.0</ele><time>2026-04-12T09:44:32.596Z</time></trkpt><trkpt lat="36.9835506" lon="15.0285416"><ele>433.0</ele><time>2026-04-12T09:44:33.594Z</time></trkpt><trkpt lat="36.9834225" lon="15.0285839"><ele>433.0</ele><time>2026-04-12T09:44:34.598Z</time></trkpt><trkpt lat="36.9832913" lon="15.0286299"><ele>433.25</ele><time>2026-04-12T09:44:35.597Z</time></trkpt><trkpt lat="36.9831608" lon="15.0286802"><ele>433.5</ele><time>2026-04-12T09:44:36.598Z</time></trkpt><trkpt lat="36.9830305" lon="15.0287301"><ele>433.75</ele><time>2026-04-12T09:44:37.595Z</time></trkpt><trkpt lat="36.9828996" lon="15.0287805"><ele>434.0</ele><time>2026-04-12T09:44:38.595Z</time></trkpt><trkpt lat="36.9827664" lon="15.0288476"><ele>434.0</ele><time>2026-04-12T09:44:39.594Z</time></trkpt><trkpt lat="36.9826381" lon="15.0289209"><ele>434.0</ele><time>2026-04-12T09:44:40.593Z</time></trkpt><trkpt lat="36.9825154" lon="15.0289995"><ele>434.0</ele><time>2026-04-12T09:44:41.599Z</time></trkpt><trkpt lat="36.982387" lon="15.029086"><ele>434.0</ele><time>2026-04-12T09:44:42.596Z</time></trkpt><trkpt lat="36.9822621" lon="15.0291704"><ele>433.75</ele><time>2026-04-12T09:44:43.589Z</time></trkpt><trkpt lat="36.9821407" lon="15.0292547"><ele>433.5</ele><time>2026-04-12T09:44:44.595Z</time></trkpt><trkpt lat="36.982017" lon="15.0293358"><ele>433.25</ele><time>2026-04-12T09:44:45.592Z</time></trkpt><trkpt lat="36.9818973" lon="15.0294154"><ele>433.0</ele><time>2026-04-12T09:44:46.594Z</time></trkpt><trkpt lat="36.9817761" lon="15.0294965"><ele>433.5</ele><time>2026-04-12T09:44:47.594Z</time></trkpt><trkpt lat="36.9816527" lon="15.0295757"><ele>434.0</ele><time>2026-04-12T09:44:48.594Z</time></trkpt><trkpt lat="36.9815285" lon="15.0296534"><ele>434.5</ele><time>2026-04-12T09:44:49.593Z</time></trkpt><trkpt lat="36.9814063" lon="15.0297363"><ele>435.0</ele><time>2026-04-12T09:44:50.598Z</time></trkpt><trkpt lat="36.9812819" lon="15.0298172"><ele>435.0</ele><time>2026-04-12T09:44:51.598Z</time></trkpt><trkpt lat="36.981158" lon="15.0298965"><ele>435.0</ele><time>2026-04-12T09:44:52.598Z</time></trkpt><trkpt lat="36.9810309" lon="15.0299796"><ele>435.0</ele><time>2026-04-12T09:44:53.594Z</time></trkpt><trkpt lat="36.9809028" lon="15.0300631"><ele>435.0</ele><time>2026-04-12T09:44:54.594Z</time></trkpt><trkpt lat="36.9807733" lon="15.0301468"><ele>435.5</ele><time>2026-04-12T09:44:55.594Z</time></trkpt><trkpt lat="36.9806468" lon="15.0302295"><ele>436.0</ele><time>2026-04-12T09:44:56.595Z</time></trkpt><trkpt lat="36.9805246" lon="15.0303114"><ele>436.5</ele><time>2026-04-12T09:44:57.594Z</time></trkpt><trkpt lat="36.9803965" lon="15.0303878"><ele>437.0</ele><time>2026-04-12T09:44:58.598Z</time></trkpt><trkpt lat="36.9802838" lon="15.0304642"><ele>437.0</ele><time>2026-04-12T09:44:59.595Z</time></trkpt><trkpt lat="36.9801811" lon="15.0305328"><ele>437.00000000000006</ele><time>2026-04-12T09:45:00.596Z</time></trkpt><trkpt lat="36.9800898" lon="15.0305894"><ele>437.00000000000006</ele><time>2026-04-12T09:45:01.596Z</time></trkpt><trkpt lat="36.9800032" lon="15.0306505"><ele>437.0</ele><time>2026-04-12T09:45:02.595Z</time></trkpt><trkpt lat="36.9799285" lon="15.0307087"><ele>437.0</ele><time>2026-04-12T09:45:03.595Z</time></trkpt><trkpt lat="36.9798692" lon="15.0307759"><ele>437.0</ele><time>2026-04-12T09:45:04.593Z</time></trkpt><trkpt lat="36.9798383" lon="15.0308541"><ele>437.0</ele><time>2026-04-12T09:45:05.594Z</time></trkpt><trkpt lat="36.9798206" lon="15.0309463"><ele>437.0</ele><time>2026-04-12T09:45:06.595Z</time></trkpt><trkpt lat="36.9798063" lon="15.0310386"><ele>437.0</ele><time>2026-04-12T09:45:07.596Z</time></trkpt><trkpt lat="36.9797888" lon="15.0311249"><ele>437.0</ele><time>2026-04-12T09:45:08.596Z</time></trkpt><trkpt lat="36.979766" lon="15.0312156"><ele>437.0</ele><time>2026-04-12T09:45:09.596Z</time></trkpt><trkpt lat="36.9797451" lon="15.0313145"><ele>437.0</ele><time>2026-04-12T09:45:10.596Z</time></trkpt><trkpt lat="36.9797274" lon="15.031426"><ele>437.0</ele><time>2026-04-12T09:45:11.596Z</time></trkpt><trkpt lat="36.9797118" lon="15.0315422"><ele>437.00000000000006</ele><time>2026-04-12T09:45:12.596Z</time></trkpt><trkpt lat="36.9796972" lon="15.0316555"><ele>437.00000000000006</ele><time>2026-04-12T09:45:13.594Z</time></trkpt><trkpt lat="36.9796869" lon="15.031773"><ele>437.0</ele><time>2026-04-12T09:45:14.595Z</time></trkpt><trkpt lat="36.979675" lon="15.0318909"><ele>437.0</ele><time>2026-04-12T09:45:15.596Z</time></trkpt><trkpt lat="36.9796639" lon="15.0320143"><ele>436.20000000000005</ele><time>2026-04-12T09:45:16.592Z</time></trkpt><trkpt lat="36.9796502" lon="15.0321366"><ele>435.40000000000003</ele><time>2026-04-12T09:45:17.592Z</time></trkpt><trkpt lat="36.979638" lon="15.032261"><ele>434.59999999999997</ele><time>2026-04-12T09:45:18.595Z</time></trkpt><trkpt lat="36.9796307" lon="15.032387"><ele>433.79999999999995</ele><time>2026-04-12T09:45:19.595Z</time></trkpt><trkpt lat="36.9796152" lon="15.0325046"><ele>433.0</ele><time>2026-04-12T09:45:20.594Z</time></trkpt><trkpt lat="36.9796107" lon="15.0325912"><ele>432.2</ele><time>2026-04-12T09:45:21.596Z</time></trkpt><trkpt lat="36.9796105" lon="15.0327015"><ele>431.4</ele><time>2026-04-12T09:45:23.594Z</time></trkpt><trkpt lat="36.9796661" lon="15.032806"><ele>430.59999999999997</ele><time>2026-04-12T09:45:25.597Z</time></trkpt><trkpt lat="36.9797072" lon="15.0328695"><ele>429.79999999999995</ele><time>2026-04-12T09:45:26.603Z</time></trkpt><trkpt lat="36.9798101" lon="15.0329909"><ele>429.0</ele><time>2026-04-12T09:45:28.591Z</time></trkpt><trkpt lat="36.979869" lon="15.0330723"><ele>429.0</ele><time>2026-04-12T09:45:29.594Z</time></trkpt><trkpt lat="36.9799332" lon="15.0331529"><ele>429.0</ele><time>2026-04-12T09:45:30.596Z</time></trkpt><trkpt lat="36.9799963" lon="15.0332285"><ele>429.0</ele><time>2026-04-12T09:45:31.592Z</time></trkpt><trkpt lat="36.9800566" lon="15.0333033"><ele>429.0</ele><time>2026-04-12T09:45:32.596Z</time></trkpt><trkpt lat="36.9801133" lon="15.0333704"><ele>429.0</ele><time>2026-04-12T09:45:33.594Z</time></trkpt><trkpt lat="36.9801723" lon="15.0334248"><ele>429.0</ele><time>2026-04-12T09:45:34.591Z</time></trkpt><trkpt lat="36.9802253" lon="15.0334847"><ele>429.2</ele><time>2026-04-12T09:45:35.593Z</time></trkpt><trkpt lat="36.9802584" lon="15.0335816"><ele>429.4</ele><time>2026-04-12T09:45:37.595Z</time></trkpt><trkpt lat="36.9802512" lon="15.0336831"><ele>429.6</ele><time>2026-04-12T09:45:39.597Z</time></trkpt><trkpt lat="36.9801897" lon="15.0337934"><ele>429.8</ele><time>2026-04-12T09:45:41.603Z</time></trkpt><trkpt lat="36.9801323" lon="15.0338763"><ele>430.0</ele><time>2026-04-12T09:45:42.597Z</time></trkpt><trkpt lat="36.9800582" lon="15.0340023"><ele>429.25</ele><time>2026-04-12T09:45:43.595Z</time></trkpt><trkpt lat="36.9800004" lon="15.0341307"><ele>428.5</ele><time>2026-04-12T09:45:44.593Z</time></trkpt><trkpt lat="36.9799523" lon="15.0342591"><ele>427.75</ele><time>2026-04-12T09:45:45.593Z</time></trkpt><trkpt lat="36.9799041" lon="15.0344206"><ele>427.0</ele><time>2026-04-12T09:45:46.595Z</time></trkpt><trkpt lat="36.9798632" lon="15.0345326"><ele>427.00000000000006</ele><time>2026-04-12T09:45:47.592Z</time></trkpt><trkpt lat="36.9798375" lon="15.0346228"><ele>427.0</ele><time>2026-04-12T09:45:48.595Z</time></trkpt><trkpt lat="36.9798489" lon="15.034707"><ele>427.0</ele><time>2026-04-12T09:45:49.593Z</time></trkpt><trkpt lat="36.9798755" lon="15.0347976"><ele>427.0</ele><time>2026-04-12T09:45:50.595Z</time></trkpt><trkpt lat="36.9799163" lon="15.034902"><ele>427.00000000000006</ele><time>2026-04-12T09:45:51.596Z</time></trkpt><trkpt lat="36.9799533" lon="15.0350226"><ele>427.0</ele><time>2026-04-12T09:45:52.593Z</time></trkpt><trkpt lat="36.979976" lon="15.0351526"><ele>427.0</ele><time>2026-04-12T09:45:53.595Z</time></trkpt><trkpt lat="36.9800096" lon="15.0352696"><ele>427.00000000000006</ele><time>2026-04-12T09:45:54.591Z</time></trkpt><trkpt lat="36.980038" lon="15.0353927"><ele>427.00000000000006</ele><time>2026-04-12T09:45:55.595Z</time></trkpt><trkpt lat="36.9800554" lon="15.0355195"><ele>427.0</ele><time>2026-04-12T09:45:56.595Z</time></trkpt><trkpt lat="36.9800544" lon="15.0356517"><ele>427.0</ele><time>2026-04-12T09:45:57.595Z</time></trkpt><trkpt lat="36.9800394" lon="15.035808"><ele>427.33333333333337</ele><time>2026-04-12T09:45:58.593Z</time></trkpt><trkpt lat="36.9800273" lon="15.0359808"><ele>427.66666666666663</ele><time>2026-04-12T09:45:59.596Z</time></trkpt><trkpt lat="36.9800211" lon="15.0361658"><ele>428.0</ele><time>2026-04-12T09:46:00.594Z</time></trkpt><trkpt lat="36.9800002" lon="15.0364263"><ele>428.3333333333333</ele><time>2026-04-12T09:46:01.595Z</time></trkpt><trkpt lat="36.9799913" lon="15.0366906"><ele>428.66666666666663</ele><time>2026-04-12T09:46:02.594Z</time></trkpt><trkpt lat="36.9799764" lon="15.0369019"><ele>429.0</ele><time>2026-04-12T09:46:03.596Z</time></trkpt><trkpt lat="36.9799666" lon="15.0370466"><ele>429.0</ele><time>2026-04-12T09:46:04.591Z</time></trkpt><trkpt lat="36.9799539" lon="15.0371852"><ele>429.0</ele><time>2026-04-12T09:46:05.594Z</time></trkpt><trkpt lat="36.9799539" lon="15.0373021"><ele>429.0</ele><time>2026-04-12T09:46:06.597Z</time></trkpt><trkpt lat="36.9799538" lon="15.0373966"><ele>429.0</ele><time>2026-04-12T09:46:07.594Z</time></trkpt><trkpt lat="36.9799609" lon="15.037538"><ele>429.0</ele><time>2026-04-12T09:46:09.593Z</time></trkpt><trkpt lat="36.9800051" lon="15.0376498"><ele>428.79999999999995</ele><time>2026-04-12T09:46:11.595Z</time></trkpt><trkpt lat="36.9800306" lon="15.0377423"><ele>428.59999999999997</ele><time>2026-04-12T09:46:13.596Z</time></trkpt><trkpt lat="36.9799933" lon="15.0378221"><ele>428.4</ele><time>2026-04-12T09:46:15.597Z</time></trkpt><trkpt lat="36.9799244" lon="15.0378941"><ele>428.2</ele><time>2026-04-12T09:46:17.595Z</time></trkpt><trkpt lat="36.9798759" lon="15.0379992"><ele>428.0</ele><time>2026-04-12T09:46:19.598Z</time></trkpt><trkpt lat="36.9797841" lon="15.0380889"><ele>428.0</ele><time>2026-04-12T09:46:21.596Z</time></trkpt><trkpt lat="36.9797071" lon="15.0382132"><ele>427.99999999999994</ele><time>2026-04-12T09:46:23.596Z</time></trkpt><trkpt lat="36.9796688" lon="15.0382773"><ele>427.99999999999994</ele><time>2026-04-12T09:46:24.596Z</time></trkpt><trkpt lat="36.9796298" lon="15.0383433"><ele>428.0</ele><time>2026-04-12T09:46:25.594Z</time></trkpt><trkpt lat="36.9795623" lon="15.0384372"><ele>428.0</ele><time>2026-04-12T09:46:27.595Z</time></trkpt><trkpt lat="36.9794914" lon="15.0385274"><ele>426.2</ele><time>2026-04-12T09:46:29.591Z</time></trkpt><trkpt lat="36.9794281" lon="15.0386453"><ele>424.4</ele><time>2026-04-12T09:46:31.593Z</time></trkpt><trkpt lat="36.9794117" lon="15.0387999"><ele>422.59999999999997</ele><time>2026-04-12T09:46:33.593Z</time></trkpt><trkpt lat="36.9794034" lon="15.0389295"><ele>420.79999999999995</ele><time>2026-04-12T09:46:35.593Z</time></trkpt><trkpt lat="36.9793917" lon="15.039007"><ele>419.0</ele><time>2026-04-12T09:46:36.594Z</time></trkpt><trkpt lat="36.9793663" lon="15.0391486"><ele>417.6</ele><time>2026-04-12T09:46:38.593Z</time></trkpt><trkpt lat="36.9793391" lon="15.0392803"><ele>416.2</ele><time>2026-04-12T09:46:40.597Z</time></trkpt><trkpt lat="36.9792736" lon="15.0393197"><ele>414.8</ele><time>2026-04-12T09:46:43.593Z</time></trkpt><trkpt lat="36.9791592" lon="15.0393175"><ele>413.40000000000003</ele><time>2026-04-12T09:46:45.595Z</time></trkpt><trkpt lat="36.979054" lon="15.0393484"><ele>412.0</ele><time>2026-04-12T09:46:47.594Z</time></trkpt><trkpt lat="36.9789941" lon="15.0393847"><ele>411.2857142857143</ele><time>2026-04-12T09:46:49.595Z</time></trkpt><trkpt lat="36.9789556" lon="15.0394549"><ele>410.57142857142856</ele><time>2026-04-12T09:46:52.593Z</time></trkpt><trkpt lat="36.9789592" lon="15.0395379"><ele>409.8571428571429</ele><time>2026-04-12T09:46:54.591Z</time></trkpt><trkpt lat="36.9789846" lon="15.0396164"><ele>409.1428571428571</ele><time>2026-04-12T09:46:57.591Z</time></trkpt><trkpt lat="36.979063" lon="15.0396546"><ele>408.42857142857144</ele><time>2026-04-12T09:47:01.595Z</time></trkpt><trkpt lat="36.9791386" lon="15.0396865"><ele>407.7142857142857</ele><time>2026-04-12T09:47:04.594Z</time></trkpt><trkpt lat="36.9791807" lon="15.0397479"><ele>407.0</ele><time>2026-04-12T09:47:08.593Z</time></trkpt><trkpt lat="36.9791474" lon="15.0398496"><ele>406.99999999999994</ele><time>2026-04-12T09:47:11.592Z</time></trkpt><trkpt lat="36.9790962" lon="15.0399353"><ele>407.0</ele><time>2026-04-12T09:47:14.591Z</time></trkpt><trkpt lat="36.9790335" lon="15.040008"><ele>407.0</ele><time>2026-04-12T09:47:17.592Z</time></trkpt><trkpt lat="36.9789656" lon="15.0400793"><ele>407.0</ele><time>2026-04-12T09:47:20.592Z</time></trkpt><trkpt lat="36.9789064" lon="15.0401388"><ele>406.99999999999994</ele><time>2026-04-12T09:47:23.597Z</time></trkpt><trkpt lat="36.9788395" lon="15.0402141"><ele>407.0</ele><time>2026-04-12T09:47:26.597Z</time></trkpt><trkpt lat="36.9787863" lon="15.0402858"><ele>405.8571428571429</ele><time>2026-04-12T09:47:29.594Z</time></trkpt><trkpt lat="36.9787405" lon="15.0403655"><ele>404.7142857142857</ele><time>2026-04-12T09:47:31.595Z</time></trkpt><trkpt lat="36.9787053" lon="15.0404422"><ele>403.57142857142856</ele><time>2026-04-12T09:47:33.592Z</time></trkpt><trkpt lat="36.9786746" lon="15.0405115"><ele>402.42857142857144</ele><time>2026-04-12T09:47:35.593Z</time></trkpt><trkpt lat="36.9786331" lon="15.0406085"><ele>401.2857142857143</ele><time>2026-04-12T09:47:38.594Z</time></trkpt><trkpt lat="36.978608" lon="15.0407109"><ele>400.14285714285717</ele><time>2026-04-12T09:47:41.594Z</time></trkpt><trkpt lat="36.9786248" lon="15.0407874"><ele>399.0</ele><time>2026-04-12T09:47:45.594Z</time></trkpt><trkpt lat="36.9786515" lon="15.0408836"><ele>399.0</ele><time>2026-04-12T09:47:49.597Z</time></trkpt><trkpt lat="36.978684" lon="15.0409635"><ele>399.0</ele><time>2026-04-12T09:47:53.594Z</time></trkpt><trkpt lat="36.9787201" lon="15.0410481"><ele>399.0</ele><time>2026-04-12T09:47:57.596Z</time></trkpt><trkpt lat="36.9787527" lon="15.0411156"><ele>399.0</ele><time>2026-04-12T09:47:59.596Z</time></trkpt><trkpt lat="36.9788" lon="15.0412048"><ele>399.0</ele><time>2026-04-12T09:48:02.595Z</time></trkpt><trkpt lat="36.9788545" lon="15.041284"><ele>399.0</ele><time>2026-04-12T09:48:05.592Z</time></trkpt><trkpt lat="36.9789036" lon="15.041351"><ele>399.0</ele><time>2026-04-12T09:48:08.593Z</time></trkpt><trkpt lat="36.9789384" lon="15.0414239"><ele>399.0</ele><time>2026-04-12T09:48:11.594Z</time></trkpt><trkpt lat="36.9789836" lon="15.041507"><ele>399.0</ele><time>2026-04-12T09:48:15.591Z</time></trkpt><trkpt lat="36.9790343" lon="15.0415972"><ele>399.0</ele><time>2026-04-12T09:48:17.594Z</time></trkpt><trkpt lat="36.9790992" lon="15.0416786"><ele>399.0</ele><time>2026-04-12T09:48:19.593Z</time></trkpt><trkpt lat="36.9791493" lon="15.0417786"><ele>399.0</ele><time>2026-04-12T09:48:22.595Z</time></trkpt><trkpt lat="36.9791138" lon="15.0418667"><ele>395.79999999999995</ele><time>2026-04-12T09:48:24.59Z</time></trkpt><trkpt lat="36.9790173" lon="15.041907"><ele>392.59999999999997</ele><time>2026-04-12T09:48:26.595Z</time></trkpt><trkpt lat="36.9789477" lon="15.0419663"><ele>389.4</ele><time>2026-04-12T09:48:28.595Z</time></trkpt><trkpt lat="36.9788508" lon="15.0419753"><ele>386.2</ele><time>2026-04-12T09:48:30.594Z</time></trkpt><trkpt lat="36.9787751" lon="15.0420425"><ele>383.0</ele><time>2026-04-12T09:48:33.589Z</time></trkpt><trkpt lat="36.9786715" lon="15.0421095"><ele>383.0</ele><time>2026-04-12T09:48:35.594Z</time></trkpt><trkpt lat="36.9785863" lon="15.0421449"><ele>383.0</ele><time>2026-04-12T09:48:37.596Z</time></trkpt><trkpt lat="36.9785121" lon="15.0421921"><ele>383.0</ele><time>2026-04-12T09:48:39.594Z</time></trkpt><trkpt lat="36.9784245" lon="15.0422587"><ele>383.0</ele><time>2026-04-12T09:48:41.594Z</time></trkpt><trkpt lat="36.978364" lon="15.0422903"><ele>383.0</ele><time>2026-04-12T09:48:42.601Z</time></trkpt><trkpt lat="36.978286" lon="15.0423583"><ele>383.0</ele><time>2026-04-12T09:48:44.589Z</time></trkpt><trkpt lat="36.9782184" lon="15.0424237"><ele>382.1666666666667</ele><time>2026-04-12T09:48:48.599Z</time></trkpt><trkpt lat="36.9782457" lon="15.0425271"><ele>381.33333333333337</ele><time>2026-04-12T09:48:54.594Z</time></trkpt><trkpt lat="36.9782682" lon="15.0426067"><ele>380.5</ele><time>2026-04-12T09:48:57.592Z</time></trkpt><trkpt lat="36.9782675" lon="15.0426984"><ele>379.6666666666667</ele><time>2026-04-12T09:49:42.594Z</time></trkpt><trkpt lat="36.9782882" lon="15.0427793"><ele>378.8333333333333</ele><time>2026-04-12T09:49:58.591Z</time></trkpt><trkpt lat="36.9783221" lon="15.0428686"><ele>378.0</ele><time>2026-04-12T09:50:05.594Z</time></trkpt><trkpt lat="36.9783093" lon="15.0429749"><ele>378.0</ele><time>2026-04-12T09:50:08.591Z</time></trkpt><trkpt lat="36.9782759" lon="15.0430658"><ele>378.0</ele><time>2026-04-12T09:50:11.594Z</time></trkpt><trkpt lat="36.9782761" lon="15.0431564"><ele>378.0</ele><time>2026-04-12T09:50:14.593Z</time></trkpt><trkpt lat="36.9783243" lon="15.0432111"><ele>378.0</ele><time>2026-04-12T09:50:17.596Z</time></trkpt><trkpt lat="36.9783798" lon="15.0431441"><ele>378.0</ele><time>2026-04-12T09:50:20.596Z</time></trkpt><trkpt lat="36.9784444" lon="15.0431289"><ele>378.0</ele><time>2026-04-12T09:50:22.594Z</time></trkpt><trkpt lat="36.9785126" lon="15.0431613"><ele>378.0</ele><time>2026-04-12T09:50:24.593Z</time></trkpt><trkpt lat="36.978549" lon="15.043237"><ele>379.0</ele><time>2026-04-12T09:50:26.593Z</time></trkpt><trkpt lat="36.9785484" lon="15.0433546"><ele>380.0</ele><time>2026-04-12T09:50:28.592Z</time></trkpt><trkpt lat="36.9785536" lon="15.0434459"><ele>381.0</ele><time>2026-04-12T09:50:30.594Z</time></trkpt><trkpt lat="36.9785792" lon="15.043527"><ele>382.0</ele><time>2026-04-12T09:50:49.593Z</time></trkpt><trkpt lat="36.978605" lon="15.0436207"><ele>383.0</ele><time>2026-04-12T09:50:52.593Z</time></trkpt><trkpt lat="36.9786044" lon="15.043734"><ele>384.0</ele><time>2026-04-12T09:50:55.596Z</time></trkpt><trkpt lat="36.9786381" lon="15.0438393"><ele>383.99999999999994</ele><time>2026-04-12T09:50:58.592Z</time></trkpt><trkpt lat="36.9786777" lon="15.0439008"><ele>384.0</ele><time>2026-04-12T09:51:00.592Z</time></trkpt><trkpt lat="36.9787057" lon="15.0439777"><ele>384.0</ele><time>2026-04-12T09:51:02.594Z</time></trkpt><trkpt lat="36.9787176" lon="15.0438798"><ele>384.0</ele><time>2026-04-12T09:51:25.594Z</time></trkpt><trkpt lat="36.978745" lon="15.0437897"><ele>384.0</ele><time>2026-04-12T09:51:27.591Z</time></trkpt><trkpt lat="36.9787889" lon="15.0437045"><ele>383.99999999999994</ele><time>2026-04-12T09:51:29.594Z</time></trkpt><trkpt lat="36.9788356" lon="15.0436395"><ele>384.0</ele><time>2026-04-12T09:51:31.592Z</time></trkpt><trkpt lat="36.9788715" lon="15.0435621"><ele>384.0</ele><time>2026-04-12T09:51:35.59Z</time></trkpt><trkpt lat="36.978955" lon="15.0435066"><ele>384.0</ele><time>2026-04-12T09:51:37.592Z</time></trkpt><trkpt lat="36.9790112" lon="15.0434096"><ele>384.0</ele><time>2026-04-12T09:51:39.591Z</time></trkpt><trkpt lat="36.979088" lon="15.0433617"><ele>384.0</ele><time>2026-04-12T09:51:41.593Z</time></trkpt><trkpt lat="36.9791603" lon="15.0433426"><ele>384.0</ele><time>2026-04-12T09:51:43.593Z</time></trkpt><trkpt lat="36.9792477" lon="15.0433245"><ele>384.0</ele><time>2026-04-12T09:51:45.591Z</time></trkpt><trkpt lat="36.9793416" lon="15.043296"><ele>383.2</ele><time>2026-04-12T09:51:47.592Z</time></trkpt><trkpt lat="36.9794364" lon="15.0432693"><ele>382.4</ele><time>2026-04-12T09:51:49.589Z</time></trkpt><trkpt lat="36.9795151" lon="15.0432755"><ele>381.6</ele><time>2026-04-12T09:51:51.592Z</time></trkpt><trkpt lat="36.9796034" lon="15.0432625"><ele>380.8</ele><time>2026-04-12T09:51:53.598Z</time></trkpt><trkpt lat="36.979706" lon="15.043296"><ele>380.0</ele><time>2026-04-12T09:51:55.592Z</time></trkpt><trkpt lat="36.979749" lon="15.043379"><ele>382.6</ele><time>2026-04-12T09:51:57.593Z</time></trkpt><trkpt lat="36.9797759" lon="15.0434693"><ele>385.2</ele><time>2026-04-12T09:51:59.602Z</time></trkpt><trkpt lat="36.9798345" lon="15.0435467"><ele>387.79999999999995</ele><time>2026-04-12T09:52:01.589Z</time></trkpt><trkpt lat="36.9799576" lon="15.0436402"><ele>390.4</ele><time>2026-04-12T09:52:03.6Z</time></trkpt><trkpt lat="36.9800203" lon="15.0436783"><ele>393.0</ele><time>2026-04-12T09:52:04.593Z</time></trkpt><trkpt lat="36.980107" lon="15.0437539"><ele>394.1666666666667</ele><time>2026-04-12T09:52:06.595Z</time></trkpt><trkpt lat="36.980185" lon="15.0437998"><ele>395.33333333333337</ele><time>2026-04-12T09:52:08.596Z</time></trkpt><trkpt lat="36.9802621" lon="15.0438341"><ele>396.5</ele><time>2026-04-12T09:52:10.594Z</time></trkpt><trkpt lat="36.9803349" lon="15.0438642"><ele>397.6666666666667</ele><time>2026-04-12T09:52:12.595Z</time></trkpt><trkpt lat="36.9803941" lon="15.0438915"><ele>398.83333333333337</ele><time>2026-04-12T09:52:14.592Z</time></trkpt><trkpt lat="36.9804713" lon="15.0439336"><ele>400.0</ele><time>2026-04-12T09:52:17.593Z</time></trkpt><trkpt lat="36.9805374" lon="15.0439416"><ele>400.00000000000006</ele><time>2026-04-12T09:52:20.6Z</time></trkpt><trkpt lat="36.9806233" lon="15.0439782"><ele>400.0</ele><time>2026-04-12T09:52:22.593Z</time></trkpt><trkpt lat="36.9806794" lon="15.044047"><ele>400.0</ele><time>2026-04-12T09:52:25.599Z</time></trkpt><trkpt lat="36.9807533" lon="15.0440825"><ele>400.0</ele><time>2026-04-12T09:52:28.594Z</time></trkpt><trkpt lat="36.980793" lon="15.0441932"><ele>400.00000000000006</ele><time>2026-04-12T09:52:31.593Z</time></trkpt><trkpt lat="36.9808244" lon="15.0442692"><ele>400.0</ele><time>2026-04-12T09:52:33.594Z</time></trkpt><trkpt lat="36.9808451" lon="15.0443542"><ele>403.6666666666667</ele><time>2026-04-12T09:52:35.596Z</time></trkpt><trkpt lat="36.9808666" lon="15.0444467"><ele>407.33333333333337</ele><time>2026-04-12T09:52:37.592Z</time></trkpt><trkpt lat="36.980897" lon="15.0445391"><ele>411.0</ele><time>2026-04-12T09:52:39.593Z</time></trkpt><trkpt lat="36.9809195" lon="15.0446413"><ele>414.66666666666663</ele><time>2026-04-12T09:52:42.597Z</time></trkpt><trkpt lat="36.9809255" lon="15.0447484"><ele>418.3333333333333</ele><time>2026-04-12T09:52:45.562Z</time></trkpt><trkpt lat="36.980901" lon="15.0448633"><ele>422.0</ele><time>2026-04-12T09:52:48.599Z</time></trkpt><trkpt lat="36.980869" lon="15.0449573"><ele>422.0</ele><time>2026-04-12T09:52:51.592Z</time></trkpt><trkpt lat="36.9808421" lon="15.0450297"><ele>422.0</ele><time>2026-04-12T09:53:20.598Z</time></trkpt><trkpt lat="36.9808708" lon="15.0449589"><ele>422.0</ele><time>2026-04-12T09:53:25.594Z</time></trkpt><trkpt lat="36.9808567" lon="15.0448683"><ele>422.0</ele><time>2026-04-12T09:53:29.597Z</time></trkpt><trkpt lat="36.9808564" lon="15.0447748"><ele>422.0</ele><time>2026-04-12T09:53:33.595Z</time></trkpt><trkpt lat="36.980872" lon="15.0446948"><ele>422.0</ele><time>2026-04-12T09:53:41.597Z</time></trkpt><trkpt lat="36.9808992" lon="15.0447745"><ele>422.0</ele><time>2026-04-12T09:53:44.598Z</time></trkpt><trkpt lat="36.9808822" lon="15.0449016"><ele>422.16666666666663</ele><time>2026-04-12T09:54:33.595Z</time></trkpt><trkpt lat="36.9808683" lon="15.0450108"><ele>422.3333333333333</ele><time>2026-04-12T09:54:36.595Z</time></trkpt><trkpt lat="36.9808832" lon="15.0450976"><ele>422.5</ele><time>2026-04-12T09:54:38.595Z</time></trkpt><trkpt lat="36.9809002" lon="15.0451872"><ele>422.66666666666663</ele><time>2026-04-12T09:54:40.591Z</time></trkpt><trkpt lat="36.9809373" lon="15.0452568"><ele>422.8333333333333</ele><time>2026-04-12T09:54:42.594Z</time></trkpt><trkpt lat="36.9810059" lon="15.0451584"><ele>423.0</ele><time>2026-04-12T09:54:45.59Z</time></trkpt><trkpt lat="36.981019" lon="15.0450785"><ele>423.0</ele><time>2026-04-12T09:54:47.595Z</time></trkpt><trkpt lat="36.9810681" lon="15.0450236"><ele>423.0</ele><time>2026-04-12T09:55:59.595Z</time></trkpt><trkpt lat="36.9811338" lon="15.0450128"><ele>423.0</ele><time>2026-04-12T09:56:01.594Z</time></trkpt><trkpt lat="36.981199" lon="15.0450651"><ele>423.0</ele><time>2026-04-12T09:56:03.599Z</time></trkpt><trkpt lat="36.981255" lon="15.0451234"><ele>423.0</ele><time>2026-04-12T09:56:05.597Z</time></trkpt><trkpt lat="36.9813055" lon="15.045183"><ele>423.0</ele><time>2026-04-12T09:56:07.593Z</time></trkpt><trkpt lat="36.9813392" lon="15.0452984"><ele>423.0</ele><time>2026-04-12T09:56:09.594Z</time></trkpt><trkpt lat="36.9813744" lon="15.0454145"><ele>423.0</ele><time>2026-04-12T09:56:11.592Z</time></trkpt><trkpt lat="36.9814134" lon="15.0455493"><ele>423.0</ele><time>2026-04-12T09:56:13.592Z</time></trkpt><trkpt lat="36.9814672" lon="15.0456637"><ele>423.0</ele><time>2026-04-12T09:56:15.594Z</time></trkpt><trkpt lat="36.9815499" lon="15.0457599"><ele>423.0</ele><time>2026-04-12T09:56:17.598Z</time></trkpt><trkpt lat="36.9815989" lon="15.0458323"><ele>424.25</ele><time>2026-04-12T09:56:18.603Z</time></trkpt><trkpt lat="36.9816866" lon="15.0459422"><ele>425.5</ele><time>2026-04-12T09:56:20.592Z</time></trkpt><trkpt lat="36.9817663" lon="15.0460394"><ele>426.75</ele><time>2026-04-12T09:56:22.593Z</time></trkpt><trkpt lat="36.9818815" lon="15.0460648"><ele>428.0</ele><time>2026-04-12T09:56:24.602Z</time></trkpt><trkpt lat="36.9819762" lon="15.0461187"><ele>428.00000000000006</ele><time>2026-04-12T09:56:26.591Z</time></trkpt><trkpt lat="36.9820204" lon="15.0461798"><ele>428.0</ele><time>2026-04-12T09:56:27.603Z</time></trkpt><trkpt lat="36.9820742" lon="15.0462299"><ele>428.0</ele><time>2026-04-12T09:56:28.596Z</time></trkpt><trkpt lat="36.9821288" lon="15.0462713"><ele>428.0</ele><time>2026-04-12T09:56:29.596Z</time></trkpt><trkpt lat="36.9821963" lon="15.0463028"><ele>428.0</ele><time>2026-04-12T09:56:30.593Z</time></trkpt><trkpt lat="36.9822627" lon="15.0463457"><ele>428.00000000000006</ele><time>2026-04-12T09:56:31.592Z</time></trkpt><trkpt lat="36.9823306" lon="15.04638"><ele>428.0</ele><time>2026-04-12T09:56:32.595Z</time></trkpt><trkpt lat="36.9823924" lon="15.0463955"><ele>428.0</ele><time>2026-04-12T09:56:33.593Z</time></trkpt><trkpt lat="36.9824909" lon="15.0464391"><ele>427.99999999999994</ele><time>2026-04-12T09:56:35.594Z</time></trkpt><trkpt lat="36.9826246" lon="15.0465167"><ele>427.99999999999994</ele><time>2026-04-12T09:56:37.594Z</time></trkpt><trkpt lat="36.9827129" lon="15.0465513"><ele>428.0</ele><time>2026-04-12T09:56:38.594Z</time></trkpt><trkpt lat="36.9827763" lon="15.0465851"><ele>428.0</ele><time>2026-04-12T09:56:39.594Z</time></trkpt><trkpt lat="36.9828384" lon="15.0466439"><ele>427.5</ele><time>2026-04-12T09:56:40.593Z</time></trkpt><trkpt lat="36.9829716" lon="15.0467171"><ele>427.0</ele><time>2026-04-12T09:56:42.593Z</time></trkpt><trkpt lat="36.9830479" lon="15.0467577"><ele>426.5</ele><time>2026-04-12T09:56:43.594Z</time></trkpt><trkpt lat="36.9831456" lon="15.0468123"><ele>426.0</ele><time>2026-04-12T09:56:44.593Z</time></trkpt><trkpt lat="36.983257" lon="15.0468754"><ele>426.0</ele><time>2026-04-12T09:56:45.594Z</time></trkpt><trkpt lat="36.9833561" lon="15.0469005"><ele>426.0</ele><time>2026-04-12T09:56:46.595Z</time></trkpt><trkpt lat="36.9834609" lon="15.0469123"><ele>426.0</ele><time>2026-04-12T09:56:47.59Z</time></trkpt><trkpt lat="36.9835677" lon="15.0468969"><ele>426.0</ele><time>2026-04-12T09:56:48.592Z</time></trkpt><trkpt lat="36.9836747" lon="15.0468655"><ele>426.0</ele><time>2026-04-12T09:56:49.592Z</time></trkpt><trkpt lat="36.9837869" lon="15.0468487"><ele>426.0</ele><time>2026-04-12T09:56:50.592Z</time></trkpt><trkpt lat="36.9839018" lon="15.0468464"><ele>426.0</ele><time>2026-04-12T09:56:51.594Z</time></trkpt><trkpt lat="36.9840182" lon="15.0468307"><ele>426.0</ele><time>2026-04-12T09:56:52.593Z</time></trkpt><trkpt lat="36.9841445" lon="15.0468291"><ele>426.0</ele><time>2026-04-12T09:56:53.593Z</time></trkpt><trkpt lat="36.9842779" lon="15.0468239"><ele>426.0</ele><time>2026-04-12T09:56:54.592Z</time></trkpt><trkpt lat="36.9844091" lon="15.0468213"><ele>426.0</ele><time>2026-04-12T09:56:55.594Z</time></trkpt><trkpt lat="36.9845375" lon="15.0468334"><ele>426.0</ele><time>2026-04-12T09:56:56.594Z</time></trkpt><trkpt lat="36.9846664" lon="15.0468609"><ele>426.0</ele><time>2026-04-12T09:56:57.594Z</time></trkpt><trkpt lat="36.9847989" lon="15.0469031"><ele>426.0</ele><time>2026-04-12T09:56:58.593Z</time></trkpt><trkpt lat="36.9849327" lon="15.0469557"><ele>426.0</ele><time>2026-04-12T09:56:59.594Z</time></trkpt><trkpt lat="36.9850641" lon="15.0470231"><ele>426.0</ele><time>2026-04-12T09:57:00.592Z</time></trkpt><trkpt lat="36.9851866" lon="15.0471046"><ele>426.0</ele><time>2026-04-12T09:57:01.594Z</time></trkpt><trkpt lat="36.9852807" lon="15.0472288"><ele>426.75</ele><time>2026-04-12T09:57:02.597Z</time></trkpt><trkpt lat="36.9853773" lon="15.0473529"><ele>427.5</ele><time>2026-04-12T09:57:03.591Z</time></trkpt><trkpt lat="36.9854819" lon="15.0474699"><ele>428.25</ele><time>2026-04-12T09:57:04.595Z</time></trkpt><trkpt lat="36.9855842" lon="15.04758"><ele>429.0</ele><time>2026-04-12T09:57:05.594Z</time></trkpt><trkpt lat="36.9856864" lon="15.0476879"><ele>429.0</ele><time>2026-04-12T09:57:06.591Z</time></trkpt><trkpt lat="36.9857869" lon="15.0477951"><ele>429.0</ele><time>2026-04-12T09:57:07.593Z</time></trkpt><trkpt lat="36.9858899" lon="15.0478979"><ele>429.0</ele><time>2026-04-12T09:57:08.593Z</time></trkpt><trkpt lat="36.9859919" lon="15.0479971"><ele>429.0</ele><time>2026-04-12T09:57:09.595Z</time></trkpt><trkpt lat="36.9860825" lon="15.0480752"><ele>429.5</ele><time>2026-04-12T09:57:10.593Z</time></trkpt><trkpt lat="36.9861696" lon="15.0481544"><ele>430.0</ele><time>2026-04-12T09:57:11.595Z</time></trkpt><trkpt lat="36.98624" lon="15.0482059"><ele>430.5</ele><time>2026-04-12T09:57:12.594Z</time></trkpt><trkpt lat="36.9863147" lon="15.0482345"><ele>431.0</ele><time>2026-04-12T09:57:13.594Z</time></trkpt><trkpt lat="36.9863883" lon="15.0481754"><ele>431.5</ele><time>2026-04-12T09:57:14.596Z</time></trkpt><trkpt lat="36.986463" lon="15.0481034"><ele>432.0</ele><time>2026-04-12T09:57:15.591Z</time></trkpt><trkpt lat="36.9865319" lon="15.0480071"><ele>432.0</ele><time>2026-04-12T09:57:16.591Z</time></trkpt><trkpt lat="36.9866096" lon="15.0478751"><ele>432.0</ele><time>2026-04-12T09:57:17.593Z</time></trkpt><trkpt lat="36.986698" lon="15.0477361"><ele>432.0</ele><time>2026-04-12T09:57:18.595Z</time></trkpt><trkpt lat="36.9867864" lon="15.047589"><ele>432.0</ele><time>2026-04-12T09:57:19.592Z</time></trkpt><trkpt lat="36.98687" lon="15.0474307"><ele>431.66666666666663</ele><time>2026-04-12T09:57:20.594Z</time></trkpt><trkpt lat="36.9869485" lon="15.0472705"><ele>431.3333333333333</ele><time>2026-04-12T09:57:21.594Z</time></trkpt><trkpt lat="36.9870205" lon="15.0470931"><ele>431.0</ele><time>2026-04-12T09:57:22.59Z</time></trkpt><trkpt lat="36.987078" lon="15.0469303"><ele>431.0</ele><time>2026-04-12T09:57:23.594Z</time></trkpt><trkpt lat="36.9871347" lon="15.0467549"><ele>431.0</ele><time>2026-04-12T09:57:24.591Z</time></trkpt><trkpt lat="36.9871879" lon="15.0465796"><ele>431.0</ele><time>2026-04-12T09:57:25.595Z</time></trkpt><trkpt lat="36.9872363" lon="15.0463995"><ele>431.66666666666663</ele><time>2026-04-12T09:57:26.593Z</time></trkpt><trkpt lat="36.9872805" lon="15.0462215"><ele>432.33333333333337</ele><time>2026-04-12T09:57:27.593Z</time></trkpt><trkpt lat="36.9873424" lon="15.0460457"><ele>433.0</ele><time>2026-04-12T09:57:28.596Z</time></trkpt><trkpt lat="36.9873953" lon="15.0458693"><ele>433.25</ele><time>2026-04-12T09:57:29.594Z</time></trkpt><trkpt lat="36.9874459" lon="15.0456949"><ele>433.5</ele><time>2026-04-12T09:57:30.592Z</time></trkpt><trkpt lat="36.9874786" lon="15.0455187"><ele>433.75</ele><time>2026-04-12T09:57:31.593Z</time></trkpt><trkpt lat="36.987511" lon="15.0453428"><ele>434.0</ele><time>2026-04-12T09:57:32.592Z</time></trkpt><trkpt lat="36.9875461" lon="15.0451659"><ele>434.0</ele><time>2026-04-12T09:57:33.593Z</time></trkpt><trkpt lat="36.9875861" lon="15.0449967"><ele>434.0</ele><time>2026-04-12T09:57:34.591Z</time></trkpt><trkpt lat="36.9876288" lon="15.0448333"><ele>434.0</ele><time>2026-04-12T09:57:35.594Z</time></trkpt><trkpt lat="36.9876782" lon="15.0446761"><ele>434.0</ele><time>2026-04-12T09:57:36.594Z</time></trkpt><trkpt lat="36.9877372" lon="15.0445229"><ele>434.75</ele><time>2026-04-12T09:57:37.594Z</time></trkpt><trkpt lat="36.9878063" lon="15.0443692"><ele>435.5</ele><time>2026-04-12T09:57:38.59Z</time></trkpt><trkpt lat="36.9878781" lon="15.0442307"><ele>436.25</ele><time>2026-04-12T09:57:39.595Z</time></trkpt><trkpt lat="36.9879481" lon="15.0441088"><ele>437.0</ele><time>2026-04-12T09:57:40.594Z</time></trkpt><trkpt lat="36.9880141" lon="15.0439968"><ele>437.0</ele><time>2026-04-12T09:57:41.594Z</time></trkpt><trkpt lat="36.9880744" lon="15.0438938"><ele>437.00000000000006</ele><time>2026-04-12T09:57:42.592Z</time></trkpt><trkpt lat="36.9881367" lon="15.0437995"><ele>437.00000000000006</ele><time>2026-04-12T09:57:43.595Z</time></trkpt><trkpt lat="36.988203" lon="15.0437003"><ele>437.0</ele><time>2026-04-12T09:57:44.594Z</time></trkpt><trkpt lat="36.9882697" lon="15.0435961"><ele>437.0</ele><time>2026-04-12T09:57:45.594Z</time></trkpt><trkpt lat="36.9883336" lon="15.0434787"><ele>437.5</ele><time>2026-04-12T09:57:46.593Z</time></trkpt><trkpt lat="36.9884217" lon="15.0433599"><ele>438.0</ele><time>2026-04-12T09:57:47.596Z</time></trkpt><trkpt lat="36.9885126" lon="15.0432506"><ele>438.5</ele><time>2026-04-12T09:57:48.596Z</time></trkpt><trkpt lat="36.9886127" lon="15.0431427"><ele>439.0</ele><time>2026-04-12T09:57:49.589Z</time></trkpt><trkpt lat="36.9887193" lon="15.0430345"><ele>439.5</ele><time>2026-04-12T09:57:50.593Z</time></trkpt><trkpt lat="36.9888307" lon="15.0429296"><ele>440.0</ele><time>2026-04-12T09:57:51.595Z</time></trkpt><trkpt lat="36.9889412" lon="15.042821"><ele>440.5</ele><time>2026-04-12T09:57:52.594Z</time></trkpt><trkpt lat="36.9890501" lon="15.0427108"><ele>441.0</ele><time>2026-04-12T09:57:53.595Z</time></trkpt><trkpt lat="36.989151" lon="15.0425952"><ele>442.0</ele><time>2026-04-12T09:57:54.595Z</time></trkpt><trkpt lat="36.9892438" lon="15.0424687"><ele>443.0</ele><time>2026-04-12T09:57:55.593Z</time></trkpt><trkpt lat="36.9893391" lon="15.0423377"><ele>444.0</ele><time>2026-04-12T09:57:56.59Z</time></trkpt><trkpt lat="36.9894216" lon="15.04223"><ele>445.0</ele><time>2026-04-12T09:57:57.591Z</time></trkpt><trkpt lat="36.9894931" lon="15.0421369"><ele>445.2</ele><time>2026-04-12T09:57:58.595Z</time></trkpt><trkpt lat="36.9895619" lon="15.0420654"><ele>445.4</ele><time>2026-04-12T09:57:59.587Z</time></trkpt><trkpt lat="36.989639" lon="15.0420098"><ele>445.6</ele><time>2026-04-12T09:58:00.589Z</time></trkpt><trkpt lat="36.9897606" lon="15.0420232"><ele>445.8</ele><time>2026-04-12T09:58:01.592Z</time></trkpt><trkpt lat="36.9898704" lon="15.0420306"><ele>446.0</ele><time>2026-04-12T09:58:02.589Z</time></trkpt><trkpt lat="36.9899888" lon="15.0420345"><ele>446.75</ele><time>2026-04-12T09:58:03.592Z</time></trkpt><trkpt lat="36.9901162" lon="15.0420275"><ele>447.5</ele><time>2026-04-12T09:58:04.593Z</time></trkpt><trkpt lat="36.990249" lon="15.0419958"><ele>448.25</ele><time>2026-04-12T09:58:05.594Z</time></trkpt><trkpt lat="36.9903732" lon="15.0419316"><ele>449.0</ele><time>2026-04-12T09:58:06.594Z</time></trkpt><trkpt lat="36.9904905" lon="15.041838"><ele>449.0</ele><time>2026-04-12T09:58:07.594Z</time></trkpt><trkpt lat="36.9905958" lon="15.0417336"><ele>449.0</ele><time>2026-04-12T09:58:08.597Z</time></trkpt><trkpt lat="36.9907106" lon="15.0416414"><ele>449.0</ele><time>2026-04-12T09:58:09.592Z</time></trkpt><trkpt lat="36.9908259" lon="15.0415504"><ele>449.0</ele><time>2026-04-12T09:58:10.594Z</time></trkpt><trkpt lat="36.9909451" lon="15.0414658"><ele>449.75</ele><time>2026-04-12T09:58:11.593Z</time></trkpt><trkpt lat="36.9910628" lon="15.0413927"><ele>450.5</ele><time>2026-04-12T09:58:12.595Z</time></trkpt><trkpt lat="36.9911844" lon="15.041345"><ele>451.25</ele><time>2026-04-12T09:58:13.596Z</time></trkpt><trkpt lat="36.9913053" lon="15.0413124"><ele>452.0</ele><time>2026-04-12T09:58:14.595Z</time></trkpt><trkpt lat="36.9914357" lon="15.0413175"><ele>452.0</ele><time>2026-04-12T09:58:15.591Z</time></trkpt><trkpt lat="36.9915666" lon="15.0413404"><ele>452.0</ele><time>2026-04-12T09:58:16.595Z</time></trkpt><trkpt lat="36.9916953" lon="15.0413877"><ele>452.0</ele><time>2026-04-12T09:58:17.595Z</time></trkpt><trkpt lat="36.9918214" lon="15.0414561"><ele>452.0</ele><time>2026-04-12T09:58:18.596Z</time></trkpt><trkpt lat="36.9919488" lon="15.0415353"><ele>453.0</ele><time>2026-04-12T09:58:19.592Z</time></trkpt><trkpt lat="36.9920746" lon="15.0416198"><ele>454.0</ele><time>2026-04-12T09:58:20.595Z</time></trkpt><trkpt lat="36.9922039" lon="15.0417035"><ele>455.0</ele><time>2026-04-12T09:58:21.594Z</time></trkpt><trkpt lat="36.9923307" lon="15.041786"><ele>456.0</ele><time>2026-04-12T09:58:22.596Z</time></trkpt><trkpt lat="36.992455" lon="15.0418697"><ele>457.75</ele><time>2026-04-12T09:58:23.594Z</time></trkpt><trkpt lat="36.9925801" lon="15.041948"><ele>459.5</ele><time>2026-04-12T09:58:24.596Z</time></trkpt><trkpt lat="36.9927053" lon="15.0420272"><ele>461.25</ele><time>2026-04-12T09:58:25.595Z</time></trkpt><trkpt lat="36.9928274" lon="15.0420915"><ele>463.0</ele><time>2026-04-12T09:58:26.594Z</time></trkpt><trkpt lat="36.9929508" lon="15.0421351"><ele>463.0</ele><time>2026-04-12T09:58:27.594Z</time></trkpt><trkpt lat="36.9930703" lon="15.0421522"><ele>463.0</ele><time>2026-04-12T09:58:28.594Z</time></trkpt><trkpt lat="36.9931879" lon="15.0421332"><ele>463.0</ele><time>2026-04-12T09:58:29.591Z</time></trkpt><trkpt lat="36.993302" lon="15.042095"><ele>463.0</ele><time>2026-04-12T09:58:30.594Z</time></trkpt><trkpt lat="36.9934172" lon="15.042056"><ele>464.25</ele><time>2026-04-12T09:58:31.591Z</time></trkpt><trkpt lat="36.9935393" lon="15.0420169"><ele>465.5</ele><time>2026-04-12T09:58:32.592Z</time></trkpt><trkpt lat="36.9936641" lon="15.0419796"><ele>466.75</ele><time>2026-04-12T09:58:33.596Z</time></trkpt><trkpt lat="36.9937902" lon="15.0419311"><ele>468.0</ele><time>2026-04-12T09:58:34.594Z</time></trkpt><trkpt lat="36.9939253" lon="15.041892"><ele>468.0</ele><time>2026-04-12T09:58:35.593Z</time></trkpt><trkpt lat="36.9940618" lon="15.04183"><ele>468.0</ele><time>2026-04-12T09:58:36.594Z</time></trkpt><trkpt lat="36.9942059" lon="15.0417848"><ele>468.0</ele><time>2026-04-12T09:58:37.595Z</time></trkpt><trkpt lat="36.9943454" lon="15.0417451"><ele>468.0</ele><time>2026-04-12T09:58:38.596Z</time></trkpt><trkpt lat="36.9944869" lon="15.0417049"><ele>468.0</ele><time>2026-04-12T09:58:39.593Z</time></trkpt><trkpt lat="36.9946266" lon="15.0416603"><ele>468.0</ele><time>2026-04-12T09:58:40.594Z</time></trkpt><trkpt lat="36.9947649" lon="15.0416162"><ele>468.0</ele><time>2026-04-12T09:58:41.593Z</time></trkpt><trkpt lat="36.9948831" lon="15.0415722"><ele>468.0</ele><time>2026-04-12T09:58:42.593Z</time></trkpt><trkpt lat="36.995001" lon="15.0415163"><ele>468.75</ele><time>2026-04-12T09:58:43.593Z</time></trkpt><trkpt lat="36.995114" lon="15.0414432"><ele>469.5</ele><time>2026-04-12T09:58:44.595Z</time></trkpt><trkpt lat="36.9952209" lon="15.0413557"><ele>470.25</ele><time>2026-04-12T09:58:45.593Z</time></trkpt><trkpt lat="36.9953311" lon="15.0412611"><ele>471.0</ele><time>2026-04-12T09:58:46.593Z</time></trkpt><trkpt lat="36.9954397" lon="15.0411596"><ele>471.0</ele><time>2026-04-12T09:58:47.592Z</time></trkpt><trkpt lat="36.9955477" lon="15.0410582"><ele>471.0</ele><time>2026-04-12T09:58:48.59Z</time></trkpt><trkpt lat="36.9956542" lon="15.040957"><ele>471.0</ele><time>2026-04-12T09:58:49.592Z</time></trkpt><trkpt lat="36.9957547" lon="15.0408555"><ele>471.0</ele><time>2026-04-12T09:58:50.594Z</time></trkpt><trkpt lat="36.9958532" lon="15.040763"><ele>471.6</ele><time>2026-04-12T09:58:51.591Z</time></trkpt><trkpt lat="36.9959515" lon="15.040675"><ele>472.20000000000005</ele><time>2026-04-12T09:58:52.594Z</time></trkpt><trkpt lat="36.9960385" lon="15.0405878"><ele>472.79999999999995</ele><time>2026-04-12T09:58:53.594Z</time></trkpt><trkpt lat="36.9961248" lon="15.040515"><ele>473.4</ele><time>2026-04-12T09:58:54.595Z</time></trkpt><trkpt lat="36.9962175" lon="15.0404574"><ele>474.0</ele><time>2026-04-12T09:58:55.595Z</time></trkpt><trkpt lat="36.996311" lon="15.04042"><ele>474.0</ele><time>2026-04-12T09:58:56.595Z</time></trkpt><trkpt lat="36.9964159" lon="15.0404127"><ele>474.0</ele><time>2026-04-12T09:58:57.597Z</time></trkpt><trkpt lat="36.9965437" lon="15.0404433"><ele>474.0</ele><time>2026-04-12T09:58:58.594Z</time></trkpt><trkpt lat="36.9966613" lon="15.0404909"><ele>474.0</ele><time>2026-04-12T09:58:59.597Z</time></trkpt><trkpt lat="36.9967799" lon="15.0405667"><ele>474.25</ele><time>2026-04-12T09:59:00.595Z</time></trkpt><trkpt lat="36.9968978" lon="15.0406481"><ele>474.5</ele><time>2026-04-12T09:59:01.591Z</time></trkpt><trkpt lat="36.9970142" lon="15.0407441"><ele>474.75</ele><time>2026-04-12T09:59:02.593Z</time></trkpt><trkpt lat="36.9971289" lon="15.0408367"><ele>475.0</ele><time>2026-04-12T09:59:03.591Z</time></trkpt><trkpt lat="36.9972433" lon="15.0409282"><ele>474.75</ele><time>2026-04-12T09:59:04.593Z</time></trkpt><trkpt lat="36.997352" lon="15.041031"><ele>474.5</ele><time>2026-04-12T09:59:05.595Z</time></trkpt><trkpt lat="36.9974517" lon="15.041148"><ele>474.25</ele><time>2026-04-12T09:59:06.595Z</time></trkpt><trkpt lat="36.9975472" lon="15.0412666"><ele>474.0</ele><time>2026-04-12T09:59:07.593Z</time></trkpt><trkpt lat="36.9976511" lon="15.0413741"><ele>474.0</ele><time>2026-04-12T09:59:08.595Z</time></trkpt><trkpt lat="36.9977691" lon="15.041458"><ele>474.0</ele><time>2026-04-12T09:59:09.59Z</time></trkpt><trkpt lat="36.9978933" lon="15.0415202"><ele>474.0</ele><time>2026-04-12T09:59:10.592Z</time></trkpt><trkpt lat="36.9980145" lon="15.0415837"><ele>474.0</ele><time>2026-04-12T09:59:11.594Z</time></trkpt><trkpt lat="36.9981364" lon="15.0416394"><ele>474.0</ele><time>2026-04-12T09:59:12.593Z</time></trkpt><trkpt lat="36.9982567" lon="15.0416755"><ele>474.0</ele><time>2026-04-12T09:59:13.594Z</time></trkpt><trkpt lat="36.9983841" lon="15.0416882"><ele>474.0</ele><time>2026-04-12T09:59:14.591Z</time></trkpt><trkpt lat="36.9985013" lon="15.0416559"><ele>474.0</ele><time>2026-04-12T09:59:15.595Z</time></trkpt><trkpt lat="36.9986242" lon="15.0416302"><ele>475.25</ele><time>2026-04-12T09:59:16.589Z</time></trkpt><trkpt lat="36.9987459" lon="15.0416103"><ele>476.5</ele><time>2026-04-12T09:59:17.591Z</time></trkpt><trkpt lat="36.9988698" lon="15.0416135"><ele>477.75</ele><time>2026-04-12T09:59:18.591Z</time></trkpt><trkpt lat="36.9989886" lon="15.0416424"><ele>479.0</ele><time>2026-04-12T09:59:19.591Z</time></trkpt><trkpt lat="36.9990949" lon="15.0416979"><ele>480.79999999999995</ele><time>2026-04-12T09:59:20.592Z</time></trkpt><trkpt lat="36.9991794" lon="15.0417627"><ele>482.59999999999997</ele><time>2026-04-12T09:59:21.591Z</time></trkpt><trkpt lat="36.9992431" lon="15.0418608"><ele>484.4</ele><time>2026-04-12T09:59:22.593Z</time></trkpt><trkpt lat="36.9992908" lon="15.0419744"><ele>486.2</ele><time>2026-04-12T09:59:23.593Z</time></trkpt><trkpt lat="36.9993246" lon="15.0421014"><ele>488.0</ele><time>2026-04-12T09:59:24.592Z</time></trkpt><trkpt lat="36.9993453" lon="15.0422381"><ele>488.0</ele><time>2026-04-12T09:59:25.59Z</time></trkpt><trkpt lat="36.9993596" lon="15.0423774"><ele>488.0</ele><time>2026-04-12T09:59:26.591Z</time></trkpt><trkpt lat="36.9993707" lon="15.0425207"><ele>488.0</ele><time>2026-04-12T09:59:27.593Z</time></trkpt><trkpt lat="36.9993779" lon="15.0426675"><ele>488.0</ele><time>2026-04-12T09:59:28.593Z</time></trkpt><trkpt lat="36.9993825" lon="15.0428133"><ele>489.0</ele><time>2026-04-12T09:59:29.589Z</time></trkpt><trkpt lat="36.9993868" lon="15.042952"><ele>490.0</ele><time>2026-04-12T09:59:30.594Z</time></trkpt><trkpt lat="36.9993815" lon="15.0430937"><ele>491.0</ele><time>2026-04-12T09:59:31.593Z</time></trkpt><trkpt lat="36.9993666" lon="15.0432348"><ele>492.0</ele><time>2026-04-12T09:59:32.592Z</time></trkpt><trkpt lat="36.9993465" lon="15.0433768"><ele>492.25</ele><time>2026-04-12T09:59:33.594Z</time></trkpt><trkpt lat="36.9993189" lon="15.0435184"><ele>492.5</ele><time>2026-04-12T09:59:34.593Z</time></trkpt><trkpt lat="36.9992867" lon="15.0436562"><ele>492.75</ele><time>2026-04-12T09:59:35.592Z</time></trkpt><trkpt lat="36.9992525" lon="15.0437984"><ele>493.0</ele><time>2026-04-12T09:59:36.593Z</time></trkpt><trkpt lat="36.9992196" lon="15.0439339"><ele>493.0</ele><time>2026-04-12T09:59:37.592Z</time></trkpt><trkpt lat="36.999189" lon="15.0440749"><ele>492.99999999999994</ele><time>2026-04-12T09:59:38.593Z</time></trkpt><trkpt lat="36.9991575" lon="15.0442148"><ele>492.99999999999994</ele><time>2026-04-12T09:59:39.59Z</time></trkpt><trkpt lat="36.9991252" lon="15.0443377"><ele>493.0</ele><time>2026-04-12T09:59:40.594Z</time></trkpt><trkpt lat="36.9991023" lon="15.0444633"><ele>493.0</ele><time>2026-04-12T09:59:41.59Z</time></trkpt><trkpt lat="36.999078" lon="15.0445743"><ele>492.83333333333337</ele><time>2026-04-12T09:59:42.59Z</time></trkpt><trkpt lat="36.9990622" lon="15.044681"><ele>492.6666666666667</ele><time>2026-04-12T09:59:43.594Z</time></trkpt><trkpt lat="36.9990587" lon="15.0447878"><ele>492.5</ele><time>2026-04-12T09:59:44.593Z</time></trkpt><trkpt lat="36.9990704" lon="15.0448872"><ele>492.33333333333337</ele><time>2026-04-12T09:59:45.594Z</time></trkpt><trkpt lat="36.9990926" lon="15.045"><ele>492.1666666666667</ele><time>2026-04-12T09:59:46.594Z</time></trkpt><trkpt lat="36.9991295" lon="15.0451071"><ele>492.0</ele><time>2026-04-12T09:59:47.593Z</time></trkpt><trkpt lat="36.9991827" lon="15.0452086"><ele>492.0</ele><time>2026-04-12T09:59:48.593Z</time></trkpt><trkpt lat="36.9992561" lon="15.0452979"><ele>492.00000000000006</ele><time>2026-04-12T09:59:49.593Z</time></trkpt><trkpt lat="36.9993374" lon="15.0453878"><ele>492.00000000000006</ele><time>2026-04-12T09:59:50.59Z</time></trkpt><trkpt lat="36.9994205" lon="15.0454789"><ele>492.0</ele><time>2026-04-12T09:59:51.593Z</time></trkpt><trkpt lat="36.9995139" lon="15.0455804"><ele>492.0</ele><time>2026-04-12T09:59:52.59Z</time></trkpt><trkpt lat="36.9996075" lon="15.0456838"><ele>492.0</ele><time>2026-04-12T09:59:53.591Z</time></trkpt><trkpt lat="36.9996982" lon="15.0457807"><ele>492.0</ele><time>2026-04-12T09:59:54.592Z</time></trkpt><trkpt lat="36.9997898" lon="15.0458753"><ele>492.0</ele><time>2026-04-12T09:59:55.592Z</time></trkpt><trkpt lat="36.9998843" lon="15.0459701"><ele>492.0</ele><time>2026-04-12T09:59:56.595Z</time></trkpt><trkpt lat="36.9999741" lon="15.0460704"><ele>492.5</ele><time>2026-04-12T09:59:57.593Z</time></trkpt><trkpt lat="37.0000621" lon="15.0461621"><ele>493.0</ele><time>2026-04-12T09:59:58.59Z</time></trkpt><trkpt lat="37.0001579" lon="15.0462429"><ele>493.5</ele><time>2026-04-12T09:59:59.592Z</time></trkpt><trkpt lat="37.0002578" lon="15.046309"><ele>494.0</ele><time>2026-04-12T10:00:00.591Z</time></trkpt><trkpt lat="37.0003689" lon="15.0463678"><ele>494.0</ele><time>2026-04-12T10:00:01.589Z</time></trkpt><trkpt lat="37.0004812" lon="15.0464319"><ele>494.0</ele><time>2026-04-12T10:00:02.59Z</time></trkpt><trkpt lat="37.0005944" lon="15.0465008"><ele>494.0</ele><time>2026-04-12T10:00:03.592Z</time></trkpt><trkpt lat="37.0007076" lon="15.0465661"><ele>494.0</ele><time>2026-04-12T10:00:04.595Z</time></trkpt><trkpt lat="37.0008278" lon="15.0466326"><ele>494.5</ele><time>2026-04-12T10:00:05.592Z</time></trkpt><trkpt lat="37.0009462" lon="15.0466998"><ele>495.0</ele><time>2026-04-12T10:00:06.593Z</time></trkpt><trkpt lat="37.0010738" lon="15.0467679"><ele>495.5</ele><time>2026-04-12T10:00:07.59Z</time></trkpt><trkpt lat="37.0011996" lon="15.0468391"><ele>496.0</ele><time>2026-04-12T10:00:08.594Z</time></trkpt><trkpt lat="37.0013277" lon="15.0469086"><ele>496.0</ele><time>2026-04-12T10:00:09.589Z</time></trkpt><trkpt lat="37.0014591" lon="15.0469794"><ele>496.0</ele><time>2026-04-12T10:00:10.597Z</time></trkpt><trkpt lat="37.0015912" lon="15.0470532"><ele>496.0</ele><time>2026-04-12T10:00:11.593Z</time></trkpt><trkpt lat="37.0017217" lon="15.0471281"><ele>496.0</ele><time>2026-04-12T10:00:12.594Z</time></trkpt><trkpt lat="37.0018389" lon="15.0472227"><ele>495.75</ele><time>2026-04-12T10:00:13.593Z</time></trkpt><trkpt lat="37.0019502" lon="15.047326"><ele>495.5</ele><time>2026-04-12T10:00:14.593Z</time></trkpt><trkpt lat="37.002055" lon="15.0474338"><ele>495.25</ele><time>2026-04-12T10:00:15.594Z</time></trkpt><trkpt lat="37.0021572" lon="15.0475463"><ele>495.0</ele><time>2026-04-12T10:00:16.589Z</time></trkpt><trkpt lat="37.002252" lon="15.0476763"><ele>495.5</ele><time>2026-04-12T10:00:17.591Z</time></trkpt><trkpt lat="37.002337" lon="15.0478089"><ele>496.0</ele><time>2026-04-12T10:00:18.59Z</time></trkpt><trkpt lat="37.0024197" lon="15.0479468"><ele>496.5</ele><time>2026-04-12T10:00:19.59Z</time></trkpt><trkpt lat="37.0025054" lon="15.0480876"><ele>497.0</ele><time>2026-04-12T10:00:20.59Z</time></trkpt><trkpt lat="37.0025886" lon="15.0482271"><ele>496.25</ele><time>2026-04-12T10:00:21.588Z</time></trkpt><trkpt lat="37.0026601" lon="15.0483734"><ele>495.5</ele><time>2026-04-12T10:00:22.595Z</time></trkpt><trkpt lat="37.0027341" lon="15.0485099"><ele>494.75</ele><time>2026-04-12T10:00:23.59Z</time></trkpt><trkpt lat="37.0028239" lon="15.0486362"><ele>494.0</ele><time>2026-04-12T10:00:24.591Z</time></trkpt><trkpt lat="37.0029258" lon="15.0487517"><ele>494.0</ele><time>2026-04-12T10:00:25.591Z</time></trkpt><trkpt lat="37.0030373" lon="15.0488487"><ele>494.0</ele><time>2026-04-12T10:00:26.59Z</time></trkpt><trkpt lat="37.0031456" lon="15.0489527"><ele>494.0</ele><time>2026-04-12T10:00:27.59Z</time></trkpt><trkpt lat="37.0032563" lon="15.0490652"><ele>494.0</ele><time>2026-04-12T10:00:28.592Z</time></trkpt><trkpt lat="37.0033641" lon="15.0491848"><ele>491.3333333333333</ele><time>2026-04-12T10:00:29.592Z</time></trkpt><trkpt lat="37.0034736" lon="15.0493185"><ele>488.66666666666663</ele><time>2026-04-12T10:00:30.593Z</time></trkpt><trkpt lat="37.0035719" lon="15.0494605"><ele>486.0</ele><time>2026-04-12T10:00:31.593Z</time></trkpt><trkpt lat="37.0036616" lon="15.0496064"><ele>486.0</ele><time>2026-04-12T10:00:32.592Z</time></trkpt><trkpt lat="37.0037437" lon="15.0497558"><ele>486.0</ele><time>2026-04-12T10:00:33.592Z</time></trkpt><trkpt lat="37.0038287" lon="15.0498979"><ele>486.0</ele><time>2026-04-12T10:00:34.591Z</time></trkpt><trkpt lat="37.003914" lon="15.0500414"><ele>486.0</ele><time>2026-04-12T10:00:35.591Z</time></trkpt><trkpt lat="37.0039918" lon="15.050179"><ele>486.25</ele><time>2026-04-12T10:00:36.595Z</time></trkpt><trkpt lat="37.0040611" lon="15.0503186"><ele>486.5</ele><time>2026-04-12T10:00:37.59Z</time></trkpt><trkpt lat="37.0041295" lon="15.0504517"><ele>486.75</ele><time>2026-04-12T10:00:38.59Z</time></trkpt><trkpt lat="37.0041961" lon="15.0505725"><ele>487.0</ele><time>2026-04-12T10:00:39.594Z</time></trkpt><trkpt lat="37.004263" lon="15.0506967"><ele>488.0</ele><time>2026-04-12T10:00:40.589Z</time></trkpt><trkpt lat="37.0043273" lon="15.0508186"><ele>489.0</ele><time>2026-04-12T10:00:41.594Z</time></trkpt><trkpt lat="37.0043834" lon="15.0509445"><ele>490.0</ele><time>2026-04-12T10:00:42.591Z</time></trkpt><trkpt lat="37.0044388" lon="15.051068"><ele>491.0</ele><time>2026-04-12T10:00:43.593Z</time></trkpt><trkpt lat="37.0044922" lon="15.0512088"><ele>491.0</ele><time>2026-04-12T10:00:44.591Z</time></trkpt><trkpt lat="37.0045371" lon="15.0513462"><ele>491.0</ele><time>2026-04-12T10:00:45.59Z</time></trkpt><trkpt lat="37.004576" lon="15.05149"><ele>491.0</ele><time>2026-04-12T10:00:46.592Z</time></trkpt><trkpt lat="37.0046069" lon="15.051646"><ele>491.0</ele><time>2026-04-12T10:00:47.591Z</time></trkpt><trkpt lat="37.0046262" lon="15.0517927"><ele>490.75</ele><time>2026-04-12T10:00:48.59Z</time></trkpt><trkpt lat="37.0046379" lon="15.0519395"><ele>490.5</ele><time>2026-04-12T10:00:49.593Z</time></trkpt><trkpt lat="37.0046381" lon="15.052085"><ele>490.25</ele><time>2026-04-12T10:00:50.598Z</time></trkpt><trkpt lat="37.004629" lon="15.0522318"><ele>490.0</ele><time>2026-04-12T10:00:51.592Z</time></trkpt><trkpt lat="37.0046287" lon="15.0523696"><ele>488.2</ele><time>2026-04-12T10:00:52.593Z</time></trkpt><trkpt lat="37.0046299" lon="15.0525135"><ele>486.4</ele><time>2026-04-12T10:00:53.594Z</time></trkpt><trkpt lat="37.0046283" lon="15.052653"><ele>484.6</ele><time>2026-04-12T10:00:54.592Z</time></trkpt><trkpt lat="37.0046225" lon="15.052772"><ele>482.8</ele><time>2026-04-12T10:00:55.591Z</time></trkpt><trkpt lat="37.0046167" lon="15.0528674"><ele>481.0</ele><time>2026-04-12T10:00:56.597Z</time></trkpt><trkpt lat="37.0046316" lon="15.0529655"><ele>481.00000000000006</ele><time>2026-04-12T10:00:58.594Z</time></trkpt><trkpt lat="37.0046952" lon="15.0529792"><ele>481.0</ele><time>2026-04-12T10:01:00.595Z</time></trkpt><trkpt lat="37.0047577" lon="15.0529384"><ele>481.0</ele><time>2026-04-12T10:01:01.602Z</time></trkpt><trkpt lat="37.0048273" lon="15.0528867"><ele>481.0</ele><time>2026-04-12T10:01:02.595Z</time></trkpt><trkpt lat="37.0049148" lon="15.0528319"><ele>481.00000000000006</ele><time>2026-04-12T10:01:03.595Z</time></trkpt><trkpt lat="37.0050099" lon="15.0527799"><ele>481.0</ele><time>2026-04-12T10:01:04.594Z</time></trkpt><trkpt lat="37.0050984" lon="15.0527105"><ele>480.5</ele><time>2026-04-12T10:01:05.595Z</time></trkpt><trkpt lat="37.0051823" lon="15.0526157"><ele>480.0</ele><time>2026-04-12T10:01:06.594Z</time></trkpt><trkpt lat="37.0052556" lon="15.0525044"><ele>479.5</ele><time>2026-04-12T10:01:07.594Z</time></trkpt><trkpt lat="37.0053154" lon="15.0523787"><ele>479.0</ele><time>2026-04-12T10:01:08.589Z</time></trkpt><trkpt lat="37.0053754" lon="15.0522529"><ele>479.0</ele><time>2026-04-12T10:01:09.592Z</time></trkpt><trkpt lat="37.0054471" lon="15.0521251"><ele>479.0</ele><time>2026-04-12T10:01:10.594Z</time></trkpt><trkpt lat="37.0055081" lon="15.0520036"><ele>479.0</ele><time>2026-04-12T10:01:11.594Z</time></trkpt><trkpt lat="37.0055649" lon="15.0518812"><ele>479.0</ele><time>2026-04-12T10:01:12.595Z</time></trkpt><trkpt lat="37.0056242" lon="15.0517667"><ele>479.0</ele><time>2026-04-12T10:01:13.595Z</time></trkpt><trkpt lat="37.0056824" lon="15.0516583"><ele>479.0</ele><time>2026-04-12T10:01:14.59Z</time></trkpt><trkpt lat="37.0057464" lon="15.0515562"><ele>479.0</ele><time>2026-04-12T10:01:15.593Z</time></trkpt><trkpt lat="37.0058142" lon="15.0514649"><ele>479.0</ele><time>2026-04-12T10:01:16.594Z</time></trkpt><trkpt lat="37.0058914" lon="15.0513812"><ele>479.0</ele><time>2026-04-12T10:01:17.591Z</time></trkpt><trkpt lat="37.0059686" lon="15.0513032"><ele>478.0</ele><time>2026-04-12T10:01:18.593Z</time></trkpt><trkpt lat="37.0060564" lon="15.0512249"><ele>477.0</ele><time>2026-04-12T10:01:19.593Z</time></trkpt><trkpt lat="37.0061349" lon="15.0511375"><ele>476.0</ele><time>2026-04-12T10:01:20.594Z</time></trkpt><trkpt lat="37.0062232" lon="15.0510512"><ele>475.0</ele><time>2026-04-12T10:01:21.594Z</time></trkpt><trkpt lat="37.0063098" lon="15.0509533"><ele>474.0</ele><time>2026-04-12T10:01:22.595Z</time></trkpt><trkpt lat="37.0064031" lon="15.0508559"><ele>476.5</ele><time>2026-04-12T10:01:23.591Z</time></trkpt><trkpt lat="37.0064977" lon="15.0507579"><ele>479.0</ele><time>2026-04-12T10:01:24.592Z</time></trkpt><trkpt lat="37.0065897" lon="15.0506587"><ele>481.5</ele><time>2026-04-12T10:01:25.59Z</time></trkpt><trkpt lat="37.0066809" lon="15.0505573"><ele>484.0</ele><time>2026-04-12T10:01:26.592Z</time></trkpt><trkpt lat="37.0067697" lon="15.0504578"><ele>478.0</ele><time>2026-04-12T10:01:27.59Z</time></trkpt><trkpt lat="37.0068586" lon="15.0503621"><ele>472.0</ele><time>2026-04-12T10:01:28.59Z</time></trkpt><trkpt lat="37.006953" lon="15.050269"><ele>466.0</ele><time>2026-04-12T10:01:29.593Z</time></trkpt><trkpt lat="37.0070432" lon="15.050173"><ele>460.0</ele><time>2026-04-12T10:01:30.589Z</time></trkpt><trkpt lat="37.0071318" lon="15.0500749"><ele>460.0</ele><time>2026-04-12T10:01:31.589Z</time></trkpt><trkpt lat="37.0072177" lon="15.0499793"><ele>460.0</ele><time>2026-04-12T10:01:32.591Z</time></trkpt><trkpt lat="37.0073064" lon="15.0498891"><ele>460.0</ele><time>2026-04-12T10:01:33.59Z</time></trkpt><trkpt lat="37.0073941" lon="15.0497955"><ele>460.0</ele><time>2026-04-12T10:01:34.593Z</time></trkpt><trkpt lat="37.0074807" lon="15.0497051"><ele>457.6</ele><time>2026-04-12T10:01:35.593Z</time></trkpt><trkpt lat="37.007561" lon="15.0496101"><ele>455.2</ele><time>2026-04-12T10:01:36.591Z</time></trkpt><trkpt lat="37.0076435" lon="15.0495202"><ele>452.79999999999995</ele><time>2026-04-12T10:01:37.591Z</time></trkpt><trkpt lat="37.007732" lon="15.049436"><ele>450.4</ele><time>2026-04-12T10:01:38.595Z</time></trkpt><trkpt lat="37.0078196" lon="15.0493561"><ele>448.0</ele><time>2026-04-12T10:01:39.59Z</time></trkpt><trkpt lat="37.007917" lon="15.0493073"><ele>448.0</ele><time>2026-04-12T10:01:40.593Z</time></trkpt><trkpt lat="37.0080226" lon="15.0493017"><ele>447.99999999999994</ele><time>2026-04-12T10:01:41.591Z</time></trkpt><trkpt lat="37.0081123" lon="15.0493304"><ele>447.99999999999994</ele><time>2026-04-12T10:01:42.592Z</time></trkpt><trkpt lat="37.0081906" lon="15.049386"><ele>448.0</ele><time>2026-04-12T10:01:43.591Z</time></trkpt><trkpt lat="37.0082557" lon="15.0494601"><ele>448.0</ele><time>2026-04-12T10:01:44.593Z</time></trkpt><trkpt lat="37.0083062" lon="15.0495564"><ele>446.00000000000006</ele><time>2026-04-12T10:01:45.593Z</time></trkpt><trkpt lat="37.0083552" lon="15.049654"><ele>444.0</ele><time>2026-04-12T10:01:46.592Z</time></trkpt><trkpt lat="37.0084091" lon="15.0497387"><ele>442.0</ele><time>2026-04-12T10:01:47.591Z</time></trkpt><trkpt lat="37.0084727" lon="15.0497857"><ele>440.0</ele><time>2026-04-12T10:01:48.594Z</time></trkpt><trkpt lat="37.0085507" lon="15.0497992"><ele>438.00000000000006</ele><time>2026-04-12T10:01:49.592Z</time></trkpt><trkpt lat="37.0086391" lon="15.049793"><ele>436.0</ele><time>2026-04-12T10:01:50.593Z</time></trkpt><trkpt lat="37.0087269" lon="15.0497099"><ele>436.0</ele><time>2026-04-12T10:01:51.591Z</time></trkpt><trkpt lat="37.0088182" lon="15.049621"><ele>436.0</ele><time>2026-04-12T10:01:52.59Z</time></trkpt><trkpt lat="37.0089167" lon="15.0495256"><ele>436.0</ele><time>2026-04-12T10:01:53.591Z</time></trkpt><trkpt lat="37.0090159" lon="15.0494312"><ele>436.0</ele><time>2026-04-12T10:01:54.592Z</time></trkpt><trkpt lat="37.0091118" lon="15.0493405"><ele>434.25</ele><time>2026-04-12T10:01:55.592Z</time></trkpt><trkpt lat="37.0092114" lon="15.0492628"><ele>432.5</ele><time>2026-04-12T10:01:56.593Z</time></trkpt><trkpt lat="37.0093216" lon="15.0492176"><ele>430.75</ele><time>2026-04-12T10:01:57.594Z</time></trkpt><trkpt lat="37.0094425" lon="15.0491838"><ele>429.0</ele><time>2026-04-12T10:01:58.594Z</time></trkpt><trkpt lat="37.0095653" lon="15.0491489"><ele>428.5</ele><time>2026-04-12T10:01:59.591Z</time></trkpt><trkpt lat="37.009686" lon="15.049115"><ele>428.0</ele><time>2026-04-12T10:02:00.595Z</time></trkpt><trkpt lat="37.0098067" lon="15.0490765"><ele>427.5</ele><time>2026-04-12T10:02:01.593Z</time></trkpt><trkpt lat="37.0099258" lon="15.0490392"><ele>427.0</ele><time>2026-04-12T10:02:02.592Z</time></trkpt><trkpt lat="37.0100465" lon="15.0490065"><ele>427.0</ele><time>2026-04-12T10:02:03.591Z</time></trkpt><trkpt lat="37.0101654" lon="15.0489856"><ele>427.0</ele><time>2026-04-12T10:02:04.593Z</time></trkpt><trkpt lat="37.0102805" lon="15.0490044"><ele>427.0</ele><time>2026-04-12T10:02:05.592Z</time></trkpt><trkpt lat="37.0103967" lon="15.0490375"><ele>427.0</ele><time>2026-04-12T10:02:06.593Z</time></trkpt><trkpt lat="37.0105114" lon="15.0490801"><ele>427.0</ele><time>2026-04-12T10:02:07.592Z</time></trkpt><trkpt lat="37.0106229" lon="15.0491239"><ele>427.00000000000006</ele><time>2026-04-12T10:02:08.592Z</time></trkpt><trkpt lat="37.0107268" lon="15.049176"><ele>427.00000000000006</ele><time>2026-04-12T10:02:09.59Z</time></trkpt><trkpt lat="37.010821" lon="15.0492235"><ele>427.0</ele><time>2026-04-12T10:02:10.592Z</time></trkpt><trkpt lat="37.010902" lon="15.049258"><ele>427.0</ele><time>2026-04-12T10:02:11.593Z</time></trkpt><trkpt lat="37.0109815" lon="15.0492665"><ele>425.6</ele><time>2026-04-12T10:02:12.59Z</time></trkpt><trkpt lat="37.0110518" lon="15.0492445"><ele>424.20000000000005</ele><time>2026-04-12T10:02:13.592Z</time></trkpt><trkpt lat="37.0111034" lon="15.0491808"><ele>422.8</ele><time>2026-04-12T10:02:14.592Z</time></trkpt><trkpt lat="37.0111357" lon="15.0490847"><ele>421.4</ele><time>2026-04-12T10:02:15.591Z</time></trkpt><trkpt lat="37.0111608" lon="15.0489541"><ele>420.0</ele><time>2026-04-12T10:02:16.593Z</time></trkpt><trkpt lat="37.011198" lon="15.0488168"><ele>420.0</ele><time>2026-04-12T10:02:17.594Z</time></trkpt><trkpt lat="37.0112437" lon="15.0486802"><ele>420.0</ele><time>2026-04-12T10:02:18.592Z</time></trkpt><trkpt lat="37.0112967" lon="15.0485315"><ele>420.0</ele><time>2026-04-12T10:02:19.593Z</time></trkpt><trkpt lat="37.0113605" lon="15.0483821"><ele>420.0</ele><time>2026-04-12T10:02:20.592Z</time></trkpt><trkpt lat="37.0114261" lon="15.0482282"><ele>420.25</ele><time>2026-04-12T10:02:21.593Z</time></trkpt><trkpt lat="37.0114964" lon="15.0480782"><ele>420.5</ele><time>2026-04-12T10:02:22.593Z</time></trkpt><trkpt lat="37.0115785" lon="15.0479382"><ele>420.75</ele><time>2026-04-12T10:02:23.592Z</time></trkpt><trkpt lat="37.0116702" lon="15.0478085"><ele>421.0</ele><time>2026-04-12T10:02:24.594Z</time></trkpt><trkpt lat="37.0117568" lon="15.0476852"><ele>421.0</ele><time>2026-04-12T10:02:25.592Z</time></trkpt><trkpt lat="37.0118619" lon="15.0475824"><ele>421.0</ele><time>2026-04-12T10:02:26.593Z</time></trkpt><trkpt lat="37.0119741" lon="15.0474845"><ele>421.0</ele><time>2026-04-12T10:02:27.591Z</time></trkpt><trkpt lat="37.0120919" lon="15.0473867"><ele>421.0</ele><time>2026-04-12T10:02:28.591Z</time></trkpt><trkpt lat="37.0122116" lon="15.0472927"><ele>421.25</ele><time>2026-04-12T10:02:29.593Z</time></trkpt><trkpt lat="37.0123333" lon="15.0472004"><ele>421.5</ele><time>2026-04-12T10:02:30.589Z</time></trkpt><trkpt lat="37.0124583" lon="15.0471153"><ele>421.75</ele><time>2026-04-12T10:02:31.592Z</time></trkpt><trkpt lat="37.0125781" lon="15.047041"><ele>422.0</ele><time>2026-04-12T10:02:32.591Z</time></trkpt><trkpt lat="37.0126903" lon="15.0469591"><ele>425.5</ele><time>2026-04-12T10:02:33.591Z</time></trkpt><trkpt lat="37.0127911" lon="15.0468586"><ele>429.0</ele><time>2026-04-12T10:02:34.594Z</time></trkpt><trkpt lat="37.0128746" lon="15.04674"><ele>432.5</ele><time>2026-04-12T10:02:35.59Z</time></trkpt><trkpt lat="37.0129606" lon="15.0466193"><ele>436.0</ele><time>2026-04-12T10:02:36.592Z</time></trkpt><trkpt lat="37.0130496" lon="15.0464937"><ele>438.0</ele><time>2026-04-12T10:02:37.592Z</time></trkpt><trkpt lat="37.0131412" lon="15.0463618"><ele>440.0</ele><time>2026-04-12T10:02:38.592Z</time></trkpt><trkpt lat="37.0132434" lon="15.0462418"><ele>442.0</ele><time>2026-04-12T10:02:39.593Z</time></trkpt><trkpt lat="37.0133562" lon="15.0461345"><ele>444.0</ele><time>2026-04-12T10:02:40.59Z</time></trkpt><trkpt lat="37.0134639" lon="15.046031"><ele>444.75</ele><time>2026-04-12T10:02:41.591Z</time></trkpt><trkpt lat="37.0135723" lon="15.0459214"><ele>445.5</ele><time>2026-04-12T10:02:42.592Z</time></trkpt><trkpt lat="37.0136888" lon="15.0458387"><ele>446.25</ele><time>2026-04-12T10:02:43.591Z</time></trkpt><trkpt lat="37.0138049" lon="15.0457715"><ele>447.0</ele><time>2026-04-12T10:02:44.593Z</time></trkpt><trkpt lat="37.013924" lon="15.0457141"><ele>449.0</ele><time>2026-04-12T10:02:45.592Z</time></trkpt><trkpt lat="37.0140436" lon="15.0456429"><ele>451.0</ele><time>2026-04-12T10:02:46.592Z</time></trkpt><trkpt lat="37.0141566" lon="15.0455757"><ele>453.0</ele><time>2026-04-12T10:02:47.592Z</time></trkpt><trkpt lat="37.0142648" lon="15.0455027"><ele>455.0</ele><time>2026-04-12T10:02:48.591Z</time></trkpt><trkpt lat="37.0143778" lon="15.0454571"><ele>455.0</ele><time>2026-04-12T10:02:49.59Z</time></trkpt><trkpt lat="37.0144993" lon="15.0454286"><ele>455.0</ele><time>2026-04-12T10:02:50.592Z</time></trkpt><trkpt lat="37.0146253" lon="15.0454178"><ele>455.0</ele><time>2026-04-12T10:02:51.589Z</time></trkpt><trkpt lat="37.0147533" lon="15.0454424"><ele>455.0</ele><time>2026-04-12T10:02:52.593Z</time></trkpt><trkpt lat="37.0148817" lon="15.0454759"><ele>455.25</ele><time>2026-04-12T10:02:53.59Z</time></trkpt><trkpt lat="37.0150171" lon="15.0455071"><ele>455.5</ele><time>2026-04-12T10:02:54.592Z</time></trkpt><trkpt lat="37.0151525" lon="15.0455337"><ele>455.75</ele><time>2026-04-12T10:02:55.593Z</time></trkpt><trkpt lat="37.015289" lon="15.0455577"><ele>456.0</ele><time>2026-04-12T10:02:56.592Z</time></trkpt><trkpt lat="37.0154248" lon="15.0455839"><ele>456.0</ele><time>2026-04-12T10:02:57.591Z</time></trkpt><trkpt lat="37.0155613" lon="15.0456121"><ele>456.0</ele><time>2026-04-12T10:02:58.591Z</time></trkpt><trkpt lat="37.0156952" lon="15.0456332"><ele>456.0</ele><time>2026-04-12T10:02:59.592Z</time></trkpt><trkpt lat="37.0158326" lon="15.0456555"><ele>456.0</ele><time>2026-04-12T10:03:00.593Z</time></trkpt><trkpt lat="37.0159693" lon="15.0456858"><ele>456.5</ele><time>2026-04-12T10:03:01.593Z</time></trkpt><trkpt lat="37.0161074" lon="15.0457121"><ele>457.0</ele><time>2026-04-12T10:03:02.594Z</time></trkpt><trkpt lat="37.0162503" lon="15.0457319"><ele>457.5</ele><time>2026-04-12T10:03:03.594Z</time></trkpt><trkpt lat="37.0163914" lon="15.0457499"><ele>458.0</ele><time>2026-04-12T10:03:04.592Z</time></trkpt><trkpt lat="37.0165322" lon="15.0457621"><ele>458.5</ele><time>2026-04-12T10:03:05.591Z</time></trkpt><trkpt lat="37.0166744" lon="15.0457664"><ele>459.0</ele><time>2026-04-12T10:03:06.589Z</time></trkpt><trkpt lat="37.0168161" lon="15.0457665"><ele>459.5</ele><time>2026-04-12T10:03:07.591Z</time></trkpt><trkpt lat="37.0169591" lon="15.0457655"><ele>460.0</ele><time>2026-04-12T10:03:08.591Z</time></trkpt><trkpt lat="37.017099" lon="15.045763"><ele>460.0</ele><time>2026-04-12T10:03:09.593Z</time></trkpt><trkpt lat="37.0172282" lon="15.0457565"><ele>460.0</ele><time>2026-04-12T10:03:10.591Z</time></trkpt><trkpt lat="37.0173545" lon="15.0457484"><ele>460.0</ele><time>2026-04-12T10:03:11.592Z</time></trkpt><trkpt lat="37.0174768" lon="15.0457507"><ele>460.0</ele><time>2026-04-12T10:03:12.593Z</time></trkpt><trkpt lat="37.0176038" lon="15.0457636"><ele>460.0</ele><time>2026-04-12T10:03:13.593Z</time></trkpt><trkpt lat="37.0177367" lon="15.0457795"><ele>460.0</ele><time>2026-04-12T10:03:14.602Z</time></trkpt><trkpt lat="37.0178701" lon="15.0457787"><ele>460.0</ele><time>2026-04-12T10:03:15.593Z</time></trkpt><trkpt lat="37.0180055" lon="15.0457705"><ele>460.0</ele><time>2026-04-12T10:03:16.59Z</time></trkpt><trkpt lat="37.0181394" lon="15.0457533"><ele>460.0</ele><time>2026-04-12T10:03:17.592Z</time></trkpt><trkpt lat="37.0182791" lon="15.0457252"><ele>460.0</ele><time>2026-04-12T10:03:18.591Z</time></trkpt><trkpt lat="37.0184161" lon="15.0456974"><ele>460.0</ele><time>2026-04-12T10:03:19.593Z</time></trkpt><trkpt lat="37.0185499" lon="15.0456714"><ele>460.0</ele><time>2026-04-12T10:03:20.591Z</time></trkpt><trkpt lat="37.0186809" lon="15.0456256"><ele>460.25</ele><time>2026-04-12T10:03:21.594Z</time></trkpt><trkpt lat="37.018813" lon="15.0455811"><ele>460.5</ele><time>2026-04-12T10:03:22.589Z</time></trkpt><trkpt lat="37.0189394" lon="15.0455243"><ele>460.75</ele><time>2026-04-12T10:03:23.592Z</time></trkpt><trkpt lat="37.0190496" lon="15.0454684"><ele>461.0</ele><time>2026-04-12T10:03:24.592Z</time></trkpt><trkpt lat="37.0191615" lon="15.0454239"><ele>461.5</ele><time>2026-04-12T10:03:25.592Z</time></trkpt><trkpt lat="37.0192755" lon="15.0453941"><ele>462.0</ele><time>2026-04-12T10:03:26.595Z</time></trkpt><trkpt lat="37.0193891" lon="15.04537"><ele>462.5</ele><time>2026-04-12T10:03:27.591Z</time></trkpt><trkpt lat="37.0195127" lon="15.0453766"><ele>463.0</ele><time>2026-04-12T10:03:28.592Z</time></trkpt><trkpt lat="37.0196392" lon="15.0453821"><ele>463.0</ele><time>2026-04-12T10:03:29.59Z</time></trkpt><trkpt lat="37.0197622" lon="15.0453836"><ele>463.0</ele><time>2026-04-12T10:03:30.594Z</time></trkpt><trkpt lat="37.0198894" lon="15.0453596"><ele>463.0</ele><time>2026-04-12T10:03:31.593Z</time></trkpt><trkpt lat="37.0200151" lon="15.0453187"><ele>463.0</ele><time>2026-04-12T10:03:32.594Z</time></trkpt><trkpt lat="37.0201467" lon="15.0452747"><ele>463.25</ele><time>2026-04-12T10:03:33.593Z</time></trkpt><trkpt lat="37.0202749" lon="15.0452256"><ele>463.5</ele><time>2026-04-12T10:03:34.59Z</time></trkpt><trkpt lat="37.0204034" lon="15.0451736"><ele>463.75</ele><time>2026-04-12T10:03:35.592Z</time></trkpt><trkpt lat="37.0205294" lon="15.0451139"><ele>464.0</ele><time>2026-04-12T10:03:36.593Z</time></trkpt><trkpt lat="37.0206486" lon="15.0450488"><ele>464.0</ele><time>2026-04-12T10:03:37.594Z</time></trkpt><trkpt lat="37.0207562" lon="15.0449845"><ele>464.0</ele><time>2026-04-12T10:03:38.594Z</time></trkpt><trkpt lat="37.0208504" lon="15.0449126"><ele>464.0</ele><time>2026-04-12T10:03:39.591Z</time></trkpt><trkpt lat="37.0209274" lon="15.0448368"><ele>464.0</ele><time>2026-04-12T10:03:40.595Z</time></trkpt><trkpt lat="37.0209804" lon="15.0447406"><ele>464.0</ele><time>2026-04-12T10:03:41.591Z</time></trkpt><trkpt lat="37.021037" lon="15.0446725"><ele>464.0</ele><time>2026-04-12T10:03:42.591Z</time></trkpt><trkpt lat="37.0211048" lon="15.0446373"><ele>464.0</ele><time>2026-04-12T10:03:43.597Z</time></trkpt><trkpt lat="37.0211855" lon="15.0446492"><ele>464.0</ele><time>2026-04-12T10:03:44.594Z</time></trkpt><trkpt lat="37.0212694" lon="15.0447038"><ele>464.0</ele><time>2026-04-12T10:03:45.589Z</time></trkpt><trkpt lat="37.0213568" lon="15.0447746"><ele>464.0</ele><time>2026-04-12T10:03:46.594Z</time></trkpt><trkpt lat="37.0214561" lon="15.0448542"><ele>464.0</ele><time>2026-04-12T10:03:47.593Z</time></trkpt><trkpt lat="37.0215543" lon="15.0449247"><ele>464.0</ele><time>2026-04-12T10:03:48.592Z</time></trkpt><trkpt lat="37.02167" lon="15.0449873"><ele>464.0</ele><time>2026-04-12T10:03:49.593Z</time></trkpt><trkpt lat="37.0217911" lon="15.0450372"><ele>464.0</ele><time>2026-04-12T10:03:50.594Z</time></trkpt><trkpt lat="37.0219086" lon="15.045091"><ele>464.25</ele><time>2026-04-12T10:03:51.593Z</time></trkpt><trkpt lat="37.0219964" lon="15.0451849"><ele>464.5</ele><time>2026-04-12T10:03:52.595Z</time></trkpt><trkpt lat="37.0220728" lon="15.0453209"><ele>464.75</ele><time>2026-04-12T10:03:53.597Z</time></trkpt><trkpt lat="37.0221422" lon="15.0454532"><ele>465.0</ele><time>2026-04-12T10:03:54.596Z</time></trkpt><trkpt lat="37.022202" lon="15.0456004"><ele>465.0</ele><time>2026-04-12T10:03:55.595Z</time></trkpt><trkpt lat="37.0222519" lon="15.0457502"><ele>465.0</ele><time>2026-04-12T10:03:56.596Z</time></trkpt><trkpt lat="37.0223097" lon="15.0459099"><ele>465.0</ele><time>2026-04-12T10:03:57.597Z</time></trkpt><trkpt lat="37.0223714" lon="15.0460663"><ele>465.0</ele><time>2026-04-12T10:03:58.593Z</time></trkpt><trkpt lat="37.0224292" lon="15.0462249"><ele>466.25</ele><time>2026-04-12T10:03:59.597Z</time></trkpt><trkpt lat="37.0224826" lon="15.0463849"><ele>467.5</ele><time>2026-04-12T10:04:00.596Z</time></trkpt><trkpt lat="37.022529" lon="15.0465538"><ele>468.75</ele><time>2026-04-12T10:04:01.592Z</time></trkpt><trkpt lat="37.0225708" lon="15.0467197"><ele>470.0</ele><time>2026-04-12T10:04:02.598Z</time></trkpt><trkpt lat="37.0226044" lon="15.0468713"><ele>470.0</ele><time>2026-04-12T10:04:03.596Z</time></trkpt><trkpt lat="37.0226449" lon="15.0470299"><ele>470.0</ele><time>2026-04-12T10:04:04.593Z</time></trkpt><trkpt lat="37.0226806" lon="15.0471872"><ele>470.0</ele><time>2026-04-12T10:04:05.594Z</time></trkpt><trkpt lat="37.022719" lon="15.047341"><ele>470.0</ele><time>2026-04-12T10:04:06.592Z</time></trkpt><trkpt lat="37.0227768" lon="15.0474881"><ele>470.0</ele><time>2026-04-12T10:04:07.59Z</time></trkpt><trkpt lat="37.0228432" lon="15.0476241"><ele>470.0</ele><time>2026-04-12T10:04:08.593Z</time></trkpt><trkpt lat="37.0229283" lon="15.0477449"><ele>470.0</ele><time>2026-04-12T10:04:09.591Z</time></trkpt><trkpt lat="37.0230096" lon="15.0478624"><ele>470.0</ele><time>2026-04-12T10:04:10.593Z</time></trkpt><trkpt lat="37.0230821" lon="15.0479802"><ele>470.0</ele><time>2026-04-12T10:04:11.593Z</time></trkpt><trkpt lat="37.023149" lon="15.0480995"><ele>470.0</ele><time>2026-04-12T10:04:12.594Z</time></trkpt><trkpt lat="37.0232137" lon="15.0482226"><ele>470.0</ele><time>2026-04-12T10:04:13.595Z</time></trkpt><trkpt lat="37.0232748" lon="15.0483467"><ele>470.0</ele><time>2026-04-12T10:04:14.591Z</time></trkpt><trkpt lat="37.0233364" lon="15.0484759"><ele>470.0</ele><time>2026-04-12T10:04:15.596Z</time></trkpt><trkpt lat="37.0233888" lon="15.0486082"><ele>470.0</ele><time>2026-04-12T10:04:16.592Z</time></trkpt><trkpt lat="37.0234633" lon="15.0487385"><ele>470.0</ele><time>2026-04-12T10:04:17.593Z</time></trkpt><trkpt lat="37.023554" lon="15.0488852"><ele>470.0</ele><time>2026-04-12T10:04:18.594Z</time></trkpt><trkpt lat="37.023647" lon="15.0490191"><ele>469.25</ele><time>2026-04-12T10:04:19.593Z</time></trkpt><trkpt lat="37.0237356" lon="15.0491568"><ele>468.5</ele><time>2026-04-12T10:04:20.595Z</time></trkpt><trkpt lat="37.0238183" lon="15.0492915"><ele>467.75</ele><time>2026-04-12T10:04:21.594Z</time></trkpt><trkpt lat="37.0238953" lon="15.0494257"><ele>467.0</ele><time>2026-04-12T10:04:22.593Z</time></trkpt><trkpt lat="37.0239715" lon="15.049547"><ele>467.0</ele><time>2026-04-12T10:04:23.593Z</time></trkpt><trkpt lat="37.0240459" lon="15.0496708"><ele>467.0</ele><time>2026-04-12T10:04:24.594Z</time></trkpt><trkpt lat="37.0241162" lon="15.0497957"><ele>467.0</ele><time>2026-04-12T10:04:25.593Z</time></trkpt><trkpt lat="37.0241848" lon="15.0499006"><ele>467.0</ele><time>2026-04-12T10:04:26.597Z</time></trkpt><trkpt lat="37.0242571" lon="15.0500048"><ele>468.25</ele><time>2026-04-12T10:04:27.593Z</time></trkpt><trkpt lat="37.0243339" lon="15.0501108"><ele>469.5</ele><time>2026-04-12T10:04:28.591Z</time></trkpt><trkpt lat="37.0244128" lon="15.0502071"><ele>470.75</ele><time>2026-04-12T10:04:29.594Z</time></trkpt><trkpt lat="37.0244993" lon="15.0502954"><ele>472.0</ele><time>2026-04-12T10:04:30.592Z</time></trkpt><trkpt lat="37.0245957" lon="15.0503735"><ele>472.0</ele><time>2026-04-12T10:04:31.591Z</time></trkpt><trkpt lat="37.0246996" lon="15.0504435"><ele>472.0</ele><time>2026-04-12T10:04:32.593Z</time></trkpt><trkpt lat="37.0248095" lon="15.0504995"><ele>472.0</ele><time>2026-04-12T10:04:33.595Z</time></trkpt><trkpt lat="37.0249322" lon="15.0505442"><ele>472.0</ele><time>2026-04-12T10:04:34.594Z</time></trkpt><trkpt lat="37.0250553" lon="15.0505928"><ele>471.5</ele><time>2026-04-12T10:04:35.591Z</time></trkpt><trkpt lat="37.0251807" lon="15.0506458"><ele>471.0</ele><time>2026-04-12T10:04:36.594Z</time></trkpt><trkpt lat="37.0253091" lon="15.0507024"><ele>470.5</ele><time>2026-04-12T10:04:37.591Z</time></trkpt><trkpt lat="37.0254404" lon="15.0507579"><ele>470.0</ele><time>2026-04-12T10:04:38.595Z</time></trkpt><trkpt lat="37.0255723" lon="15.0508148"><ele>470.0</ele><time>2026-04-12T10:04:39.591Z</time></trkpt><trkpt lat="37.0256995" lon="15.050882"><ele>470.0</ele><time>2026-04-12T10:04:40.595Z</time></trkpt><trkpt lat="37.0258186" lon="15.0509598"><ele>470.0</ele><time>2026-04-12T10:04:41.594Z</time></trkpt><trkpt lat="37.025937" lon="15.0510374"><ele>470.0</ele><time>2026-04-12T10:04:42.595Z</time></trkpt><trkpt lat="37.0260493" lon="15.0511176"><ele>470.4</ele><time>2026-04-12T10:04:43.592Z</time></trkpt><trkpt lat="37.0261535" lon="15.0511937"><ele>470.8</ele><time>2026-04-12T10:04:44.59Z</time></trkpt><trkpt lat="37.026254" lon="15.051257"><ele>471.20000000000005</ele><time>2026-04-12T10:04:45.594Z</time></trkpt><trkpt lat="37.0263536" lon="15.0513147"><ele>471.6</ele><time>2026-04-12T10:04:46.596Z</time></trkpt><trkpt lat="37.0264498" lon="15.0513653"><ele>472.0</ele><time>2026-04-12T10:04:47.595Z</time></trkpt><trkpt lat="37.0265512" lon="15.0514091"><ele>474.0</ele><time>2026-04-12T10:04:48.594Z</time></trkpt><trkpt lat="37.0266524" lon="15.0514431"><ele>476.00000000000006</ele><time>2026-04-12T10:04:49.594Z</time></trkpt><trkpt lat="37.0267587" lon="15.0514761"><ele>478.00000000000006</ele><time>2026-04-12T10:04:50.595Z</time></trkpt><trkpt lat="37.0268562" lon="15.0514964"><ele>480.0</ele><time>2026-04-12T10:04:51.593Z</time></trkpt><trkpt lat="37.0269465" lon="15.0515078"><ele>482.0</ele><time>2026-04-12T10:04:52.594Z</time></trkpt><trkpt lat="37.0270403" lon="15.0515125"><ele>481.99999999999994</ele><time>2026-04-12T10:04:53.593Z</time></trkpt><trkpt lat="37.0271261" lon="15.0514924"><ele>482.0</ele><time>2026-04-12T10:04:54.594Z</time></trkpt><trkpt lat="37.0272066" lon="15.0514944"><ele>482.0</ele><time>2026-04-12T10:04:55.594Z</time></trkpt><trkpt lat="37.027284" lon="15.051518"><ele>482.0</ele><time>2026-04-12T10:04:56.591Z</time></trkpt><trkpt lat="37.0273601" lon="15.0515705"><ele>481.99999999999994</ele><time>2026-04-12T10:04:57.593Z</time></trkpt><trkpt lat="37.027432" lon="15.0516283"><ele>482.0</ele><time>2026-04-12T10:04:58.591Z</time></trkpt><trkpt lat="37.0274915" lon="15.0517049"><ele>480.99999999999994</ele><time>2026-04-12T10:04:59.593Z</time></trkpt><trkpt lat="37.0275318" lon="15.0517963"><ele>480.0</ele><time>2026-04-12T10:05:00.595Z</time></trkpt><trkpt lat="37.0275766" lon="15.0518855"><ele>479.0</ele><time>2026-04-12T10:05:01.598Z</time></trkpt><trkpt lat="37.0276314" lon="15.0519535"><ele>478.0</ele><time>2026-04-12T10:05:02.593Z</time></trkpt><trkpt lat="37.0276972" lon="15.05202"><ele>476.99999999999994</ele><time>2026-04-12T10:05:03.592Z</time></trkpt><trkpt lat="37.0277601" lon="15.0520794"><ele>476.0</ele><time>2026-04-12T10:05:04.592Z</time></trkpt><trkpt lat="37.0278239" lon="15.0521345"><ele>475.99999999999994</ele><time>2026-04-12T10:05:05.593Z</time></trkpt><trkpt lat="37.0278802" lon="15.0521799"><ele>476.0</ele><time>2026-04-12T10:05:06.593Z</time></trkpt><trkpt lat="37.0279444" lon="15.0522319"><ele>476.0</ele><time>2026-04-12T10:05:07.594Z</time></trkpt><trkpt lat="37.0280036" lon="15.0522607"><ele>476.0</ele><time>2026-04-12T10:05:08.593Z</time></trkpt><trkpt lat="37.0280853" lon="15.0522974"><ele>475.99999999999994</ele><time>2026-04-12T10:05:09.592Z</time></trkpt><trkpt lat="37.0281618" lon="15.0523372"><ele>476.0</ele><time>2026-04-12T10:05:10.594Z</time></trkpt><trkpt lat="37.028233" lon="15.0523709"><ele>476.0</ele><time>2026-04-12T10:05:11.594Z</time></trkpt><trkpt lat="37.0282983" lon="15.0523899"><ele>476.0</ele><time>2026-04-12T10:05:12.59Z</time></trkpt><trkpt lat="37.0283616" lon="15.0523826"><ele>476.0</ele><time>2026-04-12T10:05:13.593Z</time></trkpt><trkpt lat="37.0284038" lon="15.0523215"><ele>476.0</ele><time>2026-04-12T10:05:14.594Z</time></trkpt><trkpt lat="37.028428" lon="15.0522377"><ele>476.0</ele><time>2026-04-12T10:05:15.593Z</time></trkpt><trkpt lat="37.0284481" lon="15.0521408"><ele>476.0</ele><time>2026-04-12T10:05:16.593Z</time></trkpt><trkpt lat="37.0284708" lon="15.0520402"><ele>476.0</ele><time>2026-04-12T10:05:17.595Z</time></trkpt><trkpt lat="37.0284948" lon="15.0519337"><ele>475.4</ele><time>2026-04-12T10:05:18.595Z</time></trkpt><trkpt lat="37.0285077" lon="15.051825"><ele>474.8</ele><time>2026-04-12T10:05:19.593Z</time></trkpt><trkpt lat="37.0285339" lon="15.051711"><ele>474.19999999999993</ele><time>2026-04-12T10:05:20.593Z</time></trkpt><trkpt lat="37.0285704" lon="15.0516051"><ele>473.59999999999997</ele><time>2026-04-12T10:05:21.594Z</time></trkpt><trkpt lat="37.02862" lon="15.051504"><ele>473.0</ele><time>2026-04-12T10:05:22.594Z</time></trkpt><trkpt lat="37.0286864" lon="15.0513979"><ele>473.0</ele><time>2026-04-12T10:05:23.595Z</time></trkpt><trkpt lat="37.0287628" lon="15.0513012"><ele>472.99999999999994</ele><time>2026-04-12T10:05:24.594Z</time></trkpt><trkpt lat="37.0288433" lon="15.0512089"><ele>472.99999999999994</ele><time>2026-04-12T10:05:25.593Z</time></trkpt><trkpt lat="37.0289215" lon="15.0511043"><ele>473.0</ele><time>2026-04-12T10:05:26.593Z</time></trkpt><trkpt lat="37.0289938" lon="15.0510049"><ele>473.0</ele><time>2026-04-12T10:05:27.594Z</time></trkpt><trkpt lat="37.0290671" lon="15.0509041"><ele>473.0</ele><time>2026-04-12T10:05:28.589Z</time></trkpt><trkpt lat="37.0291387" lon="15.0508115"><ele>472.99999999999994</ele><time>2026-04-12T10:05:29.593Z</time></trkpt><trkpt lat="37.0292183" lon="15.0507283"><ele>472.99999999999994</ele><time>2026-04-12T10:05:30.591Z</time></trkpt><trkpt lat="37.0293056" lon="15.0506469"><ele>473.0</ele><time>2026-04-12T10:05:31.593Z</time></trkpt><trkpt lat="37.0293934" lon="15.0505667"><ele>473.0</ele><time>2026-04-12T10:05:32.594Z</time></trkpt><trkpt lat="37.0294791" lon="15.0504979"><ele>470.59999999999997</ele><time>2026-04-12T10:05:33.594Z</time></trkpt><trkpt lat="37.0295746" lon="15.0504534"><ele>468.19999999999993</ele><time>2026-04-12T10:05:34.593Z</time></trkpt><trkpt lat="37.029668" lon="15.0504158"><ele>465.8</ele><time>2026-04-12T10:05:35.586Z</time></trkpt><trkpt lat="37.0297539" lon="15.0503795"><ele>463.4</ele><time>2026-04-12T10:05:36.592Z</time></trkpt><trkpt lat="37.0298494" lon="15.0503485"><ele>461.0</ele><time>2026-04-12T10:05:37.593Z</time></trkpt><trkpt lat="37.0299179" lon="15.0503297"><ele>459.3333333333333</ele><time>2026-04-12T10:05:38.59Z</time></trkpt><trkpt lat="37.0300175" lon="15.0503676"><ele>457.66666666666663</ele><time>2026-04-12T10:05:40.598Z</time></trkpt><trkpt lat="37.0300712" lon="15.0504561"><ele>456.0</ele><time>2026-04-12T10:05:41.601Z</time></trkpt><trkpt lat="37.0301196" lon="15.0505319"><ele>454.33333333333337</ele><time>2026-04-12T10:05:42.592Z</time></trkpt><trkpt lat="37.0301904" lon="15.0505778"><ele>452.6666666666667</ele><time>2026-04-12T10:05:43.592Z</time></trkpt><trkpt lat="37.0302747" lon="15.0506144"><ele>451.0</ele><time>2026-04-12T10:05:44.594Z</time></trkpt><trkpt lat="37.0303633" lon="15.0506117"><ele>451.0</ele><time>2026-04-12T10:05:45.592Z</time></trkpt><trkpt lat="37.0304506" lon="15.0505732"><ele>451.0</ele><time>2026-04-12T10:05:46.589Z</time></trkpt><trkpt lat="37.030537" lon="15.0505022"><ele>451.0</ele><time>2026-04-12T10:05:47.59Z</time></trkpt><trkpt lat="37.0306188" lon="15.0504117"><ele>451.0</ele><time>2026-04-12T10:05:48.592Z</time></trkpt><trkpt lat="37.0307027" lon="15.0503107"><ele>451.0</ele><time>2026-04-12T10:05:49.593Z</time></trkpt><trkpt lat="37.0307878" lon="15.0502108"><ele>450.5</ele><time>2026-04-12T10:05:50.595Z</time></trkpt><trkpt lat="37.0308732" lon="15.0501033"><ele>450.0</ele><time>2026-04-12T10:05:51.592Z</time></trkpt><trkpt lat="37.030964" lon="15.0499944"><ele>449.5</ele><time>2026-04-12T10:05:52.592Z</time></trkpt><trkpt lat="37.0310518" lon="15.0498947"><ele>449.0</ele><time>2026-04-12T10:05:53.59Z</time></trkpt><trkpt lat="37.0311393" lon="15.0497926"><ele>450.0</ele><time>2026-04-12T10:05:54.591Z</time></trkpt><trkpt lat="37.0312304" lon="15.0496874"><ele>451.0</ele><time>2026-04-12T10:05:55.593Z</time></trkpt><trkpt lat="37.0313222" lon="15.0496037"><ele>452.0</ele><time>2026-04-12T10:05:56.595Z</time></trkpt><trkpt lat="37.0314227" lon="15.049543"><ele>453.0</ele><time>2026-04-12T10:05:57.592Z</time></trkpt><trkpt lat="37.0315288" lon="15.0495008"><ele>451.25</ele><time>2026-04-12T10:05:58.591Z</time></trkpt><trkpt lat="37.0316688" lon="15.0495298"><ele>449.5</ele><time>2026-04-12T10:05:59.592Z</time></trkpt><trkpt lat="37.0317937" lon="15.0495626"><ele>447.75</ele><time>2026-04-12T10:06:00.593Z</time></trkpt><trkpt lat="37.0319238" lon="15.0496129"><ele>446.0</ele><time>2026-04-12T10:06:01.591Z</time></trkpt><trkpt lat="37.032056" lon="15.049666"><ele>446.0</ele><time>2026-04-12T10:06:02.592Z</time></trkpt><trkpt lat="37.0321776" lon="15.049701"><ele>446.0</ele><time>2026-04-12T10:06:03.595Z</time></trkpt><trkpt lat="37.0322959" lon="15.0497489"><ele>446.0</ele><time>2026-04-12T10:06:04.596Z</time></trkpt><trkpt lat="37.0324242" lon="15.0498009"><ele>446.0</ele><time>2026-04-12T10:06:05.592Z</time></trkpt><trkpt lat="37.0325423" lon="15.0498453"><ele>445.5</ele><time>2026-04-12T10:06:06.595Z</time></trkpt><trkpt lat="37.0326635" lon="15.0498761"><ele>445.0</ele><time>2026-04-12T10:06:07.593Z</time></trkpt><trkpt lat="37.03279" lon="15.0498895"><ele>444.5</ele><time>2026-04-12T10:06:08.592Z</time></trkpt><trkpt lat="37.0329127" lon="15.0498802"><ele>444.0</ele><time>2026-04-12T10:06:09.595Z</time></trkpt><trkpt lat="37.0330276" lon="15.0498392"><ele>444.0</ele><time>2026-04-12T10:06:10.594Z</time></trkpt><trkpt lat="37.0331397" lon="15.0497681"><ele>444.0</ele><time>2026-04-12T10:06:11.594Z</time></trkpt><trkpt lat="37.033243" lon="15.0496759"><ele>444.0</ele><time>2026-04-12T10:06:12.594Z</time></trkpt><trkpt lat="37.033346" lon="15.0495849"><ele>444.0</ele><time>2026-04-12T10:06:13.595Z</time></trkpt><trkpt lat="37.0334492" lon="15.0495036"><ele>442.5</ele><time>2026-04-12T10:06:14.595Z</time></trkpt><trkpt lat="37.0335657" lon="15.0494683"><ele>441.0</ele><time>2026-04-12T10:06:15.592Z</time></trkpt><trkpt lat="37.0336898" lon="15.0494703"><ele>439.5</ele><time>2026-04-12T10:06:16.59Z</time></trkpt><trkpt lat="37.0337997" lon="15.0495142"><ele>438.0</ele><time>2026-04-12T10:06:17.593Z</time></trkpt><trkpt lat="37.033905" lon="15.0495817"><ele>438.0</ele><time>2026-04-12T10:06:18.593Z</time></trkpt><trkpt lat="37.0340086" lon="15.0496731"><ele>438.0</ele><time>2026-04-12T10:06:19.594Z</time></trkpt><trkpt lat="37.034115" lon="15.0497572"><ele>438.0</ele><time>2026-04-12T10:06:20.596Z</time></trkpt><trkpt lat="37.0342053" lon="15.0498488"><ele>438.0</ele><time>2026-04-12T10:06:21.594Z</time></trkpt><trkpt lat="37.0342971" lon="15.0499446"><ele>435.75</ele><time>2026-04-12T10:06:22.594Z</time></trkpt><trkpt lat="37.0343799" lon="15.0500404"><ele>433.5</ele><time>2026-04-12T10:06:23.59Z</time></trkpt><trkpt lat="37.0344457" lon="15.0501575"><ele>431.25</ele><time>2026-04-12T10:06:24.596Z</time></trkpt><trkpt lat="37.0344957" lon="15.0502811"><ele>429.0</ele><time>2026-04-12T10:06:25.594Z</time></trkpt><trkpt lat="37.0345404" lon="15.0504178"><ele>429.0</ele><time>2026-04-12T10:06:26.597Z</time></trkpt><trkpt lat="37.0345689" lon="15.0505731"><ele>429.0</ele><time>2026-04-12T10:06:27.592Z</time></trkpt><trkpt lat="37.0345863" lon="15.0507291"><ele>429.0</ele><time>2026-04-12T10:06:28.597Z</time></trkpt><trkpt lat="37.0345685" lon="15.0509041"><ele>429.0</ele><time>2026-04-12T10:06:29.596Z</time></trkpt><trkpt lat="37.0345554" lon="15.0510609"><ele>430.0</ele><time>2026-04-12T10:06:30.591Z</time></trkpt><trkpt lat="37.0345445" lon="15.0511966"><ele>431.0</ele><time>2026-04-12T10:06:31.592Z</time></trkpt><trkpt lat="37.0345327" lon="15.0513236"><ele>432.0</ele><time>2026-04-12T10:06:32.59Z</time></trkpt><trkpt lat="37.0345206" lon="15.051441"><ele>433.0</ele><time>2026-04-12T10:06:33.592Z</time></trkpt><trkpt lat="37.0345067" lon="15.0515482"><ele>434.0</ele><time>2026-04-12T10:06:34.591Z</time></trkpt><trkpt lat="37.0344992" lon="15.0516469"><ele>435.0</ele><time>2026-04-12T10:06:35.593Z</time></trkpt><trkpt lat="37.0344998" lon="15.0517429"><ele>436.0</ele><time>2026-04-12T10:06:36.592Z</time></trkpt><trkpt lat="37.0345104" lon="15.0518473"><ele>437.0</ele><time>2026-04-12T10:06:37.594Z</time></trkpt><trkpt lat="37.0345321" lon="15.0519594"><ele>438.0</ele><time>2026-04-12T10:06:38.593Z</time></trkpt><trkpt lat="37.0345538" lon="15.052102"><ele>439.0</ele><time>2026-04-12T10:06:39.593Z</time></trkpt><trkpt lat="37.0345682" lon="15.052251"><ele>439.0</ele><time>2026-04-12T10:06:40.594Z</time></trkpt><trkpt lat="37.0345533" lon="15.0524093"><ele>439.0</ele><time>2026-04-12T10:06:41.592Z</time></trkpt><trkpt lat="37.0345065" lon="15.0525808"><ele>439.0</ele><time>2026-04-12T10:06:42.592Z</time></trkpt><trkpt lat="37.0344492" lon="15.0527529"><ele>439.0</ele><time>2026-04-12T10:06:43.591Z</time></trkpt><trkpt lat="37.0343671" lon="15.0529335"><ele>438.6666666666667</ele><time>2026-04-12T10:06:44.592Z</time></trkpt><trkpt lat="37.0342856" lon="15.0531146"><ele>438.33333333333337</ele><time>2026-04-12T10:06:45.592Z</time></trkpt><trkpt lat="37.0342015" lon="15.0532971"><ele>438.0</ele><time>2026-04-12T10:06:46.592Z</time></trkpt><trkpt lat="37.0341143" lon="15.0534824"><ele>441.66666666666663</ele><time>2026-04-12T10:06:47.593Z</time></trkpt><trkpt lat="37.0340248" lon="15.0536681"><ele>445.3333333333333</ele><time>2026-04-12T10:06:48.593Z</time></trkpt><trkpt lat="37.0339389" lon="15.0538606"><ele>449.0</ele><time>2026-04-12T10:06:49.591Z</time></trkpt><trkpt lat="37.0338457" lon="15.0540541"><ele>447.3333333333333</ele><time>2026-04-12T10:06:50.594Z</time></trkpt><trkpt lat="37.0337546" lon="15.0542493"><ele>445.66666666666663</ele><time>2026-04-12T10:06:51.589Z</time></trkpt><trkpt lat="37.0336608" lon="15.0544483"><ele>444.0</ele><time>2026-04-12T10:06:52.59Z</time></trkpt><trkpt lat="37.0335688" lon="15.0546546"><ele>444.0</ele><time>2026-04-12T10:06:53.589Z</time></trkpt><trkpt lat="37.0334762" lon="15.0548595"><ele>444.0</ele><time>2026-04-12T10:06:54.594Z</time></trkpt><trkpt lat="37.0333892" lon="15.0550683"><ele>444.0</ele><time>2026-04-12T10:06:55.59Z</time></trkpt><trkpt lat="37.0333053" lon="15.0552742"><ele>442.66666666666663</ele><time>2026-04-12T10:06:56.591Z</time></trkpt><trkpt lat="37.0332147" lon="15.0554801"><ele>441.3333333333333</ele><time>2026-04-12T10:06:57.593Z</time></trkpt><trkpt lat="37.0331262" lon="15.0556843"><ele>440.0</ele><time>2026-04-12T10:06:58.594Z</time></trkpt><trkpt lat="37.0330429" lon="15.0558853"><ele>440.0</ele><time>2026-04-12T10:06:59.597Z</time></trkpt><trkpt lat="37.0329571" lon="15.0560862"><ele>440.0</ele><time>2026-04-12T10:07:00.595Z</time></trkpt><trkpt lat="37.0328756" lon="15.0562879"><ele>440.0</ele><time>2026-04-12T10:07:01.593Z</time></trkpt><trkpt lat="37.0327968" lon="15.0564913"><ele>439.0</ele><time>2026-04-12T10:07:02.592Z</time></trkpt><trkpt lat="37.0327225" lon="15.0566851"><ele>438.0</ele><time>2026-04-12T10:07:03.593Z</time></trkpt><trkpt lat="37.0326534" lon="15.0568772"><ele>437.0</ele><time>2026-04-12T10:07:04.591Z</time></trkpt><trkpt lat="37.0325872" lon="15.0570691"><ele>437.0</ele><time>2026-04-12T10:07:05.589Z</time></trkpt><trkpt lat="37.0325202" lon="15.0572489"><ele>437.0</ele><time>2026-04-12T10:07:06.591Z</time></trkpt><trkpt lat="37.0324513" lon="15.057431"><ele>437.0</ele><time>2026-04-12T10:07:07.593Z</time></trkpt><trkpt lat="37.0323872" lon="15.0576085"><ele>435.3333333333333</ele><time>2026-04-12T10:07:08.595Z</time></trkpt><trkpt lat="37.0323156" lon="15.057793"><ele>433.66666666666663</ele><time>2026-04-12T10:07:09.591Z</time></trkpt><trkpt lat="37.0322505" lon="15.0579714"><ele>432.0</ele><time>2026-04-12T10:07:10.589Z</time></trkpt><trkpt lat="37.032191" lon="15.0581466"><ele>430.75</ele><time>2026-04-12T10:07:11.592Z</time></trkpt><trkpt lat="37.0321283" lon="15.0583164"><ele>429.5</ele><time>2026-04-12T10:07:12.591Z</time></trkpt><trkpt lat="37.0320769" lon="15.0584855"><ele>428.25</ele><time>2026-04-12T10:07:13.592Z</time></trkpt><trkpt lat="37.0320151" lon="15.0586441"><ele>427.0</ele><time>2026-04-12T10:07:14.595Z</time></trkpt><trkpt lat="37.0319626" lon="15.0587968"><ele>427.0</ele><time>2026-04-12T10:07:15.596Z</time></trkpt><trkpt lat="37.0319052" lon="15.058946"><ele>427.0</ele><time>2026-04-12T10:07:16.593Z</time></trkpt><trkpt lat="37.0318537" lon="15.0590952"><ele>427.0</ele><time>2026-04-12T10:07:17.594Z</time></trkpt><trkpt lat="37.0318099" lon="15.0592353"><ele>427.0</ele><time>2026-04-12T10:07:18.594Z</time></trkpt><trkpt lat="37.0317661" lon="15.0593708"><ele>426.0</ele><time>2026-04-12T10:07:19.591Z</time></trkpt><trkpt lat="37.0317248" lon="15.0594962"><ele>425.00000000000006</ele><time>2026-04-12T10:07:20.59Z</time></trkpt><trkpt lat="37.031687" lon="15.0596095"><ele>424.0</ele><time>2026-04-12T10:07:21.594Z</time></trkpt><trkpt lat="37.0316571" lon="15.0597137"><ele>423.0</ele><time>2026-04-12T10:07:22.592Z</time></trkpt><trkpt lat="37.0316266" lon="15.0597836"><ele>422.0</ele><time>2026-04-12T10:07:23.594Z</time></trkpt><trkpt lat="37.0315858" lon="15.0598924"><ele>420.40000000000003</ele><time>2026-04-12T10:07:25.594Z</time></trkpt><trkpt lat="37.0316477" lon="15.0599737"><ele>418.8</ele><time>2026-04-12T10:07:28.596Z</time></trkpt><trkpt lat="37.0317455" lon="15.0600382"><ele>417.2</ele><time>2026-04-12T10:07:30.595Z</time></trkpt><trkpt lat="37.0318244" lon="15.0600793"><ele>415.6</ele><time>2026-04-12T10:07:32.595Z</time></trkpt><trkpt lat="37.0318514" lon="15.0601593"><ele>414.0</ele><time>2026-04-12T10:07:34.597Z</time></trkpt><trkpt lat="37.0318435" lon="15.0603038"><ele>414.0</ele><time>2026-04-12T10:07:36.595Z</time></trkpt><trkpt lat="37.031827" lon="15.0604641"><ele>414.0</ele><time>2026-04-12T10:07:38.594Z</time></trkpt><trkpt lat="37.0318156" lon="15.060549"><ele>414.0</ele><time>2026-04-12T10:07:39.593Z</time></trkpt><trkpt lat="37.0318052" lon="15.0606367"><ele>414.0</ele><time>2026-04-12T10:07:40.59Z</time></trkpt><trkpt lat="37.0317806" lon="15.0607306"><ele>414.0</ele><time>2026-04-12T10:07:41.597Z</time></trkpt><trkpt lat="37.0317615" lon="15.0608266"><ele>414.0</ele><time>2026-04-12T10:07:42.597Z</time></trkpt><trkpt lat="37.0317407" lon="15.0609218"><ele>412.8333333333333</ele><time>2026-04-12T10:07:43.594Z</time></trkpt><trkpt lat="37.0317219" lon="15.0610276"><ele>411.66666666666663</ele><time>2026-04-12T10:07:44.592Z</time></trkpt><trkpt lat="37.031698" lon="15.0611278"><ele>410.5</ele><time>2026-04-12T10:07:45.593Z</time></trkpt><trkpt lat="37.0316885" lon="15.0612186"><ele>409.3333333333333</ele><time>2026-04-12T10:07:46.594Z</time></trkpt><trkpt lat="37.031674" lon="15.0613086"><ele>408.16666666666663</ele><time>2026-04-12T10:07:47.591Z</time></trkpt><trkpt lat="37.0316425" lon="15.0614188"><ele>407.0</ele><time>2026-04-12T10:07:49.59Z</time></trkpt><trkpt lat="37.0316249" lon="15.0614992"><ele>406.99999999999994</ele><time>2026-04-12T10:07:51.592Z</time></trkpt><trkpt lat="37.0316388" lon="15.0615848"><ele>407.0</ele><time>2026-04-12T10:07:55.591Z</time></trkpt><trkpt lat="37.0317143" lon="15.0614967"><ele>407.0</ele><time>2026-04-12T10:07:59.59Z</time></trkpt><trkpt lat="37.0317528" lon="15.06143"><ele>407.0</ele><time>2026-04-12T10:08:00.591Z</time></trkpt><trkpt lat="37.0317949" lon="15.061356"><ele>406.99999999999994</ele><time>2026-04-12T10:08:01.592Z</time></trkpt><trkpt lat="37.0318413" lon="15.0612648"><ele>407.0</ele><time>2026-04-12T10:08:02.596Z</time></trkpt><trkpt lat="37.0318942" lon="15.0611697"><ele>406.99999999999994</ele><time>2026-04-12T10:08:03.595Z</time></trkpt><trkpt lat="37.0319397" lon="15.0610775"><ele>407.0</ele><time>2026-04-12T10:08:04.597Z</time></trkpt><trkpt lat="37.031994" lon="15.0609926"><ele>407.0</ele><time>2026-04-12T10:08:05.593Z</time></trkpt><trkpt lat="37.0320454" lon="15.0609052"><ele>407.0</ele><time>2026-04-12T10:08:06.591Z</time></trkpt><trkpt lat="37.0320928" lon="15.060821"><ele>406.99999999999994</ele><time>2026-04-12T10:08:07.592Z</time></trkpt><trkpt lat="37.0321378" lon="15.0607398"><ele>407.0</ele><time>2026-04-12T10:08:08.59Z</time></trkpt><trkpt lat="37.0321943" lon="15.0606758"><ele>408.16666666666663</ele><time>2026-04-12T10:08:09.593Z</time></trkpt><trkpt lat="37.0322315" lon="15.0605994"><ele>409.3333333333333</ele><time>2026-04-12T10:08:10.592Z</time></trkpt><trkpt lat="37.0322747" lon="15.0605118"><ele>410.5</ele><time>2026-04-12T10:08:11.592Z</time></trkpt><trkpt lat="37.0323553" lon="15.0603764"><ele>411.66666666666663</ele><time>2026-04-12T10:08:13.593Z</time></trkpt><trkpt lat="37.0324008" lon="15.0603123"><ele>412.8333333333333</ele><time>2026-04-12T10:08:14.592Z</time></trkpt><trkpt lat="37.032444" lon="15.0602307"><ele>414.0</ele><time>2026-04-12T10:08:15.592Z</time></trkpt><trkpt lat="37.0324983" lon="15.0601394"><ele>412.79999999999995</ele><time>2026-04-12T10:08:16.591Z</time></trkpt><trkpt lat="37.0325538" lon="15.0600448"><ele>411.59999999999997</ele><time>2026-04-12T10:08:17.59Z</time></trkpt><trkpt lat="37.0326216" lon="15.0599468"><ele>410.4</ele><time>2026-04-12T10:08:18.592Z</time></trkpt><trkpt lat="37.0326872" lon="15.0598486"><ele>409.2</ele><time>2026-04-12T10:08:19.595Z</time></trkpt><trkpt lat="37.0327541" lon="15.0597405"><ele>408.0</ele><time>2026-04-12T10:08:20.591Z</time></trkpt><trkpt lat="37.0328142" lon="15.0596338"><ele>408.0</ele><time>2026-04-12T10:08:21.594Z</time></trkpt><trkpt lat="37.0328768" lon="15.05953"><ele>408.0</ele><time>2026-04-12T10:08:22.591Z</time></trkpt><trkpt lat="37.0329364" lon="15.0594265"><ele>408.0</ele><time>2026-04-12T10:08:23.592Z</time></trkpt><trkpt lat="37.0329929" lon="15.0593254"><ele>408.0</ele><time>2026-04-12T10:08:24.595Z</time></trkpt><trkpt lat="37.0330458" lon="15.0592262"><ele>408.0</ele><time>2026-04-12T10:08:25.592Z</time></trkpt><trkpt lat="37.0331058" lon="15.0591303"><ele>407.2</ele><time>2026-04-12T10:08:26.591Z</time></trkpt><trkpt lat="37.0331656" lon="15.0590351"><ele>406.4</ele><time>2026-04-12T10:08:27.593Z</time></trkpt><trkpt lat="37.0332211" lon="15.0589379"><ele>405.59999999999997</ele><time>2026-04-12T10:08:28.591Z</time></trkpt><trkpt lat="37.0332716" lon="15.0588385"><ele>404.79999999999995</ele><time>2026-04-12T10:08:29.591Z</time></trkpt><trkpt lat="37.0333248" lon="15.0587514"><ele>404.0</ele><time>2026-04-12T10:08:30.595Z</time></trkpt><trkpt lat="37.0333816" lon="15.0586473"><ele>404.0</ele><time>2026-04-12T10:08:31.592Z</time></trkpt><trkpt lat="37.0334486" lon="15.0585631"><ele>404.0</ele><time>2026-04-12T10:08:32.592Z</time></trkpt><trkpt lat="37.0335082" lon="15.0584622"><ele>404.0</ele><time>2026-04-12T10:08:33.591Z</time></trkpt><trkpt lat="37.0335803" lon="15.0583405"><ele>404.0</ele><time>2026-04-12T10:08:34.595Z</time></trkpt><trkpt lat="37.0336479" lon="15.0582279"><ele>404.0</ele><time>2026-04-12T10:08:35.592Z</time></trkpt><trkpt lat="37.0337179" lon="15.0581174"><ele>405.79999999999995</ele><time>2026-04-12T10:08:36.593Z</time></trkpt><trkpt lat="37.0337851" lon="15.0580053"><ele>407.59999999999997</ele><time>2026-04-12T10:08:37.591Z</time></trkpt><trkpt lat="37.0338485" lon="15.0578942"><ele>409.4</ele><time>2026-04-12T10:08:38.589Z</time></trkpt><trkpt lat="37.0339214" lon="15.0577862"><ele>411.2</ele><time>2026-04-12T10:08:39.591Z</time></trkpt><trkpt lat="37.0339793" lon="15.057685"><ele>413.0</ele><time>2026-04-12T10:08:40.592Z</time></trkpt><trkpt lat="37.0340331" lon="15.0575864"><ele>412.99999999999994</ele><time>2026-04-12T10:08:41.593Z</time></trkpt><trkpt lat="37.0340808" lon="15.0575097"><ele>413.0</ele><time>2026-04-12T10:08:42.592Z</time></trkpt><trkpt lat="37.034153" lon="15.0574201"><ele>413.0</ele><time>2026-04-12T10:08:44.591Z</time></trkpt><trkpt lat="37.0342231" lon="15.0574374"><ele>413.0</ele><time>2026-04-12T10:08:46.594Z</time></trkpt><trkpt lat="37.0343011" lon="15.0574966"><ele>412.99999999999994</ele><time>2026-04-12T10:08:48.59Z</time></trkpt><trkpt lat="37.0343793" lon="15.0575542"><ele>413.0</ele><time>2026-04-12T10:08:50.592Z</time></trkpt><trkpt lat="37.0344525" lon="15.0575946"><ele>411.59999999999997</ele><time>2026-04-12T10:08:52.592Z</time></trkpt><trkpt lat="37.034531" lon="15.0576215"><ele>410.2</ele><time>2026-04-12T10:08:56.592Z</time></trkpt><trkpt lat="37.0345852" lon="15.0575718"><ele>408.8</ele><time>2026-04-12T10:08:58.593Z</time></trkpt><trkpt lat="37.0346716" lon="15.0574635"><ele>407.4</ele><time>2026-04-12T10:09:00.591Z</time></trkpt><trkpt lat="37.0347239" lon="15.0573958"><ele>406.0</ele><time>2026-04-12T10:09:01.596Z</time></trkpt><trkpt lat="37.0348029" lon="15.0572712"><ele>406.00000000000006</ele><time>2026-04-12T10:09:03.594Z</time></trkpt><trkpt lat="37.0348402" lon="15.0571963"><ele>406.0</ele><time>2026-04-12T10:09:04.594Z</time></trkpt><trkpt lat="37.034882" lon="15.0571342"><ele>406.0</ele><time>2026-04-12T10:09:05.591Z</time></trkpt><trkpt lat="37.0349189" lon="15.057068"><ele>406.0</ele><time>2026-04-12T10:09:06.593Z</time></trkpt><trkpt lat="37.0349809" lon="15.0569676"><ele>406.00000000000006</ele><time>2026-04-12T10:09:08.59Z</time></trkpt><trkpt lat="37.034909" lon="15.0568994"><ele>406.0</ele><time>2026-04-12T10:09:10.595Z</time></trkpt><trkpt lat="37.0348447" lon="15.0568659"><ele>406.0</ele><time>2026-04-12T10:09:11.593Z</time></trkpt><trkpt lat="37.0347272" lon="15.0568051"><ele>406.0</ele><time>2026-04-12T10:09:13.592Z</time></trkpt><trkpt lat="37.0346285" lon="15.0567385"><ele>406.0</ele><time>2026-04-12T10:09:15.595Z</time></trkpt><trkpt lat="37.0345301" lon="15.0567191"><ele>406.0</ele><time>2026-04-12T10:09:17.597Z</time></trkpt><trkpt lat="37.0344147" lon="15.0566821"><ele>406.0</ele><time>2026-04-12T10:09:19.596Z</time></trkpt><trkpt lat="37.034321" lon="15.0566608"><ele>406.0</ele><time>2026-04-12T10:09:21.591Z</time></trkpt><trkpt lat="37.0343134" lon="15.0565824"><ele>406.0</ele><time>2026-04-12T10:09:23.59Z</time></trkpt><trkpt lat="37.0343904" lon="15.0564412"><ele>406.0</ele><time>2026-04-12T10:09:25.603Z</time></trkpt><trkpt lat="37.0344191" lon="15.0562809"><ele>406.0</ele><time>2026-04-12T10:09:27.593Z</time></trkpt><trkpt lat="37.0344798" lon="15.0561924"><ele>407.00000000000006</ele><time>2026-04-12T10:09:29.59Z</time></trkpt><trkpt lat="37.0344294" lon="15.0563061"><ele>408.0</ele><time>2026-04-12T10:09:32.591Z</time></trkpt><trkpt lat="37.0343651" lon="15.0563922"><ele>409.0</ele><time>2026-04-12T10:09:34.591Z</time></trkpt><trkpt lat="37.0344241" lon="15.0563588"><ele>410.0</ele><time>2026-04-12T10:09:37.602Z</time></trkpt><trkpt lat="37.0344198" lon="15.0562524"><ele>411.00000000000006</ele><time>2026-04-12T10:09:38.594Z</time></trkpt><trkpt lat="37.0344741" lon="15.056172"><ele>412.0</ele><time>2026-04-12T10:09:40.592Z</time></trkpt><trkpt lat="37.0344313" lon="15.0563257"><ele>412.00000000000006</ele><time>2026-04-12T10:09:47.592Z</time></trkpt><trkpt lat="37.034387" lon="15.056413"><ele>412.0</ele><time>2026-04-12T10:09:49.592Z</time></trkpt><trkpt lat="37.0344014" lon="15.0563289"><ele>412.0</ele><time>2026-04-12T10:09:52.602Z</time></trkpt><trkpt lat="37.0344661" lon="15.056273"><ele>412.0</ele><time>2026-04-12T10:09:53.591Z</time></trkpt><trkpt lat="37.0344715" lon="15.0561821"><ele>412.00000000000006</ele><time>2026-04-12T10:09:55.596Z</time></trkpt><trkpt lat="37.0344132" lon="15.0562701"><ele>412.0</ele><time>2026-04-12T10:09:57.6Z</time></trkpt><trkpt lat="37.0344141" lon="15.0563727"><ele>412.00000000000006</ele><time>2026-04-12T10:09:58.592Z</time></trkpt><trkpt lat="37.0343625" lon="15.0564863"><ele>412.0</ele><time>2026-04-12T10:10:00.59Z</time></trkpt><trkpt lat="37.0342958" lon="15.0565754"><ele>412.0</ele><time>2026-04-12T10:10:02.593Z</time></trkpt><trkpt lat="37.0343398" lon="15.0566399"><ele>412.0</ele><time>2026-04-12T10:10:05.592Z</time></trkpt><trkpt lat="37.0344052" lon="15.0566251"><ele>412.00000000000006</ele><time>2026-04-12T10:10:07.591Z</time></trkpt><trkpt lat="37.0344829" lon="15.0566417"><ele>412.0</ele><time>2026-04-12T10:10:09.591Z</time></trkpt><trkpt lat="37.034534" lon="15.0567195"><ele>406.0</ele><time>2026-04-12T10:10:13.589Z</time></trkpt><trkpt lat="37.0345004" lon="15.0568163"><ele>406.0</ele><time>2026-04-12T10:10:16.592Z</time></trkpt><trkpt lat="37.0344793" lon="15.0569013"><ele>406.0</ele><time>2026-04-12T10:10:19.591Z</time></trkpt></trkseg></trk></gpx>